# Wetter Temperatur Luftdruck Luftfeuchtigkeit Sichtweite Windgeschwindigkeit Windrichtung Zeit
1 Clouds 18 1020 29 10000 1.54 0 13:24 22.04.2021
2 Clouds 17 1020 34 10000 2.06 0 12:55 22.04.2021
3 Clouds 17 1020 34 10000 2.06 0 12:37 22.04.2021
4 Clouds 16 1020 36 10000 2.06 0 12:18 22.04.2021
5 Clouds 15 1021 44 10000 1.03 0 11:42 22.04.2021
6 Clouds 14 1021 51 10000 1.54 0 11:19 22.04.2021
7 Clear 13 1021 54 10000 1.03 0 10:41 22.04.2021
8 Clear 11 1022 58 10000 0.51 0 10:20 22.04.2021
9 Clear 12 1022 62 10000 1.03 0 09:37 22.04.2021
10 Clear 8 1022 71 10000 0.51 0 08:55 22.04.2021
11 Clear 10 1022 71 10000 0.51 0 08:36 22.04.2021
12 Clear 7 1022 76 10000 1.03 0 08:18 22.04.2021
13 Clear 4 1021 87 10000 1.03 140 07:31 22.04.2021
14 Clear 4 1021 87 10000 1.03 140 07:31 22.04.2021
15 Clear 3 1021 93 10000 0.51 0 06:57 22.04.2021
16 Clear 2 1021 93 10000 0.34 208 06:19 22.04.2021
17 Clear 3 1021 93 10000 1.03 320 05:23 22.04.2021
18 Clear 5 1020 81 10000 1.54 150 02:28 22.04.2021
19 Clear 6 1020 81 10000 2.06 120 00:23 22.04.2021
20 Clear 10 1020 57 10000 2.57 220 23:41 21.04.2021
21 Clear 10 1020 57 10000 2.57 220 23:20 21.04.2021
22 Clear 11 1019 54 10000 2.57 290 22:40 21.04.2021
23 Clear 11 1019 54 10000 2.57 290 22:20 21.04.2021
24 Clouds 10 1019 57 10000 2.06 270 21:41 21.04.2021
25 Clouds 10 1019 53 10000 2.06 290 21:22 21.04.2021
26 Clear 10 1018 57 10000 2.57 280 20:32 21.04.2021
27 Clouds 12 1017 50 10000 2.57 270 19:51 21.04.2021
28 Clouds 11 1017 54 10000 3.09 270 19:29 21.04.2021
29 Clouds 13 1017 47 10000 3.6 260 18:57 21.04.2021
30 Clouds 13 1017 47 10000 3.6 260 18:39 21.04.2021
31 Clouds 14 1017 44 10000 3.09 270 18:19 21.04.2021
32 Clouds 14 1017 41 10000 5.66 240 17:43 21.04.2021
33 Clouds 13 1017 47 10000 6.69 260 17:22 21.04.2021
34 Clouds 14 1016 44 10000 5.66 290 16:40 21.04.2021
35 Clouds 14 1017 41 10000 3.6 300 15:52 21.04.2021
36 Clouds 14 1017 41 10000 5.66 280 15:26 21.04.2021
37 Clouds 14 1017 44 10000 3.6 280 14:45 21.04.2021
38 Clouds 13 1017 50 10000 5.14 250 14:27 21.04.2021
39 Clouds 14 1017 47 10000 5.66 290 13:50 21.04.2021
40 Clouds 13 1017 54 10000 4.12 290 13:22 21.04.2021
41 Clouds 11 1018 66 8000 7.72 290 12:47 21.04.2021
42 Clouds 12 1017 50 10000 5.14 300 12:23 21.04.2021
43 Clouds 13 1017 47 10000 3.6 300 11:46 21.04.2021
44 Clouds 12 1018 50 10000 4.63 300 11:23 21.04.2021
45 Clouds 11 1018 54 10000 3.09 310 10:39 21.04.2021
46 Clouds 9 1018 71 10000 2.06 320 09:57 21.04.2021
47 Clouds 8 1018 76 10000 2.06 300 09:26 21.04.2021
48 Clouds 7 1017 81 10000 1.03 0 08:50 21.04.2021
49 Clouds 7 1017 81 10000 1.03 0 08:24 21.04.2021
50 Clouds 7 1017 81 10000 2.06 260 07:54 21.04.2021
51 Clouds 7 1017 81 10000 1.54 340 07:28 21.04.2021
52 Clouds 3 1017 87 7000 2.57 110 06:21 21.04.2021
53 Clouds 6 1016 81 10000 1.54 320 02:28 21.04.2021
54 Clouds 6 1016 75 10000 1.54 360 00:20 21.04.2021
55 Clear 6 1015 75 10000 0.51 0 23:39 20.04.2021
56 Clouds 7 1015 70 10000 0.51 0 22:49 20.04.2021
57 Clouds 6 1015 81 10000 2.57 230 22:24 20.04.2021
58 Clouds 7 1015 76 10000 3.09 210 21:57 20.04.2021
59 Clouds 9 1014 66 10000 2.06 220 21:33 20.04.2021
60 Clouds 8 1014 71 10000 1.03 270 20:59 20.04.2021
61 Clouds 8 1014 66 10000 2.06 190 20:38 20.04.2021
62 Clouds 8 1014 66 10000 2.06 190 20:18 20.04.2021
63 Clouds 8 1013 71 10000 0.51 0 19:46 20.04.2021
64 Clear 10 1013 57 10000 1.54 280 19:28 20.04.2021
65 Clear 11 1013 54 10000 4.12 300 18:44 20.04.2021
66 Clear 12 1013 47 10000 3.6 300 18:23 20.04.2021
67 Clouds 11 1012 54 10000 5.66 280 17:41 20.04.2021
68 Clouds 12 1012 50 10000 5.66 290 16:50 20.04.2021
69 Clouds 12 1012 47 10000 3.6 300 16:28 20.04.2021
70 Clouds 12 1012 50 10000 5.14 300 15:36 20.04.2021
71 Clouds 12 1012 50 10000 5.14 300 15:18 20.04.2021
72 Clouds 12 1013 50 10000 4.63 310 14:39 20.04.2021
73 Clouds 12 1013 50 10000 4.63 310 14:20 20.04.2021
74 Clouds 12 1013 47 10000 7.72 270 13:27 20.04.2021
75 Clouds 11 1013 58 10000 6.17 260 12:51 20.04.2021
76 Clouds 10 1013 62 10000 7.2 270 12:23 20.04.2021
77 Clouds 10 1013 62 10000 6.69 280 11:46 20.04.2021
78 Clouds 10 1013 62 10000 6.69 280 11:46 20.04.2021
79 Clouds 10 1013 57 10000 7.2 280 11:25 20.04.2021
80 Clouds 9 1013 61 10000 6.69 290 10:47 20.04.2021
81 Clouds 9 1013 66 10000 6.17 280 10:24 20.04.2021
82 Clouds 8 1013 71 10000 5.14 280 09:45 20.04.2021
83 Clouds 7 1013 81 10000 5.14 270 08:57 20.04.2021
84 Clouds 6 1012 81 10000 4.63 280 08:34 20.04.2021
85 Clouds 5 1012 87 10000 4.12 280 07:52 20.04.2021
86 Clouds 5 1012 81 10000 4.63 280 07:21 20.04.2021
87 Clouds 5 1011 87 10000 4.63 270 05:41 20.04.2021
88 Clouds 5 1011 87 10000 5.14 270 04:42 20.04.2021
89 Clouds 5 1010 87 10000 4.12 280 02:47 20.04.2021
90 Clouds 4 1011 93 10000 3.09 300 00:49 20.04.2021
91 Clouds 5 1011 87 10000 3.09 290 23:47 19.04.2021
92 Clouds 5 1011 87 10000 3.09 290 23:27 19.04.2021
93 Rain 5 1011 81 10000 3.6 300 22:36 19.04.2021
94 Rain 5 1011 87 10000 3.6 290 21:54 19.04.2021
95 Rain 5 1011 87 10000 3.6 290 21:35 19.04.2021
96 Rain 5 1011 81 10000 3.09 310 20:56 19.04.2021
97 Rain 5 1011 81 10000 2.57 300 20:38 19.04.2021
98 Clouds 5 1011 81 10000 2.57 300 20:19 19.04.2021
99 Rain 5 1011 81 10000 2.57 290 19:42 19.04.2021
100 Clouds 5 1011 81 10000 2.57 290 19:24 19.04.2021
101 Clouds 6 1011 75 10000 1.54 300 18:47 19.04.2021
102 Clouds 6 1011 75 10000 1.54 350 18:22 19.04.2021
103 Clouds 6 1011 81 10000 1.03 0 17:54 19.04.2021
104 Clouds 6 1011 81 10000 3.6 30 17:29 19.04.2021
105 Clouds 7 1011 81 10000 2.57 20 16:57 19.04.2021
106 Clouds 7 1011 81 10000 2.06 20 16:38 19.04.2021
107 Clouds 6 1011 81 10000 2.06 20 16:20 19.04.2021
108 Clouds 7 1011 76 10000 1.54 70 15:33 19.04.2021
109 Clouds 7 1011 76 10000 2.57 70 14:56 19.04.2021
110 Clouds 7 1011 76 10000 2.57 70 14:36 19.04.2021
111 Clouds 7 1012 81 10000 3.09 80 13:54 19.04.2021
112 Clouds 7 1012 93 10000 3.6 90 13:31 19.04.2021
113 Clouds 6 1012 87 10000 2.06 120 12:56 19.04.2021
114 Clouds 6 1012 87 10000 2.06 120 12:38 19.04.2021
115 Clouds 6 1013 93 8000 1.03 0 12:19 19.04.2021
116 Clouds 6 1013 93 8000 1.03 0 11:51 19.04.2021
117 Clouds 6 1013 93 8000 1.03 0 11:20 19.04.2021
118 Rain 5 1013 100 5000 2.06 70 10:44 19.04.2021
119 Clouds 5 1014 100 4000 1.03 0 10:20 19.04.2021
120 Rain 5 1014 93 4000 2.36 67 09:48 19.04.2021
121 Clouds 5 1013 93 3000 1.54 340 09:26 19.04.2021
122 Clouds 5 1013 93 2100 1.03 0 08:45 19.04.2021
123 Clouds 5 1014 93 3000 0.51 0 08:22 19.04.2021
124 Clouds 5 1014 93 3500 0.51 0 07:45 19.04.2021
125 Rain 5 1014 93 5000 1.03 0 07:18 19.04.2021
126 Mist 4 1014 93 5000 1.03 270 05:41 19.04.2021
127 Mist 5 1016 93 5000 1.54 310 01:50 19.04.2021
128 Mist 5 1016 93 4000 1.54 250 00:42 19.04.2021
129 Fog 6 1016 93 700 2.06 280 23:22 18.04.2021
130 Fog 5 1016 100 450 2.06 320 22:58 18.04.2021
131 Mist 5 1016 100 3000 1.54 0 22:34 18.04.2021
132 Mist 7 1016 93 3400 2.06 200 21:57 18.04.2021
133 Mist 7 1016 93 5000 1.03 160 21:29 18.04.2021
134 Mist 7 1016 93 5000 1.54 130 20:55 18.04.2021
135 Mist 7 1016 93 5000 1.03 0 20:37 18.04.2021
136 Mist 8 1016 93 5000 1.03 0 20:18 18.04.2021
137 Mist 8 1016 87 5000 1.54 320 19:39 18.04.2021
138 Mist 8 1016 87 5000 1.54 320 19:19 18.04.2021
139 Mist 8 1015 87 5000 1.54 300 18:45 18.04.2021
140 Mist 8 1015 87 5000 2.06 260 18:25 18.04.2021
141 Mist 8 1015 87 3000 2.06 230 17:46 18.04.2021
142 Mist 8 1015 81 4000 3.6 250 17:27 18.04.2021
143 Drizzle 8 1015 87 4000 3.6 270 16:47 18.04.2021
144 Clouds 8 1014 81 6000 3.6 280 16:29 18.04.2021
145 Clouds 8 1014 81 6000 3.6 300 15:46 18.04.2021
146 Clouds 8 1014 81 6000 3.09 290 15:27 18.04.2021
147 Clouds 9 1014 81 6000 3.6 300 14:52 18.04.2021
148 Clouds 9 1013 71 7000 2.57 270 14:23 18.04.2021
149 Clouds 9 1013 76 7000 3.09 290 13:56 18.04.2021
150 Clouds 9 1013 76 8000 2.06 300 13:34 18.04.2021
151 Clouds 8 1013 81 7000 2.06 300 12:51 18.04.2021
152 Clouds 8 1013 76 7000 1.54 260 12:28 18.04.2021
153 Clouds 7 1013 76 10000 1.54 150 11:43 18.04.2021
154 Clouds 7 1013 81 10000 2.57 110 11:21 18.04.2021
155 Clouds 7 1013 81 10000 3.09 130 10:48 18.04.2021
156 Clouds 7 1013 87 10000 5.14 110 10:23 18.04.2021
157 Clouds 7 1013 81 10000 5.14 120 09:53 18.04.2021
158 Clouds 7 1013 81 10000 5.14 120 09:53 18.04.2021
159 Clouds 7 1013 81 10000 5.14 120 09:34 18.04.2021
160 Clouds 7 1013 81 10000 5.14 120 09:34 18.04.2021
161 Clouds 6 1013 81 8000 6.69 120 08:57 18.04.2021
162 Clouds 6 1013 81 8000 6.69 120 08:35 18.04.2021
163 Clouds 5 1013 87 8000 6.17 110 07:58 18.04.2021
164 Clouds 5 1013 87 8000 6.17 110 07:37 18.04.2021
165 Clouds 5 1012 87 10000 6.69 110 05:42 18.04.2021
166 Clouds 5 1012 87 10000 6.69 110 05:24 18.04.2021
167 Clouds 5 1013 100 10000 3.6 100 02:39 18.04.2021
168 Clouds 5 1013 100 10000 3.6 100 02:39 18.04.2021
169 Clouds 5 1013 100 10000 3.6 100 02:20 18.04.2021
170 Clouds 5 1014 100 10000 2.06 120 00:37 18.04.2021
171 Clouds 5 1014 87 10000 1.54 140 23:37 17.04.2021
172 Rain 5 1014 93 8000 2.06 150 22:51 17.04.2021
173 Clouds 5 1014 93 8000 2.06 170 22:30 17.04.2021
174 Clouds 5 1015 93 7000 2.06 140 21:47 17.04.2021
175 Clouds 5 1015 93 7000 2.06 120 21:28 17.04.2021
176 Clouds 5 1014 93 7000 2.06 100 20:47 17.04.2021
177 Clouds 6 1014 93 8000 2.06 80 20:25 17.04.2021
178 Rain 6 1014 93 6000 2.57 60 19:44 17.04.2021
179 Rain 6 1014 93 5000 2.57 30 19:20 17.04.2021
180 Rain 6 1014 93 5000 2.57 100 18:55 17.04.2021
181 Mist 6 1014 93 5000 3.09 120 18:26 17.04.2021
182 Mist 6 1014 93 5000 4.12 110 17:49 17.04.2021
183 Rain 6 1014 93 4400 3.09 100 17:30 17.04.2021
184 Clouds 6 1014 93 4400 4.12 120 16:42 17.04.2021
185 Rain 6 1014 87 8000 5.14 120 16:23 17.04.2021
186 Rain 7 1014 87 10000 5.66 140 15:38 17.04.2021
187 Clouds 7 1014 87 10000 6.17 130 14:44 17.04.2021
188 Clouds 7 1015 87 10000 5.66 140 14:20 17.04.2021
189 Clouds 7 1015 87 10000 6.69 130 13:44 17.04.2021
190 Clouds 6 1015 87 10000 5.66 130 12:55 17.04.2021
191 Clouds 6 1015 87 10000 5.66 130 12:34 17.04.2021
192 Clouds 6 1016 87 10000 5.66 130 11:52 17.04.2021
193 Clouds 6 1016 87 10000 5.14 120 11:33 17.04.2021
194 Clouds 6 1016 87 10000 5.14 120 11:33 17.04.2021
195 Clouds 6 1016 87 10000 3.6 110 10:56 17.04.2021
196 Clouds 5 1017 87 10000 4.12 120 10:38 17.04.2021
197 Clouds 5 1017 87 10000 4.12 110 09:51 17.04.2021
198 Clouds 6 1017 87 10000 4.63 110 08:54 17.04.2021
199 Clouds 5 1017 87 10000 4.63 100 08:33 17.04.2021
200 Clouds 5 1017 87 10000 4.63 110 07:46 17.04.2021
201 Clouds 5 1017 93 10000 4.12 100 05:43 17.04.2021
202 Rain 5 1017 81 10000 5.66 120 03:46 17.04.2021
203 Clear 6 1018 61 10000 2.06 120 00:56 17.04.2021
204 Clear 6 1018 61 10000 2.06 90 00:30 17.04.2021
205 Clear 6 1018 61 10000 2.06 80 23:59 16.04.2021
206 Clear 6 1018 61 10000 2.06 80 23:34 16.04.2021
207 Clear 7 1018 53 10000 1.56 61 22:51 16.04.2021
208 Clear 6 1018 56 10000 1.03 0 22:24 16.04.2021
209 Clear 6 1018 56 10000 1.54 150 21:57 16.04.2021
210 Clear 7 1018 53 10000 2.06 160 21:38 16.04.2021
211 Clear 7 1018 49 10000 1.54 90 20:55 16.04.2021
212 Clear 8 1017 49 10000 3.6 60 20:36 16.04.2021
213 Clouds 9 1017 43 10000 3.09 60 19:58 16.04.2021
214 Clouds 10 1017 37 10000 2.57 50 19:40 16.04.2021
215 Clouds 10 1017 32 10000 2.57 280 18:49 16.04.2021
216 Clear 10 1017 29 10000 2.57 300 18:23 16.04.2021
217 Clear 11 1017 32 10000 3.6 290 17:47 16.04.2021
218 Clear 11 1017 32 10000 3.6 290 17:47 16.04.2021
219 Clear 11 1017 29 10000 3.6 290 17:19 16.04.2021
220 Clear 11 1017 29 10000 3.6 290 17:19 16.04.2021
221 Clear 12 1017 30 10000 3.6 290 16:44 16.04.2021
222 Clear 12 1017 32 10000 4.63 300 16:26 16.04.2021
223 Clear 12 1018 32 10000 3.6 310 15:52 16.04.2021
224 Clear 12 1018 34 10000 3.6 310 15:28 16.04.2021
225 Clear 12 1018 34 10000 4.12 310 14:43 16.04.2021
226 Clear 12 1018 37 10000 4.63 310 14:20 16.04.2021
227 Clear 12 1018 37 10000 4.63 310 13:54 16.04.2021
228 Clear 11 1019 39 10000 4.63 290 13:21 16.04.2021
229 Clear 11 1019 39 10000 5.14 300 12:51 16.04.2021
230 Clear 8 1019 34 10000 6.17 310 12:29 16.04.2021
231 Clear 7 1020 39 10000 4.63 290 11:58 16.04.2021
232 Clear 7 1020 42 10000 5.14 290 11:27 16.04.2021
233 Clear 7 1020 45 10000 5.66 290 10:59 16.04.2021
234 Clear 7 1020 45 10000 5.66 290 10:39 16.04.2021
235 Clear 6 1020 45 10000 5.66 300 10:19 16.04.2021
236 Clear 5 1020 56 10000 2.57 310 09:43 16.04.2021
237 Clear 5 1020 56 10000 2.57 310 09:20 16.04.2021
238 Clear 3 1020 70 10000 1.54 320 08:41 16.04.2021
239 Clear 2 1020 69 10000 2.06 290 08:18 16.04.2021
240 Clear 1 1020 75 10000 1.54 250 07:37 16.04.2021
241 Clear 2 1020 80 10000 1.54 150 06:59 16.04.2021
242 Clear 1 1020 86 10000 0.51 0 06:18 16.04.2021
243 Clear 0 1020 80 10000 1.61 293 04:22 16.04.2021
244 Clear 1 1020 86 10000 3.09 310 01:37 16.04.2021
245 Clear 2 1020 64 10000 2.57 280 00:41 16.04.2021
246 Clear 2 1020 64 10000 2.57 280 00:20 16.04.2021
247 Clear 1 1020 75 10000 2.57 280 23:41 15.04.2021
248 Clear 2 1020 64 10000 3.6 280 23:23 15.04.2021
249 Clear 2 1019 69 10000 2.57 280 22:40 15.04.2021
250 Clear 2 1019 69 10000 2.57 280 22:22 15.04.2021
251 Clear 3 1019 60 10000 3.09 280 21:42 15.04.2021
252 Clear 3 1019 60 10000 3.09 280 21:22 15.04.2021
253 Clear 3 1019 60 10000 3.6 270 20:45 15.04.2021
254 Clear 4 1019 56 10000 4.12 280 20:24 15.04.2021
255 Clouds 4 1019 56 10000 6.69 280 19:46 15.04.2021
256 Clouds 4 1018 56 10000 6.17 280 19:27 15.04.2021
257 Clouds 6 1018 52 10000 5.66 290 18:44 15.04.2021
258 Clouds 6 1018 52 10000 7.2 280 18:21 15.04.2021
259 Clouds 7 1018 49 10000 6.69 290 17:55 15.04.2021
260 Clouds 7 1018 49 10000 6.69 290 17:36 15.04.2021
261 Clouds 8 1018 49 10000 7.2 290 16:59 15.04.2021
262 Clouds 8 1018 49 10000 7.2 290 16:40 15.04.2021
263 Clouds 8 1017 46 10000 7.72 290 16:22 15.04.2021
264 Clouds 8 1018 49 10000 7.2 300 15:45 15.04.2021
265 Clouds 8 1018 53 10000 7.2 290 15:25 15.04.2021
266 Clouds 8 1018 49 10000 7.72 290 14:41 15.04.2021
267 Clouds 8 1018 53 10000 6.69 290 14:23 15.04.2021
268 Clouds 8 1018 53 10000 6.69 290 14:23 15.04.2021
269 Clouds 8 1018 53 10000 6.17 300 13:42 15.04.2021
270 Clouds 8 1018 52 10000 6.69 280 13:19 15.04.2021
271 Clouds 7 1018 60 10000 6.17 280 12:41 15.04.2021
272 Clouds 6 1019 65 10000 5.66 290 12:21 15.04.2021
273 Clouds 6 1019 65 10000 6.17 280 11:46 15.04.2021
274 Clouds 6 1019 65 10000 5.66 290 11:23 15.04.2021
275 Clouds 6 1019 65 10000 6.69 280 10:55 15.04.2021
276 Clouds 6 1019 60 10000 6.69 270 10:28 15.04.2021
277 Clouds 6 1019 65 10000 5.14 270 09:49 15.04.2021
278 Clouds 5 1019 70 10000 4.63 290 09:25 15.04.2021
279 Clouds 5 1019 70 10000 4.63 280 08:49 15.04.2021
280 Clouds 4 1019 70 10000 3.6 290 08:21 15.04.2021
281 Clouds 3 1018 75 10000 3.09 280 07:24 15.04.2021
282 Clouds 3 1018 75 10000 5.66 290 06:49 15.04.2021
283 Clouds 3 1018 75 10000 5.14 290 06:30 15.04.2021
284 Clouds 3 1018 70 10000 4.63 290 04:52 15.04.2021
285 Clouds 3 1018 70 10000 5.14 280 01:58 15.04.2021
286 Clouds 3 1018 70 10000 5.14 270 23:43 14.04.2021
287 Clouds 3 1018 70 10000 5.14 270 23:43 14.04.2021
288 Clouds 4 1018 65 10000 5.14 290 23:25 14.04.2021
289 Clouds 4 1018 70 10000 4.63 290 22:47 14.04.2021
290 Clouds 4 1018 70 10000 5.14 280 22:25 14.04.2021
291 Clouds 4 1018 70 10000 5.66 280 21:49 14.04.2021
292 Clouds 5 1017 65 10000 4.63 280 21:31 14.04.2021
293 Clouds 5 1017 65 10000 5.66 280 20:56 14.04.2021
294 Clouds 5 1017 65 10000 5.66 280 20:34 14.04.2021
295 Clouds 5 1017 65 10000 6.69 280 20:34 14.04.2021
296 Clouds 5 1016 60 10000 6.69 290 19:54 14.04.2021
297 Clouds 5 1016 65 10000 6.17 290 19:21 14.04.2021
298 Clouds 6 1015 61 10000 8.23 290 18:57 14.04.2021
299 Clouds 6 1015 61 10000 7.72 290 18:22 14.04.2021
300 Clouds 6 1015 61 10000 7.72 290 18:22 14.04.2021
301 Clouds 7 1015 61 10000 8.23 290 17:59 14.04.2021
302 Clouds 8 1015 61 10000 8.23 280 17:28 14.04.2021
303 Clouds 9 1015 57 10000 7.72 280 16:54 14.04.2021
304 Clouds 9 1014 57 10000 7.72 280 16:28 14.04.2021
305 Clouds 9 1014 57 10000 8.23 280 15:47 14.04.2021
306 Clouds 10 1014 61 10000 8.23 270 15:27 14.04.2021
307 Clouds 10 1014 61 10000 6.69 300 14:56 14.04.2021
308 Clouds 9 1014 61 10000 7.2 280 14:37 14.04.2021
309 Clouds 9 1014 61 10000 7.2 280 14:18 14.04.2021
310 Clouds 9 1015 65 10000 7.2 280 13:44 14.04.2021
311 Clouds 9 1014 65 10000 7.2 290 12:40 14.04.2021
312 Clouds 8 1014 65 10000 7.2 290 12:18 14.04.2021
313 Clouds 8 1015 70 10000 8.23 280 11:39 14.04.2021
314 Clouds 8 1015 70 10000 8.23 280 11:19 14.04.2021
315 Clouds 7 1015 75 10000 8.75 280 10:33 14.04.2021
316 Clouds 6 1015 81 10000 7.72 280 09:43 14.04.2021
317 Clouds 6 1014 81 10000 7.2 280 09:23 14.04.2021
318 Clouds 6 1014 87 10000 7.2 290 08:48 14.04.2021
319 Clouds 6 1013 87 10000 5.66 290 08:23 14.04.2021
320 Clouds 7 1013 93 10000 2.57 290 07:27 14.04.2021
321 Clouds 7 1013 87 10000 2.07 302 06:27 14.04.2021
322 Clouds 7 1013 87 10000 2.57 290 05:23 14.04.2021
323 Clouds 9 1013 87 10000 2.57 250 01:54 14.04.2021
324 Clouds 8 1014 93 10000 3.09 270 00:49 14.04.2021
325 Clouds 9 1014 93 10000 2.57 170 00:25 14.04.2021
326 Clouds 9 1014 93 10000 4.63 70 23:31 13.04.2021
327 Clouds 9 1014 93 7000 2.57 90 22:44 13.04.2021
328 Clouds 10 1014 87 10000 3.6 130 22:20 13.04.2021
329 Clouds 9 1014 93 7000 2.57 230 21:48 13.04.2021
330 Clouds 9 1014 100 10000 0.31 222 21:29 13.04.2021
331 Rain 10 1014 87 7000 2.57 120 20:48 13.04.2021
332 Rain 10 1014 93 7000 2.06 220 20:24 13.04.2021
333 Rain 10 1014 87 10000 0.51 120 19:56 13.04.2021
334 Clouds 10 1014 87 8000 1.54 360 19:25 13.04.2021
335 Clouds 10 1014 93 9000 1.54 310 18:46 13.04.2021
336 Clouds 11 1014 82 10000 4.12 320 18:28 13.04.2021
337 Rain 11 1014 82 8000 3.09 110 17:40 13.04.2021
338 Clouds 12 1014 87 8000 2.57 120 17:18 13.04.2021
339 Clouds 12 1014 82 10000 1.03 0 16:45 13.04.2021
340 Clouds 12 1014 87 10000 4.63 120 16:25 13.04.2021
341 Clouds 12 1014 87 10000 5.66 110 15:53 13.04.2021
342 Clouds 12 1014 87 8000 7.72 100 15:34 13.04.2021
343 Rain 12 1015 82 8000 5.66 110 14:50 13.04.2021
344 Rain 12 1016 76 8000 3.09 100 14:22 13.04.2021
345 Clouds 12 1016 82 6000 1.54 130 13:45 13.04.2021
346 Clouds 11 1016 87 5000 1.03 0 13:26 13.04.2021
347 Clouds 13 1016 76 5000 1.03 0 12:58 13.04.2021
348 Clouds 14 1016 62 10000 1.03 0 12:31 13.04.2021
349 Clouds 14 1016 62 10000 0.51 0 11:59 13.04.2021
350 Clouds 13 1017 71 10000 1.03 0 11:31 13.04.2021
351 Clouds 13 1017 71 10000 1.03 0 11:31 13.04.2021
352 Rain 12 1017 82 10000 1.54 50 10:55 13.04.2021
353 Clouds 11 1017 87 10000 3.09 100 10:24 13.04.2021
354 Clouds 11 1017 82 10000 2.57 130 09:59 13.04.2021
355 Rain 11 1017 82 10000 2.57 130 09:39 13.04.2021
356 Rain 10 1018 87 8000 1.54 120 08:57 13.04.2021
357 Rain 10 1018 87 8000 1.54 120 08:38 13.04.2021
358 Rain 10 1018 87 10000 2.06 140 08:20 13.04.2021
359 Clouds 9 1018 87 7000 2.06 310 07:36 13.04.2021
360 Clouds 9 1018 87 6000 2.57 350 06:31 13.04.2021
361 Clouds 10 1018 66 10000 1.54 330 04:49 13.04.2021
362 Clear 11 1018 54 10000 4.12 120 02:25 13.04.2021
363 Clear 11 1018 58 10000 5.66 100 00:26 13.04.2021
364 Clear 11 1018 62 10000 5.66 100 23:48 12.04.2021
365 Clear 12 1018 58 10000 6.17 110 23:25 12.04.2021
366 Clear 12 1018 58 10000 5.14 100 22:39 12.04.2021
367 Clear 12 1018 62 10000 4.12 110 21:58 12.04.2021
368 Clear 12 1018 62 10000 4.12 110 21:38 12.04.2021
369 Clear 12 1018 62 10000 3.6 110 21:19 12.04.2021
370 Clear 13 1017 58 10000 2.06 130 20:38 12.04.2021
371 Clear 13 1017 58 10000 2.06 130 20:20 12.04.2021
372 Clear 16 1017 44 10000 2.06 120 19:43 12.04.2021
373 Clear 16 1017 48 10000 3.09 110 19:23 12.04.2021
374 Clear 17 1017 48 10000 3.6 100 18:59 12.04.2021
375 Clear 17 1017 48 10000 3.6 100 18:40 12.04.2021
376 Clear 19 1017 39 10000 4.12 100 18:22 12.04.2021
377 Clear 20 1017 34 10000 3.6 100 17:43 12.04.2021
378 Clear 20 1017 34 10000 3.6 100 17:43 12.04.2021
379 Clear 21 1017 30 10000 2.06 80 17:22 12.04.2021
380 Clear 21 1017 30 10000 3.09 100 16:46 12.04.2021
381 Clear 21 1017 30 10000 3.09 100 16:46 12.04.2021
382 Clear 22 1018 26 10000 2.06 0 16:27 12.04.2021
383 Clear 21 1018 28 10000 1.54 0 15:48 12.04.2021
384 Clear 20 1018 28 10000 3.09 260 15:25 12.04.2021
385 Clear 20 1019 32 10000 3.09 280 14:50 12.04.2021
386 Clear 19 1019 37 10000 3.6 270 14:29 12.04.2021
387 Clear 20 1020 34 10000 3.6 290 13:46 12.04.2021
388 Clear 19 1020 36 10000 2.06 300 13:26 12.04.2021
389 Clear 18 1021 39 10000 1.54 240 12:45 12.04.2021
390 Clear 15 1021 41 10000 1.54 200 12:24 12.04.2021
391 Clear 15 1021 41 10000 1.54 200 12:24 12.04.2021
392 Clear 14 1021 41 10000 1.03 0 11:56 12.04.2021
393 Clear 13 1022 44 10000 1.54 0 11:18 12.04.2021
394 Clear 12 1022 43 10000 1.03 0 10:41 12.04.2021
395 Clear 11 1022 50 10000 1.03 0 10:22 12.04.2021
396 Clear 10 1023 50 10000 1.03 0 09:40 12.04.2021
397 Clear 9 1023 53 10000 0.51 0 09:18 12.04.2021
398 Clear 10 1023 57 10000 0.18 212 08:35 12.04.2021
399 Clear 8 1023 61 10000 1.03 10 07:32 12.04.2021
400 Clouds 7 1023 65 10000 0.36 152 06:57 12.04.2021
401 Clouds 7 1023 65 10000 0.51 0 05:51 12.04.2021
402 Clouds 7 1023 56 10000 1.54 150 03:59 12.04.2021
403 Clear 7 1024 57 10000 6.17 100 00:52 12.04.2021
404 Clear 8 1023 57 10000 6.69 100 00:24 12.04.2021
405 Clear 8 1023 57 10000 6.69 100 00:24 12.04.2021
406 Clear 8 1023 57 10000 6.17 100 23:46 11.04.2021
407 Clear 8 1023 57 10000 5.14 120 23:23 11.04.2021
408 Clear 8 1023 57 10000 5.14 100 22:45 11.04.2021
409 Clear 9 1023 61 10000 3.09 130 22:22 11.04.2021
410 Clear 8 1023 57 10000 4.63 110 21:46 11.04.2021
411 Clear 10 1023 53 10000 5.66 100 21:27 11.04.2021
412 Clear 10 1023 50 10000 4.63 110 20:52 11.04.2021
413 Clear 11 1022 50 10000 5.14 90 20:28 11.04.2021
414 Clear 10 1022 53 10000 4.12 100 19:54 11.04.2021
415 Clear 10 1022 53 10000 4.12 100 19:36 11.04.2021
416 Clear 12 1021 43 10000 3.6 140 19:18 11.04.2021
417 Clear 12 1021 43 10000 3.6 140 19:18 11.04.2021
418 Clear 15 1021 33 10000 3.09 120 18:42 11.04.2021
419 Clear 16 1021 27 10000 3.09 110 18:23 11.04.2021
420 Clear 17 1021 25 10000 2.57 90 17:45 11.04.2021
421 Clear 18 1021 20 10000 1.03 0 17:26 11.04.2021
422 Clear 18 1021 20 10000 1.54 0 16:47 11.04.2021
423 Clear 18 1021 20 10000 2.57 110 16:23 11.04.2021
424 Clear 18 1021 23 10000 1.54 110 15:51 11.04.2021
425 Clear 17 1022 22 10000 2.06 0 15:27 11.04.2021
426 Clear 17 1022 23 10000 1.03 0 14:54 11.04.2021
427 Clear 16 1022 23 10000 2.06 140 14:31 11.04.2021
428 Clear 17 1023 29 10000 1.54 0 13:51 11.04.2021
429 Clear 16 1023 29 10000 2.57 150 13:31 11.04.2021
430 Clear 16 1023 28 10000 1.03 0 12:49 11.04.2021
431 Clear 13 1023 35 10000 1.03 0 12:21 11.04.2021
432 Clear 12 1024 40 10000 1.03 0 11:50 11.04.2021
433 Clear 11 1024 40 10000 1.03 0 11:23 11.04.2021
434 Clear 10 1024 43 10000 1.03 0 10:48 11.04.2021
435 Clear 9 1024 43 10000 1.03 0 10:30 11.04.2021
436 Clear 7 1025 53 10000 1.03 0 09:56 11.04.2021
437 Clear 7 1025 53 10000 1.03 0 09:33 11.04.2021
438 Clear 5 1024 60 10000 0.59 89 08:51 11.04.2021
439 Clear 4 1024 65 10000 0.76 113 08:24 11.04.2021
440 Clear 3 1024 75 10000 1.03 0 07:22 11.04.2021
441 Clear 4 1024 80 10000 1.54 340 06:50 11.04.2021
442 Clear 2 1023 86 10000 1.03 0 05:41 11.04.2021
443 Clear 2 1023 69 10000 1.54 90 05:19 11.04.2021
444 Clear 3 1023 64 10000 2.06 100 04:34 11.04.2021
445 Clear 3 1023 65 10000 3.09 160 01:45 11.04.2021
446 Clear 4 1024 65 10000 2.57 130 00:33 11.04.2021
447 Clear 4 1023 65 10000 3.09 130 23:47 10.04.2021
448 Clear 5 1023 60 10000 3.09 120 23:24 10.04.2021
449 Clear 5 1023 56 10000 2.57 100 22:43 10.04.2021
450 Clear 6 1023 56 10000 2.57 140 22:20 10.04.2021
451 Clear 6 1023 56 10000 2.57 140 22:20 10.04.2021
452 Clear 7 1023 61 10000 3.09 100 21:40 10.04.2021
453 Clear 8 1022 57 10000 5.14 100 21:20 10.04.2021
454 Clear 9 1022 53 10000 4.12 110 20:42 10.04.2021
455 Clear 10 1022 40 10000 3.09 70 20:23 10.04.2021
456 Clear 10 1021 34 10000 2.06 100 19:44 10.04.2021
457 Clear 11 1021 30 10000 0.51 0 19:25 10.04.2021
458 Clear 13 1021 26 10000 1.54 190 18:44 10.04.2021
459 Clear 14 1021 24 10000 1.03 0 18:25 10.04.2021
460 Clear 15 1021 18 10000 0.45 320 17:37 10.04.2021
461 Clear 15 1021 13 10000 1.03 0 16:57 10.04.2021
462 Clear 15 1021 19 10000 2.06 0 16:26 10.04.2021
463 Clear 15 1022 18 10000 1.03 0 15:53 10.04.2021
464 Clear 15 1022 24 10000 2.57 0 14:58 10.04.2021
465 Clear 14 1022 24 10000 2.57 0 14:38 10.04.2021
466 Clear 14 1023 28 10000 2.57 0 13:59 10.04.2021
467 Clear 14 1023 28 10000 2.57 0 13:40 10.04.2021
468 Clear 12 1024 28 10000 2.06 30 12:49 10.04.2021
469 Clear 10 1025 34 10000 1.54 0 12:26 10.04.2021
470 Clear 10 1025 34 10000 1.03 0 11:47 10.04.2021
471 Clear 9 1025 40 10000 1.54 50 11:24 10.04.2021
472 Clear 8 1026 42 10000 0.78 286 10:52 10.04.2021
473 Clear 6 1026 49 10000 1.54 110 10:31 10.04.2021
474 Clear 5 1026 48 10000 1.03 0 09:45 10.04.2021
475 Clear 5 1026 48 10000 1.03 0 09:45 10.04.2021
476 Clear 4 1026 56 10000 1.03 0 09:19 10.04.2021
477 Clear 4 1026 56 10000 1.03 0 09:19 10.04.2021
478 Clear 2 1026 64 10000 0.51 0 08:38 10.04.2021
479 Clear 1 1026 69 10000 0.43 153 08:18 10.04.2021
480 Clear 1 1026 74 10000 0.51 0 07:27 10.04.2021
481 Clear 1 1026 80 10000 0.44 154 06:46 10.04.2021
482 Clear 0 1026 86 10000 0.51 0 05:36 10.04.2021
483 Clear 0 1026 80 10000 0.79 146 03:46 10.04.2021
484 Clear 1 1026 60 10000 1.03 0 02:49 10.04.2021
485 Clear 1 1026 69 10000 2.06 160 02:18 10.04.2021
486 Clear 0 1027 64 10000 2.57 150 00:40 10.04.2021
487 Clear 1 1027 55 10000 2.06 80 23:59 09.04.2021
488 Clear 1 1027 60 10000 1.03 0 23:36 09.04.2021
489 Clear 1 1027 55 10000 2.06 120 22:57 09.04.2021
490 Clear 2 1027 52 10000 2.06 120 22:37 09.04.2021
491 Clear 4 1026 52 10000 2.06 120 21:41 09.04.2021
492 Clear 4 1026 45 10000 2.57 100 21:22 09.04.2021
493 Clear 5 1026 42 10000 4.12 100 20:57 09.04.2021
494 Clear 4 1026 42 10000 4.12 100 20:39 09.04.2021
495 Clear 4 1026 52 10000 2.06 180 20:20 09.04.2021
496 Clear 6 1026 36 10000 2.06 140 19:43 09.04.2021
497 Clear 7 1026 34 10000 1.54 130 19:22 09.04.2021
498 Clear 9 1026 27 10000 1.54 140 18:44 09.04.2021
499 Clouds 10 1026 25 10000 2.57 250 18:25 09.04.2021
500 Clouds 10 1026 25 10000 1.03 0 17:49 09.04.2021
501 Clouds 10 1026 25 10000 2.57 0 17:30 09.04.2021
502 Clouds 11 1026 25 10000 2.06 0 16:48 09.04.2021
503 Clouds 10 1026 25 10000 2.57 140 16:29 09.04.2021
504 Clouds 10 1026 23 10000 1.54 0 15:47 09.04.2021
505 Clouds 10 1027 25 10000 2.57 200 15:24 09.04.2021
506 Clouds 10 1027 31 10000 3.6 180 14:46 09.04.2021
507 Clouds 10 1027 34 10000 1.54 0 14:28 09.04.2021
508 Clouds 8 1028 31 10000 2.06 290 13:45 09.04.2021
509 Clouds 9 1028 34 10000 1.54 0 13:22 09.04.2021
510 Clouds 7 1028 36 10000 2.06 220 12:47 09.04.2021
511 Clouds 7 1028 36 10000 2.06 220 12:47 09.04.2021
512 Clouds 7 1028 36 10000 2.06 220 12:47 09.04.2021
513 Clouds 6 1028 39 10000 3.09 250 12:24 09.04.2021
514 Clouds 6 1029 42 10000 3.6 280 11:43 09.04.2021
515 Clouds 6 1029 39 10000 2.57 0 11:20 09.04.2021
516 Clouds 5 1029 42 10000 3.09 260 10:37 09.04.2021
517 Clouds 4 1028 52 10000 3.09 280 09:58 09.04.2021
518 Clear 4 1028 56 10000 3.6 300 09:27 09.04.2021
519 Clouds 2 1028 64 10000 2.06 300 08:56 09.04.2021
520 Clouds 2 1030 64 10000 2.06 300 08:33 09.04.2021
521 Clouds 1 1028 74 10000 0.51 0 07:32 09.04.2021
522 Clear -3 1027 74 10000 1.54 10 06:30 09.04.2021
523 Clear -3 1027 74 10000 1.54 10 06:30 09.04.2021
524 Clear -1 1026 74 10000 2.57 330 05:36 09.04.2021
525 Clear -1 1026 74 10000 3.09 330 03:42 09.04.2021
526 Clouds 1 1026 55 10000 2.57 290 00:39 09.04.2021
527 Clouds 2 1026 55 10000 1.47 266 00:21 09.04.2021
528 Clouds 2 1026 55 10000 1.47 266 00:21 09.04.2021
529 Clouds 2 1026 55 10000 2.06 310 23:38 08.04.2021
530 Clear 1 1025 55 10000 3.6 270 22:56 08.04.2021
531 Clouds 1 1025 55 10000 4.12 280 22:27 08.04.2021
532 Clouds 2 1025 51 10000 3.6 280 21:59 08.04.2021
533 Clouds 2 1025 51 10000 3.6 280 21:40 08.04.2021
534 Clear 2 1024 51 10000 3.09 280 21:22 08.04.2021
535 Clear 3 1024 48 10000 3.6 280 20:58 08.04.2021
536 Clear 3 1024 48 10000 3.6 280 20:39 08.04.2021
537 Clouds 3 1023 45 10000 5.14 280 19:59 08.04.2021
538 Clouds 4 1023 36 10000 4.12 300 19:27 08.04.2021
539 Clouds 5 1022 38 10000 2.57 310 18:58 08.04.2021
540 Clouds 5 1022 38 10000 2.57 310 18:38 08.04.2021
541 Clouds 5 1022 45 10000 6.17 300 18:19 08.04.2021
542 Clouds 5 1021 48 10000 6.17 280 17:40 08.04.2021
543 Clouds 5 1021 48 10000 6.17 280 17:18 08.04.2021
544 Clouds 6 1021 48 10000 5.66 270 16:43 08.04.2021
545 Clouds 6 1021 48 10000 6.69 280 16:22 08.04.2021
546 Clouds 5 1021 38 10000 5.14 280 15:43 08.04.2021
547 Clouds 6 1020 28 10000 4.63 320 15:23 08.04.2021
548 Clouds 6 1020 24 10000 4.63 300 14:42 08.04.2021
549 Clouds 7 1020 29 10000 4.12 330 14:20 08.04.2021
550 Clouds 7 1020 45 10000 3.6 330 13:46 08.04.2021
551 Clouds 6 1020 38 10000 4.12 330 13:23 08.04.2021
552 Clouds 7 1020 39 10000 3.6 10 12:53 08.04.2021
553 Clouds 7 1020 39 10000 3.6 10 12:32 08.04.2021
554 Clouds 6 1020 52 10000 5.14 290 11:56 08.04.2021
555 Clouds 6 1020 48 10000 3.6 270 11:21 08.04.2021
556 Clouds 3 1020 60 10000 5.14 270 10:49 08.04.2021
557 Clouds 3 1020 65 10000 5.14 280 10:25 08.04.2021
558 Clear 4 1020 69 10000 5.14 280 09:43 08.04.2021
559 Clear 3 1019 75 10000 6.17 270 08:54 08.04.2021
560 Clear 3 1019 75 10000 6.17 270 08:36 08.04.2021
561 Clear 2 1019 69 10000 5.14 280 08:18 08.04.2021
562 Clear 1 1018 74 10000 5.14 270 07:42 08.04.2021
563 Clear 0 1016 80 10000 4.63 270 04:56 08.04.2021
564 Snow 0 1015 74 10000 5.66 270 01:25 08.04.2021
565 Snow 1 1015 69 10000 4.63 280 00:30 08.04.2021
566 Snow 1 1015 64 10000 4.63 280 23:45 07.04.2021
567 Snow 1 1015 69 10000 4.12 280 23:22 07.04.2021
568 Snow 1 1014 75 10000 4.12 260 22:55 07.04.2021
569 Snow 1 1014 75 10000 4.12 260 22:35 07.04.2021
570 Snow 1 1014 75 10000 4.12 270 21:53 07.04.2021
571 Snow 1 1014 75 10000 4.12 270 21:32 07.04.2021
572 Snow 1 1013 75 8000 6.69 270 20:49 07.04.2021
573 Snow 1 1013 80 10000 5.14 260 20:27 07.04.2021
574 Snow 1 1012 93 8000 5.14 260 19:46 07.04.2021
575 Snow 1 1012 86 1500 6.69 280 19:28 07.04.2021
576 Snow 1 1011 75 5000 8.75 270 18:53 07.04.2021
577 Clouds 3 1010 69 7000 10.29 270 18:21 07.04.2021
578 Clouds 3 1010 60 10000 9.77 270 17:57 07.04.2021
579 Clouds 3 1010 60 10000 9.77 270 17:39 07.04.2021
580 Clouds 4 1009 56 10000 7.2 280 16:58 07.04.2021
581 Clouds 4 1009 56 10000 7.2 280 16:39 07.04.2021
582 Clouds 5 1008 56 10000 7.2 280 16:20 07.04.2021
583 Clouds 5 1009 60 10000 6.69 270 15:40 07.04.2021
584 Clouds 5 1009 60 10000 6.69 270 15:40 07.04.2021
585 Clouds 4 1009 65 10000 5.66 280 14:58 07.04.2021
586 Clouds 4 1009 65 10000 5.66 280 14:32 07.04.2021
587 Clouds 3 1009 80 10000 5.66 270 13:53 07.04.2021
588 Snow 1 1008 86 3000 5.14 270 13:28 07.04.2021
589 Snow 2 1008 93 1200 6.17 270 12:57 07.04.2021
590 Snow 1 1008 93 1200 6.17 270 12:25 07.04.2021
591 Snow 0 1008 86 1400 5.66 270 11:59 07.04.2021
592 Snow 1 1007 80 1700 5.14 280 11:29 07.04.2021
593 Snow 1 1007 80 1700 5.14 280 11:29 07.04.2021
594 Snow 1 1007 86 1000 3.6 270 10:59 07.04.2021
595 Snow 0 1007 93 1300 5.14 270 10:30 07.04.2021
596 Snow 0 1006 93 800 6.69 280 09:46 07.04.2021
597 Snow 1 1006 93 800 5.66 280 09:27 07.04.2021
598 Snow 1 1005 93 2000 7.2 280 08:47 07.04.2021
599 Rain 1 1005 86 2500 7.2 270 08:22 07.04.2021
600 Rain 1 1004 93 1000 7.72 260 07:44 07.04.2021
601 Snow 2 1004 86 2500 6.69 280 07:25 07.04.2021
602 Clouds 2 1003 80 10000 7.72 270 06:33 07.04.2021
603 Clouds 3 1001 75 10000 4.12 300 04:23 07.04.2021
604 Clear 5 1001 65 10000 4.63 260 00:31 07.04.2021
605 Clouds 5 1001 70 10000 7.2 260 23:47 06.04.2021
606 Clouds 6 1001 61 10000 6.17 270 23:22 06.04.2021
607 Clouds 7 1001 65 10000 5.66 270 22:48 06.04.2021
608 Clouds 8 1001 66 10000 4.12 280 22:19 06.04.2021
609 Clouds 9 1001 71 10000 3.09 290 21:42 06.04.2021
610 Clouds 10 1001 62 10000 4.12 330 21:22 06.04.2021
611 Clouds 10 1000 66 10000 3.09 100 20:54 06.04.2021
612 Clouds 11 1000 62 10000 2.57 60 20:25 06.04.2021
613 Clouds 11 999 62 10000 4.63 60 19:58 06.04.2021
614 Clouds 11 999 62 10000 4.63 60 19:58 06.04.2021
615 Clouds 11 999 62 10000 4.63 60 19:35 06.04.2021
616 Clouds 12 998 66 10000 6.17 100 18:57 06.04.2021
617 Clouds 12 998 66 10000 6.17 100 18:57 06.04.2021
618 Clouds 12 998 66 10000 6.17 100 18:57 06.04.2021
619 Clouds 12 998 66 10000 6.17 100 18:39 06.04.2021
620 Clouds 13 998 62 10000 7.2 110 18:19 06.04.2021
621 Clouds 15 998 54 10000 5.66 120 17:41 06.04.2021
622 Clouds 16 998 41 10000 5.14 110 17:18 06.04.2021
623 Clouds 16 998 47 10000 4.63 110 16:43 06.04.2021
624 Clouds 17 999 44 10000 4.63 110 15:59 06.04.2021
625 Clouds 17 1000 39 10000 1.54 0 15:25 06.04.2021
626 Clouds 16 1000 44 10000 2.06 0 14:43 06.04.2021
627 Clouds 15 1001 44 10000 2.06 320 14:24 06.04.2021
628 Clouds 15 1001 47 10000 2.57 0 13:46 06.04.2021
629 Clouds 14 1002 58 10000 2.57 0 13:25 06.04.2021
630 Clouds 14 1003 58 10000 2.06 70 12:45 06.04.2021
631 Clear 14 1003 62 10000 2.57 80 12:27 06.04.2021
632 Clear 14 1003 62 10000 2.57 80 12:27 06.04.2021
633 Clear 14 1004 58 10000 3.09 80 11:55 06.04.2021
634 Clear 13 1004 58 10000 3.09 80 11:36 06.04.2021
635 Clear 10 1004 57 10000 2.57 120 11:18 06.04.2021
636 Clear 9 1005 66 10000 2.06 130 10:39 06.04.2021
637 Clear 8 1005 66 10000 2.06 110 10:21 06.04.2021
638 Clear 7 1005 70 10000 2.57 100 09:43 06.04.2021
639 Clear 5 1006 75 10000 2.06 70 08:57 06.04.2021
640 Clouds 4 1006 75 8000 1.03 0 08:19 06.04.2021
641 Clear 3 1006 87 10000 0.33 96 07:22 06.04.2021
642 Clear 3 1007 86 10000 0.51 0 06:47 06.04.2021
643 Clear 1 1007 93 8000 0.57 156 03:54 06.04.2021
644 Clear 3 1009 81 10000 2.57 80 00:49 06.04.2021
645 Clear 3 1010 81 10000 1.54 100 00:22 06.04.2021
646 Clear 3 1010 81 10000 2.57 100 23:50 05.04.2021
647 Clear 3 1010 81 10000 3.09 90 23:28 05.04.2021
648 Clear 4 1010 75 10000 4.12 90 22:54 05.04.2021
649 Clear 4 1010 75 10000 4.12 90 22:35 05.04.2021
650 Clear 4 1010 81 10000 3.6 110 21:48 05.04.2021
651 Clear 4 1010 70 10000 3.09 100 21:27 05.04.2021
652 Clear 4 1010 81 10000 3.6 90 20:49 05.04.2021
653 Clear 5 1010 65 10000 3.6 100 20:30 05.04.2021
654 Clear 7 1010 61 10000 2.57 30 19:45 05.04.2021
655 Clear 7 1010 57 10000 2.57 60 19:26 05.04.2021
656 Clear 9 1010 57 10000 3.09 90 18:58 05.04.2021
657 Clear 9 1010 57 10000 3.09 90 18:39 05.04.2021
658 Clear 10 1010 50 10000 2.57 80 18:19 05.04.2021
659 Clear 10 1011 46 10000 1.03 0 17:46 05.04.2021
660 Clear 11 1011 50 10000 2.06 90 17:21 05.04.2021
661 Clear 11 1012 50 10000 2.06 0 16:45 05.04.2021
662 Clear 10 1012 50 10000 2.06 50 16:22 05.04.2021
663 Clouds 10 1012 50 10000 2.06 290 15:56 05.04.2021
664 Clouds 10 1013 53 10000 2.06 320 15:32 05.04.2021
665 Clouds 10 1013 53 10000 2.06 70 14:58 05.04.2021
666 Clouds 10 1014 53 10000 2.06 0 14:35 05.04.2021
667 Clouds 9 1014 53 10000 1.54 0 13:41 05.04.2021
668 Clouds 9 1015 53 10000 2.57 230 13:22 05.04.2021
669 Clouds 7 1015 57 10000 2.57 10 12:45 05.04.2021
670 Clouds 8 1016 61 10000 2.06 0 12:23 05.04.2021
671 Clouds 6 1016 56 10000 2.06 280 11:46 05.04.2021
672 Clouds 5 1016 65 10000 2.06 0 11:27 05.04.2021
673 Clouds 7 1016 70 10000 4.12 280 10:46 05.04.2021
674 Clouds 5 1016 70 10000 3.6 280 10:28 05.04.2021
675 Clouds 6 1016 70 10000 3.6 290 09:48 05.04.2021
676 Clouds 3 1016 75 10000 4.12 290 09:25 05.04.2021
677 Clouds 3 1015 81 10000 4.12 280 08:45 05.04.2021
678 Clouds 2 1015 80 10000 4.12 280 08:26 05.04.2021
679 Clouds 3 1015 80 10000 4.12 270 07:38 05.04.2021
680 Clouds 1 1015 86 10000 4.12 270 06:40 05.04.2021
681 Rain 2 1014 93 10000 5.14 270 02:32 05.04.2021
682 Rain 2 1014 93 10000 3.6 270 00:50 05.04.2021
683 Snow 2 1014 93 8000 3.6 270 23:52 04.04.2021
684 Clouds 2 1014 93 10000 4.63 270 23:28 04.04.2021
685 Clouds 2 1014 93 10000 4.63 260 22:52 04.04.2021
686 Clouds 2 1014 100 10000 3.6 260 22:30 04.04.2021
687 Snow 2 1014 100 3600 3.6 260 21:29 04.04.2021
688 Clouds 2 1014 93 4000 3.6 280 20:58 04.04.2021
689 Clouds 3 1013 93 8000 4.12 280 20:30 04.04.2021
690 Clouds 2 1013 93 8000 4.12 280 20:30 04.04.2021
691 Clouds 2 1013 93 7000 4.12 280 19:58 04.04.2021
692 Clouds 2 1013 93 7000 4.12 280 19:37 04.04.2021
693 Clouds 3 1013 93 7000 4.12 280 19:18 04.04.2021
694 Clouds 3 1013 93 7000 3.6 280 18:44 04.04.2021
695 Clouds 3 1013 93 8000 3.6 270 18:24 04.04.2021
696 Clouds 3 1013 93 7000 3.6 270 17:44 04.04.2021
697 Clouds 3 1013 93 7000 4.63 280 17:23 04.04.2021
698 Clouds 3 1013 93 8000 3.6 280 16:44 04.04.2021
699 Clouds 4 1013 93 6000 3.6 280 16:20 04.04.2021
700 Mist 4 1013 87 5000 4.63 270 15:36 04.04.2021
701 Clouds 5 1013 87 7000 4.12 280 14:46 04.04.2021
702 Clouds 4 1014 93 7000 5.14 270 14:27 04.04.2021
703 Clouds 4 1014 93 7000 5.14 290 13:50 04.04.2021
704 Clouds 4 1014 87 8000 5.14 290 13:24 04.04.2021
705 Clouds 4 1014 87 6000 5.66 290 12:43 04.04.2021
706 Clouds 5 1014 81 7000 5.14 260 12:24 04.04.2021
707 Clouds 5 1014 81 10000 5.66 260 11:42 04.04.2021
708 Clouds 5 1014 81 10000 6.17 260 11:23 04.04.2021
709 Clouds 5 1014 81 10000 5.14 280 10:45 04.04.2021
710 Clouds 4 1015 87 10000 5.66 270 09:55 04.04.2021
711 Clouds 4 1015 87 10000 6.17 270 09:26 04.04.2021
712 Clouds 4 1014 87 10000 6.17 270 08:53 04.04.2021
713 Clouds 5 1014 87 10000 6.17 270 08:35 04.04.2021
714 Clouds 4 1014 87 10000 5.66 270 07:55 04.04.2021
715 Clouds 3 1014 93 10000 4.63 270 06:38 04.04.2021
716 Clouds 3 1014 93 10000 5.14 270 05:33 04.04.2021
717 Clouds 5 1014 87 10000 5.14 280 01:30 04.04.2021
718 Clouds 5 1013 87 8000 5.14 280 00:22 04.04.2021
719 Clouds 6 1013 81 10000 5.14 280 23:50 03.04.2021
720 Clouds 6 1013 81 10000 6.17 280 23:31 03.04.2021
721 Clouds 6 1013 87 10000 5.14 280 22:52 03.04.2021
722 Clouds 6 1013 87 10000 6.17 280 22:22 03.04.2021
723 Clouds 6 1013 87 10000 6.17 280 21:54 03.04.2021
724 Clouds 7 1012 87 10000 6.69 280 21:25 03.04.2021
725 Clouds 7 1012 87 10000 6.69 280 20:54 03.04.2021
726 Clouds 7 1012 87 8000 6.69 270 20:28 03.04.2021
727 Clouds 8 1011 87 8000 6.69 270 19:51 03.04.2021
728 Clouds 8 1011 87 6000 6.69 270 19:29 03.04.2021
729 Clouds 9 1010 81 8000 6.69 270 18:53 03.04.2021
730 Clouds 9 1012 81 8000 6.69 270 18:34 03.04.2021
731 Clouds 9 1012 81 8000 6.69 270 18:34 03.04.2021
732 Clouds 10 1010 93 6000 2.57 230 17:55 03.04.2021
733 Clouds 11 1009 87 2500 7.72 290 17:26 03.04.2021
734 Clouds 12 1009 82 8000 4.12 280 16:54 03.04.2021
735 Clouds 12 1009 87 6000 1.54 200 16:25 03.04.2021
736 Clouds 12 1009 87 7000 2.06 230 15:52 03.04.2021
737 Clouds 12 1009 87 7000 2.06 230 15:31 03.04.2021
738 Clouds 12 1009 82 8000 1.03 0 14:49 03.04.2021
739 Clouds 11 1009 87 10000 2.06 0 14:25 03.04.2021
740 Clouds 11 1010 76 7000 5.66 300 13:54 03.04.2021
741 Clouds 11 1010 76 7000 5.66 300 13:34 03.04.2021
742 Clouds 16 1009 59 10000 2.06 50 12:58 03.04.2021
743 Clouds 16 1009 59 10000 2.06 50 12:33 03.04.2021
744 Clouds 15 1010 67 10000 1.54 0 11:41 03.04.2021
745 Clouds 13 1011 71 10000 1.54 0 11:20 03.04.2021
746 Clouds 12 1011 82 10000 1.03 0 10:45 03.04.2021
747 Clouds 11 1011 82 10000 1.54 0 10:26 03.04.2021
748 Clouds 10 1011 87 10000 1.03 0 09:36 03.04.2021
749 Clouds 9 1011 93 7000 1.58 270 09:18 03.04.2021
750 Mist 7 1012 100 4000 1.03 0 08:35 03.04.2021
751 Fog 5 1012 100 300 1.54 180 07:31 03.04.2021
752 Fog 5 1011 100 250 1.03 0 06:56 03.04.2021
753 Clouds 8 1012 100 8000 1.26 271 03:54 03.04.2021
754 Clouds 9 1012 93 10000 2.06 50 02:55 03.04.2021
755 Clouds 9 1013 93 10000 1.54 320 02:28 03.04.2021
756 Clouds 10 1014 87 7000 2.57 310 00:32 03.04.2021
757 Clouds 10 1014 87 8000 5.14 290 23:59 02.04.2021
758 Clouds 11 1014 82 10000 2.57 310 23:30 02.04.2021
759 Clouds 12 1013 76 10000 3.09 310 22:56 02.04.2021
760 Clouds 12 1013 76 10000 3.09 310 22:38 02.04.2021
761 Clouds 13 1013 62 10000 4.12 340 21:59 02.04.2021
762 Clouds 13 1013 62 10000 4.12 340 21:40 02.04.2021
763 Clouds 14 1013 58 10000 2.57 330 21:18 02.04.2021
764 Clouds 14 1012 58 10000 2.57 360 20:38 02.04.2021
765 Clear 15 1012 51 10000 2.06 300 20:20 02.04.2021
766 Clear 15 1012 55 10000 2.57 310 19:41 02.04.2021
767 Clear 15 1011 55 10000 4.12 310 19:22 02.04.2021
768 Clear 16 1011 51 10000 4.63 300 18:46 02.04.2021
769 Clouds 16 1011 51 10000 3.6 300 18:28 02.04.2021
770 Clouds 17 1011 48 10000 5.66 280 17:54 02.04.2021
771 Clouds 17 1011 48 10000 6.69 290 17:24 02.04.2021
772 Clouds 17 1011 48 10000 8.75 280 16:24 02.04.2021
773 Clouds 17 1012 51 10000 8.75 260 15:43 02.04.2021
774 Clouds 17 1012 51 10000 7.2 270 15:19 02.04.2021
775 Clouds 16 1013 55 10000 4.63 290 14:33 02.04.2021
776 Clouds 13 1013 71 10000 8.23 250 13:50 02.04.2021
777 Clouds 14 1013 58 10000 9.77 280 13:27 02.04.2021
778 Clouds 18 1013 42 10000 9.77 290 12:53 02.04.2021
779 Clouds 16 1013 44 10000 2.57 0 12:20 02.04.2021
780 Clear 14 1013 44 10000 1.54 180 11:58 02.04.2021
781 Clear 13 1013 44 10000 1.54 200 11:21 02.04.2021
782 Clear 12 1014 43 10000 1.03 0 10:51 02.04.2021
783 Clear 10 1014 50 10000 1.03 0 10:33 02.04.2021
784 Clear 8 1014 53 10000 1.03 0 09:57 02.04.2021
785 Clear 7 1014 61 10000 1.03 0 09:37 02.04.2021
786 Clear 7 1014 61 10000 1.03 0 09:18 02.04.2021
787 Clear 3 1014 75 10000 1.03 0 08:37 02.04.2021
788 Clear 1 1014 80 10000 1.03 0 07:52 02.04.2021
789 Clear 0 1014 86 10000 1.03 90 07:18 02.04.2021
790 Clouds 1 1014 75 10000 1.02 241 06:22 02.04.2021
791 Clear 2 1015 69 10000 1.54 130 02:59 02.04.2021
792 Clear 5 1016 56 10000 1.54 160 00:54 02.04.2021
793 Clear 5 1016 56 10000 1.54 160 00:54 02.04.2021
794 Clear 5 1016 56 10000 1.54 160 00:33 02.04.2021
795 Clear 5 1016 56 10000 1.54 140 23:41 01.04.2021
796 Clear 6 1016 52 10000 2.06 120 23:21 01.04.2021
797 Clear 6 1016 56 10000 2.57 80 22:22 01.04.2021
798 Clear 6 1016 56 10000 2.57 80 22:22 01.04.2021
799 Clear 7 1016 49 10000 2.57 180 21:52 01.04.2021
800 Clear 9 1016 43 10000 1.54 180 21:29 01.04.2021
801 Clear 9 1016 43 10000 2.06 170 21:00 01.04.2021
802 Clear 9 1016 46 10000 2.06 140 20:33 01.04.2021
803 Clear 11 1016 37 10000 1.54 90 19:57 01.04.2021
804 Clear 13 1016 30 10000 3.09 90 19:39 01.04.2021
805 Clear 14 1016 33 10000 3.09 110 18:49 01.04.2021
806 Clear 15 1016 29 10000 2.06 120 18:19 01.04.2021
807 Clear 16 1016 23 10000 2.06 100 17:57 01.04.2021
808 Clear 16 1016 23 10000 2.57 70 17:38 01.04.2021
809 Clear 16 1016 23 10000 2.57 70 17:19 01.04.2021
810 Clear 16 1016 21 10000 2.57 70 16:41 01.04.2021
811 Clear 16 1017 21 10000 3.09 70 15:49 01.04.2021
812 Clear 16 1017 23 10000 2.57 100 15:21 01.04.2021
813 Clear 16 1017 21 10000 3.6 0 14:48 01.04.2021
814 Clear 15 1018 21 10000 2.06 20 14:28 01.04.2021
815 Clear 15 1018 23 10000 2.06 0 13:58 01.04.2021
816 Clear 16 1018 25 10000 2.57 10 13:31 01.04.2021
817 Clear 14 1019 33 10000 3.09 30 12:56 01.04.2021
818 Clear 14 1019 30 10000 3.09 0 12:34 01.04.2021
819 Clear 14 1019 38 10000 4.63 70 11:58 01.04.2021
820 Clear 13 1020 44 10000 2.06 0 11:40 01.04.2021
821 Clear 13 1020 44 10000 2.06 0 11:18 01.04.2021
822 Clouds 12 1020 50 10000 1.54 240 10:45 01.04.2021
823 Clouds 11 1020 54 10000 1.54 30 10:24 01.04.2021
824 Clouds 11 1020 50 10000 2.57 20 09:32 01.04.2021
825 Clouds 9 1020 53 10000 2.06 330 08:54 01.04.2021
826 Clouds 8 1020 61 10000 0.51 0 08:28 01.04.2021
827 Clouds 6 1019 70 10000 1.54 60 07:21 01.04.2021
828 Clouds 6 1019 70 10000 0.62 71 06:56 01.04.2021
829 Clouds 6 1019 65 10000 1.54 20 05:33 01.04.2021
830 Clouds 7 1020 65 10000 0.51 0 03:20 01.04.2021
831 Clouds 8 1022 61 10000 1.03 270 23:55 31.03.2021
832 Clouds 8 1022 53 10000 1.54 290 23:37 31.03.2021
833 Clouds 9 1022 49 10000 1.54 300 22:44 31.03.2021
834 Clouds 8 1022 53 10000 0.81 46 22:23 31.03.2021
835 Clear 9 1022 46 10000 0.51 0 21:54 31.03.2021
836 Clear 9 1022 46 10000 1.54 110 21:36 31.03.2021
837 Clear 9 1022 46 10000 1.54 110 21:18 31.03.2021
838 Clear 9 1022 46 10000 0.51 0 20:40 31.03.2021
839 Clear 9 1022 46 10000 0.51 0 20:20 31.03.2021
840 Clear 9 1022 46 10000 3.6 50 19:42 31.03.2021
841 Clear 10 1022 43 10000 3.6 50 19:20 31.03.2021
842 Clear 11 1022 40 10000 4.12 50 18:54 31.03.2021
843 Clear 12 1022 37 10000 4.12 30 18:35 31.03.2021
844 Clear 12 1022 35 10000 3.6 30 17:41 31.03.2021
845 Clear 13 1023 33 10000 4.12 40 17:19 31.03.2021
846 Clear 13 1023 33 10000 4.12 20 16:53 31.03.2021
847 Clear 13 1023 33 10000 3.6 30 16:34 31.03.2021
848 Clear 13 1023 35 10000 4.63 30 15:53 31.03.2021
849 Clear 13 1024 33 10000 2.57 0 15:22 31.03.2021
850 Clear 13 1024 35 10000 3.6 0 14:50 31.03.2021
851 Clear 12 1025 37 10000 5.66 20 14:25 31.03.2021
852 Clouds 12 1025 37 10000 5.14 30 13:55 31.03.2021
853 Clouds 12 1026 40 10000 3.09 40 13:23 31.03.2021
854 Clouds 10 1026 50 10000 2.06 60 12:40 31.03.2021
855 Clouds 10 1026 50 10000 2.06 60 12:18 31.03.2021
856 Clouds 9 1027 49 10000 1.03 0 11:23 31.03.2021
857 Clouds 8 1027 53 10000 1.03 0 10:50 31.03.2021
858 Clouds 6 1027 65 10000 1.03 0 10:28 31.03.2021
859 Clouds 6 1027 61 10000 1.54 140 09:56 31.03.2021
860 Clouds 5 1027 65 10000 0.51 0 09:31 31.03.2021
861 Clear 4 1027 70 10000 1.03 0 08:46 31.03.2021
862 Clouds 2 1027 75 10000 1.54 0 08:26 31.03.2021
863 Clouds 0 1027 80 10000 1.54 190 07:37 31.03.2021
864 Clouds -1 1027 86 10000 0.51 150 05:21 31.03.2021
865 Clouds 2 1028 75 10000 1.54 150 02:37 31.03.2021
866 Clouds 2 1028 69 10000 2.06 70 00:54 31.03.2021
867 Clear 3 1028 70 10000 2.06 90 00:25 31.03.2021
868 Clear 2 1028 69 10000 3.09 140 23:57 30.03.2021
869 Clear 4 1028 65 10000 1.39 44 23:25 30.03.2021
870 Clear 4 1028 65 10000 2.57 30 22:50 30.03.2021
871 Clear 5 1028 56 10000 0.51 0 22:30 30.03.2021
872 Clear 6 1028 56 10000 3.09 50 21:57 30.03.2021
873 Clear 7 1028 49 10000 3.6 60 21:29 30.03.2021
874 Clear 7 1027 53 10000 3.09 70 20:59 30.03.2021
875 Clouds 9 1027 46 10000 5.14 50 20:38 30.03.2021
876 Clouds 9 1027 46 10000 5.14 50 20:19 30.03.2021
877 Clear 9 1027 46 10000 4.12 70 19:41 30.03.2021
878 Clear 11 1027 37 10000 5.14 60 18:57 30.03.2021
879 Clear 12 1027 35 10000 5.14 60 18:27 30.03.2021
880 Clouds 12 1026 35 10000 5.66 60 17:47 30.03.2021
881 Clouds 13 1026 33 10000 4.63 70 17:29 30.03.2021
882 Clouds 13 1026 33 10000 5.14 60 16:47 30.03.2021
883 Clouds 13 1027 33 10000 4.12 70 16:27 30.03.2021
884 Clouds 13 1027 33 10000 6.17 90 15:38 30.03.2021
885 Clouds 13 1027 33 10000 6.17 90 15:19 30.03.2021
886 Clouds 14 1027 33 10000 5.14 80 14:45 30.03.2021
887 Clouds 13 1028 33 10000 1.54 0 14:20 30.03.2021
888 Clouds 13 1028 35 10000 2.06 160 13:49 30.03.2021
889 Clouds 13 1029 30 10000 3.6 110 13:24 30.03.2021
890 Clouds 12 1029 35 10000 2.06 0 12:41 30.03.2021
891 Clouds 12 1029 35 10000 2.06 0 12:41 30.03.2021
892 Clouds 12 1029 35 10000 3.6 60 12:21 30.03.2021
893 Clouds 12 1029 40 10000 1.03 0 11:43 30.03.2021
894 Clouds 11 1030 40 10000 1.54 0 11:19 30.03.2021
895 Clear 10 1030 46 10000 1.54 0 10:41 30.03.2021
896 Clear 10 1030 46 10000 1.54 0 10:19 30.03.2021
897 Clear 8 1030 57 10000 2.06 300 09:41 30.03.2021
898 Clear 8 1030 57 10000 2.06 300 09:41 30.03.2021
899 Clear 7 1030 61 10000 1.54 260 09:21 30.03.2021
900 Clear 5 1030 70 10000 1.54 110 08:42 30.03.2021
901 Clear 1 1029 86 10000 1.54 110 07:56 30.03.2021
902 Clear 1 1029 86 10000 1.54 110 07:31 30.03.2021
903 Clear 0 1029 86 10000 2.06 70 06:29 30.03.2021
904 Clear 3 1029 70 10000 2.57 290 05:25 30.03.2021
905 Clouds 8 1030 57 10000 2.06 230 01:47 30.03.2021
906 Clouds 7 1030 57 10000 3.09 190 23:54 29.03.2021
907 Clear 8 1030 53 10000 0.51 0 23:21 29.03.2021
908 Clouds 8 1030 53 10000 2.06 160 22:43 29.03.2021
909 Clouds 9 1030 46 10000 1.03 0 21:55 29.03.2021
910 Clouds 9 1030 46 10000 0.57 319 21:34 29.03.2021
911 Clouds 10 1029 43 10000 1.03 0 20:51 29.03.2021
912 Clear 10 1029 40 10000 1.54 40 20:30 29.03.2021
913 Clear 10 1029 40 10000 1.54 30 19:55 29.03.2021
914 Clear 11 1029 35 10000 2.57 20 19:27 29.03.2021
915 Clouds 12 1028 32 10000 3.6 10 18:54 29.03.2021
916 Clouds 12 1028 32 10000 4.63 20 18:30 29.03.2021
917 Clouds 13 1028 30 10000 4.12 340 17:58 29.03.2021
918 Clouds 13 1028 30 10000 4.12 340 17:35 29.03.2021
919 Clouds 13 1028 33 10000 4.12 310 16:53 29.03.2021
920 Clouds 13 1028 33 10000 5.14 300 16:27 29.03.2021
921 Clouds 14 1028 33 10000 3.09 320 15:41 29.03.2021
922 Clouds 14 1028 33 10000 3.6 300 15:22 29.03.2021
923 Clouds 13 1029 38 10000 2.57 320 14:48 29.03.2021
924 Clouds 13 1030 38 10000 3.09 260 13:58 29.03.2021
925 Clouds 12 1030 37 10000 2.57 0 13:37 29.03.2021
926 Clouds 12 1030 37 10000 2.57 0 13:18 29.03.2021
927 Clouds 12 1031 40 10000 3.6 260 12:48 29.03.2021
928 Clouds 11 1031 40 10000 2.06 0 11:48 29.03.2021
929 Clear 10 1031 40 10000 2.06 0 11:28 29.03.2021
930 Clear 10 1031 40 10000 3.09 280 10:46 29.03.2021
931 Clear 9 1031 46 10000 2.57 280 10:23 29.03.2021
932 Clear 8 1031 61 10000 1.54 280 09:33 29.03.2021
933 Clear 7 1031 61 10000 1.03 0 08:43 29.03.2021
934 Clouds 5 1031 75 10000 1.54 350 08:25 29.03.2021
935 Clouds 3 1031 87 10000 1.54 70 07:20 29.03.2021
936 Clouds 4 1031 75 10000 1.54 150 06:25 29.03.2021
937 Clouds 5 1031 70 10000 2.06 340 02:34 29.03.2021
938 Clear 8 1031 57 10000 3.6 280 00:30 29.03.2021
939 Clear 8 1031 57 10000 4.12 280 23:59 28.03.2021
940 Clear 8 1031 57 10000 3.6 280 23:25 28.03.2021
941 Clear 8 1030 57 10000 4.12 280 22:48 28.03.2021
942 Clear 8 1030 57 10000 4.12 280 22:48 28.03.2021
943 Clear 8 1030 61 10000 3.6 280 22:29 28.03.2021
944 Clear 9 1030 57 10000 3.09 280 21:47 28.03.2021
945 Clear 9 1030 57 10000 4.63 280 21:25 28.03.2021
946 Clouds 9 1030 61 10000 4.63 280 20:56 28.03.2021
947 Clouds 10 1030 57 10000 6.17 280 20:38 28.03.2021
948 Clouds 10 1030 57 10000 6.17 280 20:18 28.03.2021
949 Clouds 10 1030 62 10000 6.17 280 19:41 28.03.2021
950 Clouds 11 1030 58 10000 6.17 280 19:21 28.03.2021
951 Clouds 11 1030 58 10000 6.69 280 18:49 28.03.2021
952 Clouds 11 1029 58 10000 8.23 290 18:22 28.03.2021
953 Clouds 11 1029 58 10000 8.75 280 17:41 28.03.2021
954 Clouds 11 1029 62 10000 8.75 280 17:18 28.03.2021
955 Clouds 12 1029 58 10000 8.75 290 16:40 28.03.2021
956 Clouds 12 1029 58 10000 8.75 290 16:21 28.03.2021
957 Clouds 13 1029 54 10000 9.77 270 15:25 28.03.2021
958 Clouds 13 1029 58 10000 10.8 270 14:49 28.03.2021
959 Clouds 14 1029 54 10000 8.75 280 14:25 28.03.2021
960 Clouds 13 1029 62 10000 7.2 280 13:36 28.03.2021
961 Clouds 14 1029 51 10000 6.17 280 12:58 28.03.2021
962 Clouds 14 1029 47 10000 6.69 280 12:35 28.03.2021
963 Clouds 13 1029 47 10000 6.17 290 11:59 28.03.2021
964 Clouds 13 1029 47 10000 6.17 290 11:37 28.03.2021
965 Clear 10 1030 53 10000 3.09 260 10:54 28.03.2021
966 Clear 8 1030 57 10000 1.54 250 10:31 28.03.2021
967 Clouds 6 1030 65 10000 1.03 0 09:53 28.03.2021
968 Clear 5 1029 70 10000 1.03 0 09:28 28.03.2021
969 Clouds 3 1029 75 10000 1.03 0 08:52 28.03.2021
970 Clear 1 1029 86 10000 1.54 100 08:34 28.03.2021
971 Clouds 0 1029 86 8000 1.03 120 07:42 28.03.2021
972 Clouds -1 1028 93 8000 1.03 100 06:21 28.03.2021
973 Clouds 0 1027 86 9000 1.03 0 03:50 28.03.2021
974 Clear 1 1027 80 10000 1.03 110 00:45 28.03.2021
975 Clear 3 1027 75 10000 2.06 150 23:53 27.03.2021
976 Clear 3 1027 75 10000 2.06 150 23:35 27.03.2021
977 Clear 4 1026 65 10000 1.54 140 22:42 27.03.2021
978 Clear 4 1026 65 10000 1.54 140 22:22 27.03.2021
979 Clear 5 1026 65 10000 3.6 180 21:45 27.03.2021
980 Clear 5 1026 65 10000 3.09 170 21:21 27.03.2021
981 Clear 6 1026 61 10000 2.57 150 20:58 27.03.2021
982 Clear 6 1026 65 10000 1.54 80 20:37 27.03.2021
983 Clear 8 1025 53 10000 2.57 0 19:56 27.03.2021
984 Clear 9 1025 49 10000 2.57 180 19:37 27.03.2021
985 Clear 9 1025 49 10000 2.57 180 19:18 27.03.2021
986 Clear 11 1025 46 10000 2.57 150 18:41 27.03.2021
987 Clear 10 1025 50 10000 2.06 110 18:20 27.03.2021
988 Clear 14 1024 35 10000 2.57 330 17:29 27.03.2021
989 Clear 15 1024 31 10000 3.09 350 16:57 27.03.2021
990 Clear 15 1024 31 10000 2.57 310 16:38 27.03.2021
991 Clear 15 1024 31 10000 2.57 310 16:19 27.03.2021
992 Clear 15 1024 31 10000 1.54 0 15:38 27.03.2021
993 Clear 14 1025 33 10000 2.57 280 14:55 27.03.2021
994 Clear 14 1025 30 10000 1.03 0 14:24 27.03.2021
995 Clear 13 1025 38 10000 1.54 0 13:37 27.03.2021
996 Clear 13 1026 38 10000 1.54 0 13:19 27.03.2021
997 Clear 11 1026 43 10000 1.54 0 12:39 27.03.2021
998 Clear 10 1026 46 10000 1.54 0 11:48 27.03.2021
999 Clear 9 1027 49 10000 1.03 0 11:30 27.03.2021
1000 Clear 8 1027 53 10000 1.54 150 10:48 27.03.2021
1001 Clear 7 1027 53 10000 1.03 0 10:30 27.03.2021
1002 Clear 6 1027 56 10000 1.03 0 09:44 27.03.2021
1003 Clear 4 1027 60 10000 1.03 0 09:18 27.03.2021
1004 Clear 4 1027 60 10000 1.03 0 09:18 27.03.2021
1005 Clear 3 1027 70 10000 1.03 0 08:38 27.03.2021
1006 Clear 1 1027 75 9000 1.11 267 07:48 27.03.2021
1007 Clear -1 1027 80 8000 0.86 254 06:59 27.03.2021
1008 Clear -1 1027 80 8000 0.86 254 06:39 27.03.2021
1009 Clear -3 1026 93 8000 1.03 210 04:41 27.03.2021
1010 Clear -1 1026 86 8000 1.03 0 01:36 27.03.2021
1011 Clear 0 1026 80 8000 2.06 130 00:32 27.03.2021
1012 Clear 0 1026 80 7000 2.57 150 23:59 26.03.2021
1013 Clear 0 1026 80 8000 1.54 140 23:24 26.03.2021
1014 Clear 0 1025 80 7000 2.06 110 22:39 26.03.2021
1015 Clear 2 1025 80 8000 0.51 30 21:42 26.03.2021
1016 Clear 1 1025 75 10000 2.06 220 21:22 26.03.2021
1017 Clear 3 1025 60 10000 1.03 220 20:49 26.03.2021
1018 Clear 3 1025 65 10000 1.03 0 20:31 26.03.2021
1019 Clear 4 1024 60 10000 1.54 330 19:50 26.03.2021
1020 Clear 4 1024 60 10000 1.54 330 19:32 26.03.2021
1021 Clear 6 1024 49 10000 2.57 280 18:47 26.03.2021
1022 Clear 8 1023 39 10000 3.09 280 18:28 26.03.2021
1023 Clear 8 1023 39 10000 4.12 280 17:50 26.03.2021
1024 Clear 9 1023 40 10000 4.63 290 17:22 26.03.2021
1025 Clear 9 1023 37 10000 5.14 290 16:34 26.03.2021
1026 Clear 10 1023 40 10000 4.63 290 15:59 26.03.2021
1027 Clear 9 1023 40 10000 4.63 290 15:26 26.03.2021
1028 Clear 9 1023 40 10000 6.17 260 14:39 26.03.2021
1029 Clear 9 1023 43 10000 5.66 280 13:43 26.03.2021
1030 Clear 9 1023 40 10000 5.66 290 13:21 26.03.2021
1031 Clear 8 1024 39 10000 5.14 300 12:34 26.03.2021
1032 Clear 7 1026 42 10000 5.66 300 11:40 26.03.2021
1033 Clear 7 1024 45 10000 5.66 270 11:19 26.03.2021
1034 Clear 7 1024 42 10000 4.63 280 10:41 26.03.2021
1035 Clear 5 1024 52 10000 4.63 290 09:58 26.03.2021
1036 Clear 4 1024 60 10000 2.06 310 09:40 26.03.2021
1037 Clear 4 1024 60 10000 2.06 310 09:40 26.03.2021
1038 Clear 2 1024 64 10000 1.54 0 08:45 26.03.2021
1039 Clear 1 1024 69 10000 1.54 310 08:24 26.03.2021
1040 Clear 0 1024 74 10000 1.54 280 07:42 26.03.2021
1041 Clear -1 1023 80 10000 1.54 250 07:21 26.03.2021
1042 Clouds -2 1023 86 8000 1.54 250 06:55 26.03.2021
1043 Clouds -3 1023 86 8000 1.42 268 05:31 26.03.2021
1044 Clear -3 1021 93 10000 1.54 300 02:32 26.03.2021
1045 Clouds -2 1021 86 8000 1.03 250 00:32 26.03.2021
1046 Clouds -1 1021 93 8000 1.54 320 23:46 25.03.2021
1047 Clouds 0 1021 80 10000 1.11 254 23:21 25.03.2021
1048 Clouds 0 1021 74 10000 1.13 254 22:37 25.03.2021
1049 Clouds 1 1021 75 10000 0.51 0 21:53 25.03.2021
1050 Clouds 1 1021 69 10000 1.13 254 21:35 25.03.2021
1051 Clouds 1 1020 75 10000 2.06 90 20:47 25.03.2021
1052 Clouds 1 1020 69 10000 1.54 40 20:27 25.03.2021
1053 Clouds 1 1020 69 10000 1.54 150 19:50 25.03.2021
1054 Clouds 1 1020 69 10000 1.54 150 19:31 25.03.2021
1055 Clouds 1 1020 69 10000 1.54 150 19:31 25.03.2021
1056 Clouds 2 1020 64 10000 2.06 160 18:57 25.03.2021
1057 Clouds 2 1020 64 10000 2.06 160 18:39 25.03.2021
1058 Clouds 3 1020 56 10000 3.09 220 18:18 25.03.2021
1059 Clouds 4 1020 52 10000 3.09 280 17:37 25.03.2021
1060 Clouds 4 1019 41 10000 1.03 0 16:56 25.03.2021
1061 Clouds 4 1019 41 10000 1.03 0 16:33 25.03.2021
1062 Clouds 5 1019 38 10000 3.09 300 15:49 25.03.2021
1063 Clouds 4 1019 35 10000 3.6 270 15:25 25.03.2021
1064 Clear 4 1019 38 10000 3.6 290 14:49 25.03.2021
1065 Clouds 5 1019 45 10000 3.6 270 14:29 25.03.2021
1066 Clouds 4 1019 41 10000 3.6 290 13:26 25.03.2021
1067 Clouds 4 1019 45 10000 4.12 280 12:46 25.03.2021
1068 Clouds 4 1019 48 10000 5.14 300 12:22 25.03.2021
1069 Clouds 3 1019 44 10000 3.09 0 11:53 25.03.2021
1070 Clouds 3 1019 44 10000 3.09 0 11:33 25.03.2021
1071 Clear 3 1019 48 10000 2.06 0 10:58 25.03.2021
1072 Clear 2 1019 51 10000 2.06 280 10:39 25.03.2021
1073 Clear 2 1019 51 10000 2.06 280 10:18 25.03.2021
1074 Clear 1 1020 55 10000 3.09 290 09:43 25.03.2021
1075 Clear 0 1020 64 10000 1.54 270 09:21 25.03.2021
1076 Clouds -3 1020 74 10000 1.54 160 08:30 25.03.2021
1077 Clouds -4 1019 80 10000 0.51 0 07:26 25.03.2021
1078 Clouds -5 1019 80 10000 1.03 0 06:42 25.03.2021
1079 Clouds -6 1019 86 10000 1.03 120 06:22 25.03.2021
1080 Clouds -5 1018 80 10000 1.03 0 04:42 25.03.2021
1081 Clear -5 1018 80 10000 2.57 310 00:46 25.03.2021
1082 Clear -4 1018 68 10000 1.54 320 00:18 25.03.2021
1083 Clouds -4 1018 68 10000 2.06 280 23:36 24.03.2021
1084 Clouds -4 1018 86 10000 1.03 0 22:58 24.03.2021
1085 Clouds -4 1018 86 10000 1.03 0 22:38 24.03.2021
1086 Clear -3 1017 80 10000 1.54 50 21:50 24.03.2021
1087 Clear -2 1017 74 10000 1.54 0 21:31 24.03.2021
1088 Clear -2 1017 74 10000 2.57 310 20:55 24.03.2021
1089 Clear -2 1017 74 10000 2.57 310 20:37 24.03.2021
1090 Clear -1 1017 64 10000 2.06 220 20:18 24.03.2021
1091 Clear -2 1017 69 10000 2.06 190 19:31 24.03.2021
1092 Clear -1 1016 59 10000 1.54 220 18:52 24.03.2021
1093 Clear 0 1016 59 10000 0.79 56 18:24 24.03.2021
1094 Clear 0 1016 51 10000 3.09 20 17:53 24.03.2021
1095 Clear 0 1016 51 10000 3.09 20 17:32 24.03.2021
1096 Clear 0 1016 51 10000 3.09 20 17:32 24.03.2021
1097 Clouds 1 1015 40 10000 3.6 320 16:54 24.03.2021
1098 Clouds 1 1015 40 10000 3.6 320 16:32 24.03.2021
1099 Clouds 1 1015 44 10000 2.57 0 15:58 24.03.2021
1100 Clouds 1 1015 44 10000 2.57 0 15:33 24.03.2021
1101 Clouds 1 1015 40 10000 3.09 90 14:59 24.03.2021
1102 Clouds 1 1015 44 10000 2.06 0 14:28 24.03.2021
1103 Clouds 1 1015 44 10000 2.57 50 13:58 24.03.2021
1104 Clouds 1 1015 44 10000 2.57 50 13:58 24.03.2021
1105 Clouds 1 1015 47 10000 3.09 10 13:28 24.03.2021
1106 Clouds 0 1016 55 10000 2.57 50 12:49 24.03.2021
1107 Clouds 0 1016 59 10000 2.57 10 12:27 24.03.2021
1108 Clouds 0 1016 64 10000 3.6 50 11:54 24.03.2021
1109 Clouds 0 1016 64 10000 3.6 50 11:54 24.03.2021
1110 Clouds 0 1016 64 10000 3.6 50 11:35 24.03.2021
1111 Clouds 0 1016 64 10000 3.6 50 11:35 24.03.2021
1112 Clouds 0 1015 64 10000 4.12 10 10:46 24.03.2021
1113 Clouds -1 1015 69 10000 4.12 10 10:26 24.03.2021
1114 Clouds -1 1015 69 8000 3.6 10 09:54 24.03.2021
1115 Snow -1 1014 74 9000 2.57 350 09:25 24.03.2021
1116 Snow -1 1014 74 10000 3.09 20 08:57 24.03.2021
1117 Snow -1 1013 74 8000 3.6 360 08:29 24.03.2021
1118 Snow -1 1013 86 7000 4.12 360 07:42 24.03.2021
1119 Snow 0 1011 93 5000 6.17 280 06:54 24.03.2021
1120 Snow 0 1011 93 5000 6.17 280 06:34 24.03.2021
1121 Snow 1 1012 75 10000 5.66 280 01:20 24.03.2021
1122 Clouds 1 1012 75 10000 3.6 280 00:32 24.03.2021
1123 Clouds 1 1013 75 10000 5.14 280 23:23 23.03.2021
1124 Clouds 1 1013 75 10000 5.66 280 22:58 23.03.2021
1125 Clouds 1 1013 75 10000 5.66 280 22:40 23.03.2021
1126 Clouds 1 1013 75 10000 3.6 270 21:59 23.03.2021
1127 Clouds 1 1013 75 10000 4.63 270 21:40 23.03.2021
1128 Clouds 1 1013 75 10000 4.63 270 21:19 23.03.2021
1129 Snow 1 1013 75 10000 4.12 270 20:40 23.03.2021
1130 Snow 0 1013 80 10000 5.14 270 20:22 23.03.2021
1131 Clouds 0 1014 80 10000 5.66 270 19:44 23.03.2021
1132 Clouds 0 1014 80 10000 5.14 270 19:23 23.03.2021
1133 Clouds 0 1014 80 10000 6.17 270 18:43 23.03.2021
1134 Clouds 0 1013 80 10000 7.2 270 18:21 23.03.2021
1135 Clouds 0 1013 86 10000 7.2 280 17:44 23.03.2021
1136 Clouds 1 1013 80 10000 5.14 280 17:21 23.03.2021
1137 Clouds 1 1013 80 10000 5.14 280 17:21 23.03.2021
1138 Snow 1 1013 80 10000 5.66 270 16:26 23.03.2021
1139 Clouds 1 1013 80 10000 5.66 280 15:55 23.03.2021
1140 Clouds 1 1013 80 10000 5.66 280 15:36 23.03.2021
1141 Clouds 3 1013 65 10000 2.06 320 14:50 23.03.2021
1142 Clouds 3 1013 65 10000 1.03 0 14:21 23.03.2021
1143 Clouds 3 1013 65 10000 0.51 0 13:49 23.03.2021
1144 Clouds 3 1013 60 10000 1.54 310 13:25 23.03.2021
1145 Clouds 2 1013 69 10000 1.54 340 12:46 23.03.2021
1146 Clouds 2 1013 69 10000 2.57 20 12:26 23.03.2021
1147 Clouds 2 1013 69 10000 3.6 10 11:49 23.03.2021
1148 Clouds 3 1013 65 10000 4.12 40 11:30 23.03.2021
1149 Clouds 2 1013 69 10000 4.12 10 10:43 23.03.2021
1150 Clouds 1 1013 75 10000 3.09 350 10:21 23.03.2021
1151 Clouds 2 1013 69 10000 4.63 30 09:54 23.03.2021
1152 Clouds 2 1013 69 10000 3.6 50 09:24 23.03.2021
1153 Clouds 1 1012 75 10000 1.03 30 08:55 23.03.2021
1154 Clouds 1 1012 75 10000 1.03 30 08:37 23.03.2021
1155 Clouds 1 1012 75 10000 0.51 0 08:19 23.03.2021
1156 Clouds 0 1011 80 10000 1.03 0 07:28 23.03.2021
1157 Clouds 0 1011 86 9000 0.51 0 06:53 23.03.2021
1158 Mist -2 1010 100 4100 1.54 280 03:57 23.03.2021
1159 Snow -1 1010 93 6000 1.54 310 03:18 23.03.2021
1160 Snow -1 1009 100 10000 2.57 250 23:56 22.03.2021
1161 Snow -1 1009 100 7000 1.54 240 23:20 22.03.2021
1162 Snow -1 1009 93 7000 1.54 250 22:44 22.03.2021
1163 Snow 0 1009 93 6000 1.54 260 22:21 22.03.2021
1164 Snow 0 1009 93 5000 1.54 270 21:49 22.03.2021
1165 Snow 0 1008 86 5000 2.06 290 21:27 22.03.2021
1166 Snow 0 1008 86 7000 2.57 300 20:44 22.03.2021
1167 Snow 0 1008 86 10000 2.06 300 20:26 22.03.2021
1168 Snow 0 1007 86 10000 2.06 290 19:58 22.03.2021
1169 Snow 0 1007 86 10000 2.06 290 19:38 22.03.2021
1170 Snow 0 1007 86 10000 2.06 290 19:38 22.03.2021
1171 Snow 0 1007 86 10000 1.54 310 19:20 22.03.2021
1172 Snow 0 1006 93 7000 2.06 280 18:41 22.03.2021
1173 Snow 0 1006 93 4000 2.06 290 18:22 22.03.2021
1174 Snow 0 1005 93 2400 2.57 290 17:49 22.03.2021
1175 Snow 0 1005 93 3000 2.26 3 17:22 22.03.2021
1176 Snow 1 1004 86 3000 1.54 300 16:55 22.03.2021
1177 Snow 1 1004 86 3000 1.54 300 16:36 22.03.2021
1178 Snow 1 1004 86 3000 1.54 320 15:43 22.03.2021
1179 Snow 0 1003 93 1500 3.09 310 15:23 22.03.2021
1180 Snow 0 1003 93 4000 3.09 300 14:57 22.03.2021
1181 Snow 1 1003 86 5000 2.57 350 14:34 22.03.2021
1182 Clouds 2 1003 75 5000 3.09 20 13:50 22.03.2021
1183 Clouds 2 1003 75 5000 3.09 20 13:29 22.03.2021
1184 Clouds 2 1002 80 10000 3.6 270 12:58 22.03.2021
1185 Clouds 2 1002 80 10000 3.6 270 12:26 22.03.2021
1186 Snow 1 1002 86 8000 2.57 280 11:51 22.03.2021
1187 Snow 1 1002 86 8000 2.57 280 11:30 22.03.2021
1188 Snow 1 1002 86 7000 2.06 290 10:57 22.03.2021
1189 Snow 1 1002 86 7000 2.06 290 10:37 22.03.2021
1190 Snow 0 1003 93 2400 2.57 320 10:18 22.03.2021
1191 Snow 0 1003 93 800 2.57 310 09:34 22.03.2021
1192 Snow 0 1002 100 3000 1.54 290 08:55 22.03.2021
1193 Snow 0 1002 100 3000 1.54 290 08:37 22.03.2021
1194 Snow 1 1002 100 2200 1.99 41 08:19 22.03.2021
1195 Snow 0 1002 100 1500 1.99 41 07:41 22.03.2021
1196 Snow 0 1002 100 2500 1.54 130 06:51 22.03.2021
1197 Snow 0 1003 100 1300 1.03 150 03:24 22.03.2021
1198 Snow 0 1004 100 2000 2.06 130 00:53 22.03.2021
1199 Snow 0 1004 100 2300 3.09 130 00:19 22.03.2021
1200 Snow 0 1005 100 3500 4.12 130 23:40 21.03.2021
1201 Snow 0 1005 100 4000 4.12 130 23:18 21.03.2021
1202 Snow 0 1006 100 4000 3.09 130 22:43 21.03.2021
1203 Snow 0 1007 100 3000 3.09 120 21:43 21.03.2021
1204 Snow 0 1007 100 3000 2.57 120 21:25 21.03.2021
1205 Snow 0 1007 100 2500 3.09 120 20:57 21.03.2021
1206 Snow 0 1007 100 2500 3.09 120 20:38 21.03.2021
1207 Snow 0 1008 100 3500 2.57 110 20:19 21.03.2021
1208 Snow 0 1008 100 3000 2.57 120 19:40 21.03.2021
1209 Snow 0 1008 100 5000 3.6 110 19:19 21.03.2021
1210 Snow 0 1009 100 1900 3.6 120 18:41 21.03.2021
1211 Snow 0 1009 100 2400 4.12 120 18:18 21.03.2021
1212 Snow 0 1009 100 800 3.09 120 17:42 21.03.2021
1213 Snow 0 1009 100 800 4.12 120 17:18 21.03.2021
1214 Snow 1 1009 93 1500 5.14 120 16:49 21.03.2021
1215 Snow 1 1009 93 1500 5.66 120 16:23 21.03.2021
1216 Snow 1 1010 93 4000 5.66 120 15:46 21.03.2021
1217 Clouds 2 1010 87 7000 6.17 120 15:21 21.03.2021
1218 Clouds 2 1010 87 10000 5.66 110 14:48 21.03.2021
1219 Clouds 2 1010 87 10000 5.66 110 14:48 21.03.2021
1220 Clouds 2 1011 87 10000 5.66 110 14:27 21.03.2021
1221 Clouds 2 1011 87 6000 6.69 120 13:57 21.03.2021
1222 Clouds 2 1011 87 6000 6.69 120 13:39 21.03.2021
1223 Clouds 2 1012 87 7000 6.69 120 12:43 21.03.2021
1224 Snow 1 1012 93 4500 6.69 110 12:25 21.03.2021
1225 Snow 1 1012 93 4500 6.69 110 12:25 21.03.2021
1226 Snow 1 1013 93 6000 6.69 110 11:41 21.03.2021
1227 Snow 1 1013 93 4000 6.17 120 11:20 21.03.2021
1228 Snow 1 1013 93 3600 5.66 110 10:44 21.03.2021
1229 Snow 1 1013 93 3500 5.14 100 10:26 21.03.2021
1230 Snow 0 1014 100 2300 4.63 110 09:49 21.03.2021
1231 Snow 0 1014 100 2000 4.63 100 09:30 21.03.2021
1232 Snow 0 1014 100 1800 3.6 100 08:56 21.03.2021
1233 Snow 0 1014 100 1800 3.6 100 08:31 21.03.2021
1234 Snow 0 1014 100 3000 2.06 90 07:50 21.03.2021
1235 Snow 0 1014 100 2700 1.54 100 07:23 21.03.2021
1236 Snow 0 1014 100 2400 1.54 100 05:59 21.03.2021
1237 Snow 0 1014 100 3800 1.54 120 03:41 21.03.2021
1238 Snow 0 1015 100 1400 2.32 56 00:57 21.03.2021
1239 Snow 0 1015 100 1500 2.44 64 00:37 21.03.2021
1240 Snow 0 1015 100 1500 2.56 56 00:19 21.03.2021
1241 Snow 0 1015 100 1700 2.56 56 23:42 20.03.2021
1242 Snow 0 1015 100 1300 2.68 57 23:18 20.03.2021
1243 Snow 0 1015 100 2600 1.03 200 22:24 20.03.2021
1244 Snow 0 1015 100 2900 1.03 0 21:48 20.03.2021
1245 Snow 0 1015 100 2200 1.03 0 21:26 20.03.2021
1246 Snow 0 1015 100 2300 1.54 170 20:49 20.03.2021
1247 Snow 0 1015 100 3300 1.54 170 20:24 20.03.2021
1248 Snow 0 1015 100 1900 0.51 0 19:52 20.03.2021
1249 Snow 0 1015 100 1600 2.67 61 19:29 20.03.2021
1250 Snow 0 1015 100 1800 1.03 140 18:52 20.03.2021
1251 Snow 0 1015 100 2300 2.06 120 18:29 20.03.2021
1252 Snow 1 1015 93 3500 3.09 100 17:58 20.03.2021
1253 Snow 1 1015 93 3500 3.09 100 17:40 20.03.2021
1254 Clouds 2 1015 87 7000 3.09 100 17:21 20.03.2021
1255 Clouds 2 1015 93 7000 4.63 100 16:40 20.03.2021
1256 Clouds 2 1015 93 7000 4.63 100 16:18 20.03.2021
1257 Clouds 3 1015 87 8000 5.14 80 15:42 20.03.2021
1258 Clouds 3 1015 87 7000 5.14 80 15:24 20.03.2021
1259 Clouds 4 1015 81 8000 4.63 100 14:40 20.03.2021
1260 Clouds 3 1015 87 7000 5.66 110 14:19 20.03.2021
1261 Clouds 4 1015 81 10000 4.12 110 13:31 20.03.2021
1262 Clouds 4 1016 81 8000 4.12 110 12:41 20.03.2021
1263 Clouds 4 1016 81 8000 3.6 90 12:23 20.03.2021
1264 Clouds 4 1016 81 8000 3.6 110 11:43 20.03.2021
1265 Clouds 4 1016 81 8000 3.6 120 11:22 20.03.2021
1266 Clouds 4 1017 75 8000 3.09 110 10:46 20.03.2021
1267 Clouds 3 1017 81 8000 3.09 110 10:24 20.03.2021
1268 Clouds 2 1017 87 8000 2.06 110 09:48 20.03.2021
1269 Clouds 2 1017 87 7000 2.57 100 09:22 20.03.2021
1270 Clouds 2 1017 87 6000 2.06 100 08:53 20.03.2021
1271 Snow 1 1017 86 7000 1.54 70 08:19 20.03.2021
1272 Snow 1 1017 86 8000 1.03 0 07:48 20.03.2021
1273 Snow 1 1016 86 8000 1.03 0 07:29 20.03.2021
1274 Clouds 1 1016 86 8000 1.03 0 06:40 20.03.2021
1275 Clouds 1 1016 86 8000 1.54 190 05:28 20.03.2021
1276 Clouds 0 1016 93 8000 1.17 62 03:44 20.03.2021
1277 Clouds 1 1016 86 10000 2.57 90 01:42 20.03.2021
1278 Clouds 2 1016 80 10000 2.57 180 23:48 19.03.2021
1279 Clouds 2 1016 69 8000 3.6 200 23:20 19.03.2021
1280 Clouds 3 1016 60 10000 1.03 0 22:43 19.03.2021
1281 Clouds 3 1015 65 10000 0.58 36 22:24 19.03.2021
1282 Clouds 2 1015 64 10000 1.54 110 21:51 19.03.2021
1283 Clouds 2 1015 64 10000 2.06 110 21:21 19.03.2021
1284 Clouds 4 1015 48 10000 1.03 150 20:46 19.03.2021
1285 Clouds 3 1015 56 10000 1.54 290 20:26 19.03.2021
1286 Clouds 3 1014 56 10000 1.54 310 19:50 19.03.2021
1287 Clouds 4 1014 48 10000 3.09 280 19:24 19.03.2021
1288 Clouds 4 1014 45 10000 3.09 280 18:49 19.03.2021
1289 Clouds 4 1014 48 10000 4.12 280 18:30 19.03.2021
1290 Clouds 5 1013 45 10000 4.12 280 17:58 19.03.2021
1291 Clouds 5 1013 45 10000 4.12 280 17:38 19.03.2021
1292 Clouds 5 1013 45 10000 4.12 290 17:18 19.03.2021
1293 Clouds 5 1013 45 10000 4.12 280 16:44 19.03.2021
1294 Clouds 6 1012 45 10000 4.12 300 16:25 19.03.2021
1295 Clouds 6 1012 45 10000 4.12 280 15:34 19.03.2021
1296 Clouds 6 1012 42 10000 4.12 300 14:53 19.03.2021
1297 Clouds 6 1012 42 10000 4.12 300 14:34 19.03.2021
1298 Clouds 6 1012 42 10000 3.6 310 13:53 19.03.2021
1299 Clouds 7 1012 39 10000 5.14 310 13:19 19.03.2021
1300 Clouds 6 1013 45 10000 3.09 310 12:47 19.03.2021
1301 Clouds 5 1013 56 10000 2.06 0 12:18 19.03.2021
1302 Clouds 4 1013 60 10000 3.6 0 11:33 19.03.2021
1303 Clouds 3 1013 60 10000 3.09 300 10:52 19.03.2021
1304 Clouds 2 1013 64 10000 3.6 320 10:23 19.03.2021
1305 Clouds 2 1013 69 10000 3.6 310 09:44 19.03.2021
1306 Clouds 2 1013 69 10000 2.06 310 09:26 19.03.2021
1307 Clouds 1 1014 75 8000 1.03 0 08:52 19.03.2021
1308 Clouds 1 1014 75 6000 1.79 303 08:29 19.03.2021
1309 Clouds 1 1013 93 6000 1.03 100 07:50 19.03.2021
1310 Clouds 1 1013 93 6000 1.03 0 07:31 19.03.2021
1311 Clouds 0 1012 93 6000 0.87 290 05:29 19.03.2021
1312 Clouds 0 1013 93 8000 0.79 283 02:20 19.03.2021
1313 Clouds 0 1013 86 8000 2.06 280 23:57 18.03.2021
1314 Clouds 0 1013 86 8000 1.54 280 23:29 18.03.2021
1315 Clouds 0 1013 86 9000 0.7 268 22:52 18.03.2021
1316 Clear 0 1013 86 10000 2.06 280 22:25 18.03.2021
1317 Clear 1 1013 80 10000 3.6 310 21:48 18.03.2021
1318 Clear 1 1013 80 10000 2.57 290 21:30 18.03.2021
1319 Clear 0 1013 75 10000 3.09 280 20:42 18.03.2021
1320 Clear 1 1013 75 10000 2.57 280 20:22 18.03.2021
1321 Clear 1 1012 80 10000 3.6 270 19:43 18.03.2021
1322 Clear 1 1012 75 10000 3.09 280 19:23 18.03.2021
1323 Clouds 2 1012 69 10000 4.12 280 18:47 18.03.2021
1324 Clouds 2 1012 75 10000 3.6 310 17:58 18.03.2021
1325 Clouds 4 1012 70 10000 4.12 300 17:27 18.03.2021
1326 Clouds 4 1012 70 10000 5.66 300 16:59 18.03.2021
1327 Clouds 4 1012 70 10000 6.17 300 16:41 18.03.2021
1328 Clouds 4 1012 70 10000 6.17 300 16:22 18.03.2021
1329 Clouds 5 1012 60 10000 7.72 290 15:41 18.03.2021
1330 Clouds 5 1012 60 10000 7.72 290 15:19 18.03.2021
1331 Clouds 5 1012 65 10000 7.72 290 14:49 18.03.2021
1332 Clouds 6 1012 60 10000 7.72 300 14:23 18.03.2021
1333 Clouds 6 1012 56 10000 8.23 290 13:40 18.03.2021
1334 Clouds 6 1012 56 10000 8.23 290 13:21 18.03.2021
1335 Clouds 5 1012 60 10000 7.2 280 12:38 18.03.2021
1336 Clouds 5 1012 60 10000 7.2 280 12:19 18.03.2021
1337 Clouds 6 1012 65 10000 9.26 260 11:45 18.03.2021
1338 Clouds 5 1011 65 10000 7.2 290 11:22 18.03.2021
1339 Clouds 4 1011 65 10000 7.72 290 10:41 18.03.2021
1340 Clouds 5 1011 65 10000 7.72 290 10:23 18.03.2021
1341 Clouds 5 1011 75 10000 6.69 290 09:52 18.03.2021
1342 Clouds 4 1011 70 10000 8.23 280 09:27 18.03.2021
1343 Clouds 4 1011 75 10000 7.2 290 08:45 18.03.2021
1344 Clouds 3 1011 80 8000 7.2 280 08:25 18.03.2021
1345 Clouds 3 1011 86 4000 6.17 280 07:47 18.03.2021
1346 Clouds 2 1010 86 4300 5.66 270 06:49 18.03.2021
1347 Clouds 2 1010 86 6000 5.14 280 06:25 18.03.2021
1348 Clouds 2 1009 80 8000 7.2 280 05:26 18.03.2021
1349 Clouds 2 1009 93 5000 5.66 280 00:48 18.03.2021
1350 Clouds 3 1008 80 10000 7.2 280 23:37 17.03.2021
1351 Clouds 3 1008 87 10000 6.69 280 22:39 17.03.2021
1352 Clouds 3 1008 87 10000 6.69 280 22:21 17.03.2021
1353 Clouds 3 1008 80 10000 6.69 280 21:51 17.03.2021
1354 Clouds 3 1008 87 10000 6.69 280 21:32 17.03.2021
1355 Clouds 3 1008 87 10000 6.69 270 20:49 17.03.2021
1356 Clouds 3 1007 87 10000 7.2 270 20:28 17.03.2021
1357 Clouds 2 1007 87 10000 6.17 270 19:59 17.03.2021
1358 Clouds 2 1007 87 8000 7.2 270 19:39 17.03.2021
1359 Clouds 2 1007 87 8000 7.2 270 19:19 17.03.2021
1360 Clouds 2 1007 87 10000 7.2 270 18:49 17.03.2021
1361 Clouds 2 1006 93 8000 6.69 270 18:31 17.03.2021
1362 Clouds 2 1006 87 7000 7.2 280 17:33 17.03.2021
1363 Clouds 3 1006 87 8000 7.72 280 16:59 17.03.2021
1364 Clouds 3 1005 87 8000 8.23 280 16:39 17.03.2021
1365 Clouds 3 1005 87 8000 8.23 280 16:20 17.03.2021
1366 Clouds 3 1005 80 8000 8.75 280 15:45 17.03.2021
1367 Clouds 3 1005 80 10000 9.26 280 15:26 17.03.2021
1368 Clouds 3 1004 80 6000 11.32 280 14:40 17.03.2021
1369 Clouds 3 1004 80 6000 11.32 280 14:19 17.03.2021
1370 Clouds 3 1004 80 4000 9.77 280 13:54 17.03.2021
1371 Clouds 3 1004 80 3000 9.26 280 13:24 17.03.2021
1372 Clouds 3 1004 80 3000 8.75 280 12:43 17.03.2021
1373 Clouds 4 1004 70 7000 11.32 280 12:25 17.03.2021
1374 Clouds 3 1004 75 6000 11.83 280 11:40 17.03.2021
1375 Clouds 3 1004 75 6000 11.83 280 11:20 17.03.2021
1376 Clouds 4 1004 75 7000 11.32 280 10:50 17.03.2021
1377 Clouds 3 1004 75 7000 11.32 280 10:22 17.03.2021
1378 Clouds 3 1004 75 10000 9.77 280 09:43 17.03.2021
1379 Clouds 3 1003 75 10000 10.8 280 09:20 17.03.2021
1380 Clouds 3 1003 75 10000 11.32 280 08:46 17.03.2021
1381 Clouds 3 1003 69 10000 9.26 280 08:26 17.03.2021
1382 Clouds 2 1003 75 10000 9.26 280 07:39 17.03.2021
1383 Clouds 3 1003 75 10000 9.77 280 06:57 17.03.2021
1384 Clouds 2 1003 75 10000 10.29 280 06:28 17.03.2021
1385 Clouds 2 1002 80 10000 8.75 280 03:32 17.03.2021
1386 Clouds 2 1002 80 10000 8.75 280 03:32 17.03.2021
1387 Clouds 2 1003 87 10000 9.26 280 02:37 17.03.2021
1388 Clouds 3 1003 87 10000 8.75 270 00:38 17.03.2021
1389 Clouds 2 1003 87 10000 8.75 280 23:27 16.03.2021
1390 Clouds 2 1003 87 10000 9.26 270 22:45 16.03.2021
1391 Clouds 3 1003 87 10000 8.75 280 22:27 16.03.2021
1392 Clouds 2 1003 87 10000 9.26 270 21:44 16.03.2021
1393 Clouds 2 1003 87 10000 8.75 280 21:26 16.03.2021
1394 Clouds 3 1003 81 10000 8.75 280 20:57 16.03.2021
1395 Clouds 2 1003 87 10000 7.72 280 20:20 16.03.2021
1396 Clouds 2 1003 87 10000 7.72 280 20:20 16.03.2021
1397 Clouds 2 1003 87 10000 8.75 280 19:48 16.03.2021
1398 Clouds 2 1003 87 10000 9.26 280 19:29 16.03.2021
1399 Clouds 2 1002 87 10000 9.26 270 18:57 16.03.2021
1400 Clouds 2 1002 87 10000 9.77 280 18:38 16.03.2021
1401 Clouds 2 1002 87 10000 8.75 280 17:59 16.03.2021
1402 Clouds 2 1002 87 10000 9.26 280 17:40 16.03.2021
1403 Clouds 2 1002 87 10000 9.26 280 17:20 16.03.2021
1404 Clouds 2 1002 87 10000 9.26 280 16:46 16.03.2021
1405 Clouds 2 1002 80 10000 10.29 280 16:25 16.03.2021
1406 Clouds 3 1001 75 10000 9.77 280 15:45 16.03.2021
1407 Clouds 3 1001 75 10000 10.8 280 15:20 16.03.2021
1408 Clouds 2 1001 80 10000 9.77 280 14:56 16.03.2021
1409 Clouds 2 1001 80 8000 10.29 270 14:38 16.03.2021
1410 Clouds 2 1001 80 8000 10.29 270 14:18 16.03.2021
1411 Clouds 2 1001 87 6000 9.26 270 13:42 16.03.2021
1412 Clouds 2 1001 80 6000 10.29 270 13:21 16.03.2021
1413 Clouds 2 1001 80 700 10.29 270 12:43 16.03.2021
1414 Clouds 2 1001 80 800 10.29 280 12:23 16.03.2021
1415 Clouds 2 1000 80 700 12.35 280 11:36 16.03.2021
1416 Clouds 2 1000 75 3000 11.83 280 10:53 16.03.2021
1417 Clouds 2 1000 75 3000 11.83 280 10:53 16.03.2021
1418 Clouds 2 1000 75 6000 10.29 280 10:22 16.03.2021
1419 Clouds 2 1000 80 8000 10.29 280 09:47 16.03.2021
1420 Clouds 2 1000 80 2000 11.83 270 09:24 16.03.2021
1421 Clouds 2 999 80 2500 10.29 270 08:57 16.03.2021
1422 Snow 1 999 86 2500 9.26 270 08:39 16.03.2021
1423 Snow 1 999 93 700 8.23 270 07:57 16.03.2021
1424 Snow 1 999 93 700 6.69 270 07:29 16.03.2021
1425 Snow 1 998 93 800 7.2 280 06:38 16.03.2021
1426 Snow 1 998 93 8000 5.14 280 05:37 16.03.2021
1427 Clouds 2 998 87 10000 4.12 290 04:28 16.03.2021
1428 Clouds 2 998 80 10000 5.66 290 02:27 16.03.2021
1429 Clouds 2 998 75 10000 8.75 280 00:47 16.03.2021
1430 Clouds 3 998 75 10000 7.2 290 23:54 15.03.2021
1431 Clouds 3 999 75 10000 6.69 280 23:19 15.03.2021
1432 Clouds 2 999 75 10000 7.2 280 22:43 15.03.2021
1433 Clouds 2 999 80 10000 6.69 280 22:25 15.03.2021
1434 Clouds 2 999 80 10000 7.72 280 21:51 15.03.2021
1435 Clouds 2 999 80 10000 7.2 280 21:29 15.03.2021
1436 Clouds 2 999 75 10000 8.23 280 20:55 15.03.2021
1437 Clouds 2 999 80 10000 8.23 280 20:37 15.03.2021
1438 Clouds 2 999 80 10000 8.23 280 20:19 15.03.2021
1439 Clouds 2 999 80 10000 8.23 280 20:19 15.03.2021
1440 Clouds 2 999 80 10000 7.72 280 19:43 15.03.2021
1441 Clouds 2 999 80 10000 7.2 280 19:24 15.03.2021
1442 Clouds 2 999 80 10000 7.2 280 18:47 15.03.2021
1443 Clouds 2 999 80 10000 7.72 290 18:23 15.03.2021
1444 Clouds 2 999 80 10000 7.72 290 17:55 15.03.2021
1445 Clouds 2 999 87 10000 6.69 280 17:28 15.03.2021
1446 Clouds 2 999 93 8000 7.2 280 16:50 15.03.2021
1447 Rain 1 998 93 6000 6.69 300 16:25 15.03.2021
1448 Clouds 2 998 93 5000 8.23 290 15:44 15.03.2021
1449 Clouds 4 997 93 1900 8.23 290 15:25 15.03.2021
1450 Clouds 7 996 81 5000 5.66 300 14:42 15.03.2021
1451 Clouds 9 996 87 4000 5.66 270 14:21 15.03.2021
1452 Clouds 9 996 76 10000 4.63 290 13:46 15.03.2021
1453 Clouds 11 996 66 10000 2.57 0 13:24 15.03.2021
1454 Clouds 12 996 62 10000 4.63 100 12:47 15.03.2021
1455 Clouds 12 997 71 10000 3.09 90 12:18 15.03.2021
1456 Clouds 11 997 71 10000 4.12 100 11:48 15.03.2021
1457 Clouds 10 998 71 10000 5.14 110 11:30 15.03.2021
1458 Clouds 11 998 71 10000 5.14 110 10:45 15.03.2021
1459 Clouds 10 999 76 10000 5.66 120 10:27 15.03.2021
1460 Clouds 9 999 81 10000 6.69 110 09:49 15.03.2021
1461 Clouds 9 999 81 10000 7.72 110 09:30 15.03.2021
1462 Clouds 8 1000 87 8000 7.72 100 08:48 15.03.2021
1463 Clouds 8 1000 87 7000 7.2 110 08:27 15.03.2021
1464 Clouds 8 1000 87 8000 5.66 100 07:43 15.03.2021
1465 Clouds 7 1000 87 8000 3.09 100 07:24 15.03.2021
1466 Clouds 7 1000 87 7000 1.67 122 06:21 15.03.2021
1467 Clouds 8 1002 87 10000 3.09 120 04:00 15.03.2021
1468 Clouds 8 1004 81 10000 2.57 130 01:20 15.03.2021
1469 Clouds 8 1005 71 10000 3.6 60 23:45 14.03.2021
1470 Clouds 9 1005 66 10000 4.12 90 23:19 14.03.2021
1471 Clouds 7 1006 76 10000 3.6 110 22:39 14.03.2021
1472 Clouds 7 1006 76 10000 3.6 110 22:18 14.03.2021
1473 Clouds 8 1006 71 10000 5.14 90 21:39 14.03.2021
1474 Clouds 8 1006 71 10000 5.14 90 21:18 14.03.2021
1475 Clouds 9 1006 66 10000 6.17 100 20:42 14.03.2021
1476 Clouds 10 1006 62 10000 6.17 100 20:23 14.03.2021
1477 Clouds 10 1006 66 10000 5.14 90 19:42 14.03.2021
1478 Clouds 10 1006 62 10000 4.63 90 19:20 14.03.2021
1479 Clouds 9 1006 61 10000 2.57 100 18:41 14.03.2021
1480 Clouds 14 1006 41 10000 2.57 160 17:56 14.03.2021
1481 Clouds 16 1006 33 10000 2.57 220 17:37 14.03.2021
1482 Clouds 16 1006 33 10000 2.57 220 17:19 14.03.2021
1483 Clouds 16 1006 33 10000 3.09 210 16:42 14.03.2021
1484 Clouds 17 1007 34 10000 3.6 240 16:23 14.03.2021
1485 Clouds 17 1007 34 10000 2.57 60 15:48 14.03.2021
1486 Clouds 16 1008 36 10000 1.54 10 14:59 14.03.2021
1487 Clouds 16 1008 36 10000 2.06 0 14:40 14.03.2021
1488 Clouds 16 1008 36 10000 2.06 0 14:20 14.03.2021
1489 Clouds 17 1008 36 10000 2.06 160 13:43 14.03.2021
1490 Clouds 16 1009 39 10000 1.54 0 13:24 14.03.2021
1491 Clouds 15 1010 41 10000 1.54 0 12:42 14.03.2021
1492 Clouds 15 1010 47 10000 1.54 130 12:23 14.03.2021
1493 Clouds 12 1011 58 10000 1.54 270 11:41 14.03.2021
1494 Clouds 12 1011 58 10000 1.54 270 11:22 14.03.2021
1495 Clouds 9 1012 66 10000 2.57 290 10:38 14.03.2021
1496 Clouds 9 1012 66 10000 2.57 290 10:20 14.03.2021
1497 Clouds 7 1012 76 8000 1.03 0 09:57 14.03.2021
1498 Clear 6 1013 75 7000 1.54 250 09:39 14.03.2021
1499 Clear 6 1013 75 7000 1.54 250 09:20 14.03.2021
1500 Fog 2 1013 100 3000 0.51 0 08:37 14.03.2021
1501 Fog 0 1013 100 200 0.51 0 07:58 14.03.2021
1502 Fog -1 1013 100 200 0.33 140 07:28 14.03.2021
1503 Fog -2 1014 100 2300 1.54 80 05:38 14.03.2021
1504 Mist 0 1015 93 5000 0.51 0 01:27 14.03.2021
1505 Mist 1 1015 93 5000 0.51 0 00:20 14.03.2021
1506 Mist 2 1015 93 8000 2.06 180 23:59 13.03.2021
1507 Mist 2 1015 93 8000 2.06 180 23:39 13.03.2021
1508 Mist 2 1016 93 5000 1.54 160 23:18 13.03.2021
1509 Mist 2 1016 87 5000 1.03 0 22:46 13.03.2021
1510 Clouds 4 1016 87 8000 1.54 30 22:18 13.03.2021
1511 Mist 3 1015 87 5000 1.54 130 21:35 13.03.2021
1512 Clear 5 1015 87 7000 0.42 287 20:59 13.03.2021
1513 Clear 6 1015 75 10000 1.54 230 20:41 13.03.2021
1514 Clear 6 1015 75 10000 1.54 230 20:41 13.03.2021
1515 Clear 6 1015 75 10000 1.54 230 20:41 13.03.2021
1516 Clear 6 1015 75 10000 1.54 230 20:22 13.03.2021
1517 Clear 6 1015 75 8000 3.09 200 19:38 13.03.2021
1518 Clouds 6 1015 75 8000 3.09 200 19:20 13.03.2021
1519 Clouds 7 1015 70 8000 2.57 240 18:42 13.03.2021
1520 Clear 9 1015 66 10000 2.57 290 18:20 13.03.2021
1521 Clear 9 1015 66 10000 3.09 280 17:47 13.03.2021
1522 Clouds 11 1015 58 10000 3.6 300 17:28 13.03.2021
1523 Clouds 12 1015 54 10000 4.63 310 16:51 13.03.2021
1524 Clouds 12 1015 58 10000 4.63 310 16:33 13.03.2021
1525 Clouds 12 1015 54 10000 5.14 310 15:54 13.03.2021
1526 Clouds 12 1015 54 10000 3.09 310 14:58 13.03.2021
1527 Clouds 12 1015 54 10000 3.09 300 14:40 13.03.2021
1528 Clouds 12 1015 54 10000 3.09 300 14:18 13.03.2021
1529 Clouds 10 1015 57 10000 4.63 260 13:26 13.03.2021
1530 Clouds 10 1016 57 10000 4.12 270 12:48 13.03.2021
1531 Clouds 10 1016 62 10000 3.6 300 12:29 13.03.2021
1532 Clouds 9 1016 61 10000 2.57 310 11:52 13.03.2021
1533 Clouds 8 1016 66 10000 3.6 300 11:31 13.03.2021
1534 Clouds 8 1016 66 10000 2.57 290 10:55 13.03.2021
1535 Clouds 7 1016 65 10000 1.54 350 10:30 13.03.2021
1536 Clouds 7 1016 65 9000 2.06 350 09:56 13.03.2021
1537 Clouds 6 1016 70 9000 1.03 0 09:24 13.03.2021
1538 Clouds 4 1016 75 8000 0.51 0 08:44 13.03.2021
1539 Clouds 4 1016 75 8000 0.51 0 08:20 13.03.2021
1540 Clouds 2 1015 87 8000 1.54 140 07:55 13.03.2021
1541 Mist 1 1015 93 5000 1.54 30 06:54 13.03.2021
1542 Clouds 1 1015 86 7000 1.03 360 02:56 13.03.2021
1543 Clouds 1 1015 86 7000 1.03 360 02:56 13.03.2021
1544 Clouds 1 1016 86 7000 2.06 260 01:20 13.03.2021
1545 Clouds 1 1016 86 8000 2.57 170 23:59 12.03.2021
1546 Clouds 1 1016 86 8000 2.57 190 23:32 12.03.2021
1547 Clouds 0 1017 93 8000 2.06 160 22:46 12.03.2021
1548 Clouds 0 1017 93 6000 2.06 120 22:28 12.03.2021
1549 Mist 0 1017 93 5000 3.6 90 21:46 12.03.2021
1550 Clouds 2 1017 87 8000 1.54 140 21:27 12.03.2021
1551 Clouds 2 1017 87 8000 1.54 140 21:27 12.03.2021
1552 Clouds 3 1017 81 8000 0.51 0 20:56 12.03.2021
1553 Clouds 3 1017 81 6000 1.54 30 20:36 12.03.2021
1554 Smoke 4 1017 81 5000 1.54 0 19:59 12.03.2021
1555 Clouds 5 1016 75 8000 2.57 260 19:40 12.03.2021
1556 Clouds 5 1016 75 8000 2.57 260 19:22 12.03.2021
1557 Clouds 5 1016 70 9000 2.06 190 18:36 12.03.2021
1558 Clear 7 1016 65 10000 1.03 0 17:58 12.03.2021
1559 Clouds 8 1016 57 10000 2.57 280 17:38 12.03.2021
1560 Clouds 8 1016 57 10000 2.57 280 17:20 12.03.2021
1561 Clouds 9 1016 57 10000 2.57 300 16:42 12.03.2021
1562 Clear 9 1017 57 10000 2.57 280 15:52 12.03.2021
1563 Clear 9 1017 57 10000 3.6 280 15:32 12.03.2021
1564 Clouds 8 1017 61 10000 2.57 290 14:49 12.03.2021
1565 Clouds 7 1017 57 10000 1.54 280 14:21 12.03.2021
1566 Clouds 6 1018 56 10000 1.54 310 13:44 12.03.2021
1567 Clouds 6 1018 56 10000 1.54 310 13:44 12.03.2021
1568 Clouds 7 1018 57 10000 0.51 0 13:23 12.03.2021
1569 Clear 5 1018 60 10000 1.54 0 12:57 12.03.2021
1570 Clear 5 1019 60 10000 1.54 0 12:38 12.03.2021
1571 Clear 4 1019 60 10000 2.06 0 12:19 12.03.2021
1572 Clear 4 1019 60 10000 2.06 0 11:49 12.03.2021
1573 Clear 3 1020 65 10000 1.03 0 11:21 12.03.2021
1574 Clouds 3 1020 64 10000 1.03 0 10:48 12.03.2021
1575 Clouds 3 1020 69 10000 1.54 330 10:24 12.03.2021
1576 Clear 3 1020 75 10000 1.54 130 09:52 12.03.2021
1577 Clear 2 1020 74 10000 1.54 120 09:20 12.03.2021
1578 Clear 1 1020 80 10000 1.03 0 08:44 12.03.2021
1579 Clear 0 1019 86 10000 1.54 130 07:56 12.03.2021
1580 Clouds -1 1019 86 8000 2.06 130 07:31 12.03.2021
1581 Clouds -2 1018 86 8000 2.06 90 06:46 12.03.2021
1582 Clouds -2 1019 93 8000 0.85 119 06:26 12.03.2021
1583 Clear -2 1020 86 10000 1.03 90 02:20 12.03.2021
1584 Clear -2 1021 86 10000 1.03 110 00:18 12.03.2021
1585 Clear -2 1022 86 10000 2.57 130 23:19 11.03.2021
1586 Clear -2 1022 93 10000 2.06 130 22:42 11.03.2021
1587 Clear -2 1022 86 10000 1.54 100 22:21 11.03.2021
1588 Clear -1 1022 86 10000 2.57 120 21:46 11.03.2021
1589 Clear -2 1022 86 8000 2.57 110 21:26 11.03.2021
1590 Clear 0 1022 80 8000 1.54 350 20:49 11.03.2021
1591 Clear 0 1022 80 10000 0.74 155 20:23 11.03.2021
1592 Clear 0 1021 69 10000 1.03 0 19:56 11.03.2021
1593 Clear -1 1021 69 10000 1.03 0 19:36 11.03.2021
1594 Clear 0 1021 69 10000 2.06 340 18:54 11.03.2021
1595 Clouds 0 1021 69 10000 2.57 310 18:35 11.03.2021
1596 Clouds 1 1021 69 10000 3.09 310 17:54 11.03.2021
1597 Clouds 2 1021 64 10000 3.09 330 17:36 11.03.2021
1598 Clouds 3 1020 65 10000 2.06 260 16:38 11.03.2021
1599 Clouds 3 1020 60 10000 3.09 210 16:19 11.03.2021
1600 Clouds 3 1020 60 10000 2.06 280 15:44 11.03.2021
1601 Clouds 3 1024 64 10000 1.11 35 15:20 11.03.2021
1602 Clouds 3 1024 64 10000 1.11 35 15:20 11.03.2021
1603 Clouds 3 1021 65 10000 2.57 330 14:45 11.03.2021
1604 Clouds 3 1021 64 10000 1.54 0 14:18 11.03.2021
1605 Clouds 2 1021 64 10000 2.06 0 13:45 11.03.2021
1606 Clouds 2 1021 69 10000 3.6 350 13:22 11.03.2021
1607 Clouds 2 1021 75 10000 4.12 10 12:55 11.03.2021
1608 Clouds 1 1021 75 10000 4.12 10 12:30 11.03.2021
1609 Clouds 1 1021 75 10000 3.6 20 11:48 11.03.2021
1610 Clouds 1 1021 74 10000 3.6 40 11:30 11.03.2021
1611 Clouds 1 1020 80 10000 2.06 30 10:56 11.03.2021
1612 Clouds 1 1020 74 10000 2.57 30 10:27 11.03.2021
1613 Clouds 1 1020 74 10000 3.6 30 09:52 11.03.2021
1614 Clouds 0 1020 80 10000 3.6 30 09:33 11.03.2021
1615 Snow 0 1019 80 10000 3.09 40 08:50 11.03.2021
1616 Clouds 0 1019 80 10000 3.09 10 08:32 11.03.2021
1617 Clouds -1 1017 80 10000 1.03 0 07:48 11.03.2021
1618 Clouds -1 1017 80 10000 1.03 0 07:21 11.03.2021
1619 Snow -1 1017 80 10000 1.03 0 06:42 11.03.2021
1620 Snow -1 1017 80 10000 1.54 340 06:22 11.03.2021
1621 Snow -1 1015 93 10000 3.6 280 02:31 11.03.2021
1622 Snow -1 1015 93 10000 3.6 280 00:29 11.03.2021
1623 Snow 0 1015 86 10000 3.6 270 23:23 10.03.2021
1624 Snow -1 1015 93 10000 4.12 270 22:42 10.03.2021
1625 Snow 0 1015 93 10000 4.12 280 22:21 10.03.2021
1626 Snow 0 1015 93 10000 4.12 270 21:44 10.03.2021
1627 Snow 0 1015 93 10000 4.12 270 21:44 10.03.2021
1628 Snow 0 1015 93 10000 4.12 280 21:21 10.03.2021
1629 Snow 0 1014 93 10000 3.6 270 20:45 10.03.2021
1630 Snow 0 1014 93 10000 4.12 260 20:27 10.03.2021
1631 Snow 0 1014 93 4000 3.6 270 19:43 10.03.2021
1632 Snow 0 1014 93 2500 3.6 280 19:24 10.03.2021
1633 Snow 0 1014 93 3200 3.6 290 18:44 10.03.2021
1634 Snow 0 1013 100 2700 3.6 280 18:24 10.03.2021
1635 Snow 0 1013 100 3000 3.09 280 17:55 10.03.2021
1636 Snow 0 1013 100 1400 2.57 290 17:36 10.03.2021
1637 Snow 0 1013 100 3000 3.09 280 17:36 10.03.2021
1638 Snow 1 1013 100 1400 2.57 290 17:18 10.03.2021
1639 Snow 1 1012 100 1200 3.6 290 16:41 10.03.2021
1640 Snow 1 1012 100 800 2.57 280 16:21 10.03.2021
1641 Snow 1 1012 100 1400 2.57 290 15:41 10.03.2021
1642 Snow 1 1012 100 1000 2.57 290 15:22 10.03.2021
1643 Snow 1 1011 93 1200 3.09 280 14:43 10.03.2021
1644 Snow 1 1011 87 3000 2.06 330 14:19 10.03.2021
1645 Snow 1 1011 93 5000 2.57 10 13:46 10.03.2021
1646 Snow 2 1011 93 4000 2.57 350 13:25 10.03.2021
1647 Clouds 2 1011 87 4000 2.57 360 12:45 10.03.2021
1648 Clouds 2 1011 87 7000 3.6 60 12:19 10.03.2021
1649 Clouds 3 1011 93 4000 5.66 90 11:32 10.03.2021
1650 Clouds 3 1011 93 4000 5.66 90 11:32 10.03.2021
1651 Clouds 3 1011 93 5000 7.2 100 10:57 10.03.2021
1652 Clouds 3 1011 93 4000 8.23 110 10:34 10.03.2021
1653 Clouds 3 1011 93 4000 8.75 110 09:59 10.03.2021
1654 Clouds 3 1011 93 4000 8.75 110 09:41 10.03.2021
1655 Clouds 3 1011 87 4000 9.77 120 09:21 10.03.2021
1656 Clouds 3 1011 87 5000 9.77 120 08:46 10.03.2021
1657 Clouds 3 1011 87 5000 9.26 110 08:28 10.03.2021
1658 Clouds 3 1011 87 5000 9.77 120 07:55 10.03.2021
1659 Clouds 3 1011 87 6000 8.75 120 07:29 10.03.2021
1660 Clouds 3 1011 87 7000 7.2 110 06:54 10.03.2021
1661 Clouds 3 1011 87 10000 7.2 110 05:59 10.03.2021
1662 Clouds 4 1014 81 10000 3.09 100 00:48 10.03.2021
1663 Clouds 4 1014 81 10000 1.54 140 23:49 09.03.2021
1664 Clouds 4 1015 81 10000 2.06 60 22:58 09.03.2021
1665 Clouds 3 1015 81 10000 1.54 20 22:38 09.03.2021
1666 Clouds 4 1015 81 10000 1.54 20 22:18 09.03.2021
1667 Clouds 4 1015 81 10000 1.54 290 21:44 09.03.2021
1668 Clouds 3 1015 81 10000 1.54 290 21:24 09.03.2021
1669 Clouds 3 1016 81 10000 1.54 310 20:56 09.03.2021
1670 Clouds 3 1016 81 10000 2.06 340 20:38 09.03.2021
1671 Clouds 3 1016 81 10000 2.06 340 20:19 09.03.2021
1672 Clouds 3 1016 81 10000 2.06 340 20:19 09.03.2021
1673 Clouds 4 1016 70 10000 1.03 100 19:43 09.03.2021
1674 Clouds 4 1016 75 10000 2.57 50 19:25 09.03.2021
1675 Clouds 4 1016 70 10000 2.06 50 18:42 09.03.2021
1676 Clouds 4 1016 70 10000 3.09 50 18:20 09.03.2021
1677 Clouds 5 1016 65 10000 1.03 0 17:47 09.03.2021
1678 Clouds 5 1016 60 10000 2.06 130 17:27 09.03.2021
1679 Clouds 6 1016 45 10000 2.57 150 16:41 09.03.2021
1680 Clouds 6 1016 45 10000 2.57 150 16:22 09.03.2021
1681 Clouds 7 1016 45 10000 2.06 140 15:56 09.03.2021
1682 Clouds 8 1016 39 10000 2.57 100 15:28 09.03.2021
1683 Clouds 8 1016 42 10000 2.06 70 14:52 09.03.2021
1684 Clouds 8 1016 42 10000 2.06 70 14:52 09.03.2021
1685 Clouds 8 1018 32 10000 1 97 14:26 09.03.2021
1686 Clouds 9 1017 39 10000 1.03 0 13:43 09.03.2021
1687 Clouds 9 1017 39 10000 1.03 0 13:21 09.03.2021
1688 Clouds 9 1017 39 10000 1.54 70 12:54 09.03.2021
1689 Clouds 9 1017 39 10000 1.54 70 12:54 09.03.2021
1690 Clouds 9 1017 39 10000 1.03 0 12:36 09.03.2021
1691 Clouds 8 1018 42 10000 1.03 0 11:45 09.03.2021
1692 Clouds 8 1018 42 10000 1.03 0 11:23 09.03.2021
1693 Clear 7 1018 45 10000 0.3 21 10:59 09.03.2021
1694 Clear 8 1018 45 10000 1.03 0 10:39 09.03.2021
1695 Clear 6 1018 45 10000 1.03 0 10:21 09.03.2021
1696 Clear 5 1018 52 10000 0.43 7 09:46 09.03.2021
1697 Clear 5 1018 52 10000 0.64 341 09:27 09.03.2021
1698 Clear 4 1019 60 10000 0.65 342 08:57 09.03.2021
1699 Clear 2 1018 64 10000 1.03 0 08:32 09.03.2021
1700 Clear 0 1018 74 10000 1.54 70 07:46 09.03.2021
1701 Clear -1 1018 74 10000 0.77 326 07:26 09.03.2021
1702 Clear 0 1018 86 10000 1.03 0 06:55 09.03.2021
1703 Clear -1 1018 80 10000 1.54 110 05:53 09.03.2021
1704 Clear -1 1017 74 10000 1.03 0 01:31 09.03.2021
1705 Clear -1 1017 74 10000 1.03 0 01:31 09.03.2021
1706 Clear -1 1017 74 10000 1.03 0 01:31 09.03.2021
1707 Clear -1 1017 74 10000 1.03 0 01:31 09.03.2021
1708 Clear -1 1017 74 10000 1.03 0 01:31 09.03.2021
1709 Clear 1 1017 69 10000 1.03 0 23:56 08.03.2021
1710 Clear 1 1017 64 10000 1.03 0 23:37 08.03.2021
1711 Clear 1 1017 64 10000 1.03 0 23:18 08.03.2021
1712 Clouds 2 1016 55 8000 2.06 90 22:40 08.03.2021
1713 Clouds 3 1016 55 8000 2.06 90 22:21 08.03.2021
1714 Clouds 4 1016 44 8000 1.54 320 21:45 08.03.2021
1715 Clouds 4 1016 44 8000 1.54 320 21:26 08.03.2021
1716 Clear 5 1015 33 10000 3.6 290 20:40 08.03.2021
1717 Clear 5 1015 33 10000 3.6 290 20:20 08.03.2021
1718 Clear 6 1015 36 10000 3.09 280 19:40 08.03.2021
1719 Clear 7 1015 36 10000 3.09 280 18:57 08.03.2021
1720 Clear 7 1015 36 10000 3.09 280 18:37 08.03.2021
1721 Clear 8 1014 29 10000 3.6 300 18:18 08.03.2021
1722 Clear 9 1014 29 10000 3.6 300 17:43 08.03.2021
1723 Clear 9 1013 34 10000 5.14 300 17:21 08.03.2021
1724 Clear 10 1013 32 10000 6.17 300 16:41 08.03.2021
1725 Clouds 11 1013 30 10000 5.66 310 16:21 08.03.2021
1726 Clouds 12 1013 30 10000 6.69 290 15:38 08.03.2021
1727 Clouds 12 1013 30 10000 6.69 290 15:20 08.03.2021
1728 Clouds 12 1013 30 10000 7.72 310 14:21 08.03.2021
1729 Clouds 11 1013 32 10000 4.63 290 13:48 08.03.2021
1730 Clouds 11 1013 37 10000 4.12 330 13:23 08.03.2021
1731 Clear 11 1014 40 10000 1.54 0 12:56 08.03.2021
1732 Clear 9 1015 46 10000 2.57 290 12:29 08.03.2021
1733 Clear 8 1015 49 10000 1.54 0 11:45 08.03.2021
1734 Clear 7 1016 57 10000 1.03 0 11:22 08.03.2021
1735 Clear 7 1016 60 10000 1.54 340 10:47 08.03.2021
1736 Clear 4 1016 60 10000 1.54 340 10:28 08.03.2021
1737 Clear 5 1017 60 10000 1.54 0 09:50 08.03.2021
1738 Clear 3 1017 69 9000 1.03 0 09:25 08.03.2021
1739 Clear 0 1017 80 7000 1.03 0 08:32 08.03.2021
1740 Clear -1 1017 86 7000 1.54 140 07:51 08.03.2021
1741 Mist -1 1017 93 5000 1.54 90 07:21 08.03.2021
1742 Clear -3 1017 86 7000 1.54 120 05:20 08.03.2021
1743 Clear -1 1018 93 8000 1.03 0 01:45 08.03.2021
1744 Clear -1 1018 80 9000 1.54 160 00:42 08.03.2021
1745 Clear 0 1019 80 10000 1.03 0 23:53 07.03.2021
1746 Clear 1 1019 80 10000 2.57 130 23:21 07.03.2021
1747 Clear 1 1019 80 10000 3.6 130 22:47 07.03.2021
1748 Clear 1 1019 80 10000 3.6 130 22:26 07.03.2021
1749 Clear 1 1019 86 10000 3.09 120 21:49 07.03.2021
1750 Clear 2 1019 74 10000 2.57 130 21:31 07.03.2021
1751 Clear 2 1019 69 10000 5.14 100 20:56 07.03.2021
1752 Clear 2 1019 75 10000 4.63 100 20:37 07.03.2021
1753 Clear 2 1019 75 10000 4.63 100 20:18 07.03.2021
1754 Clear 3 1019 64 10000 3.6 80 19:39 07.03.2021
1755 Clear 3 1019 64 10000 3.6 80 19:21 07.03.2021
1756 Clear 4 1019 56 10000 2.57 130 18:48 07.03.2021
1757 Clear 4 1019 52 10000 2.06 130 18:20 07.03.2021
1758 Clear 5 1019 48 10000 2.06 110 17:45 07.03.2021
1759 Clear 6 1020 45 10000 2.57 80 17:21 07.03.2021
1760 Clear 7 1020 39 10000 2.06 0 16:59 07.03.2021
1761 Clear 7 1020 42 10000 0.51 0 16:39 07.03.2021
1762 Clear 7 1020 42 10000 0.51 0 16:39 07.03.2021
1763 Clear 7 1020 42 10000 0.51 0 16:20 07.03.2021
1764 Clear 7 1020 42 10000 0.51 0 16:20 07.03.2021
1765 Clear 7 1021 39 10000 1.54 120 15:45 07.03.2021
1766 Clear 7 1021 39 10000 1.54 120 15:24 07.03.2021
1767 Clear 7 1022 42 10000 2.06 0 14:39 07.03.2021
1768 Clear 7 1022 42 10000 2.06 0 14:20 07.03.2021
1769 Clear 6 1023 45 10000 2.06 0 13:41 07.03.2021
1770 Clear 6 1023 45 10000 2.06 0 13:21 07.03.2021
1771 Clear 5 1024 48 10000 1.03 0 12:47 07.03.2021
1772 Clear 5 1024 48 10000 2.06 110 12:28 07.03.2021
1773 Clear 4 1025 48 10000 1.54 0 11:45 07.03.2021
1774 Clear 3 1025 52 10000 1.54 0 11:22 07.03.2021
1775 Clear 4 1027 48 10000 1.54 0 10:43 07.03.2021
1776 Clear 4 1027 48 10000 1.54 0 10:25 07.03.2021
1777 Clear 2 1027 51 10000 1.54 0 09:43 07.03.2021
1778 Clear 0 1028 55 10000 0.51 0 09:23 07.03.2021
1779 Clear 0 1028 59 10000 1.03 0 08:45 07.03.2021
1780 Clear -1 1028 64 10000 0.51 0 08:24 07.03.2021
1781 Clear -3 1028 68 10000 0.51 0 07:34 07.03.2021
1782 Clouds -2 1028 64 10000 3.6 270 02:42 07.03.2021
1783 Clouds 0 1028 55 10000 4.12 280 00:51 07.03.2021
1784 Clouds 0 1028 55 10000 4.63 270 23:46 06.03.2021
1785 Clouds 0 1028 55 10000 5.14 270 23:24 06.03.2021
1786 Clouds 0 1028 55 10000 5.66 270 22:48 06.03.2021
1787 Clouds 0 1028 51 10000 5.66 270 22:28 06.03.2021
1788 Clouds 1 1028 51 10000 6.17 270 21:58 06.03.2021
1789 Clouds 1 1028 51 10000 6.69 270 21:22 06.03.2021
1790 Clouds 1 1028 55 10000 6.17 270 20:52 06.03.2021
1791 Clouds 1 1028 51 10000 7.2 280 20:27 06.03.2021
1792 Clouds 2 1027 51 10000 6.69 280 19:49 06.03.2021
1793 Clouds 2 1027 51 10000 6.17 280 19:22 06.03.2021
1794 Clouds 2 1027 51 10000 6.17 280 18:54 06.03.2021
1795 Clouds 2 1026 51 10000 5.66 280 18:36 06.03.2021
1796 Clouds 3 1026 51 10000 5.66 280 18:18 06.03.2021
1797 Clouds 3 1026 48 10000 6.69 280 17:42 06.03.2021
1798 Clouds 3 1025 48 10000 6.17 280 17:21 06.03.2021
1799 Clouds 5 1025 45 10000 7.72 280 16:42 06.03.2021
1800 Clouds 5 1025 45 10000 7.72 280 16:24 06.03.2021
1801 Clouds 6 1025 48 10000 7.72 280 15:48 06.03.2021
1802 Clouds 6 1025 48 10000 6.69 290 15:29 06.03.2021
1803 Clouds 6 1025 60 10000 4.12 320 14:51 06.03.2021
1804 Clouds 4 1025 65 10000 4.63 300 14:28 06.03.2021
1805 Clouds 5 1025 75 6000 6.69 280 13:40 06.03.2021
1806 Clouds 5 1025 75 6000 6.69 280 13:20 06.03.2021
1807 Clouds 4 1025 87 4500 7.2 270 12:44 06.03.2021
1808 Clouds 3 1025 87 4000 8.23 270 12:20 06.03.2021
1809 Clouds 3 1025 86 3500 8.23 280 11:54 06.03.2021
1810 Snow 2 1025 93 5000 7.2 280 11:21 06.03.2021
1811 Snow 1 1024 93 5000 8.23 280 10:48 06.03.2021
1812 Snow 2 1024 93 5000 8.23 280 10:19 06.03.2021
1813 Clouds 2 1024 87 5000 8.75 290 09:46 06.03.2021
1814 Clouds 3 1023 81 7000 8.23 270 09:19 06.03.2021
1815 Clouds 3 1022 87 8000 8.23 270 08:39 06.03.2021
1816 Clouds 4 1021 81 8000 7.72 280 07:57 06.03.2021
1817 Clouds 5 1021 75 7000 6.69 280 07:24 06.03.2021
1818 Clouds 6 1020 65 10000 4.63 280 06:55 06.03.2021
1819 Clear 6 1019 70 10000 5.14 270 05:34 06.03.2021
1820 Clear 6 1019 70 10000 5.14 270 05:34 06.03.2021
1821 Clear 7 1018 56 10000 1.54 60 02:38 06.03.2021
1822 Clear 7 1018 45 10000 1.03 0 00:47 06.03.2021
1823 Clear 8 1017 48 10000 1.03 0 23:53 05.03.2021
1824 Clear 7 1017 45 10000 1.54 260 23:29 05.03.2021
1825 Clouds 8 1017 39 8000 1.54 40 22:46 05.03.2021
1826 Clouds 7 1017 39 8000 1.54 40 22:23 05.03.2021
1827 Clear 6 1016 42 10000 1.54 360 21:53 05.03.2021
1828 Clear 6 1016 45 10000 2.06 50 21:34 05.03.2021
1829 Clouds 11 1015 28 8000 2.57 350 20:54 05.03.2021
1830 Clouds 8 1015 34 8000 4.12 270 20:27 05.03.2021
1831 Clear 9 1015 31 10000 3.6 280 19:59 05.03.2021
1832 Clear 8 1015 34 10000 2.57 280 19:27 05.03.2021
1833 Clear 8 1015 36 10000 3.09 290 18:58 05.03.2021
1834 Clear 13 1014 21 10000 3.6 290 18:40 05.03.2021
1835 Clear 13 1014 21 10000 3.6 290 18:21 05.03.2021
1836 Clear 14 1014 19 10000 2.57 310 17:36 05.03.2021
1837 Clear 14 1014 19 10000 2.57 310 17:36 05.03.2021
1838 Clear 16 1013 16 10000 3.6 300 16:50 05.03.2021
1839 Clear 17 1013 16 10000 2.57 330 16:25 05.03.2021
1840 Clear 17 1013 19 10000 4.12 350 15:59 05.03.2021
1841 Clear 18 1013 16 10000 2.06 0 15:40 05.03.2021
1842 Clear 18 1013 16 10000 2.06 0 15:21 05.03.2021
1843 Clear 18 1013 16 10000 2.06 280 14:38 05.03.2021
1844 Clear 17 1013 14 10000 4.12 320 13:55 05.03.2021
1845 Clear 17 1014 17 10000 3.6 350 13:22 05.03.2021
1846 Clear 16 1014 17 10000 4.12 300 12:55 05.03.2021
1847 Clear 14 1015 28 10000 1.54 160 11:56 05.03.2021
1848 Clear 13 1016 30 10000 1.03 0 11:36 05.03.2021
1849 Clear 13 1016 30 10000 1.03 0 11:18 05.03.2021
1850 Clear 13 1016 30 10000 1.03 0 11:18 05.03.2021
1851 Clear 11 1016 37 10000 1.54 0 10:40 05.03.2021
1852 Clear 11 1016 37 10000 1.54 0 10:21 05.03.2021
1853 Clear 8 1017 49 10000 2.01 276 09:47 05.03.2021
1854 Clear 9 1017 57 10000 1.54 0 09:26 05.03.2021
1855 Clear 4 1017 70 10000 1.03 0 08:40 05.03.2021
1856 Clear 4 1017 70 10000 1.03 0 08:21 05.03.2021
1857 Clear 3 1017 86 10000 1.03 0 07:38 05.03.2021
1858 Clear -2 1017 86 10000 1.03 0 06:45 05.03.2021
1859 Clear -3 1016 86 10000 1.03 0 06:27 05.03.2021
1860 Clear 4 1016 74 10000 2.06 120 01:40 05.03.2021
1861 Clear 6 1016 65 10000 1.54 0 00:19 05.03.2021
1862 Clear 6 1017 60 10000 2.06 150 23:25 04.03.2021
1863 Clear 7 1017 60 10000 1.54 140 22:31 04.03.2021
1864 Clear 6 1017 65 9000 2.06 110 21:56 04.03.2021
1865 Clear 4 1017 65 10000 1.03 0 21:34 04.03.2021
1866 Clear 6 1017 56 10000 1.03 0 20:59 04.03.2021
1867 Clear 7 1017 53 10000 1.03 0 20:40 04.03.2021
1868 Clear 7 1017 53 10000 1.03 0 20:21 04.03.2021
1869 Clear 9 1017 46 10000 0.97 245 19:51 04.03.2021
1870 Clear 11 1017 40 10000 2.57 350 19:26 04.03.2021
1871 Clear 11 1017 40 9000 1.54 0 18:52 04.03.2021
1872 Clear 10 1017 46 10000 2.06 170 18:30 04.03.2021
1873 Clear 13 1016 35 10000 2.06 130 17:50 04.03.2021
1874 Clear 13 1016 35 10000 2.06 130 17:31 04.03.2021
1875 Clear 17 1016 29 10000 2.06 90 16:51 04.03.2021
1876 Clear 18 1017 22 10000 1.2 288 16:32 04.03.2021
1877 Clear 18 1017 24 10000 1.72 273 15:57 04.03.2021
1878 Clear 18 1017 22 10000 0.51 0 15:38 04.03.2021
1879 Clear 18 1017 22 10000 0.51 0 15:38 04.03.2021
1880 Clear 18 1017 22 10000 0.51 0 15:20 04.03.2021
1881 Clear 17 1018 27 10000 1.03 0 14:39 04.03.2021
1882 Clear 16 1019 33 10000 1.54 0 13:57 04.03.2021
1883 Clear 15 1019 33 10000 1.03 0 13:36 04.03.2021
1884 Clear 15 1019 33 10000 1.03 0 13:18 04.03.2021
1885 Clear 13 1021 38 10000 1.54 220 12:40 04.03.2021
1886 Clear 11 1022 43 10000 1.54 0 11:49 04.03.2021
1887 Clear 10 1022 46 10000 1.03 0 11:28 04.03.2021
1888 Clear 9 1023 46 10000 1.54 290 10:57 04.03.2021
1889 Clear 9 1023 53 10000 1.03 0 10:35 04.03.2021
1890 Clear 8 1024 56 10000 1.03 0 09:51 04.03.2021
1891 Clear 6 1024 60 10000 1.22 270 09:26 04.03.2021
1892 Clear 4 1024 70 10000 1.03 0 08:49 04.03.2021
1893 Clear 2 1025 80 10000 1.03 0 08:23 04.03.2021
1894 Clear -1 1025 86 10000 1.54 110 07:35 04.03.2021
1895 Clear 0 1025 93 8000 1.54 100 06:28 04.03.2021
1896 Clear -1 1025 93 10000 1.54 110 05:52 04.03.2021
1897 Clear 2 1026 80 10000 0.53 225 02:20 04.03.2021
1898 Clear 4 1028 69 10000 2.57 140 23:36 03.03.2021
1899 Clear 4 1028 69 8000 2.57 140 22:29 03.03.2021
1900 Clear 6 1028 65 9000 1.54 130 21:57 03.03.2021
1901 Clear 7 1028 60 9000 1.54 50 21:39 03.03.2021
1902 Clear 7 1028 60 9000 1.54 50 21:21 03.03.2021
1903 Clear 4 1028 60 10000 1.54 90 20:43 03.03.2021
1904 Clear 7 1028 53 10000 1.54 40 20:24 03.03.2021
1905 Clear 7 1028 49 10000 2.06 290 19:47 03.03.2021
1906 Clear 11 1028 37 10000 2.57 290 19:28 03.03.2021
1907 Clear 10 1028 40 8000 3.09 260 18:48 03.03.2021
1908 Clear 11 1027 35 10000 2.57 280 18:30 03.03.2021
1909 Clear 12 1027 35 10000 2.06 290 17:56 03.03.2021
1910 Clear 14 1027 30 10000 2.06 300 17:20 03.03.2021
1911 Clear 15 1027 29 10000 2.06 280 16:50 03.03.2021
1912 Clear 16 1027 25 10000 2.57 270 16:27 03.03.2021
1913 Clear 15 1027 23 10000 2.57 270 15:49 03.03.2021
1914 Clear 16 1028 25 10000 2.57 270 15:28 03.03.2021
1915 Clear 15 1028 31 10000 2.57 280 14:34 03.03.2021
1916 Clear 14 1029 30 10000 2.57 290 13:59 03.03.2021
1917 Clear 13 1029 38 10000 2.57 0 13:37 03.03.2021
1918 Clear 13 1029 41 10000 1.54 0 13:18 03.03.2021
1919 Clear 11 1030 46 10000 1.54 250 12:40 03.03.2021
1920 Clear 11 1030 46 10000 1.54 250 12:22 03.03.2021
1921 Clear 11 1030 46 10000 1.54 0 11:43 03.03.2021
1922 Clear 9 1031 57 10000 2.06 0 11:21 03.03.2021
1923 Clear 9 1031 61 10000 3.09 350 10:43 03.03.2021
1924 Clear 7 1031 61 10000 3.09 350 10:20 03.03.2021
1925 Clear 7 1032 65 10000 1.03 0 09:40 03.03.2021
1926 Clear 4 1032 70 10000 1.03 0 08:49 03.03.2021
1927 Clear 3 1032 75 10000 1.54 130 08:23 03.03.2021
1928 Clear 1 1032 86 7000 1.54 90 07:52 03.03.2021
1929 Clear 0 1032 86 8000 1.54 130 07:20 03.03.2021
1930 Clear 0 1032 86 10000 1.14 289 06:19 03.03.2021
1931 Clear 0 1031 86 10000 1.03 0 05:30 03.03.2021
1932 Clear 1 1031 86 10000 1.18 289 04:36 03.03.2021
1933 Clear 1 1031 86 10000 1.03 0 03:52 03.03.2021
1934 Clear 4 1031 60 10000 2.06 340 00:18 03.03.2021
1935 Clear 4 1031 60 10000 5.14 270 23:32 02.03.2021
1936 Clear 3 1031 65 10000 5.66 260 22:44 02.03.2021
1937 Clear 4 1031 60 10000 6.17 260 22:21 02.03.2021
1938 Clear 5 1031 56 10000 5.14 270 21:43 02.03.2021
1939 Clear 6 1031 52 10000 5.14 290 21:23 02.03.2021
1940 Clear 6 1030 52 10000 5.66 300 20:49 02.03.2021
1941 Clear 7 1030 49 10000 5.66 290 20:23 02.03.2021
1942 Clear 7 1030 53 10000 4.63 280 19:58 02.03.2021
1943 Clear 7 1030 53 10000 4.63 280 19:58 02.03.2021
1944 Clear 7 1030 53 10000 5.14 280 19:39 02.03.2021
1945 Clear 7 1030 53 10000 5.14 280 19:21 02.03.2021
1946 Clear 9 1030 46 10000 5.66 280 18:41 02.03.2021
1947 Clear 9 1030 46 10000 5.66 280 18:21 02.03.2021
1948 Clear 9 1030 46 10000 4.63 280 17:49 02.03.2021
1949 Clouds 10 1029 43 10000 5.14 280 17:30 02.03.2021
1950 Clouds 10 1029 43 10000 5.14 280 17:30 02.03.2021
1951 Clouds 10 1029 43 10000 5.14 280 17:30 02.03.2021
1952 Clouds 10 1029 43 10000 5.14 280 17:30 02.03.2021
1953 Clouds 10 1029 43 10000 5.14 280 17:30 02.03.2021
1954 Clouds 11 1029 40 10000 5.14 290 16:54 02.03.2021
1955 Clouds 11 1029 40 10000 4.12 290 16:22 02.03.2021
1956 Clouds 12 1029 35 10000 3.09 310 15:49 02.03.2021
1957 Clouds 12 1029 35 10000 4.12 300 15:22 02.03.2021
1958 Clear 11 1030 40 10000 4.12 290 14:23 02.03.2021
1959 Clear 11 1030 37 10000 4.12 280 13:49 02.03.2021
1960 Clouds 10 1030 43 10000 4.12 260 13:31 02.03.2021
1961 Clouds 9 1031 43 10000 3.6 280 12:55 02.03.2021
1962 Clouds 9 1032 43 10000 4.12 270 12:29 02.03.2021
1963 Clear 8 1032 46 10000 3.09 270 11:53 02.03.2021
1964 Clear 7 1032 49 10000 2.57 0 11:32 02.03.2021
1965 Clear 7 1033 53 10000 2.06 240 10:57 02.03.2021
1966 Clear 7 1033 53 10000 2.06 240 10:32 02.03.2021
1967 Clear 4 1033 70 10000 2.06 290 09:57 02.03.2021
1968 Clear 4 1033 75 8000 0.51 0 09:39 02.03.2021
1969 Clear 4 1033 75 8000 0.51 0 09:39 02.03.2021
1970 Clear 3 1033 75 8000 0.51 0 09:18 02.03.2021
1971 Mist 1 1033 86 5000 2.06 110 08:36 02.03.2021
1972 Mist 0 1033 93 7000 1.54 130 07:52 02.03.2021
1973 Mist 0 1033 93 6000 0.25 353 06:59 02.03.2021
1974 Clouds -2 1033 100 8000 1.54 180 05:54 02.03.2021
1975 Clouds -2 1033 100 8000 1.54 180 05:34 02.03.2021
1976 Clouds -1 1032 93 10000 1.03 0 04:58 02.03.2021
1977 Clouds 1 1033 86 10000 1.03 20 01:44 02.03.2021
1978 Clouds 1 1033 86 10000 1.03 0 01:22 02.03.2021
1979 Mist 1 1032 86 4900 2.06 260 23:45 01.03.2021
1980 Clouds 1 1032 93 8000 1.03 0 23:21 01.03.2021
1981 Clouds 0 1032 86 10000 0.69 38 22:39 01.03.2021
1982 Clouds -1 1032 86 10000 0.94 37 22:21 01.03.2021
1983 Clouds 1 1031 75 10000 1.03 0 21:43 01.03.2021
1984 Clouds 2 1031 75 10000 1.03 0 21:23 01.03.2021
1985 Clouds 2 1031 75 10000 1.54 60 20:46 01.03.2021
1986 Clouds 3 1030 75 10000 1.03 120 20:27 01.03.2021
1987 Clouds 2 1030 75 10000 1.03 0 19:45 01.03.2021
1988 Clouds 2 1030 69 10000 2.57 160 19:27 01.03.2021
1989 Clouds 3 1029 70 10000 2.57 70 18:44 01.03.2021
1990 Clouds 3 1029 70 10000 2.57 70 18:24 01.03.2021
1991 Clouds 5 1029 60 10000 4.63 70 17:49 01.03.2021
1992 Clouds 5 1029 60 10000 3.09 60 17:24 01.03.2021
1993 Clouds 6 1028 56 10000 4.12 60 16:48 01.03.2021
1994 Clouds 6 1028 56 10000 4.63 60 16:30 01.03.2021
1995 Clouds 7 1028 53 10000 4.63 40 15:56 01.03.2021
1996 Clouds 6 1027 52 10000 4.12 30 15:36 01.03.2021
1997 Clouds 7 1027 52 10000 4.12 30 15:18 01.03.2021
1998 Clouds 7 1027 49 10000 5.14 20 14:40 01.03.2021
1999 Clouds 8 1027 49 10000 5.14 20 13:57 01.03.2021
2000 Clouds 8 1026 42 10000 4.12 360 13:37 01.03.2021
2001 Clouds 8 1026 42 10000 4.12 360 13:19 01.03.2021
2002 Clouds 9 1026 43 10000 4.12 300 12:42 01.03.2021
2003 Clouds 9 1026 43 10000 4.12 300 12:24 01.03.2021
2004 Clouds 8 1027 46 10000 6.17 280 11:49 01.03.2021
2005 Clouds 7 1027 45 10000 5.66 270 11:23 01.03.2021
2006 Clouds 7 1027 45 10000 5.66 270 11:23 01.03.2021
2007 Clear 6 1027 56 10000 6.69 270 10:37 01.03.2021
2008 Clear 6 1027 56 10000 6.69 270 10:19 01.03.2021
2009 Clear 5 1027 60 10000 5.66 290 09:50 01.03.2021
2010 Clear 5 1027 65 10000 5.14 290 09:28 01.03.2021
2011 Clear 4 1027 70 10000 3.6 300 08:55 01.03.2021
2012 Clear 3 1027 65 10000 3.6 320 08:30 01.03.2021
2013 Clear 0 1027 86 10000 2.11 286 07:19 01.03.2021
2014 Clear 0 1027 86 10000 2.57 330 06:24 01.03.2021
2015 Clear 2 1028 74 10000 3.09 310 02:38 01.03.2021
2016 Clear 4 1028 56 10000 4.12 280 23:47 28.02.2021
2017 Clear 3 1028 64 10000 2.57 300 22:57 28.02.2021
2018 Clear 4 1029 65 10000 2.06 350 22:37 28.02.2021
2019 Clear 4 1029 65 10000 2.06 350 22:18 28.02.2021
2020 Clear 3 1028 65 10000 3.6 280 21:37 28.02.2021
2021 Clear 3 1028 65 10000 3.6 280 21:18 28.02.2021
2022 Clear 3 1028 65 10000 4.63 260 20:39 28.02.2021
2023 Clear 3 1028 65 10000 4.63 260 20:18 28.02.2021
2024 Clear 5 1028 56 10000 4.12 270 19:46 28.02.2021
2025 Clear 6 1028 52 10000 2.06 310 19:24 28.02.2021
2026 Clear 7 1028 49 10000 4.12 290 18:44 28.02.2021
2027 Clear 8 1028 42 10000 4.12 290 18:26 28.02.2021
2028 Clear 8 1027 42 10000 4.63 280 17:51 28.02.2021
2029 Clear 9 1027 40 10000 5.14 280 17:28 28.02.2021
2030 Clear 9 1027 40 10000 5.14 280 17:28 28.02.2021
2031 Clouds 10 1027 37 10000 4.12 290 16:56 28.02.2021
2032 Clouds 10 1027 40 10000 4.63 270 16:38 28.02.2021
2033 Clouds 10 1027 40 10000 4.63 270 16:18 28.02.2021
2034 Clouds 10 1027 34 10000 2.57 300 15:47 28.02.2021
2035 Clear 11 1027 30 10000 3.09 320 15:24 28.02.2021
2036 Clear 10 1027 37 10000 3.09 0 14:52 28.02.2021
2037 Clear 10 1028 34 10000 3.09 260 14:29 28.02.2021
2038 Clouds 10 1028 40 10000 3.09 0 13:52 28.02.2021
2039 Clouds 9 1028 40 10000 2.06 0 13:21 28.02.2021
2040 Clouds 9 1029 40 10000 3.6 250 12:56 28.02.2021
2041 Clouds 9 1029 40 10000 2.06 0 12:38 28.02.2021
2042 Clouds 9 1029 40 10000 2.06 0 12:19 28.02.2021
2043 Clouds 8 1029 49 10000 2.57 220 11:44 28.02.2021
2044 Clouds 9 1030 46 10000 3.09 300 11:25 28.02.2021
2045 Clouds 7 1030 57 10000 3.09 270 10:55 28.02.2021
2046 Clouds 6 1030 56 10000 2.57 290 10:29 28.02.2021
2047 Clouds 6 1030 61 10000 4.12 260 09:52 28.02.2021
2048 Clouds 6 1030 65 10000 5.14 270 09:33 28.02.2021
2049 Clouds 4 1030 65 10000 5.14 270 08:50 28.02.2021
2050 Clouds 4 1030 70 10000 4.12 280 08:31 28.02.2021
2051 Clouds 3 1030 70 10000 4.12 280 07:57 28.02.2021
2052 Clouds 3 1029 70 10000 4.12 280 07:37 28.02.2021
2053 Clouds 3 1029 80 10000 4.12 270 06:55 28.02.2021
2054 Clouds 2 1029 75 10000 5.66 260 05:25 28.02.2021
2055 Clouds 3 1028 75 10000 5.14 270 03:44 28.02.2021
2056 Clouds 4 1028 70 10000 6.17 270 01:55 28.02.2021
2057 Clouds 5 1027 70 10000 5.14 280 00:52 28.02.2021
2058 Clouds 5 1027 70 10000 5.14 280 00:34 28.02.2021
2059 Clear 5 1027 65 10000 5.66 280 23:45 27.02.2021
2060 Clear 6 1026 65 10000 6.17 290 23:19 27.02.2021
2061 Clear 6 1026 65 10000 6.69 290 22:49 27.02.2021
2062 Clear 6 1026 65 10000 6.17 280 22:21 27.02.2021
2063 Clear 7 1025 70 10000 7.2 280 21:46 27.02.2021
2064 Clear 8 1025 66 10000 8.23 280 21:24 27.02.2021
2065 Clear 8 1025 66 10000 8.23 280 20:49 27.02.2021
2066 Clear 9 1024 66 10000 8.23 280 20:28 27.02.2021
2067 Clear 9 1023 66 10000 8.75 280 19:46 27.02.2021
2068 Clear 10 1023 66 10000 7.2 280 19:27 27.02.2021
2069 Clear 10 1022 66 10000 7.72 280 18:46 27.02.2021
2070 Clear 12 1022 58 10000 6.17 290 18:22 27.02.2021
2071 Clear 13 1021 54 10000 6.17 290 17:58 27.02.2021
2072 Clear 13 1021 54 10000 6.17 290 17:38 27.02.2021
2073 Clear 15 1020 47 10000 6.69 280 17:19 27.02.2021
2074 Clear 16 1020 44 10000 5.14 310 16:49 27.02.2021
2075 Clear 17 1020 39 10000 5.66 300 16:27 27.02.2021
2076 Clear 17 1020 39 10000 5.14 300 15:44 27.02.2021
2077 Clear 18 1020 34 10000 6.17 280 15:19 27.02.2021
2078 Clear 18 1020 34 10000 6.17 270 14:40 27.02.2021
2079 Clear 18 1020 36 10000 6.17 260 14:21 27.02.2021
2080 Clear 17 1020 39 10000 5.66 260 13:40 27.02.2021
2081 Clear 17 1020 34 10000 6.69 270 13:19 27.02.2021
2082 Clear 17 1020 34 10000 5.14 300 12:45 27.02.2021
2083 Clear 17 1020 34 10000 5.14 300 12:45 27.02.2021
2084 Clear 16 1021 39 10000 5.14 280 12:24 27.02.2021
2085 Clear 16 1021 41 10000 4.63 290 11:47 27.02.2021
2086 Clear 14 1021 51 10000 4.12 290 11:29 27.02.2021
2087 Clear 12 1022 58 10000 3.09 290 10:50 27.02.2021
2088 Clear 10 1022 62 10000 2.06 0 10:32 27.02.2021
2089 Clear 8 1022 71 10000 0.51 0 09:52 27.02.2021
2090 Clear 7 1022 70 10000 0.51 0 09:31 27.02.2021
2091 Clear 4 1022 87 8000 1.54 40 08:43 27.02.2021
2092 Clear 3 1022 87 8000 1.03 70 08:22 27.02.2021
2093 Clear 2 1022 87 8000 1.52 286 07:43 27.02.2021
2094 Clouds 0 1022 93 8000 1.54 160 06:33 27.02.2021
2095 Clear 2 1023 87 8000 1.03 100 01:22 27.02.2021
2096 Clear 2 1023 87 8000 1.03 100 01:22 27.02.2021
2097 Clear 3 1023 87 7000 0.58 240 00:26 27.02.2021
2098 Clear 6 1023 87 7000 1.54 80 23:40 26.02.2021
2099 Smoke 6 1023 87 8000 1.03 250 23:20 26.02.2021
2100 Clear 9 1023 53 10000 2.06 140 22:33 26.02.2021
2101 Clear 8 1023 75 10000 2.06 170 21:53 26.02.2021
2102 Clear 8 1023 70 10000 2.06 220 21:35 26.02.2021
2103 Clear 9 1023 70 9000 2.06 190 20:45 26.02.2021
2104 Clear 9 1024 70 9000 2.06 120 20:25 26.02.2021
2105 Clear 9 1024 70 8000 3.09 110 19:53 26.02.2021
2106 Clear 10 1024 66 10000 2.06 90 19:26 26.02.2021
2107 Clear 12 1024 58 10000 2.06 220 18:49 26.02.2021
2108 Clear 12 1024 54 10000 1.54 200 18:24 26.02.2021
2109 Clear 13 1024 47 10000 0.21 139 17:48 26.02.2021
2110 Clear 16 1024 39 10000 0.23 111 17:30 26.02.2021
2111 Clear 17 1024 39 10000 0.24 111 16:57 26.02.2021
2112 Clear 18 1024 34 10000 0.24 111 16:38 26.02.2021
2113 Clear 18 1024 34 10000 0.2 46 16:20 26.02.2021
2114 Clear 18 1024 34 10000 1.03 0 15:43 26.02.2021
2115 Clear 18 1025 36 10000 1.54 180 15:23 26.02.2021
2116 Clear 18 1025 34 10000 1.03 0 14:51 26.02.2021
2117 Clear 17 1025 36 10000 1.03 0 14:32 26.02.2021
2118 Clear 17 1026 39 10000 1.03 0 13:47 26.02.2021
2119 Clear 16 1026 41 10000 1.03 0 13:28 26.02.2021
2120 Clear 15 1027 47 10000 1.54 0 12:48 26.02.2021
2121 Clear 14 1028 47 10000 1.03 0 12:26 26.02.2021
2122 Clear 13 1027 50 10000 1.54 110 11:39 26.02.2021
2123 Clear 11 1029 58 10000 1.03 0 10:54 26.02.2021
2124 Clear 9 1030 66 10000 1.54 230 10:21 26.02.2021
2125 Clear 7 1030 70 10000 0.51 0 09:47 26.02.2021
2126 Clear 6 1030 75 10000 0.18 107 09:27 26.02.2021
2127 Clear 3 1030 87 8000 0.18 105 08:32 26.02.2021
2128 Clear 1 1030 93 8000 1.03 260 07:54 26.02.2021
2129 Clear -1 1030 93 6000 0.22 160 06:48 26.02.2021
2130 Clear -1 1030 93 7000 0.51 140 05:40 26.02.2021
2131 Clear 0 1030 93 7000 1.54 120 04:49 26.02.2021
2132 Clear 1 1031 93 7000 1.54 80 02:36 26.02.2021
2133 Clear 3 1032 81 8000 0.37 84 00:24 26.02.2021
2134 Clear 4 1032 81 8000 1.03 0 23:30 25.02.2021
2135 Clear 5 1032 75 10000 1.03 0 22:51 25.02.2021
2136 Clear 7 1032 75 8000 3.09 150 22:31 25.02.2021
2137 Clear 5 1032 75 8000 0.51 0 21:48 25.02.2021
2138 Clear 5 1032 75 8000 2.06 40 21:30 25.02.2021
2139 Clear 7 1032 65 10000 0.51 0 20:43 25.02.2021
2140 Clear 8 1032 61 10000 1.03 0 20:24 25.02.2021
2141 Clear 10 1032 53 10000 2.06 200 19:53 25.02.2021
2142 Clear 10 1031 57 10000 1.54 150 19:22 25.02.2021
2143 Clear 11 1031 54 10000 2.06 90 18:59 25.02.2021
2144 Clear 13 1031 47 10000 2.06 20 18:33 25.02.2021
2145 Clear 13 1031 47 10000 2.06 20 17:57 25.02.2021
2146 Clear 15 1031 41 10000 1.54 20 17:30 25.02.2021
2147 Clear 17 1031 34 10000 2.06 10 16:54 25.02.2021
2148 Clear 17 1031 36 10000 2.06 20 16:31 25.02.2021
2149 Clear 18 1031 29 10000 1.54 40 15:36 25.02.2021
2150 Clear 17 1031 36 10000 1.54 150 15:18 25.02.2021
2151 Clear 17 1032 39 10000 1.03 0 14:29 25.02.2021
2152 Clear 16 1032 36 10000 0.51 0 13:57 25.02.2021
2153 Clear 16 1032 36 10000 0.51 0 13:39 25.02.2021
2154 Clouds 16 1033 41 8000 0.51 0 13:18 25.02.2021
2155 Clouds 13 1034 47 8000 1.03 0 12:23 25.02.2021
2156 Clouds 11 1034 58 8000 1.03 0 11:48 25.02.2021
2157 Clouds 11 1035 58 8000 1.03 0 11:22 25.02.2021
2158 Clouds 9 1035 61 8000 0.51 0 10:47 25.02.2021
2159 Clouds 8 1035 66 8000 0.27 2 10:29 25.02.2021
2160 Clouds 6 1035 75 7000 0.28 6 09:45 25.02.2021
2161 Mist 3 1035 87 4000 1.03 0 08:57 25.02.2021
2162 Mist 1 1035 93 3500 1.03 90 08:25 25.02.2021
2163 Mist 0 1035 100 2500 1.54 70 07:57 25.02.2021
2164 Mist -1 1035 100 3000 1.03 70 07:35 25.02.2021
2165 Mist -1 1035 93 2500 0.11 38 06:55 25.02.2021
2166 Mist 0 1035 93 5000 1.03 130 02:59 25.02.2021
2167 Mist 1 1035 93 5000 2.06 100 01:38 25.02.2021
2168 Mist 1 1035 93 5000 2.06 100 01:38 25.02.2021
2169 Mist 1 1035 93 5000 1.54 150 00:42 25.02.2021
2170 Mist 2 1035 93 5000 0.51 0 23:53 24.02.2021
2171 Mist 2 1035 93 5000 2.06 350 23:28 24.02.2021
2172 Mist 2 1035 93 5000 1.03 140 22:45 24.02.2021
2173 Mist 2 1036 93 4500 2.06 20 22:26 24.02.2021
2174 Mist 2 1036 93 4500 2.06 20 22:26 24.02.2021
2175 Mist 4 1035 87 5000 1.03 0 21:46 24.02.2021
2176 Mist 5 1035 81 5000 1.01 64 21:19 24.02.2021
2177 Mist 6 1035 81 5000 1.54 0 20:41 24.02.2021
2178 Clouds 6 1034 81 8000 2.06 290 20:22 24.02.2021
2179 Clear 8 1034 71 10000 2.06 230 19:36 24.02.2021
2180 Clear 8 1034 71 10000 2.06 230 19:18 24.02.2021
2181 Clear 10 1034 66 10000 2.06 150 18:39 24.02.2021
2182 Clear 10 1034 66 10000 2.06 150 18:21 24.02.2021
2183 Clear 11 1034 62 10000 3.09 70 17:38 24.02.2021
2184 Clear 12 1034 62 10000 4.12 50 17:18 24.02.2021
2185 Clear 13 1033 58 10000 4.63 50 16:43 24.02.2021
2186 Clear 14 1033 47 10000 3.6 110 16:19 24.02.2021
2187 Clear 14 1033 47 10000 1.54 0 15:40 24.02.2021
2188 Clouds 14 1033 47 10000 2.06 110 14:55 24.02.2021
2189 Clear 15 1034 47 10000 2.57 90 14:35 24.02.2021
2190 Clear 14 1034 47 10000 1.03 0 13:58 24.02.2021
2191 Clear 14 1034 51 10000 2.06 0 13:39 24.02.2021
2192 Clear 14 1034 51 10000 2.06 0 13:20 24.02.2021
2193 Clouds 13 1034 50 10000 2.06 250 12:44 24.02.2021
2194 Clear 13 1034 54 10000 2.57 290 12:23 24.02.2021
2195 Clear 12 1035 54 10000 3.6 240 11:46 24.02.2021
2196 Clear 11 1035 62 10000 3.6 270 10:51 24.02.2021
2197 Clouds 9 1035 71 8000 2.57 290 10:29 24.02.2021
2198 Clouds 7 1035 76 7000 1.03 0 09:41 24.02.2021
2199 Clouds 5 1035 81 7000 1.03 0 09:19 24.02.2021
2200 Mist 2 1035 87 5000 0.51 0 08:34 24.02.2021
2201 Clear 0 1035 93 6000 1.03 0 07:57 24.02.2021
2202 Clear -1 1035 93 6000 2.06 120 07:20 24.02.2021
2203 Clear -1 1034 93 6000 3.09 110 06:20 24.02.2021
2204 Clear -1 1033 86 8000 2.06 90 03:25 24.02.2021
2205 Clear 2 1033 87 8000 1.54 90 00:20 24.02.2021
2206 Clear 5 1033 75 10000 1.54 10 23:20 23.02.2021
2207 Clear 6 1033 70 8000 3.09 290 22:37 23.02.2021
2208 Clear 6 1033 70 8000 3.09 290 22:19 23.02.2021
2209 Clear 7 1032 65 10000 3.6 300 21:42 23.02.2021
2210 Clear 10 1032 50 10000 2.06 10 21:22 23.02.2021
2211 Clear 11 1032 46 10000 3.6 280 20:48 23.02.2021
2212 Clear 12 1031 47 10000 6.17 280 20:29 23.02.2021
2213 Clear 11 1031 50 10000 6.17 270 19:47 23.02.2021
2214 Clear 11 1031 50 10000 5.66 270 19:27 23.02.2021
2215 Clear 12 1031 47 10000 5.66 270 18:53 23.02.2021
2216 Clear 12 1031 47 10000 5.14 270 18:31 23.02.2021
2217 Clear 12 1030 47 10000 5.14 270 17:54 23.02.2021
2218 Clear 13 1030 44 10000 3.09 270 17:30 23.02.2021
2219 Clear 16 1030 33 10000 3.6 280 16:48 23.02.2021
2220 Clear 17 1030 31 10000 3.6 290 16:25 23.02.2021
2221 Clear 18 1030 32 10000 4.12 290 15:52 23.02.2021
2222 Clear 18 1030 32 10000 4.63 280 15:34 23.02.2021
2223 Clear 18 1030 32 10000 3.6 280 14:59 23.02.2021
2224 Clear 17 1030 31 10000 3.6 290 14:40 23.02.2021
2225 Clear 17 1030 31 10000 3.6 290 14:20 23.02.2021
2226 Clear 17 1030 34 10000 1.54 10 13:43 23.02.2021
2227 Clear 15 1031 47 10000 1.54 0 13:21 23.02.2021
2228 Clear 14 1031 51 8000 1.54 350 12:49 23.02.2021
2229 Clear 13 1031 50 10000 1.03 0 12:20 23.02.2021
2230 Clear 11 1032 58 10000 1.03 0 11:45 23.02.2021
2231 Clear 9 1032 61 10000 1.03 0 11:19 23.02.2021
2232 Clear 6 1032 70 7000 1.53 290 10:40 23.02.2021
2233 Clear 6 1032 70 7000 1.34 281 10:19 23.02.2021
2234 Clear 4 1032 81 7000 1.03 0 09:42 23.02.2021
2235 Mist 2 1032 87 5000 1.03 0 09:21 23.02.2021
2236 Mist 1 1032 86 3000 1.03 0 08:47 23.02.2021
2237 Mist 0 1032 93 3000 1.03 0 08:21 23.02.2021
2238 Mist -2 1032 93 2500 0.51 170 07:39 23.02.2021
2239 Mist -4 1031 100 2400 1.01 277 05:28 23.02.2021
2240 Mist -2 1031 93 4000 1.07 273 02:54 23.02.2021
2241 Mist -2 1031 93 4000 1.07 273 02:54 23.02.2021
2242 Mist -2 1031 93 4000 1.54 150 02:33 23.02.2021
2243 Clear -1 1031 100 6000 1.05 274 00:20 23.02.2021
2244 Clear 0 1030 93 6000 1.03 0 23:43 22.02.2021
2245 Mist 0 1030 93 4000 1.03 0 22:57 22.02.2021
2246 Mist 0 1030 93 4000 1.54 100 22:38 22.02.2021
2247 Mist 0 1030 93 4000 1.54 100 22:19 22.02.2021
2248 Mist 1 1030 93 4000 0.51 0 21:38 22.02.2021
2249 Mist 1 1030 93 4000 0.51 0 21:20 22.02.2021
2250 Mist 1 1030 93 4000 1.03 0 20:48 22.02.2021
2251 Smoke 2 1029 93 4000 1.03 280 20:26 22.02.2021
2252 Clear 2 1029 93 6000 1.03 270 19:49 22.02.2021
2253 Clear 3 1029 87 8000 1.03 320 19:30 22.02.2021
2254 Clear 4 1029 87 8000 1.03 220 18:49 22.02.2021
2255 Clear 6 1029 81 8000 1.03 150 18:29 22.02.2021
2256 Clear 7 1029 70 8000 1.54 130 17:49 22.02.2021
2257 Clear 8 1028 66 10000 1.54 100 17:20 22.02.2021
2258 Clear 10 1028 62 10000 1.54 80 16:50 22.02.2021
2259 Clear 10 1028 62 10000 1.03 0 16:29 22.02.2021
2260 Clear 10 1029 62 8000 1.03 0 15:32 22.02.2021
2261 Clear 11 1029 66 7000 1.03 0 14:54 22.02.2021
2262 Clear 10 1029 76 7000 1.03 0 14:35 22.02.2021
2263 Mist 9 1029 87 5000 1.54 120 13:54 22.02.2021
2264 Mist 8 1030 100 3300 2.06 80 13:33 22.02.2021
2265 Mist 8 1030 100 1700 1.54 0 12:48 22.02.2021
2266 Fog 1 1030 100 700 1.54 80 12:23 22.02.2021
2267 Fog 0 1031 100 550 1.03 0 11:52 22.02.2021
2268 Fog 0 1031 93 400 1.03 0 11:31 22.02.2021
2269 Fog -1 1031 100 300 1.03 0 10:54 22.02.2021
2270 Fog -1 1031 100 250 1.03 0 10:36 22.02.2021
2271 Fog -1 1031 100 250 1.03 0 10:18 22.02.2021
2272 Fog -2 1031 100 250 1.54 110 09:37 22.02.2021
2273 Fog -2 1031 100 250 1.54 110 09:18 22.02.2021
2274 Fog -2 1031 100 250 1.03 0 08:44 22.02.2021
2275 Fog -2 1031 100 250 0.51 0 08:20 22.02.2021
2276 Fog -2 1031 93 200 1.03 0 07:39 22.02.2021
2277 Fog -2 1031 93 200 1.03 0 07:18 22.02.2021
2278 Fog -3 1031 100 300 1.54 190 06:24 22.02.2021
2279 Fog -5 1030 100 300 1.03 70 03:49 22.02.2021
2280 Fog -4 1030 100 350 0.63 228 03:20 22.02.2021
2281 Mist -3 1030 100 2000 0.64 240 00:53 22.02.2021
2282 Mist -2 1030 93 3000 0.6 244 00:28 22.02.2021
2283 Mist -2 1030 100 3000 1.03 0 23:50 21.02.2021
2284 Mist -1 1030 100 4500 1.03 160 22:55 21.02.2021
2285 Mist -1 1030 93 4500 1.54 190 22:25 21.02.2021
2286 Mist -1 1030 100 5000 2.06 160 21:50 21.02.2021
2287 Clouds 0 1030 93 6000 2.06 150 21:30 21.02.2021
2288 Clouds 1 1030 86 7000 1.54 130 20:50 21.02.2021
2289 Clouds 1 1030 93 7000 2.06 80 20:21 21.02.2021
2290 Clouds 1 1030 93 8000 2.06 90 19:59 21.02.2021
2291 Clear 1 1030 93 8000 2.06 90 19:39 21.02.2021
2292 Clouds 2 1030 87 8000 2.06 50 19:21 21.02.2021
2293 Clear 2 1030 87 10000 1.54 140 18:28 21.02.2021
2294 Clear 3 1030 81 10000 2.06 140 17:47 21.02.2021
2295 Clear 4 1030 81 10000 2.06 130 17:21 21.02.2021
2296 Clouds 5 1030 75 10000 2.57 120 16:51 21.02.2021
2297 Clouds 5 1030 75 10000 3.09 130 16:29 21.02.2021
2298 Clouds 6 1030 65 10000 1.03 0 15:26 21.02.2021
2299 Clouds 6 1030 65 10000 1.54 100 14:59 21.02.2021
2300 Clouds 6 1031 65 10000 1.54 100 14:39 21.02.2021
2301 Clouds 6 1030 65 10000 1.54 100 13:59 21.02.2021
2302 Clouds 5 1030 70 10000 1.54 130 13:30 21.02.2021
2303 Clouds 5 1030 70 10000 3.09 130 12:50 21.02.2021
2304 Clouds 5 1031 75 10000 3.6 100 12:26 21.02.2021
2305 Clouds 4 1031 81 10000 3.09 110 11:42 21.02.2021
2306 Clouds 4 1031 81 10000 4.12 110 10:50 21.02.2021
2307 Clouds 4 1031 81 10000 4.12 110 10:22 21.02.2021
2308 Clouds 4 1031 87 10000 3.6 100 09:51 21.02.2021
2309 Clouds 4 1031 87 10000 3.09 100 09:26 21.02.2021
2310 Clouds 3 1031 93 10000 3.09 120 08:43 21.02.2021
2311 Clouds 3 1030 87 10000 2.57 110 08:19 21.02.2021
2312 Clouds 2 1030 93 10000 2.06 120 07:28 21.02.2021
2313 Clouds 2 1030 93 10000 2.06 100 06:46 21.02.2021
2314 Clouds 2 1029 93 10000 1.54 30 02:44 21.02.2021
2315 Clouds 2 1029 93 10000 1.42 64 01:59 21.02.2021
2316 Clouds 2 1029 93 10000 0.51 80 00:22 21.02.2021
2317 Clouds 2 1029 93 10000 2.06 50 23:59 20.02.2021
2318 Clouds 2 1028 93 10000 1.54 70 22:58 20.02.2021
2319 Clouds 2 1028 93 10000 1.54 70 22:34 20.02.2021
2320 Clouds 3 1028 93 8000 3.09 130 21:59 20.02.2021
2321 Clouds 3 1028 93 8000 3.09 130 21:41 20.02.2021
2322 Mist 3 1028 93 4800 2.57 130 21:18 20.02.2021
2323 Mist 3 1027 100 2700 2.06 120 20:40 20.02.2021
2324 Mist 3 1027 100 2800 1.03 0 20:19 20.02.2021
2325 Mist 3 1026 100 2700 2.06 60 19:42 20.02.2021
2326 Mist 4 1026 93 4000 1.54 160 18:58 20.02.2021
2327 Mist 5 1026 93 4000 1.54 160 18:34 20.02.2021
2328 Mist 5 1025 93 3500 1.03 210 17:59 20.02.2021
2329 Mist 5 1025 93 3500 1.03 210 17:33 20.02.2021
2330 Mist 5 1025 87 2700 1.03 0 16:49 20.02.2021
2331 Mist 5 1025 87 3000 1.03 160 16:26 20.02.2021
2332 Mist 5 1025 87 2700 0.51 0 15:42 20.02.2021
2333 Mist 5 1025 87 3000 1.54 90 14:53 20.02.2021
2334 Mist 5 1025 87 3000 0.51 0 14:27 20.02.2021
2335 Mist 5 1025 81 3000 1.03 0 13:58 20.02.2021
2336 Mist 5 1025 81 3000 1.03 0 13:39 20.02.2021
2337 Mist 5 1025 81 3000 1.03 0 13:21 20.02.2021
2338 Mist 4 1025 87 3000 1.03 0 12:44 20.02.2021
2339 Mist 4 1025 81 4000 1.03 0 11:54 20.02.2021
2340 Mist 4 1025 81 4000 1.03 0 11:35 20.02.2021
2341 Mist 3 1026 87 3500 0.51 0 10:52 20.02.2021
2342 Mist 3 1026 80 3500 1.03 0 10:27 20.02.2021
2343 Mist 3 1026 80 3500 0.73 261 09:47 20.02.2021
2344 Mist 3 1025 86 3500 1.54 40 08:56 20.02.2021
2345 Mist 2 1025 86 3000 0.15 265 08:25 20.02.2021
2346 Mist 1 1025 93 3000 0.51 0 07:19 20.02.2021
2347 Clouds 1 1026 93 7000 1.54 120 02:32 20.02.2021
2348 Clouds 1 1026 93 7000 2.06 120 01:58 20.02.2021
2349 Clouds 0 1026 93 7000 2.06 110 01:18 20.02.2021
2350 Clouds 0 1026 93 7000 2.06 110 01:18 20.02.2021
2351 Clouds 1 1026 93 7000 3.6 100 00:37 20.02.2021
2352 Clouds 0 1027 93 6000 4.12 100 23:30 19.02.2021
2353 Clouds 0 1027 93 7000 5.14 110 22:47 19.02.2021
2354 Clouds 1 1026 93 6000 4.12 110 22:20 19.02.2021
2355 Clouds 2 1027 93 6000 4.63 90 21:44 19.02.2021
2356 Clouds 1 1026 93 6000 5.66 100 21:23 19.02.2021
2357 Clouds 1 1026 93 6000 6.69 100 20:42 19.02.2021
2358 Clouds 1 1026 93 6000 6.69 110 20:24 19.02.2021
2359 Clouds 2 1026 86 7000 6.17 100 19:47 19.02.2021
2360 Clouds 2 1026 86 6000 6.17 110 19:20 19.02.2021
2361 Clouds 3 1026 86 6000 7.2 110 18:50 19.02.2021
2362 Clouds 2 1025 86 6000 6.17 110 18:26 19.02.2021
2363 Clouds 3 1025 86 6000 6.17 120 17:39 19.02.2021
2364 Clouds 4 1025 87 7000 7.72 100 16:43 19.02.2021
2365 Clouds 4 1025 81 8000 7.2 100 16:22 19.02.2021
2366 Clouds 4 1025 75 8000 8.75 100 15:55 19.02.2021
2367 Clouds 4 1025 75 8000 8.23 100 15:30 19.02.2021
2368 Clouds 5 1025 70 8000 8.23 100 14:49 19.02.2021
2369 Clear 5 1025 70 10000 8.75 100 14:29 19.02.2021
2370 Clouds 5 1026 70 10000 7.72 100 13:56 19.02.2021
2371 Clouds 5 1026 70 10000 7.72 100 13:36 19.02.2021
2372 Clouds 5 1026 70 10000 6.69 110 12:53 19.02.2021
2373 Clouds 5 1026 70 10000 6.17 110 12:27 19.02.2021
2374 Clear 5 1026 70 10000 6.69 100 11:57 19.02.2021
2375 Clear 5 1026 70 10000 6.69 100 11:32 19.02.2021
2376 Clouds 5 1026 75 10000 3.09 110 10:55 19.02.2021
2377 Clouds 4 1026 75 10000 2.06 110 10:32 19.02.2021
2378 Clouds 2 1026 80 10000 2.57 100 09:52 19.02.2021
2379 Clouds 2 1026 80 10000 2.57 100 09:52 19.02.2021
2380 Clear 1 1026 86 8000 1.54 110 09:27 19.02.2021
2381 Clear 1 1026 86 8000 1.54 110 09:27 19.02.2021
2382 Clear 1 1026 80 8000 1.54 80 08:55 19.02.2021
2383 Clear 0 1026 86 6000 0.16 284 08:28 19.02.2021
2384 Mist -1 1026 93 3800 1.03 0 07:54 19.02.2021
2385 Mist -1 1026 93 3800 1.03 0 07:35 19.02.2021
2386 Mist -2 1025 100 2500 1.54 130 06:55 19.02.2021
2387 Mist -2 1025 93 3500 0.51 0 06:29 19.02.2021
2388 Clouds -2 1024 93 6000 0.44 217 04:41 19.02.2021
2389 Clouds -1 1024 93 9000 1.03 0 01:49 19.02.2021
2390 Clouds 0 1023 86 10000 1.03 0 00:38 19.02.2021
2391 Clouds 1 1023 80 10000 3.09 320 23:56 18.02.2021
2392 Clouds 1 1023 80 10000 3.09 320 23:35 18.02.2021
2393 Clear 1 1023 80 10000 3.6 310 22:51 18.02.2021
2394 Clouds 1 1022 80 10000 3.09 310 22:30 18.02.2021
2395 Clouds 2 1022 75 10000 3.09 300 21:56 18.02.2021
2396 Clear 3 1022 75 10000 3.09 310 21:28 18.02.2021
2397 Clear 4 1022 70 10000 4.12 280 20:57 18.02.2021
2398 Clear 4 1022 70 10000 4.12 280 20:38 18.02.2021
2399 Clouds 4 1022 70 10000 4.12 280 20:18 18.02.2021
2400 Clouds 3 1022 75 10000 3.09 290 19:41 18.02.2021
2401 Clouds 5 1021 65 10000 3.6 300 19:19 18.02.2021
2402 Clouds 4 1021 70 10000 4.63 270 18:43 18.02.2021
2403 Clouds 5 1021 65 10000 5.66 270 18:25 18.02.2021
2404 Clouds 6 1020 61 10000 6.17 270 17:43 18.02.2021
2405 Clouds 6 1020 61 10000 5.66 280 17:23 18.02.2021
2406 Clouds 6 1020 65 10000 6.17 280 16:42 18.02.2021
2407 Clouds 6 1020 65 10000 6.17 280 16:42 18.02.2021
2408 Clouds 6 1020 65 10000 6.17 280 16:22 18.02.2021
2409 Clouds 7 1019 57 10000 6.17 280 15:41 18.02.2021
2410 Clouds 7 1019 61 10000 6.17 280 15:22 18.02.2021
2411 Clouds 6 1019 61 10000 6.17 290 14:50 18.02.2021
2412 Clouds 6 1019 61 10000 7.2 290 14:29 18.02.2021
2413 Clouds 6 1019 61 10000 9.26 270 13:46 18.02.2021
2414 Clouds 6 1019 61 10000 8.75 280 13:20 18.02.2021
2415 Clouds 6 1019 61 10000 8.23 270 12:53 18.02.2021
2416 Clouds 5 1019 65 10000 9.26 270 12:25 18.02.2021
2417 Clouds 5 1019 65 10000 7.2 270 11:47 18.02.2021
2418 Clouds 5 1019 65 10000 7.2 270 11:47 18.02.2021
2419 Clouds 5 1019 65 10000 9.26 270 11:27 18.02.2021
2420 Clouds 4 1019 70 10000 8.75 270 10:52 18.02.2021
2421 Clouds 4 1019 75 10000 7.72 270 10:31 18.02.2021
2422 Clouds 4 1019 75 10000 7.2 270 09:51 18.02.2021
2423 Clouds 4 1018 75 10000 6.69 280 09:26 18.02.2021
2424 Clouds 4 1018 75 10000 5.14 270 08:48 18.02.2021
2425 Clouds 4 1018 75 10000 5.66 280 08:29 18.02.2021
2426 Clouds 3 1018 81 10000 7.72 270 07:35 18.02.2021
2427 Clouds 4 1017 75 10000 7.2 280 06:58 18.02.2021
2428 Clouds 3 1017 75 10000 3.6 300 03:52 18.02.2021
2429 Clouds 3 1017 75 10000 3.6 300 03:52 18.02.2021
2430 Clouds 1 1018 75 10000 3.6 310 23:57 17.02.2021
2431 Clouds 1 1018 80 10000 5.66 300 23:37 17.02.2021
2432 Clouds 2 1018 69 10000 7.2 300 22:56 17.02.2021
2433 Clouds 2 1018 69 10000 6.69 290 22:27 17.02.2021
2434 Clouds -1 1018 69 8000 1.54 0 21:57 17.02.2021
2435 Clouds -2 1018 74 8000 1.54 80 21:23 17.02.2021
2436 Clouds -1 1018 69 8000 1.03 250 20:53 17.02.2021
2437 Clouds -1 1018 74 8000 1.54 230 20:33 17.02.2021
2438 Clouds -1 1018 80 8000 1.54 220 19:52 17.02.2021
2439 Clouds -2 1018 80 8000 1.54 220 19:34 17.02.2021
2440 Clouds -2 1018 74 10000 1.03 170 18:50 17.02.2021
2441 Clouds -1 1018 74 10000 1.54 140 18:31 17.02.2021
2442 Clouds -1 1018 69 10000 2.06 80 17:42 17.02.2021
2443 Clouds 0 1018 69 10000 2.06 110 17:21 17.02.2021
2444 Clouds 0 1018 69 10000 1.54 80 16:49 17.02.2021
2445 Clouds 0 1018 69 10000 2.57 90 16:28 17.02.2021
2446 Clouds 0 1018 69 10000 2.06 100 15:45 17.02.2021
2447 Clouds 1 1018 69 10000 1.03 0 15:27 17.02.2021
2448 Clouds 1 1018 69 10000 1.03 0 15:27 17.02.2021
2449 Clouds 1 1018 64 8000 1.54 0 14:51 17.02.2021
2450 Clouds 1 1018 59 10000 1.03 0 14:29 17.02.2021
2451 Clouds -3 1018 63 8000 1.54 100 13:52 17.02.2021
2452 Clouds -3 1019 63 8000 1.49 276 13:33 17.02.2021
2453 Clouds -4 1019 63 8000 1.03 130 12:57 17.02.2021
2454 Clouds -2 1020 68 10000 1.54 0 12:26 17.02.2021
2455 Clouds -2 1020 68 8000 1.54 90 11:47 17.02.2021
2456 Clear -7 1020 73 8000 2.06 100 11:29 17.02.2021
2457 Clear -4 1021 73 7000 2.06 90 10:50 17.02.2021
2458 Clouds -9 1021 79 7000 1.54 90 10:31 17.02.2021
2459 Clouds -6 1022 85 7000 1.03 140 09:58 17.02.2021
2460 Clouds -7 1022 92 6000 1.54 130 09:37 17.02.2021
2461 Clouds -10 1022 85 7000 1.54 80 08:49 17.02.2021
2462 Clouds -10 1022 85 7000 1.03 0 08:23 17.02.2021
2463 Mist -9 1022 85 4500 1.03 0 07:55 17.02.2021
2464 Mist -11 1022 85 3500 2.06 120 06:37 17.02.2021
2465 Mist -11 1022 85 3500 2.06 120 06:37 17.02.2021
2466 Clear -11 1022 92 7000 0.88 251 03:52 17.02.2021
2467 Mist -11 1023 92 5000 1.03 0 02:31 17.02.2021
2468 Mist -10 1023 92 5000 1.03 0 01:35 17.02.2021
2469 Clear -9 1024 85 8000 2.06 80 00:28 17.02.2021
2470 Clear -9 1024 92 6000 1.54 90 23:39 16.02.2021
2471 Clear -8 1024 79 7000 2.57 150 22:47 16.02.2021
2472 Clear -9 1024 92 7000 2.57 150 22:27 16.02.2021
2473 Clear -8 1024 85 8000 1.54 100 21:59 16.02.2021
2474 Clear -8 1024 79 8000 2.57 80 21:39 16.02.2021
2475 Clear -8 1024 79 8000 2.57 80 21:21 16.02.2021
2476 Clear -7 1024 79 7000 1.03 100 20:55 16.02.2021
2477 Clear -7 1024 79 7000 1.54 140 20:24 16.02.2021
2478 Smoke -9 1024 79 5000 2.57 160 19:50 16.02.2021
2479 Clouds -9 1024 73 8000 2.57 150 19:29 16.02.2021
2480 Clear -7 1024 73 10000 2.57 110 18:53 16.02.2021
2481 Clear -5 1024 63 10000 1.54 170 18:27 16.02.2021
2482 Clear -5 1024 63 10000 2.06 140 17:58 16.02.2021
2483 Clear -5 1024 63 10000 2.06 140 17:38 16.02.2021
2484 Clear -4 1024 58 10000 1.03 110 17:20 16.02.2021
2485 Clear -3 1024 54 10000 1.54 110 16:44 16.02.2021
2486 Clear -1 1024 47 10000 0.88 279 16:21 16.02.2021
2487 Clear -1 1024 47 10000 1.54 350 15:42 16.02.2021
2488 Clouds 0 1024 43 10000 2.57 310 15:24 16.02.2021
2489 Clouds -1 1024 51 10000 1.54 330 14:42 16.02.2021
2490 Clouds -1 1024 47 10000 2.57 240 14:24 16.02.2021
2491 Clouds -1 1024 47 10000 3.09 250 13:47 16.02.2021
2492 Clouds -1 1025 55 10000 3.09 290 13:22 16.02.2021
2493 Clouds -2 1025 54 10000 2.57 260 12:43 16.02.2021
2494 Clouds -2 1025 54 10000 3.09 300 12:20 16.02.2021
2495 Clouds -2 1025 54 10000 3.09 300 12:20 16.02.2021
2496 Clouds -2 1025 54 10000 3.09 290 11:43 16.02.2021
2497 Clouds -3 1026 59 10000 3.09 290 11:21 16.02.2021
2498 Clouds -3 1026 59 10000 3.6 270 10:49 16.02.2021
2499 Clouds -4 1026 63 10000 3.6 260 10:30 16.02.2021
2500 Clouds -5 1026 68 10000 3.6 290 09:54 16.02.2021
2501 Clouds -5 1026 68 10000 4.12 290 09:28 16.02.2021
2502 Clouds -6 1026 73 10000 2.06 320 08:52 16.02.2021
2503 Clouds -5 1025 73 10000 2.57 300 08:31 16.02.2021
2504 Clouds -6 1025 73 10000 2.57 300 07:58 16.02.2021
2505 Clouds -6 1025 73 10000 2.57 290 06:58 16.02.2021
2506 Clouds -6 1026 73 10000 5.14 270 02:47 16.02.2021
2507 Clouds -6 1027 73 10000 2.57 280 00:23 16.02.2021
2508 Clouds -5 1028 68 10000 5.66 250 23:30 15.02.2021
2509 Clouds -5 1028 68 10000 5.66 250 23:30 15.02.2021
2510 Clouds -5 1028 68 10000 6.17 260 22:51 15.02.2021
2511 Clouds -4 1028 68 10000 6.17 260 22:29 15.02.2021
2512 Clouds -5 1028 74 10000 6.17 270 21:49 15.02.2021
2513 Clouds -6 1028 73 10000 3.09 270 21:26 15.02.2021
2514 Clouds -6 1028 79 10000 4.12 270 20:57 15.02.2021
2515 Clouds -6 1028 79 10000 4.12 270 20:39 15.02.2021
2516 Clouds -3 1028 68 10000 5.14 280 19:51 15.02.2021
2517 Snow -3 1028 68 10000 5.14 270 19:30 15.02.2021
2518 Snow -3 1028 74 10000 5.66 260 18:58 15.02.2021
2519 Snow -3 1028 74 7000 4.12 270 18:30 15.02.2021
2520 Snow -3 1028 74 8000 4.12 280 17:59 15.02.2021
2521 Snow -3 1028 74 8000 4.12 270 17:40 15.02.2021
2522 Snow -3 1028 74 8000 4.12 270 17:21 15.02.2021
2523 Snow -3 1028 74 10000 4.63 270 16:46 15.02.2021
2524 Snow -2 1028 68 10000 5.14 270 16:22 15.02.2021
2525 Snow -2 1028 68 10000 6.17 270 15:44 15.02.2021
2526 Snow -2 1028 74 10000 4.63 280 15:20 15.02.2021
2527 Clouds -2 1028 68 10000 5.66 280 14:48 15.02.2021
2528 Clouds -1 1028 68 10000 5.66 290 14:21 15.02.2021
2529 Clouds -2 1028 68 10000 5.66 280 13:49 15.02.2021
2530 Clouds -2 1029 68 10000 5.66 290 13:27 15.02.2021
2531 Clouds -2 1029 63 10000 5.14 290 12:51 15.02.2021
2532 Clouds -3 1029 63 10000 5.14 290 12:31 15.02.2021
2533 Clear -8 1029 73 8000 1.54 70 11:53 15.02.2021
2534 Clear -9 1030 79 7000 1.54 140 11:27 15.02.2021
2535 Clear -10 1030 85 6000 1.54 130 10:55 15.02.2021
2536 Mist -11 1030 85 5000 1.03 100 10:36 15.02.2021
2537 Mist -11 1030 85 5000 1.03 100 10:18 15.02.2021
2538 Mist -9 1030 85 4500 0.51 0 09:47 15.02.2021
2539 Mist -13 1030 85 5000 2.06 70 09:25 15.02.2021
2540 Mist -12 1030 85 2000 1.03 0 08:22 15.02.2021
2541 Fog -13 1030 85 700 1.22 269 07:20 15.02.2021
2542 Mist -13 1030 85 3000 1.03 0 06:41 15.02.2021
2543 Clouds -12 1030 92 7000 2.57 200 03:33 15.02.2021
2544 Mist -12 1030 92 3000 3.09 80 02:20 15.02.2021
2545 Mist -12 1029 85 1300 0.51 0 23:59 14.02.2021
2546 Clouds -11 1029 92 6000 2.06 310 23:25 14.02.2021
2547 Clouds -10 1029 92 7000 2.06 340 22:46 14.02.2021
2548 Clouds -9 1029 92 7000 1.03 0 22:23 14.02.2021
2549 Clouds -10 1029 85 9000 1.54 290 21:51 14.02.2021
2550 Clouds -9 1029 79 8000 2.06 270 21:29 14.02.2021
2551 Clouds -8 1029 79 10000 1.03 0 20:53 14.02.2021
2552 Clouds -7 1029 73 10000 2.06 80 20:30 14.02.2021
2553 Clouds -7 1029 79 10000 2.06 50 19:49 14.02.2021
2554 Clouds -7 1028 68 10000 2.57 20 18:59 14.02.2021
2555 Clouds -7 1028 68 10000 2.57 20 18:39 14.02.2021
2556 Clouds -7 1028 68 10000 3.09 50 18:20 14.02.2021
2557 Clouds -6 1027 68 10000 2.06 10 17:39 14.02.2021
2558 Clouds -6 1027 68 10000 2.57 30 16:57 14.02.2021
2559 Clouds -6 1027 68 10000 3.6 20 16:38 14.02.2021
2560 Clouds -5 1027 68 10000 3.6 20 16:18 14.02.2021
2561 Clouds -4 1026 63 10000 3.6 30 15:40 14.02.2021
2562 Snow -4 1026 58 10000 3.09 10 14:51 14.02.2021
2563 Clouds -4 1026 63 10000 2.57 20 14:27 14.02.2021
2564 Snow -4 1026 68 7000 2.57 40 13:54 14.02.2021
2565 Snow -4 1026 68 6000 2.57 40 13:30 14.02.2021
2566 Snow -5 1027 73 4500 1.54 170 12:44 14.02.2021
2567 Snow -5 1027 73 2800 0.51 0 12:20 14.02.2021
2568 Snow -5 1027 79 4000 1.54 180 11:50 14.02.2021
2569 Snow -5 1027 79 4000 1.54 180 11:50 14.02.2021
2570 Snow -5 1027 79 2200 1.03 0 11:21 14.02.2021
2571 Snow -6 1027 79 2200 1.03 0 10:39 14.02.2021
2572 Snow -7 1026 86 2500 1.54 150 09:56 14.02.2021
2573 Snow -7 1026 86 2500 1.54 150 09:38 14.02.2021
2574 Snow -7 1026 86 2300 2.06 160 09:19 14.02.2021
2575 Snow -8 1026 86 1600 2.06 150 08:35 14.02.2021
2576 Snow -8 1026 92 1300 2.06 140 07:55 14.02.2021
2577 Snow -8 1025 92 2300 2.06 140 06:49 14.02.2021
2578 Snow -8 1025 92 3000 2.06 130 05:37 14.02.2021
2579 Snow -8 1025 92 2000 3.33 52 03:23 14.02.2021
2580 Snow -8 1025 92 2200 1.03 310 01:42 14.02.2021
2581 Snow -8 1026 92 2600 1.54 360 00:46 14.02.2021
2582 Snow -8 1026 92 2200 1.54 340 23:59 13.02.2021
2583 Snow -8 1026 92 2200 1.54 340 23:37 13.02.2021
2584 Snow -8 1026 92 2000 1.54 350 23:19 13.02.2021
2585 Snow -8 1026 86 2200 1.54 330 22:32 13.02.2021
2586 Snow -8 1026 86 2700 2.06 330 21:53 13.02.2021
2587 Snow -8 1026 86 2700 2.06 330 21:34 13.02.2021
2588 Snow -8 1026 93 3000 2.57 320 20:46 13.02.2021
2589 Snow -8 1026 93 4100 1.54 300 20:27 13.02.2021
2590 Snow -8 1026 93 3400 1.03 0 19:48 13.02.2021
2591 Snow -7 1026 93 3400 2.06 280 19:24 13.02.2021
2592 Snow -7 1026 93 4600 2.57 280 18:50 13.02.2021
2593 Snow -8 1026 93 4000 2.57 290 18:27 13.02.2021
2594 Snow -7 1026 93 2400 3.09 280 17:44 13.02.2021
2595 Snow -7 1025 86 2600 3.09 290 17:25 13.02.2021
2596 Snow -6 1025 86 1700 3.09 300 16:53 13.02.2021
2597 Snow -6 1025 86 1700 3.09 300 16:35 13.02.2021
2598 Snow -6 1025 79 3500 3.6 270 15:43 13.02.2021
2599 Snow -6 1025 86 2800 3.09 290 15:25 13.02.2021
2600 Snow -6 1025 79 2600 3.6 300 14:40 13.02.2021
2601 Snow -5 1026 63 5000 3.09 270 13:49 13.02.2021
2602 Clouds -5 1026 49 10000 4.12 290 13:27 13.02.2021
2603 Clouds -5 1026 49 10000 4.12 290 12:52 13.02.2021
2604 Clouds -5 1026 53 10000 5.14 280 12:21 13.02.2021
2605 Clouds -5 1026 53 10000 5.14 280 11:55 13.02.2021
2606 Clouds -5 1027 53 10000 5.14 280 11:22 13.02.2021
2607 Clouds -5 1027 53 10000 5.14 290 10:59 13.02.2021
2608 Clouds -5 1027 53 10000 5.14 290 10:41 13.02.2021
2609 Clouds -6 1027 58 10000 4.63 290 10:21 13.02.2021
2610 Clouds -6 1027 62 10000 5.14 290 09:45 13.02.2021
2611 Clouds -7 1027 67 10000 4.63 290 09:23 13.02.2021
2612 Clouds -7 1027 67 10000 4.63 290 08:46 13.02.2021
2613 Clouds -7 1027 73 10000 4.63 290 08:18 13.02.2021
2614 Clear -8 1026 73 10000 4.63 280 06:50 13.02.2021
2615 Clear -9 1026 73 10000 4.63 280 06:22 13.02.2021
2616 Clear -8 1026 67 10000 5.14 290 04:27 13.02.2021
2617 Clear -8 1026 67 10000 5.66 280 02:25 13.02.2021
2618 Clear -8 1025 62 10000 6.69 280 00:54 13.02.2021
2619 Clear -8 1025 62 10000 6.69 280 00:54 13.02.2021
2620 Clear -8 1026 67 10000 6.17 270 23:55 12.02.2021
2621 Clear -8 1026 67 10000 6.17 270 23:34 12.02.2021
2622 Clear -8 1025 67 10000 6.17 280 22:59 12.02.2021
2623 Clear -7 1025 68 10000 6.17 290 22:30 12.02.2021
2624 Clear -7 1024 68 10000 5.66 300 21:54 12.02.2021
2625 Clear -6 1024 63 10000 7.2 290 21:35 12.02.2021
2626 Clear -6 1024 63 10000 7.2 290 20:59 12.02.2021
2627 Clear -6 1024 63 10000 7.2 290 20:39 12.02.2021
2628 Clear -6 1024 63 10000 6.17 280 20:19 12.02.2021
2629 Clear -5 1024 58 10000 6.17 280 19:48 12.02.2021
2630 Clear -5 1024 58 10000 5.66 280 19:26 12.02.2021
2631 Clear -5 1024 54 10000 6.69 280 18:30 12.02.2021
2632 Clear -5 1023 50 10000 7.72 280 17:49 12.02.2021
2633 Clear -4 1022 54 10000 7.72 280 17:29 12.02.2021
2634 Clear -4 1022 54 10000 7.2 280 16:41 12.02.2021
2635 Clear -3 1022 54 10000 8.75 290 15:47 12.02.2021
2636 Clear -3 1022 54 10000 10.29 270 15:21 12.02.2021
2637 Clear -3 1022 54 10000 10.29 280 14:53 12.02.2021
2638 Clear -3 1021 59 10000 8.23 280 14:30 12.02.2021
2639 Clear -3 1021 54 10000 7.2 290 13:42 12.02.2021
2640 Clouds -4 1022 58 10000 8.23 290 13:23 12.02.2021
2641 Clouds -4 1021 58 10000 9.26 290 12:50 12.02.2021
2642 Clouds -4 1021 58 10000 9.26 290 12:31 12.02.2021
2643 Clouds -1 1021 63 10000 10.29 290 11:46 12.02.2021
2644 Clouds -3 1021 63 10000 9.26 290 11:20 12.02.2021
2645 Clouds -4 1021 63 10000 9.77 290 10:47 12.02.2021
2646 Clouds -6 1021 58 10000 10.29 280 09:53 12.02.2021
2647 Clouds -6 1021 58 10000 8.23 290 09:29 12.02.2021
2648 Clouds -6 1021 63 10000 9.26 280 08:57 12.02.2021
2649 Clouds -6 1021 63 10000 9.26 280 08:39 12.02.2021
2650 Clouds -6 1021 63 10000 7.72 280 08:18 12.02.2021
2651 Clouds -7 1020 63 8000 9.77 280 07:50 12.02.2021
2652 Clouds -7 1020 68 8000 9.26 270 06:57 12.02.2021
2653 Clouds -7 1019 68 10000 10.8 270 05:49 12.02.2021
2654 Snow -7 1019 68 4000 11.32 280 05:23 12.02.2021
2655 Snow -6 1016 68 1400 13.89 280 01:56 12.02.2021
2656 Snow -4 1015 68 1500 10.29 290 23:44 11.02.2021
2657 Snow -4 1014 74 1400 11.32 280 23:22 11.02.2021
2658 Snow -4 1014 80 1500 9.77 290 22:58 11.02.2021
2659 Snow -4 1014 80 1500 9.77 290 22:39 11.02.2021
2660 Snow -3 1013 74 1500 9.26 280 22:20 11.02.2021
2661 Snow -3 1012 74 1300 12.35 290 21:39 11.02.2021
2662 Snow -3 1012 80 2800 10.8 280 21:19 11.02.2021
2663 Snow -3 1012 86 5000 9.77 290 20:46 11.02.2021
2664 Snow -1 1012 86 4000 7.72 280 20:22 11.02.2021
2665 Snow -1 1011 86 1000 7.72 280 19:49 11.02.2021
2666 Snow -1 1011 86 1000 7.72 280 19:31 11.02.2021
2667 Snow -1 1010 93 800 11.32 280 18:55 11.02.2021
2668 Snow -1 1010 93 650 11.83 280 18:29 11.02.2021
2669 Snow -1 1009 86 750 11.32 280 17:54 11.02.2021
2670 Snow 0 1008 86 1100 12.86 270 17:22 11.02.2021
2671 Snow 0 1008 86 1100 12.86 270 17:22 11.02.2021
2672 Snow 0 1007 86 2500 12.35 270 16:58 11.02.2021
2673 Snow 1 1007 86 2500 12.35 270 16:40 11.02.2021
2674 Rain 1 1007 86 3000 12.35 270 16:21 11.02.2021
2675 Clouds 2 1006 87 1200 10.8 280 15:42 11.02.2021
2676 Clouds 3 1006 87 10000 10.29 270 15:24 11.02.2021
2677 Clouds 5 1004 87 10000 9.77 270 14:44 11.02.2021
2678 Clouds 7 1004 87 10000 9.26 290 14:25 11.02.2021
2679 Clouds 11 1003 58 10000 8.23 260 13:41 11.02.2021
2680 Clouds 14 1003 41 10000 8.75 220 13:19 11.02.2021
2681 Clouds 15 1002 33 10000 8.23 220 12:51 11.02.2021
2682 Clouds 15 1002 33 10000 7.2 210 12:26 11.02.2021
2683 Clouds 15 1002 33 10000 4.63 210 11:46 11.02.2021
2684 Clouds 16 1003 31 10000 5.66 210 11:22 11.02.2021
2685 Clouds 16 1003 33 10000 7.72 200 10:44 11.02.2021
2686 Clouds 15 1003 36 10000 7.2 200 10:25 11.02.2021
2687 Clouds 16 1003 33 10000 8.75 210 09:53 11.02.2021
2688 Clouds 16 1003 36 10000 7.72 220 09:22 11.02.2021
2689 Clouds 15 1004 36 10000 4.63 220 08:50 11.02.2021
2690 Clouds 15 1004 36 10000 8.23 0 08:18 11.02.2021
2691 Clouds 15 1003 38 10000 10.29 200 06:52 11.02.2021
2692 Clouds 15 1003 38 10000 6.69 190 06:33 11.02.2021
2693 Clouds 14 1004 41 10000 9.26 190 04:55 11.02.2021
2694 Clouds 12 1006 50 10000 4.12 130 02:28 11.02.2021
2695 Clouds 14 1006 44 10000 7.2 140 00:46 11.02.2021
2696 Clouds 14 1006 44 10000 8.75 150 00:19 11.02.2021
2697 Clouds 16 1006 39 10000 6.69 180 23:39 10.02.2021
2698 Clouds 15 1006 41 10000 9.77 160 22:51 10.02.2021
2699 Clouds 12 1006 50 10000 3.09 210 22:27 10.02.2021
2700 Clouds 15 1006 41 10000 7.2 190 21:55 10.02.2021
2701 Clouds 15 1006 41 10000 8.23 190 21:37 10.02.2021
2702 Clouds 15 1006 41 10000 8.23 190 21:37 10.02.2021
2703 Clouds 15 1006 41 10000 8.23 190 21:18 10.02.2021
2704 Clouds 11 1007 54 10000 1.03 0 20:40 10.02.2021
2705 Clouds 11 1007 54 10000 1.03 0 20:20 10.02.2021
2706 Clouds 14 1007 41 10000 7.72 190 19:43 10.02.2021
2707 Clouds 14 1007 38 10000 6.69 220 19:22 10.02.2021
2708 Clouds 14 1007 41 10000 7.72 200 18:40 10.02.2021
2709 Clouds 14 1007 41 10000 7.72 200 18:21 10.02.2021
2710 Clouds 13 1008 44 10000 3.09 300 17:50 10.02.2021
2711 Clouds 11 1008 54 10000 2.06 50 17:22 10.02.2021
2712 Clouds 11 1007 58 10000 2.57 80 16:50 10.02.2021
2713 Clouds 14 1008 44 10000 3.09 60 16:29 10.02.2021
2714 Clear 13 1008 50 10000 2.06 70 15:44 10.02.2021
2715 Clouds 13 1008 47 10000 1.54 40 15:22 10.02.2021
2716 Clouds 13 1008 50 10000 1.03 0 14:41 10.02.2021
2717 Clouds 13 1009 50 10000 2.57 110 14:18 10.02.2021
2718 Clouds 14 1009 47 10000 2.57 50 13:40 10.02.2021
2719 Clouds 14 1009 47 10000 2.57 50 13:21 10.02.2021
2720 Clouds 15 1009 47 10000 3.09 50 12:44 10.02.2021
2721 Clouds 13 1009 50 10000 2.57 60 12:26 10.02.2021
2722 Clouds 13 1010 50 10000 3.09 40 11:41 10.02.2021
2723 Clouds 13 1010 50 10000 3.09 40 11:41 10.02.2021
2724 Clouds 12 1010 58 10000 1.54 130 11:23 10.02.2021
2725 Clouds 12 1010 62 10000 1.54 50 10:43 10.02.2021
2726 Clouds 11 1010 62 10000 2.57 70 10:19 10.02.2021
2727 Clouds 10 1011 76 10000 2.06 60 09:43 10.02.2021
2728 Clouds 9 1011 76 10000 2.06 60 09:21 10.02.2021
2729 Clouds 8 1010 81 10000 2.06 60 08:43 10.02.2021
2730 Clouds 7 1010 81 10000 1.54 50 07:55 10.02.2021
2731 Clouds 6 1010 81 10000 1.54 0 07:18 10.02.2021
2732 Clouds 8 1009 81 10000 2.57 70 03:45 10.02.2021
2733 Clear 9 1008 62 10000 3.6 320 00:51 10.02.2021
2734 Clouds 11 1007 58 10000 4.12 300 23:36 09.02.2021
2735 Clear 11 1006 54 10000 6.69 250 22:56 09.02.2021
2736 Clear 11 1006 58 10000 6.17 270 22:25 09.02.2021
2737 Clouds 11 1006 54 10000 9.26 250 21:53 09.02.2021
2738 Clouds 11 1005 54 10000 2.06 0 21:34 09.02.2021
2739 Clouds 12 1005 50 10000 2.57 0 20:50 09.02.2021
2740 Clear 12 1005 50 10000 3.09 0 20:27 09.02.2021
2741 Clear 12 1005 50 10000 9.26 220 19:59 09.02.2021
2742 Clouds 12 1006 50 10000 7.2 200 19:39 09.02.2021
2743 Clouds 13 1006 47 10000 5.66 210 19:00 09.02.2021
2744 Clouds 13 1006 47 10000 5.66 210 18:39 09.02.2021
2745 Clouds 14 1004 44 10000 9.26 200 17:58 09.02.2021
2746 Clouds 14 1005 44 10000 7.2 190 17:40 09.02.2021
2747 Clouds 14 1005 44 10000 7.2 190 17:21 09.02.2021
2748 Clouds 15 1005 41 10000 5.14 180 16:42 09.02.2021
2749 Clouds 15 1005 41 10000 5.66 200 16:19 09.02.2021
2750 Clouds 15 1005 41 10000 6.69 220 15:50 09.02.2021
2751 Clouds 13 1005 50 10000 5.14 180 15:26 09.02.2021
2752 Clouds 14 1005 47 10000 4.63 120 14:55 09.02.2021
2753 Clouds 14 1005 44 10000 5.66 170 14:28 09.02.2021
2754 Clouds 14 1006 44 10000 4.12 240 13:52 09.02.2021
2755 Clouds 15 1006 38 10000 2.57 0 13:26 09.02.2021
2756 Clouds 14 1006 44 10000 3.09 0 12:54 09.02.2021
2757 Clouds 14 1006 44 10000 3.09 0 12:36 09.02.2021
2758 Clouds 14 1007 44 10000 1.54 10 11:58 09.02.2021
2759 Clouds 14 1008 44 10000 1.54 350 11:39 09.02.2021
2760 Clouds 14 1008 44 10000 1.54 350 11:20 09.02.2021
2761 Clouds 14 1008 44 10000 1.54 350 11:20 09.02.2021
2762 Clouds 14 1008 41 10000 2.06 40 10:50 09.02.2021
2763 Clouds 13 1008 50 10000 2.06 330 10:19 09.02.2021
2764 Clear 12 1008 54 10000 2.57 360 09:43 09.02.2021
2765 Clouds 11 1009 58 10000 2.06 360 09:25 09.02.2021
2766 Clouds 10 1008 62 10000 3.09 20 08:47 09.02.2021
2767 Clouds 9 1008 62 10000 2.57 40 08:26 09.02.2021
2768 Clouds 7 1008 87 10000 3.09 140 06:49 09.02.2021
2769 Clouds 8 1007 71 10000 3.09 360 04:52 09.02.2021
2770 Clouds 8 1006 81 10000 3.6 50 03:38 09.02.2021
2771 Clouds 9 1004 62 10000 5.66 280 00:34 09.02.2021
2772 Clouds 10 1004 62 10000 1.54 0 23:57 08.02.2021
2773 Clouds 10 1004 62 10000 1.54 0 23:57 08.02.2021
2774 Clouds 10 1003 66 10000 3.6 300 23:21 08.02.2021
2775 Clouds 11 1003 62 10000 4.12 320 22:44 08.02.2021
2776 Clouds 11 1002 58 10000 6.69 270 22:25 08.02.2021
2777 Clear 11 1002 58 10000 6.69 240 21:57 08.02.2021
2778 Clear 11 1002 58 10000 6.69 240 21:33 08.02.2021
2779 Clouds 11 1000 54 10000 3.09 280 20:59 08.02.2021
2780 Clouds 11 1000 54 10000 3.09 280 20:39 08.02.2021
2781 Clouds 11 1000 62 10000 2.06 320 20:21 08.02.2021
2782 Clouds 10 999 71 10000 5.66 220 19:43 08.02.2021
2783 Clouds 11 999 62 10000 5.14 300 19:25 08.02.2021
2784 Clear 11 998 76 10000 1.54 10 18:49 08.02.2021
2785 Clear 11 998 66 10000 4.63 50 18:23 08.02.2021
2786 Clear 11 997 66 10000 3.6 230 17:46 08.02.2021
2787 Clouds 11 997 71 10000 3.6 200 17:26 08.02.2021
2788 Clouds 11 998 76 10000 2.06 200 16:44 08.02.2021
2789 Clouds 11 997 58 10000 5.66 190 16:21 08.02.2021
2790 Clouds 12 997 58 10000 3.09 0 15:48 08.02.2021
2791 Clouds 15 997 47 10000 6.69 120 15:20 08.02.2021
2792 Clouds 15 997 47 10000 6.69 120 14:52 08.02.2021
2793 Clouds 15 997 47 10000 6.69 120 14:32 08.02.2021
2794 Clouds 15 997 51 10000 7.72 90 13:57 08.02.2021
2795 Clouds 16 998 51 10000 4.63 100 13:33 08.02.2021
2796 Clouds 16 998 51 10000 4.63 100 13:33 08.02.2021
2797 Clouds 14 999 54 10000 4.63 110 12:55 08.02.2021
2798 Clouds 14 999 54 10000 4.63 110 12:37 08.02.2021
2799 Clear 14 999 54 10000 9.26 110 11:49 08.02.2021
2800 Clear 13 999 58 10000 10.8 110 11:22 08.02.2021
2801 Clear 12 999 62 10000 10.29 110 10:45 08.02.2021
2802 Clear 12 1000 62 10000 11.83 120 10:24 08.02.2021
2803 Clear 12 1001 66 10000 7.72 120 09:53 08.02.2021
2804 Clear 12 1001 66 10000 7.72 120 09:35 08.02.2021
2805 Clear 10 1002 76 10000 2.06 240 08:50 08.02.2021
2806 Clouds 8 1003 93 9000 1.54 120 08:21 08.02.2021
2807 Clouds 7 1002 81 10000 2.57 0 07:35 08.02.2021
2808 Clear 6 1002 81 10000 2.06 0 06:29 08.02.2021
2809 Clear 7 1005 81 10000 4.63 80 02:37 08.02.2021
2810 Clear 7 1006 87 10000 2.57 0 01:48 08.02.2021
2811 Clear 6 1006 93 10000 5.66 110 00:21 08.02.2021
2812 Clear 7 1006 87 10000 5.14 110 23:50 07.02.2021
2813 Clear 6 1006 87 10000 5.14 110 23:50 07.02.2021
2814 Clear 7 1007 87 10000 5.66 110 23:21 07.02.2021
2815 Clear 7 1006 87 10000 8.75 90 22:45 07.02.2021
2816 Clear 7 1006 87 10000 7.72 90 22:27 07.02.2021
2817 Clear 8 1006 87 10000 6.17 90 21:53 07.02.2021
2818 Clouds 7 1007 81 9000 7.2 110 21:28 07.02.2021
2819 Clouds 8 1007 87 8000 7.2 90 20:59 07.02.2021
2820 Clouds 8 1007 87 8000 7.72 90 20:40 07.02.2021
2821 Clouds 8 1007 87 8000 7.72 90 20:22 07.02.2021
2822 Clouds 8 1007 87 8000 7.72 90 20:22 07.02.2021
2823 Clouds 8 1007 81 9000 7.72 100 19:39 07.02.2021
2824 Clear 9 1007 81 10000 7.72 90 19:20 07.02.2021
2825 Clear 9 1007 81 10000 8.75 110 18:40 07.02.2021
2826 Clear 10 1007 71 10000 7.72 100 18:22 07.02.2021
2827 Clear 10 1008 66 10000 8.75 90 17:44 07.02.2021
2828 Clear 10 1008 66 10000 6.69 100 17:21 07.02.2021
2829 Clear 11 1008 62 10000 4.12 140 16:50 07.02.2021
2830 Clear 12 1008 66 10000 1.03 0 16:30 07.02.2021
2831 Clear 13 1008 58 10000 0.51 0 15:59 07.02.2021
2832 Clear 13 1009 62 10000 1.03 0 15:40 07.02.2021
2833 Clear 14 1009 62 10000 1.03 0 15:21 07.02.2021
2834 Clear 14 1009 58 10000 1.03 230 14:40 07.02.2021
2835 Clear 14 1010 54 10000 1.54 330 14:22 07.02.2021
2836 Clear 14 1010 54 10000 1.54 260 13:37 07.02.2021
2837 Clear 14 1010 54 10000 1.4 105 13:19 07.02.2021
2838 Clear 13 1011 54 10000 1.54 350 12:39 07.02.2021
2839 Clear 13 1011 54 10000 1.54 300 12:20 07.02.2021
2840 Clear 14 1011 54 10000 1.54 300 12:20 07.02.2021
2841 Clear 12 1012 57 10000 1.54 290 11:39 07.02.2021
2842 Clear 11 1012 61 10000 0.51 0 11:18 07.02.2021
2843 Clear 9 1013 75 10000 1.03 0 10:29 07.02.2021
2844 Clear 7 1013 81 10000 0.51 0 09:51 07.02.2021
2845 Clouds 7 1014 87 8000 1.03 0 09:25 07.02.2021
2846 Clouds 5 1014 87 8000 1.03 0 08:50 07.02.2021
2847 Clouds 4 1014 86 8000 0.51 0 07:56 07.02.2021
2848 Clouds 1 1014 93 8000 2.06 100 06:21 07.02.2021
2849 Clouds 2 1014 93 7000 0.51 0 04:34 07.02.2021
2850 Clouds 3 1013 93 8000 0.51 0 02:25 07.02.2021
2851 Clouds 6 1013 87 7000 2.06 90 00:37 07.02.2021
2852 Clouds 6 1013 87 7000 2.06 80 23:50 06.02.2021
2853 Clouds 7 1013 87 6000 1.03 0 22:52 06.02.2021
2854 Clouds 8 1014 81 6000 1.03 0 21:45 06.02.2021
2855 Mist 8 1013 87 4800 2.57 130 21:24 06.02.2021
2856 Clouds 9 1013 81 6000 2.06 100 20:53 06.02.2021
2857 Smoke 8 1013 87 5000 1.54 150 20:27 06.02.2021
2858 Smoke 9 1013 81 3000 2.06 90 19:59 06.02.2021
2859 Smoke 8 1013 81 3000 2.06 90 19:40 06.02.2021
2860 Clouds 10 1013 81 7000 1.03 0 19:19 06.02.2021
2861 Clear 10 1013 76 10000 0.51 0 18:43 06.02.2021
2862 Clear 10 1013 76 10000 2.06 120 18:24 06.02.2021
2863 Clear 11 1013 66 10000 0.51 0 17:41 06.02.2021
2864 Clear 13 1013 54 10000 1.54 170 17:21 06.02.2021
2865 Clear 15 1013 54 10000 0.53 272 16:47 06.02.2021
2866 Clear 15 1013 51 10000 0.55 290 16:29 06.02.2021
2867 Clear 15 1012 51 10000 1.03 0 15:52 06.02.2021
2868 Clear 15 1012 47 10000 2.06 170 15:29 06.02.2021
2869 Clear 16 1013 44 10000 0.51 0 14:49 06.02.2021
2870 Clear 15 1013 47 10000 0.85 272 14:30 06.02.2021
2871 Clear 14 1013 51 10000 1.54 160 13:57 06.02.2021
2872 Clear 14 1013 51 10000 1.54 160 13:38 06.02.2021
2873 Clear 11 1015 62 10000 1.54 20 12:24 06.02.2021
2874 Clear 9 1015 71 10000 1.54 90 11:58 06.02.2021
2875 Clear 12 1014 71 10000 1.54 90 11:40 06.02.2021
2876 Clear 11 1016 76 10000 1.03 0 11:20 06.02.2021
2877 Clear 8 1016 71 10000 1.03 0 10:49 06.02.2021
2878 Clear 7 1017 76 10000 1.19 277 10:25 06.02.2021
2879 Clouds 7 1016 87 8000 1.03 0 09:38 06.02.2021
2880 Clouds 5 1016 93 8000 1.17 281 09:19 06.02.2021
2881 Clouds 6 1017 93 6000 1.17 281 08:56 06.02.2021
2882 Mist 4 1017 100 5000 1.03 30 08:29 06.02.2021
2883 Mist 2 1017 93 4000 2.06 100 06:50 06.02.2021
2884 Mist 1 1017 100 5000 2.06 120 05:39 06.02.2021
2885 Mist 3 1017 93 5000 0.51 10 02:43 06.02.2021
2886 Clouds 4 1017 100 8000 0.76 259 00:56 06.02.2021
2887 Clouds 4 1017 100 8000 0.76 259 00:37 06.02.2021
2888 Clouds 5 1017 93 8000 0.63 249 00:18 06.02.2021
2889 Clouds 5 1017 93 8000 1.54 110 23:29 05.02.2021
2890 Clouds 3 1017 87 8000 1.54 130 22:49 05.02.2021
2891 Clouds 6 1017 81 9000 2.06 140 22:25 05.02.2021
2892 Clouds 5 1017 87 8000 3.09 150 21:54 05.02.2021
2893 Clouds 5 1017 87 8000 3.09 150 21:35 05.02.2021
2894 Clouds 6 1017 81 8000 1.03 0 20:52 05.02.2021
2895 Clouds 5 1017 81 8000 2.06 90 19:57 05.02.2021
2896 Clear 7 1017 81 8000 1.03 0 19:25 05.02.2021
2897 Clear 8 1017 76 8000 1.03 0 18:56 05.02.2021
2898 Clear 8 1017 76 8000 1.54 150 18:29 05.02.2021
2899 Clear 9 1017 76 10000 0.51 0 17:56 05.02.2021
2900 Clear 9 1017 76 10000 0.51 0 17:34 05.02.2021
2901 Clear 14 1017 58 10000 2.06 0 16:57 05.02.2021
2902 Clear 14 1017 58 10000 2.06 0 16:38 05.02.2021
2903 Clear 16 1017 48 10000 1.03 0 16:19 05.02.2021
2904 Clear 15 1018 51 10000 1.54 180 15:31 05.02.2021
2905 Clear 15 1017 51 10000 1.03 0 14:59 05.02.2021
2906 Clear 15 1017 51 10000 1.03 0 14:38 05.02.2021
2907 Clear 15 1017 51 10000 0.51 0 14:18 05.02.2021
2908 Clear 13 1018 58 10000 1.54 0 13:39 05.02.2021
2909 Clear 13 1018 62 10000 2.06 110 13:19 05.02.2021
2910 Clear 12 1019 62 10000 1.03 0 12:41 05.02.2021
2911 Clear 12 1019 62 10000 1.03 0 12:41 05.02.2021
2912 Clear 11 1020 66 10000 1.03 0 11:58 05.02.2021
2913 Clear 11 1020 66 10000 1.03 0 11:37 05.02.2021
2914 Clear 9 1020 71 10000 1.03 0 11:19 05.02.2021
2915 Clear 9 1020 71 10000 1.54 20 10:43 05.02.2021
2916 Clouds 7 1020 81 8000 1.54 40 10:22 05.02.2021
2917 Clouds 6 1021 81 8000 1.54 120 09:42 05.02.2021
2918 Clouds 4 1021 87 6000 0.37 230 09:22 05.02.2021
2919 Mist 5 1021 93 4400 0.51 0 08:37 05.02.2021
2920 Mist 4 1021 93 3000 1.54 230 07:40 05.02.2021
2921 Mist 3 1021 93 5000 1.54 0 07:19 05.02.2021
2922 Clear 3 1020 93 10000 1.54 130 05:40 05.02.2021
2923 Clear 3 1020 93 10000 2.06 120 04:59 05.02.2021
2924 Clear 3 1020 93 10000 1.54 250 02:25 05.02.2021
2925 Clear 7 1019 87 10000 2.06 350 00:44 05.02.2021
2926 Clear 8 1019 87 10000 2.06 350 00:21 05.02.2021
2927 Clear 8 1019 87 10000 0.51 0 23:59 04.02.2021
2928 Clear 7 1019 87 10000 0.51 0 23:40 04.02.2021
2929 Clear 7 1019 87 10000 0.51 0 23:40 04.02.2021
2930 Clouds 9 1019 76 10000 1.03 0 23:22 04.02.2021
2931 Clouds 7 1019 76 10000 2.57 290 22:52 04.02.2021
2932 Clouds 9 1019 81 10000 1.03 0 22:29 04.02.2021
2933 Clouds 9 1019 81 10000 2.06 320 21:43 04.02.2021
2934 Clouds 10 1019 71 10000 1.03 0 21:22 04.02.2021
2935 Clouds 9 1019 81 10000 3.09 70 20:53 04.02.2021
2936 Clouds 10 1019 81 10000 3.09 70 20:34 04.02.2021
2937 Clear 10 1018 76 10000 3.6 270 19:48 04.02.2021
2938 Clear 11 1018 71 10000 4.12 260 19:19 04.02.2021
2939 Clear 10 1017 71 10000 4.63 260 18:37 04.02.2021
2940 Clouds 12 1017 58 10000 4.63 270 18:18 04.02.2021
2941 Clouds 12 1017 58 10000 3.09 280 17:42 04.02.2021
2942 Clouds 12 1016 58 10000 3.6 300 17:20 04.02.2021
2943 Clouds 13 1016 58 10000 3.6 310 16:46 04.02.2021
2944 Clouds 14 1016 51 10000 3.6 310 16:19 04.02.2021
2945 Clouds 14 1016 54 10000 3.09 310 15:40 04.02.2021
2946 Clouds 14 1016 54 10000 4.12 300 15:21 04.02.2021
2947 Clouds 15 1016 47 10000 4.12 310 14:49 04.02.2021
2948 Clouds 15 1016 51 10000 5.66 310 14:21 04.02.2021
2949 Clouds 15 1016 47 10000 5.14 300 13:49 04.02.2021
2950 Clouds 15 1016 44 10000 1.03 0 13:28 04.02.2021
2951 Clouds 14 1016 54 10000 2.96 277 12:57 04.02.2021
2952 Clear 12 1016 54 10000 1.03 0 11:58 04.02.2021
2953 Clear 12 1016 54 10000 1.03 0 11:37 04.02.2021
2954 Clear 11 1016 58 10000 1.03 0 11:18 04.02.2021
2955 Clear 10 1017 66 10000 0.51 0 10:36 04.02.2021
2956 Clear 8 1017 81 10000 1.03 0 09:46 04.02.2021
2957 Clear 7 1017 87 8000 1.03 0 09:23 04.02.2021
2958 Mist 5 1016 87 5000 1.03 0 08:58 04.02.2021
2959 Mist 4 1016 87 4500 1.03 60 08:27 04.02.2021
2960 Mist 4 1016 93 4000 1.54 160 07:58 04.02.2021
2961 Mist 3 1016 93 2600 1.03 0 07:35 04.02.2021
2962 Mist 2 1015 100 3500 1.54 50 06:53 04.02.2021
2963 Mist 2 1015 100 3500 1.54 50 06:34 04.02.2021
2964 Mist 3 1015 100 5000 1.03 0 02:41 04.02.2021
2965 Mist 3 1015 100 5000 1.25 274 02:23 04.02.2021
2966 Clear 5 1015 93 6000 0.51 0 00:29 04.02.2021
2967 Clear 5 1015 93 8000 1.03 0 23:39 03.02.2021
2968 Clear 4 1015 93 7000 1.54 150 22:40 03.02.2021
2969 Clear 5 1015 93 7000 1.54 150 22:21 03.02.2021
2970 Clear 6 1015 87 6000 1.54 130 21:55 03.02.2021
2971 Clear 6 1015 87 6000 2.57 140 21:25 03.02.2021
2972 Clear 7 1015 87 6000 1.03 0 20:57 03.02.2021
2973 Clear 7 1015 93 6000 2.57 180 20:36 03.02.2021
2974 Clear 7 1015 87 8000 0.75 211 19:57 03.02.2021
2975 Clouds 8 1015 81 8000 1.54 350 19:28 03.02.2021
2976 Clear 7 1015 81 10000 2.06 60 18:59 03.02.2021
2977 Clear 7 1015 81 10000 2.06 60 18:39 03.02.2021
2978 Clear 8 1015 76 10000 2.06 160 18:19 03.02.2021
2979 Clear 9 1015 71 10000 2.06 190 17:48 03.02.2021
2980 Clear 9 1015 71 10000 2.06 190 17:48 03.02.2021
2981 Clear 9 1015 76 10000 2.57 130 17:27 03.02.2021
2982 Clear 11 1014 66 10000 3.09 110 16:48 03.02.2021
2983 Clear 13 1014 58 10000 1.54 130 16:26 03.02.2021
2984 Clear 14 1014 54 10000 1.03 0 15:41 03.02.2021
2985 Clear 15 1014 55 10000 1.15 226 15:22 03.02.2021
2986 Clear 14 1015 54 10000 1.03 0 14:47 03.02.2021
2987 Clear 13 1015 62 10000 0.51 0 14:24 03.02.2021
2988 Clear 13 1015 58 10000 0.51 0 13:50 03.02.2021
2989 Clear 12 1016 62 10000 1.54 20 13:21 03.02.2021
2990 Clear 11 1016 66 10000 1.03 0 12:46 03.02.2021
2991 Clear 10 1016 71 10000 0.51 0 12:21 03.02.2021
2992 Clear 10 1016 71 10000 0.51 0 11:43 03.02.2021
2993 Clouds 9 1017 76 10000 1.03 0 11:24 03.02.2021
2994 Clouds 6 1017 87 10000 1.03 0 10:45 03.02.2021
2995 Clouds 6 1017 87 10000 1.54 100 10:21 03.02.2021
2996 Clouds 5 1017 87 10000 2.06 110 09:45 03.02.2021
2997 Clouds 4 1017 93 10000 1.54 140 09:27 03.02.2021
2998 Mist 4 1017 93 3000 2.06 110 08:48 03.02.2021
2999 Mist 3 1017 93 2200 2.06 90 07:59 03.02.2021
3000 Mist 2 1017 93 1200 0.77 256 07:26 03.02.2021
3001 Mist 2 1016 100 3000 0.87 275 06:38 03.02.2021
3002 Clouds 3 1015 93 6000 1.54 130 04:50 03.02.2021
3003 Clouds 3 1015 93 6000 1.54 130 04:27 03.02.2021
3004 Clouds 3 1016 93 8000 2.06 150 02:42 03.02.2021
3005 Clouds 4 1015 93 7000 1.03 50 01:58 03.02.2021
3006 Smoke 6 1015 87 10000 2.57 180 00:25 03.02.2021
3007 Smoke 6 1015 87 10000 1.54 230 23:44 02.02.2021
3008 Clouds 5 1015 87 8000 0.32 199 23:26 02.02.2021
3009 Clouds 5 1015 87 8000 0.32 199 23:26 02.02.2021
3010 Clear 6 1014 93 8000 2.06 130 22:51 02.02.2021
3011 Clouds 6 1014 93 10000 3.09 110 22:21 02.02.2021
3012 Clouds 6 1014 87 10000 0.46 178 21:47 02.02.2021
3013 Clouds 7 1014 87 10000 1.54 100 21:27 02.02.2021
3014 Clouds 7 1014 87 10000 0.13 163 20:50 02.02.2021
3015 Clouds 8 1014 81 10000 0.28 49 20:23 02.02.2021
3016 Clouds 7 1014 81 10000 2.06 110 19:58 02.02.2021
3017 Clouds 10 1013 76 10000 2.06 60 19:39 02.02.2021
3018 Clouds 10 1013 76 10000 2.06 60 19:21 02.02.2021
3019 Clouds 9 1013 81 10000 2.06 130 18:41 02.02.2021
3020 Clouds 9 1013 81 10000 2.06 130 18:22 02.02.2021
3021 Clouds 10 1012 71 10000 1.54 200 17:40 02.02.2021
3022 Clouds 12 1012 62 10000 2.06 0 17:21 02.02.2021
3023 Clouds 11 1012 71 10000 1.54 160 16:50 02.02.2021
3024 Clouds 13 1011 58 10000 2.06 160 16:31 02.02.2021
3025 Clouds 13 1011 58 10000 1.03 0 15:57 02.02.2021
3026 Clouds 13 1011 58 10000 1.03 0 15:57 02.02.2021
3027 Clouds 13 1011 58 10000 1.03 0 15:32 02.02.2021
3028 Clouds 13 1011 58 10000 0.22 56 14:55 02.02.2021
3029 Clouds 13 1011 58 10000 1.03 0 14:34 02.02.2021
3030 Clouds 13 1011 58 10000 1.03 0 13:59 02.02.2021
3031 Clouds 13 1011 58 10000 1.03 0 13:41 02.02.2021
3032 Clouds 13 1011 62 10000 1.03 0 13:22 02.02.2021
3033 Clouds 12 1011 66 10000 1.54 10 12:50 02.02.2021
3034 Clouds 10 1011 71 10000 1.03 0 11:55 02.02.2021
3035 Clouds 10 1011 76 10000 1.03 0 11:36 02.02.2021
3036 Clouds 10 1011 76 10000 1.03 0 11:18 02.02.2021
3037 Clouds 9 1011 76 10000 0.34 73 10:42 02.02.2021
3038 Clouds 9 1011 76 10000 0.51 0 10:22 02.02.2021
3039 Clouds 8 1011 87 10000 0.51 0 09:39 02.02.2021
3040 Clouds 7 1011 87 10000 0.27 306 09:20 02.02.2021
3041 Clouds 7 1011 87 10000 1.03 0 08:34 02.02.2021
3042 Clouds 6 1010 93 8000 1.03 0 07:42 02.02.2021
3043 Clouds 6 1009 93 8000 2.06 60 06:46 02.02.2021
3044 Clouds 6 1009 93 10000 1.03 0 06:27 02.02.2021
3045 Clouds 7 1009 87 10000 2.57 120 05:47 02.02.2021
3046 Clouds 8 1007 87 10000 5.14 100 02:46 02.02.2021
3047 Clouds 7 1007 87 10000 1.03 0 02:23 02.02.2021
3048 Clouds 8 1006 87 10000 2.06 70 00:37 02.02.2021
3049 Clouds 7 1005 93 10000 4.12 100 23:37 01.02.2021
3050 Clouds 8 1005 81 10000 2.57 110 22:51 01.02.2021
3051 Clouds 8 1005 81 10000 2.06 60 22:33 01.02.2021
3052 Clouds 8 1005 81 10000 1.03 0 21:53 01.02.2021
3053 Clouds 9 1004 76 10000 2.57 60 21:35 01.02.2021
3054 Clouds 9 1004 76 10000 1.54 150 20:57 01.02.2021
3055 Clouds 9 1004 76 10000 4.63 100 20:38 01.02.2021
3056 Clouds 9 1004 76 10000 4.63 100 20:19 01.02.2021
3057 Clouds 9 1003 76 10000 4.63 90 19:39 01.02.2021
3058 Clouds 10 1003 62 10000 3.09 50 19:20 01.02.2021
3059 Clouds 11 1002 54 10000 2.57 200 18:49 01.02.2021
3060 Clouds 12 1002 50 10000 6.17 170 18:27 01.02.2021
3061 Clouds 11 1002 50 10000 4.12 190 17:47 01.02.2021
3062 Clouds 11 1002 54 10000 4.12 200 17:24 01.02.2021
3063 Clouds 12 1001 50 10000 5.14 210 16:55 01.02.2021
3064 Clouds 14 1001 44 10000 3.09 250 16:29 01.02.2021
3065 Clear 14 1001 44 10000 4.63 240 15:44 01.02.2021
3066 Clouds 15 1001 41 10000 3.6 230 15:19 01.02.2021
3067 Clouds 14 1001 44 10000 5.14 240 14:52 01.02.2021
3068 Clouds 14 1001 44 10000 5.14 240 14:33 01.02.2021
3069 Clouds 15 1001 38 10000 2.57 280 13:49 01.02.2021
3070 Clouds 14 1001 44 10000 1.54 0 13:27 01.02.2021
3071 Clouds 15 1001 41 10000 2.57 70 12:45 01.02.2021
3072 Clouds 13 1001 47 10000 3.09 50 12:25 01.02.2021
3073 Clouds 13 1001 54 10000 2.57 20 11:51 01.02.2021
3074 Clouds 13 1001 54 10000 2.57 20 11:51 01.02.2021
3075 Clouds 12 1001 66 10000 3.09 10 11:23 01.02.2021
3076 Clouds 10 1001 76 10000 1.03 0 10:55 01.02.2021
3077 Clouds 10 1001 76 10000 1.03 0 10:36 01.02.2021
3078 Clouds 9 1002 81 10000 2.57 120 10:18 01.02.2021
3079 Clouds 8 1001 87 10000 2.06 90 09:42 01.02.2021
3080 Clouds 7 1001 93 8000 2.57 110 08:56 01.02.2021
3081 Clouds 6 1001 87 8000 2.06 130 08:27 01.02.2021
3082 Clouds 5 1001 93 7000 2.06 0 07:34 01.02.2021
3083 Clouds 5 999 93 8000 2.57 330 05:27 01.02.2021
3084 Clouds 5 999 93 7000 0.51 0 02:40 01.02.2021
3085 Clouds 4 999 93 8000 2.57 270 00:26 01.02.2021
3086 Clouds 4 999 93 8000 1.03 0 23:26 31.01.2021
3087 Clouds 4 999 87 10000 2.57 250 22:41 31.01.2021
3088 Clouds 5 999 81 10000 2.06 100 22:22 31.01.2021
3089 Clouds 5 1000 81 10000 1.57 105 21:47 31.01.2021
3090 Clouds 6 1000 75 10000 2.06 110 21:21 31.01.2021
3091 Drizzle 5 1000 81 10000 5.66 110 20:43 31.01.2021
3092 Clouds 6 1000 75 10000 3.09 140 20:21 31.01.2021
3093 Clouds 6 1000 70 10000 5.14 120 19:40 31.01.2021
3094 Clouds 6 1000 70 10000 5.14 120 19:40 31.01.2021
3095 Clouds 5 1000 75 10000 6.69 100 19:22 31.01.2021
3096 Clouds 6 1000 65 10000 6.69 110 18:56 31.01.2021
3097 Clouds 6 1000 65 10000 6.17 120 18:38 31.01.2021
3098 Clouds 6 1000 65 10000 6.17 120 18:18 31.01.2021
3099 Clouds 6 1000 65 10000 8.23 100 17:41 31.01.2021
3100 Clouds 7 1001 57 10000 6.17 100 17:22 31.01.2021
3101 Clear 6 1001 65 10000 5.66 110 16:42 31.01.2021
3102 Clear 7 1001 61 10000 6.69 110 16:20 31.01.2021
3103 Clear 8 1001 57 10000 7.2 110 15:50 31.01.2021
3104 Clear 8 1002 57 10000 6.69 120 15:26 31.01.2021
3105 Clear 8 1002 61 10000 6.17 110 14:40 31.01.2021
3106 Clouds 8 1003 66 10000 1.58 100 14:19 31.01.2021
3107 Clear 7 1003 65 10000 0.51 0 13:46 31.01.2021
3108 Clouds 7 1003 70 9000 0.51 0 13:19 31.01.2021
3109 Clouds 7 1004 70 8000 1.03 0 12:47 31.01.2021
3110 Clouds 7 1004 70 6000 1.03 0 12:21 31.01.2021
3111 Mist 6 1004 81 5000 1.03 0 11:40 31.01.2021
3112 Mist 6 1004 81 5000 1.03 0 11:21 31.01.2021
3113 Mist 4 1004 81 5000 1.03 0 10:48 31.01.2021
3114 Mist 3 1004 87 4800 2.06 40 10:29 31.01.2021
3115 Mist 4 1004 87 4000 1.03 0 09:47 31.01.2021
3116 Mist 3 1004 100 3000 1.54 240 08:55 31.01.2021
3117 Mist 2 1004 100 3000 1.54 240 08:31 31.01.2021
3118 Clouds 0 1003 93 6000 0.46 131 06:51 31.01.2021
3119 Mist 0 1004 100 4500 2.06 80 04:55 31.01.2021
3120 Mist 0 1005 100 5000 1.03 0 00:38 31.01.2021
3121 Mist 0 1005 100 5000 1.03 0 00:38 31.01.2021
3122 Mist 0 1005 100 5000 2.06 30 00:20 31.01.2021
3123 Clouds 1 1005 86 8000 2.57 190 23:28 30.01.2021
3124 Clouds 0 1004 100 6000 2.57 150 22:45 30.01.2021
3125 Clouds 0 1004 93 6000 3.09 90 22:23 30.01.2021
3126 Clouds 2 1006 93 8000 1.54 150 21:39 30.01.2021
3127 Clouds 1 1005 93 7000 3.09 180 21:20 30.01.2021
3128 Clouds 2 1005 93 6000 2.06 210 20:43 30.01.2021
3129 Smoke 2 1004 87 5000 2.06 240 20:24 30.01.2021
3130 Clear 2 1004 87 10000 1.54 0 19:42 30.01.2021
3131 Clear 4 1004 87 10000 3.09 310 19:24 30.01.2021
3132 Clear 4 1004 87 10000 3.6 300 18:40 30.01.2021
3133 Clear 4 1004 87 10000 3.6 300 18:40 30.01.2021
3134 Clear 4 1004 75 10000 2.57 10 18:21 30.01.2021
3135 Clear 5 1004 75 10000 3.09 290 17:53 30.01.2021
3136 Clear 6 1004 70 10000 4.63 290 17:19 30.01.2021
3137 Clear 6 1003 70 10000 6.17 280 16:43 30.01.2021
3138 Clear 7 1003 70 10000 6.17 290 16:23 30.01.2021
3139 Clear 7 1003 70 10000 4.63 300 15:50 30.01.2021
3140 Clouds 7 1003 70 10000 7.2 280 15:25 30.01.2021
3141 Clouds 7 1003 75 10000 6.69 290 14:58 30.01.2021
3142 Clouds 6 1003 75 10000 6.69 290 14:39 30.01.2021
3143 Clouds 7 1002 75 10000 7.72 290 14:18 30.01.2021
3144 Clouds 6 1001 81 10000 8.23 280 13:24 30.01.2021
3145 Clouds 7 1001 81 10000 5.66 280 12:46 30.01.2021
3146 Clouds 6 1001 87 10000 6.17 280 12:28 30.01.2021
3147 Clouds 6 1001 87 10000 5.66 280 11:53 30.01.2021
3148 Clouds 3 1001 87 10000 5.66 270 11:21 30.01.2021
3149 Clouds 4 1001 93 10000 6.69 270 10:29 30.01.2021
3150 Clouds 4 1000 93 10000 6.17 270 09:43 30.01.2021
3151 Clouds 3 1000 93 10000 5.66 270 09:24 30.01.2021
3152 Clouds 3 1000 93 8000 4.12 270 08:45 30.01.2021
3153 Clouds 2 999 100 1700 4.63 290 07:44 30.01.2021
3154 Snow 1 998 93 4300 4.12 310 06:33 30.01.2021
3155 Clouds 3 997 93 10000 5.14 90 03:53 30.01.2021
3156 Clouds 3 997 93 10000 5.14 90 03:31 30.01.2021
3157 Rain 1 999 93 5000 2.06 80 02:22 30.01.2021
3158 Rain 1 1000 93 5000 0.51 0 00:56 30.01.2021
3159 Rain 1 1001 93 3700 0.51 0 00:27 30.01.2021
3160 Rain 1 1001 93 7000 1.03 0 23:54 29.01.2021
3161 Rain 1 1002 93 7000 1.54 190 23:28 29.01.2021
3162 Rain 1 1002 93 4400 1.54 190 22:47 29.01.2021
3163 Rain 1 1003 86 10000 1.03 0 22:28 29.01.2021
3164 Clouds 1 1003 86 6000 0.67 238 21:59 29.01.2021
3165 Clouds 1 1003 86 8000 0.71 202 21:27 29.01.2021
3166 Clouds 1 1003 86 8000 2.06 60 20:43 29.01.2021
3167 Clouds 1 1003 86 6000 3.09 150 20:23 29.01.2021
3168 Clouds 1 1006 80 8000 2.06 90 19:40 29.01.2021
3169 Clouds 1 1004 80 8000 2.06 90 19:21 29.01.2021
3170 Clear 1 1005 86 10000 1.54 70 18:53 29.01.2021
3171 Clear 2 1005 75 10000 1.54 140 17:50 29.01.2021
3172 Clear 2 1005 75 10000 1.03 0 17:23 29.01.2021
3173 Clear 2 1005 75 10000 2.06 100 16:52 29.01.2021
3174 Clear 4 1005 65 10000 1.03 0 16:24 29.01.2021
3175 Clear 4 1005 65 10000 2.06 180 15:55 29.01.2021
3176 Clear 3 1006 70 10000 2.57 170 15:37 29.01.2021
3177 Clear 3 1006 70 10000 2.57 170 15:18 29.01.2021
3178 Clouds 4 1006 65 10000 1.03 0 14:23 29.01.2021
3179 Clouds 3 1006 65 10000 1.54 170 13:46 29.01.2021
3180 Clouds 4 1007 60 10000 2.81 261 13:27 29.01.2021
3181 Clouds 4 1008 69 10000 2.06 90 12:36 29.01.2021
3182 Clouds 4 1008 69 10000 2.06 90 12:36 29.01.2021
3183 Clouds 5 1009 69 10000 1.54 130 12:18 29.01.2021
3184 Clouds 4 1009 75 10000 1.54 100 11:41 29.01.2021
3185 Clouds 3 1009 75 10000 2.06 90 11:18 29.01.2021
3186 Clouds 3 1009 69 10000 1.03 0 10:46 29.01.2021
3187 Clouds 2 1009 74 10000 1.54 130 10:22 29.01.2021
3188 Clouds -2 1009 80 10000 1.54 130 09:39 29.01.2021
3189 Snow 0 1009 86 10000 2.06 100 08:50 29.01.2021
3190 Clouds -3 1009 80 10000 3.09 100 08:26 29.01.2021
3191 Clouds -3 1009 86 10000 2.57 140 07:44 29.01.2021
3192 Clouds -4 1009 86 10000 2.57 130 07:26 29.01.2021
3193 Clouds -4 1009 86 10000 2.57 130 07:26 29.01.2021
3194 Clouds -4 1009 86 10000 3.09 150 06:38 29.01.2021
3195 Clouds -2 1009 86 10000 2.06 120 04:42 29.01.2021
3196 Clouds -4 1010 92 8000 2.06 100 00:52 29.01.2021
3197 Clouds -3 1010 86 8000 1.54 0 00:23 29.01.2021
3198 Clouds -4 1010 86 8000 1.54 210 23:55 28.01.2021
3199 Clouds -4 1010 86 8000 1.54 210 23:36 28.01.2021
3200 Clear -4 1010 86 10000 1.54 120 23:18 28.01.2021
3201 Clear -3 1010 79 10000 2.06 150 22:41 28.01.2021
3202 Clear -2 1010 80 10000 1.54 100 22:21 28.01.2021
3203 Clear -2 1011 80 10000 1.73 244 21:42 28.01.2021
3204 Clear -5 1011 80 10000 2.06 200 21:23 28.01.2021
3205 Clear -2 1011 74 10000 1.03 0 20:46 28.01.2021
3206 Clear -4 1011 74 10000 2.06 90 20:19 28.01.2021
3207 Clear -4 1011 74 10000 3.09 330 19:52 28.01.2021
3208 Clouds -4 1011 74 10000 2.06 330 19:29 28.01.2021
3209 Clouds -2 1011 64 10000 2.06 350 18:50 28.01.2021
3210 Clouds -2 1014 64 10000 2.06 350 18:31 28.01.2021
3211 Clouds -2 1011 64 10000 6.17 270 17:54 28.01.2021
3212 Clouds -2 1011 64 10000 6.17 270 17:35 28.01.2021
3213 Clouds -1 1011 64 10000 8.23 280 16:59 28.01.2021
3214 Clouds -1 1011 64 10000 8.23 280 16:40 28.01.2021
3215 Clouds 1 1011 59 10000 4.63 290 16:20 28.01.2021
3216 Clouds 0 1011 59 10000 5.66 280 15:32 28.01.2021
3217 Clouds -1 1011 74 10000 5.66 280 14:49 28.01.2021
3218 Clouds -1 1011 69 10000 6.17 280 14:27 28.01.2021
3219 Clouds 0 1011 74 10000 7.72 290 13:59 28.01.2021
3220 Clouds -2 1011 74 10000 9.26 270 13:25 28.01.2021
3221 Clouds -1 1011 69 10000 7.72 280 12:50 28.01.2021
3222 Clouds -1 1011 69 10000 7.72 280 12:32 28.01.2021
3223 Clouds 1 1011 64 10000 6.69 290 11:57 28.01.2021
3224 Clouds -1 1012 64 10000 7.72 290 11:39 28.01.2021
3225 Clouds -1 1012 64 10000 7.72 290 11:18 28.01.2021
3226 Clouds 1 1012 69 10000 6.17 300 10:48 28.01.2021
3227 Clouds -2 1012 74 10000 6.69 290 10:24 28.01.2021
3228 Clouds 0 1012 69 10000 5.14 290 09:39 28.01.2021
3229 Clouds -2 1012 69 10000 5.14 290 09:19 28.01.2021
3230 Clouds -1 1011 74 10000 4.63 280 08:44 28.01.2021
3231 Clouds -2 1011 80 10000 6.17 270 07:50 28.01.2021
3232 Clouds -3 1011 74 10000 3.6 300 07:21 28.01.2021
3233 Clouds -5 1011 86 10000 2.06 350 06:48 28.01.2021
3234 Clouds -3 1010 74 10000 4.63 280 04:31 28.01.2021
3235 Clouds -3 1010 74 10000 5.66 280 02:46 28.01.2021
3236 Clouds -3 1010 74 10000 5.14 280 00:45 28.01.2021
3237 Clouds -3 1009 74 10000 4.63 290 23:26 27.01.2021
3238 Clouds -3 1009 80 10000 5.14 280 22:57 27.01.2021
3239 Clouds -3 1009 80 10000 5.66 280 22:39 27.01.2021
3240 Clouds -3 1009 80 10000 5.66 280 22:18 27.01.2021
3241 Clouds -2 1009 74 10000 5.66 280 21:41 27.01.2021
3242 Clouds -3 1009 80 10000 6.17 280 21:22 27.01.2021
3243 Clouds -3 1009 80 10000 6.17 280 21:22 27.01.2021
3244 Clouds -3 1009 80 10000 6.69 280 20:41 27.01.2021
3245 Clouds -1 1009 74 10000 6.17 280 19:59 27.01.2021
3246 Clouds -1 1009 74 10000 6.17 280 19:41 27.01.2021
3247 Clouds -2 1009 74 10000 6.69 280 19:21 27.01.2021
3248 Clouds -2 1009 74 10000 7.72 280 18:43 27.01.2021
3249 Clouds -1 1009 80 10000 7.2 280 18:23 27.01.2021
3250 Snow -1 1008 80 8000 7.72 280 17:46 27.01.2021
3251 Snow -1 1008 80 5000 7.72 280 17:26 27.01.2021
3252 Snow -1 1008 86 5000 5.14 290 16:48 27.01.2021
3253 Snow -1 1008 86 5000 6.17 280 16:28 27.01.2021
3254 Snow 0 1008 80 5000 5.66 280 15:51 27.01.2021
3255 Clouds 0 1008 80 8000 5.66 290 15:32 27.01.2021
3256 Snow 0 1007 74 8000 6.17 290 14:45 27.01.2021
3257 Snow 0 1008 74 6000 7.2 280 14:22 27.01.2021
3258 Snow 1 1007 80 8000 7.2 280 13:45 27.01.2021
3259 Snow 1 1007 80 8000 7.2 280 13:45 27.01.2021
3260 Snow 1 1008 74 8000 7.2 280 12:58 27.01.2021
3261 Snow 0 1007 80 5000 7.72 280 12:39 27.01.2021
3262 Snow 1 1007 80 5000 7.72 280 12:18 27.01.2021
3263 Snow 0 1007 80 6000 7.72 280 11:44 27.01.2021
3264 Clouds 0 1008 80 10000 6.69 280 11:21 27.01.2021
3265 Clouds 0 1007 80 10000 6.17 280 10:39 27.01.2021
3266 Clouds 0 1007 80 10000 6.17 280 10:19 27.01.2021
3267 Clouds -1 1007 80 10000 5.14 280 09:41 27.01.2021
3268 Clouds -1 1007 80 10000 5.14 280 08:57 27.01.2021
3269 Snow -1 1007 80 10000 4.63 280 07:59 27.01.2021
3270 Snow -1 1007 86 8000 3.6 300 07:40 27.01.2021
3271 Snow -2 1006 93 6000 4.12 290 06:50 27.01.2021
3272 Snow -2 1006 93 7000 4.12 280 06:18 27.01.2021
3273 Snow -2 1006 93 4100 4.63 290 05:36 27.01.2021
3274 Snow -2 1005 93 8000 5.66 280 02:47 27.01.2021
3275 Snow -2 1006 93 4900 5.66 270 02:23 27.01.2021
3276 Snow -2 1006 93 5000 6.17 270 01:47 27.01.2021
3277 Snow -2 1006 93 5000 5.14 280 00:32 27.01.2021
3278 Snow -2 1006 93 4300 5.14 280 23:48 26.01.2021
3279 Snow -2 1007 93 5000 5.14 280 23:26 26.01.2021
3280 Snow -2 1007 93 2600 5.66 280 22:46 26.01.2021
3281 Snow -1 1007 93 2500 5.14 280 22:22 26.01.2021
3282 Snow -2 1007 93 2200 4.12 280 21:53 26.01.2021
3283 Snow -2 1007 93 2700 3.6 290 21:28 26.01.2021
3284 Snow -2 1007 93 2400 4.12 280 20:58 26.01.2021
3285 Snow -2 1007 93 2400 4.12 280 20:38 26.01.2021
3286 Snow -2 1007 93 2600 4.12 280 20:20 26.01.2021
3287 Snow -2 1007 93 3700 5.66 280 19:43 26.01.2021
3288 Snow -2 1007 93 3000 5.66 280 19:20 26.01.2021
3289 Snow -1 1007 93 3400 5.14 280 18:46 26.01.2021
3290 Snow 0 1007 93 3000 5.66 280 18:24 26.01.2021
3291 Snow 0 1007 93 2700 6.17 270 17:48 26.01.2021
3292 Snow 0 1007 100 3500 5.14 280 17:27 26.01.2021
3293 Snow -1 1006 93 2000 5.14 280 16:54 26.01.2021
3294 Snow 0 1006 100 1500 4.12 280 16:22 26.01.2021
3295 Snow 0 1006 100 1400 3.6 290 15:58 26.01.2021
3296 Snow 1 1006 100 1400 3.6 290 15:39 26.01.2021
3297 Snow 0 1006 100 1800 3.09 300 15:19 26.01.2021
3298 Snow 1 1006 100 1300 3.09 290 14:35 26.01.2021
3299 Snow 1 1006 93 1000 4.12 290 13:59 26.01.2021
3300 Snow 2 1006 93 1600 4.63 280 13:30 26.01.2021
3301 Snow 2 1006 93 750 5.14 280 12:56 26.01.2021
3302 Snow 2 1006 93 750 5.14 280 12:37 26.01.2021
3303 Snow 2 1005 93 800 5.66 280 12:19 26.01.2021
3304 Snow 2 1005 93 1500 6.17 280 11:43 26.01.2021
3305 Snow 2 1005 100 1000 5.66 280 10:59 26.01.2021
3306 Clouds 2 1005 100 700 6.69 270 10:34 26.01.2021
3307 Snow 2 1004 100 1100 6.69 270 09:51 26.01.2021
3308 Snow 1 1004 93 2000 6.69 270 09:32 26.01.2021
3309 Clouds 3 1003 93 8000 5.14 280 08:56 26.01.2021
3310 Clouds 3 1003 93 8000 5.14 280 08:38 26.01.2021
3311 Drizzle 4 1002 81 10000 3.09 290 07:54 26.01.2021
3312 Clouds 4 1001 75 10000 3.09 300 06:58 26.01.2021
3313 Clouds 5 1001 60 10000 3.09 280 05:46 26.01.2021
3314 Clouds 5 1001 60 10000 5.14 250 05:25 26.01.2021
3315 Clouds 7 1000 49 10000 2.06 0 03:31 26.01.2021
3316 Clouds 6 1002 52 10000 5.66 190 00:59 26.01.2021
3317 Clouds 7 1002 49 10000 4.63 330 23:46 25.01.2021
3318 Clouds 8 1002 42 10000 2.57 0 23:26 25.01.2021
3319 Clear 5 1002 65 10000 4.63 270 22:40 25.01.2021
3320 Clouds 4 1002 65 10000 3.6 0 22:21 25.01.2021
3321 Clear 4 1002 75 10000 3.09 30 21:40 25.01.2021
3322 Clouds 3 1003 86 10000 3.6 80 20:59 25.01.2021
3323 Clouds 3 1003 86 10000 3.6 80 20:39 25.01.2021
3324 Clouds 2 1004 86 9000 3.09 140 20:19 25.01.2021
3325 Clear 2 1004 86 10000 2.06 140 19:46 25.01.2021
3326 Clouds 2 1004 86 10000 2.57 120 19:22 25.01.2021
3327 Clouds 2 1004 80 10000 3.6 90 18:43 25.01.2021
3328 Clear 3 1004 80 10000 1.54 150 18:24 25.01.2021
3329 Clear 3 1004 75 10000 2.57 130 17:44 25.01.2021
3330 Clear 3 1004 75 10000 2.57 130 17:44 25.01.2021
3331 Clear 3 1004 69 10000 2.06 150 17:24 25.01.2021
3332 Clear 4 1003 60 10000 1.54 230 16:44 25.01.2021
3333 Clear 5 1003 60 10000 1.54 230 16:25 25.01.2021
3334 Clear 6 1003 56 10000 2.57 290 15:54 25.01.2021
3335 Clear 6 1003 56 10000 2.06 290 15:34 25.01.2021
3336 Clear 6 1003 52 10000 3.09 280 14:53 25.01.2021
3337 Clear 6 1003 52 10000 5.14 280 14:20 25.01.2021
3338 Clouds 7 1002 56 10000 7.2 310 13:56 25.01.2021
3339 Clouds 7 1002 56 10000 7.2 310 13:36 25.01.2021
3340 Clouds 7 1002 56 10000 7.2 310 13:36 25.01.2021
3341 Clouds 7 1002 65 10000 8.23 310 12:49 25.01.2021
3342 Clouds 6 1003 65 10000 8.75 300 12:25 25.01.2021
3343 Clouds 5 1003 60 10000 8.75 290 11:58 25.01.2021
3344 Clouds 4 1003 65 10000 7.2 290 11:22 25.01.2021
3345 Clouds 5 1003 75 10000 6.69 290 10:44 25.01.2021
3346 Clouds 4 1002 86 10000 9.77 290 10:21 25.01.2021
3347 Clouds 3 1001 80 8000 11.32 280 09:47 25.01.2021
3348 Clouds 6 999 75 10000 11.32 290 09:28 25.01.2021
3349 Clouds 8 997 66 10000 6.69 270 08:33 25.01.2021
3350 Clouds 10 997 57 10000 7.72 240 07:46 25.01.2021
3351 Clouds 10 997 57 10000 2.57 0 07:27 25.01.2021
3352 Clouds 11 996 50 10000 2.57 0 06:23 25.01.2021
3353 Clouds 7 996 61 10000 5.14 80 01:37 25.01.2021
3354 Clouds 7 998 65 10000 4.12 110 00:35 25.01.2021
3355 Clouds 7 999 65 10000 8.23 100 23:20 24.01.2021
3356 Clouds 7 1000 65 10000 6.69 90 22:47 24.01.2021
3357 Clouds 7 1000 65 10000 6.69 80 22:28 24.01.2021
3358 Clouds 7 1000 65 10000 6.69 80 22:27 24.01.2021
3359 Clouds 7 1000 65 10000 6.69 80 22:27 24.01.2021
3360 Clouds 7 1000 65 10000 6.69 80 22:27 24.01.2021
3361 Clouds 7 1000 70 10000 3.6 140 21:55 24.01.2021
3362 Clouds 7 1000 61 10000 5.14 120 21:27 24.01.2021
3363 Clouds 7 1001 61 10000 5.66 110 20:46 24.01.2021
3364 Clouds 7 1002 65 10000 4.63 80 20:23 24.01.2021
3365 Clouds 6 1002 65 10000 6.69 80 19:56 24.01.2021
3366 Clouds 6 1002 65 10000 6.17 100 19:36 24.01.2021
3367 Clouds 6 1002 65 10000 6.17 100 19:18 24.01.2021
3368 Clouds 9 1003 46 10000 3.09 140 18:40 24.01.2021
3369 Clouds 9 1003 49 10000 2.57 190 18:21 24.01.2021
3370 Clouds 9 1003 49 10000 1.54 0 17:51 24.01.2021
3371 Clouds 10 1003 46 10000 1.54 100 17:31 24.01.2021
3372 Clouds 10 1003 46 10000 2.57 280 16:59 24.01.2021
3373 Clouds 10 1003 46 10000 2.57 280 16:40 24.01.2021
3374 Clouds 10 1004 49 10000 2.57 140 16:20 24.01.2021
3375 Clouds 10 1004 46 10000 4.12 190 15:45 24.01.2021
3376 Clouds 12 1004 43 10000 4.12 170 15:20 24.01.2021
3377 Clouds 12 1004 40 10000 3.09 160 14:45 24.01.2021
3378 Clouds 12 1004 43 10000 6.69 180 14:24 24.01.2021
3379 Clouds 12 1004 40 10000 2.57 180 13:34 24.01.2021
3380 Clouds 13 1005 38 10000 1.54 70 12:51 24.01.2021
3381 Clouds 12 1005 40 10000 2.06 110 12:22 24.01.2021
3382 Clouds 11 1005 43 10000 1.03 0 11:55 24.01.2021
3383 Clouds 11 1005 46 10000 4.12 80 11:25 24.01.2021
3384 Clouds 10 1006 50 10000 2.57 70 10:59 24.01.2021
3385 Clouds 10 1006 53 10000 3.6 30 10:30 24.01.2021
3386 Clouds 9 1006 57 10000 3.6 20 09:47 24.01.2021
3387 Clouds 8 1005 66 10000 4.12 40 09:19 24.01.2021
3388 Clouds 6 1005 70 10000 0.51 0 08:37 24.01.2021
3389 Clouds 4 1003 87 10000 2.57 70 03:50 24.01.2021
3390 Clouds 4 1003 87 10000 1.54 0 02:19 24.01.2021
3391 Clouds 6 1003 81 10000 3.6 270 00:56 24.01.2021
3392 Clouds 5 1003 81 10000 3.09 110 00:21 24.01.2021
3393 Clouds 5 1004 81 8000 2.06 0 23:34 23.01.2021
3394 Clouds 5 1004 81 8000 2.06 250 22:59 23.01.2021
3395 Clouds 5 1004 81 8000 2.06 250 22:40 23.01.2021
3396 Clouds 5 1004 81 10000 2.06 300 21:59 23.01.2021
3397 Clouds 6 1004 75 8000 1.54 270 21:23 23.01.2021
3398 Clouds 6 1004 81 10000 4.12 120 20:55 23.01.2021
3399 Clouds 6 1004 81 10000 4.12 120 20:37 23.01.2021
3400 Clouds 6 1005 75 10000 2.06 130 20:19 23.01.2021
3401 Clouds 6 1005 81 10000 2.06 110 19:43 23.01.2021
3402 Clouds 6 1005 81 10000 3.09 110 19:20 23.01.2021
3403 Clouds 6 1005 81 10000 4.12 90 18:42 23.01.2021
3404 Clouds 6 1006 81 10000 4.12 90 18:21 23.01.2021
3405 Clouds 7 1006 70 10000 4.12 70 17:36 23.01.2021
3406 Clouds 7 1006 70 10000 4.12 70 17:18 23.01.2021
3407 Clouds 7 1006 70 10000 4.63 90 16:42 23.01.2021
3408 Clouds 8 1007 66 10000 7.72 90 15:56 23.01.2021
3409 Clouds 9 1007 66 10000 6.69 90 15:29 23.01.2021
3410 Clouds 9 1007 66 10000 4.12 80 14:45 23.01.2021
3411 Clouds 9 1007 66 10000 4.12 70 14:24 23.01.2021
3412 Clouds 9 1007 66 10000 4.12 70 13:43 23.01.2021
3413 Clouds 9 1008 61 10000 3.09 70 13:24 23.01.2021
3414 Clouds 10 1009 66 10000 3.6 90 12:44 23.01.2021
3415 Clouds 10 1009 61 10000 4.12 90 12:24 23.01.2021
3416 Clouds 9 1010 66 10000 2.57 80 11:40 23.01.2021
3417 Clear 9 1011 66 10000 5.14 100 10:58 23.01.2021
3418 Clouds 6 1011 75 10000 2.06 340 10:26 23.01.2021
3419 Clouds 8 1011 75 10000 2.06 260 09:53 23.01.2021
3420 Clouds 6 1011 81 10000 1.54 0 09:28 23.01.2021
3421 Clouds 5 1011 81 10000 2.57 300 08:43 23.01.2021
3422 Clouds 4 1011 81 10000 2.57 70 07:48 23.01.2021
3423 Clouds 5 1012 75 10000 2.06 130 06:50 23.01.2021
3424 Clouds 5 1013 70 10000 2.57 0 02:30 23.01.2021
3425 Clear 3 1014 75 10000 1.54 0 00:32 23.01.2021
3426 Clouds 5 1014 70 10000 2.57 130 23:36 22.01.2021
3427 Clear 5 1014 75 10000 2.57 110 22:44 22.01.2021
3428 Clear 8 1014 61 10000 4.12 60 22:20 22.01.2021
3429 Clear 8 1014 57 10000 3.09 60 21:39 22.01.2021
3430 Clear 7 1014 61 10000 5.14 50 21:21 22.01.2021
3431 Clear 7 1014 65 10000 5.14 50 20:46 22.01.2021
3432 Clear 7 1015 65 10000 2.57 10 20:26 22.01.2021
3433 Clear 6 1015 70 10000 4.12 80 19:47 22.01.2021
3434 Clear 6 1015 70 10000 2.57 10 19:19 22.01.2021
3435 Clear 6 1015 70 10000 2.06 10 18:45 22.01.2021
3436 Clouds 5 1015 75 8000 3.09 360 18:26 22.01.2021
3437 Clouds 6 1015 70 8000 2.06 340 17:48 22.01.2021
3438 Clouds 7 1015 65 8000 0.51 0 17:29 22.01.2021
3439 Smoke 7 1015 70 5000 2.57 330 16:54 22.01.2021
3440 Smoke 7 1015 70 8000 0.51 0 16:30 22.01.2021
3441 Clouds 8 1015 66 8000 2.06 60 15:45 22.01.2021
3442 Clouds 9 1016 66 7000 2.06 0 15:20 22.01.2021
3443 Clouds 9 1016 70 7000 1.03 0 14:32 22.01.2021
3444 Clouds 9 1016 65 6000 1.54 0 13:53 22.01.2021
3445 Clouds 8 1016 65 6000 1.54 0 13:35 22.01.2021
3446 Haze 8 1017 70 5000 1.03 0 12:55 22.01.2021
3447 Mist 6 1018 75 4000 2.06 340 12:26 22.01.2021
3448 Mist 6 1018 81 3000 1.03 0 11:48 22.01.2021
3449 Mist 7 1018 81 3000 1.54 360 11:30 22.01.2021
3450 Mist 6 1019 87 3000 1.03 0 10:46 22.01.2021
3451 Mist 5 1019 86 3500 1.03 0 10:22 22.01.2021
3452 Mist 4 1019 86 3500 1.54 0 09:39 22.01.2021
3453 Mist 3 1020 93 3000 2.06 150 08:51 22.01.2021
3454 Mist 2 1020 86 2500 2.57 150 08:30 22.01.2021
3455 Mist 1 1020 93 1400 1.03 0 07:40 22.01.2021
3456 Mist 0 1020 93 5000 2.06 170 03:41 22.01.2021
3457 Mist 1 1021 93 5000 2.06 100 00:54 22.01.2021
3458 Mist 1 1022 93 4400 1.54 190 23:56 21.01.2021
3459 Mist 1 1022 93 4400 1.54 190 23:38 21.01.2021
3460 Mist 2 1022 93 4500 1.03 0 22:57 21.01.2021
3461 Mist 2 1022 86 3000 1.03 0 22:38 21.01.2021
3462 Mist 1 1022 86 3000 1.03 0 21:44 21.01.2021
3463 Mist 1 1022 93 2500 0.51 0 21:22 21.01.2021
3464 Mist 2 1022 86 1600 0.56 214 20:55 21.01.2021
3465 Mist 1 1022 86 1600 0.56 214 20:36 21.01.2021
3466 Mist 1 1022 93 4500 1.54 270 20:18 21.01.2021
3467 Mist 1 1022 86 3000 1.03 0 19:44 21.01.2021
3468 Mist 1 1022 93 4500 1.03 0 19:23 21.01.2021
3469 Mist 1 1022 86 5000 0.51 0 18:41 21.01.2021
3470 Clouds 2 1022 86 7000 1.54 0 18:21 21.01.2021
3471 Clouds 2 1022 74 10000 1.54 330 17:57 21.01.2021
3472 Clouds 3 1021 80 10000 0.93 186 17:21 21.01.2021
3473 Clear 4 1021 65 10000 0.93 186 16:54 21.01.2021
3474 Clear 4 1021 65 10000 0.93 186 16:36 21.01.2021
3475 Clear 5 1021 65 10000 0.65 188 16:18 21.01.2021
3476 Clear 5 1021 61 10000 0.51 0 15:39 21.01.2021
3477 Clear 6 1021 65 10000 0.51 0 15:21 21.01.2021
3478 Clear 6 1021 60 10000 0.42 210 14:37 21.01.2021
3479 Clear 5 1021 60 10000 1.03 0 13:52 21.01.2021
3480 Clear 5 1021 60 10000 1.03 0 13:33 21.01.2021
3481 Clouds 5 1022 70 8000 1.03 0 12:58 21.01.2021
3482 Clouds 5 1022 70 8000 1.03 0 12:39 21.01.2021
3483 Clouds 4 1022 75 8000 1.03 0 12:21 21.01.2021
3484 Clouds 4 1023 75 7000 0.84 271 11:48 21.01.2021
3485 Clear 4 1023 80 10000 1.03 0 11:25 21.01.2021
3486 Clouds 3 1024 86 8000 1.54 90 10:51 21.01.2021
3487 Clouds 3 1024 86 7000 1.03 0 10:30 21.01.2021
3488 Clouds 2 1024 86 6000 2.06 100 09:44 21.01.2021
3489 Clouds 2 1024 93 6000 1.03 0 09:25 21.01.2021
3490 Clouds 0 1023 93 6000 1.03 130 08:45 21.01.2021
3491 Clouds 0 1024 100 6000 1.54 130 08:24 21.01.2021
3492 Mist -2 1023 100 5000 0.73 259 07:28 21.01.2021
3493 Clouds -2 1023 93 7000 2.06 200 06:54 21.01.2021
3494 Clouds -2 1023 93 8000 0.77 260 05:21 21.01.2021
3495 Clouds -1 1023 93 8000 1.03 0 02:31 21.01.2021
3496 Clear -1 1024 93 10000 1.03 100 00:51 21.01.2021
3497 Clear -1 1024 86 8000 2.06 130 23:53 20.01.2021
3498 Clear -1 1024 86 7000 2.06 200 23:32 20.01.2021
3499 Clear -1 1024 86 8000 2.57 110 22:58 20.01.2021
3500 Clear -1 1024 93 8000 2.06 130 22:37 20.01.2021
3501 Clear 0 1024 86 8000 1.49 260 21:58 20.01.2021
3502 Clear 0 1024 86 8000 1.49 260 21:58 20.01.2021
3503 Clear 0 1024 80 8000 2.06 210 21:40 20.01.2021
3504 Clear 0 1024 80 8000 2.06 210 21:19 20.01.2021
3505 Clear 1 1024 80 10000 1.54 310 20:41 20.01.2021
3506 Clear 1 1024 86 10000 1.54 130 20:18 20.01.2021
3507 Clear 2 1024 75 10000 1.03 0 19:42 20.01.2021
3508 Clouds 2 1024 69 10000 1.03 0 19:23 20.01.2021
3509 Clear 2 1024 75 10000 3.09 250 18:42 20.01.2021
3510 Clear 3 1023 65 10000 2.06 220 17:57 20.01.2021
3511 Clear 3 1023 65 10000 2.06 220 17:39 20.01.2021
3512 Clear 4 1023 60 10000 2.06 270 16:57 20.01.2021
3513 Clear 4 1023 60 10000 2.06 270 16:38 20.01.2021
3514 Clouds 6 1023 52 10000 2.57 310 15:52 20.01.2021
3515 Clouds 6 1022 52 10000 3.6 320 15:34 20.01.2021
3516 Clouds 5 1023 52 10000 1.03 0 14:50 20.01.2021
3517 Clear 5 1023 52 10000 2.06 130 14:23 20.01.2021
3518 Clear 5 1023 48 10000 1.54 120 13:42 20.01.2021
3519 Clouds 4 1023 56 10000 2.57 180 13:24 20.01.2021
3520 Clear 4 1023 55 10000 1.03 0 12:39 20.01.2021
3521 Clear 3 1023 60 10000 1.54 90 11:57 20.01.2021
3522 Clear 0 1024 64 10000 1.54 40 11:37 20.01.2021
3523 Clear 0 1024 59 10000 2.06 290 10:56 20.01.2021
3524 Clouds 0 1024 64 10000 1.54 270 10:32 20.01.2021
3525 Clouds 0 1024 64 10000 1.54 270 10:32 20.01.2021
3526 Clouds -1 1024 69 10000 2.57 240 09:54 20.01.2021
3527 Clouds 0 1024 69 6000 3.09 230 09:26 20.01.2021
3528 Clouds -2 1024 80 6000 2.06 150 08:55 20.01.2021
3529 Clouds -2 1024 93 6000 1.79 279 08:29 20.01.2021
3530 Clouds -3 1024 86 7000 1.54 140 07:56 20.01.2021
3531 Clouds -5 1024 92 7000 2.06 110 07:25 20.01.2021
3532 Clear -5 1023 93 10000 1.03 0 05:51 20.01.2021
3533 Clouds -6 1022 93 9000 1.18 277 03:28 20.01.2021
3534 Clear -6 1023 86 7000 1.54 150 01:18 20.01.2021
3535 Smoke -5 1022 86 5000 1.33 288 00:45 20.01.2021
3536 Smoke -5 1023 93 5000 2.06 180 23:48 19.01.2021
3537 Smoke -4 1023 86 4000 1.54 260 23:20 19.01.2021
3538 Clear -4 1023 86 8000 1.54 250 22:43 19.01.2021
3539 Clear -3 1023 86 10000 2.57 280 22:22 19.01.2021
3540 Clear -4 1023 86 10000 2.06 260 21:59 19.01.2021
3541 Clear -3 1023 80 10000 1.54 230 21:41 19.01.2021
3542 Clear -2 1023 80 10000 1.54 230 21:22 19.01.2021
3543 Clear -3 1023 80 10000 0.51 0 20:43 19.01.2021
3544 Clear -3 1023 80 10000 1.54 340 20:22 19.01.2021
3545 Clear -3 1023 80 10000 2.57 300 19:42 19.01.2021
3546 Clear -3 1023 80 10000 2.57 300 19:42 19.01.2021
3547 Clear -3 1023 80 10000 2.57 300 19:42 19.01.2021
3548 Clear -2 1023 80 10000 3.6 310 19:23 19.01.2021
3549 Clouds -2 1023 80 10000 2.57 300 18:46 19.01.2021
3550 Clouds -1 1023 74 10000 3.6 310 18:26 19.01.2021
3551 Clouds 0 1023 74 10000 3.09 280 17:45 19.01.2021
3552 Clouds 0 1023 69 10000 4.12 300 17:25 19.01.2021
3553 Clouds 0 1023 69 10000 4.12 300 16:48 19.01.2021
3554 Clouds 0 1023 64 10000 6.17 290 16:26 19.01.2021
3555 Clouds 0 1022 64 10000 6.17 280 15:57 19.01.2021
3556 Clouds 1 1022 59 10000 7.72 280 15:37 19.01.2021
3557 Clouds 1 1022 55 10000 8.23 280 14:57 19.01.2021
3558 Clouds 1 1022 60 10000 7.2 290 14:37 19.01.2021
3559 Clouds 1 1022 60 10000 7.2 290 14:18 19.01.2021
3560 Clouds 0 1022 69 10000 6.17 290 13:39 19.01.2021
3561 Clouds -1 1022 69 10000 6.17 290 13:20 19.01.2021
3562 Clouds 0 1023 69 10000 6.17 280 12:38 19.01.2021
3563 Clouds -1 1023 69 10000 6.17 280 12:19 19.01.2021
3564 Clouds 0 1023 64 10000 4.63 290 11:43 19.01.2021
3565 Clouds -3 1024 68 10000 4.63 290 11:22 19.01.2021
3566 Clouds -3 1024 63 10000 4.12 280 10:50 19.01.2021
3567 Clouds -5 1024 68 10000 3.09 300 10:30 19.01.2021
3568 Clouds -3 1024 68 10000 2.57 300 09:52 19.01.2021
3569 Clouds -5 1024 68 10000 1.54 320 09:21 19.01.2021
3570 Clouds -4 1023 68 10000 1.54 350 08:48 19.01.2021
3571 Clouds -8 1023 79 10000 3.09 340 07:58 19.01.2021
3572 Clouds -6 1023 79 10000 2.06 350 07:22 19.01.2021
3573 Clouds -6 1022 63 10000 5.66 280 04:55 19.01.2021
3574 Clear -6 1022 63 10000 5.66 280 02:24 19.01.2021
3575 Clouds -6 1022 68 10000 5.66 280 00:47 19.01.2021
3576 Clear -6 1022 68 10000 6.69 280 23:57 18.01.2021
3577 Clear -6 1022 68 10000 6.17 280 23:29 18.01.2021
3578 Clouds -6 1022 68 10000 5.14 280 22:46 18.01.2021
3579 Clouds -7 1022 68 10000 5.14 280 22:24 18.01.2021
3580 Clouds -7 1021 73 10000 4.63 280 21:48 18.01.2021
3581 Clear -7 1022 68 10000 4.63 280 21:24 18.01.2021
3582 Clear -7 1022 73 10000 4.63 280 20:57 18.01.2021
3583 Clear -7 1022 73 10000 4.63 280 20:35 18.01.2021
3584 Clear -7 1021 73 10000 4.12 290 19:54 18.01.2021
3585 Clear -7 1021 73 10000 4.12 290 19:36 18.01.2021
3586 Clear -6 1021 68 10000 4.63 280 18:57 18.01.2021
3587 Clear -6 1021 68 10000 4.63 280 18:38 18.01.2021
3588 Clear -6 1021 68 10000 4.63 280 18:19 18.01.2021
3589 Clear -6 1021 68 10000 4.63 290 17:39 18.01.2021
3590 Clear -6 1020 63 10000 7.72 300 16:55 18.01.2021
3591 Clear -5 1020 63 10000 8.23 300 16:35 18.01.2021
3592 Clear -5 1020 63 10000 7.72 290 15:58 18.01.2021
3593 Clear -5 1020 63 10000 7.72 290 15:40 18.01.2021
3594 Clear -4 1020 58 10000 7.2 300 15:19 18.01.2021
3595 Clear -4 1019 58 10000 8.75 300 14:42 18.01.2021
3596 Clouds -3 1019 59 10000 8.75 300 14:24 18.01.2021
3597 Clouds -3 1019 58 10000 7.72 290 13:45 18.01.2021
3598 Clouds -3 1019 58 10000 7.72 280 13:24 18.01.2021
3599 Clouds -3 1019 54 10000 7.72 270 12:49 18.01.2021
3600 Clouds -4 1019 58 10000 6.69 290 12:19 18.01.2021
3601 Clouds -4 1020 58 10000 7.2 300 11:48 18.01.2021
3602 Clouds -5 1020 63 10000 8.75 270 11:27 18.01.2021
3603 Clouds -5 1020 63 10000 6.17 290 10:53 18.01.2021
3604 Clouds -5 1020 63 10000 6.69 290 10:34 18.01.2021
3605 Snow -4 1020 86 7000 3.6 310 09:43 18.01.2021
3606 Snow -7 1020 86 7000 3.6 310 09:19 18.01.2021
3607 Snow -7 1020 79 6000 2.57 330 08:43 18.01.2021
3608 Clouds -9 1019 86 8000 0.51 0 07:55 18.01.2021
3609 Clouds -8 1019 85 8000 1.03 360 06:44 18.01.2021
3610 Clouds -10 1018 85 10000 1.67 289 04:54 18.01.2021
3611 Clouds -10 1018 85 10000 1.54 270 04:29 18.01.2021
3612 Clouds -8 1018 85 10000 1.54 290 03:53 18.01.2021
3613 Clouds -8 1018 85 10000 1.03 280 03:30 18.01.2021
3614 Clear -8 1018 92 10000 1.03 230 02:59 18.01.2021
3615 Clear -8 1018 86 10000 1.31 291 02:20 18.01.2021
3616 Clouds -7 1017 86 9000 2.06 310 00:41 18.01.2021
3617 Clouds -6 1017 86 9000 3.09 320 00:19 18.01.2021
3618 Clouds -6 1017 86 10000 2.57 320 23:41 17.01.2021
3619 Clouds -6 1017 86 10000 2.06 330 23:19 17.01.2021
3620 Clouds -7 1016 86 10000 1.54 290 22:25 17.01.2021
3621 Clouds -6 1016 79 8000 3.09 280 21:57 17.01.2021
3622 Clouds -6 1016 79 8000 3.09 300 21:37 17.01.2021
3623 Clouds -6 1016 79 8000 3.09 300 21:18 17.01.2021
3624 Clouds -5 1015 79 10000 2.57 310 20:40 17.01.2021
3625 Clouds -5 1015 79 10000 2.57 310 20:18 17.01.2021
3626 Clouds -6 1015 79 10000 2.06 280 19:40 17.01.2021
3627 Clouds -6 1015 79 10000 2.06 300 18:58 17.01.2021
3628 Clouds -5 1014 74 10000 2.57 280 18:30 17.01.2021
3629 Clouds -5 1014 68 10000 3.09 280 17:54 17.01.2021
3630 Clouds -5 1014 68 10000 3.09 280 17:35 17.01.2021
3631 Snow -5 1014 68 10000 4.12 280 16:57 17.01.2021
3632 Clouds -4 1013 58 10000 4.63 280 16:39 17.01.2021
3633 Clouds -4 1013 58 10000 4.63 280 16:19 17.01.2021
3634 Clouds -4 1013 58 10000 5.14 270 15:38 17.01.2021
3635 Clouds -4 1013 58 10000 5.14 270 15:19 17.01.2021
3636 Clouds -4 1013 58 10000 5.14 290 14:44 17.01.2021
3637 Clouds -3 1013 58 10000 4.63 280 14:25 17.01.2021
3638 Clouds -3 1013 54 10000 5.66 280 13:44 17.01.2021
3639 Clouds -3 1013 54 10000 5.66 280 13:26 17.01.2021
3640 Clouds -3 1013 54 10000 5.66 280 12:47 17.01.2021
3641 Clouds -4 1013 58 10000 5.66 280 12:28 17.01.2021
3642 Clear -5 1014 58 10000 5.66 270 11:26 17.01.2021
3643 Clouds -5 1014 58 10000 5.14 290 10:57 17.01.2021
3644 Clouds -5 1014 63 10000 4.63 290 10:39 17.01.2021
3645 Clouds -5 1014 63 10000 4.63 290 10:18 17.01.2021
3646 Clouds -7 1014 79 10000 3.6 300 09:18 17.01.2021
3647 Clouds -6 1014 79 10000 2.57 300 08:42 17.01.2021
3648 Clear -9 1014 85 10000 2.06 300 04:45 17.01.2021
3649 Clear -9 1014 79 10000 3.09 300 04:27 17.01.2021
3650 Clear -8 1014 79 10000 3.6 290 01:38 17.01.2021
3651 Clear -8 1014 73 10000 4.63 280 00:37 17.01.2021
3652 Clear -8 1014 73 10000 3.6 290 00:18 17.01.2021
3653 Clear -8 1014 79 10000 4.12 290 23:46 16.01.2021
3654 Clear -8 1014 79 10000 5.14 280 23:18 16.01.2021
3655 Clear -7 1014 73 10000 4.63 280 22:27 16.01.2021
3656 Clear -7 1014 73 10000 5.66 280 21:58 16.01.2021
3657 Clear -6 1014 68 10000 4.63 280 21:24 16.01.2021
3658 Clouds -6 1014 73 10000 4.63 280 20:53 16.01.2021
3659 Clouds -6 1014 73 10000 6.69 270 20:29 16.01.2021
3660 Clouds -5 1014 68 10000 6.69 280 19:50 16.01.2021
3661 Clouds -5 1014 68 10000 6.69 290 19:31 16.01.2021
3662 Clouds -5 1014 68 10000 5.66 290 18:47 16.01.2021
3663 Clouds -5 1014 63 10000 5.66 290 18:28 16.01.2021
3664 Clouds -4 1013 63 10000 5.14 290 17:59 16.01.2021
3665 Clouds -4 1013 63 10000 5.14 290 17:39 16.01.2021
3666 Clouds -4 1013 63 10000 6.17 280 17:21 16.01.2021
3667 Clouds -4 1013 63 10000 5.66 290 16:42 16.01.2021
3668 Clouds -3 1012 63 10000 5.66 290 16:19 16.01.2021
3669 Clouds -3 1012 54 10000 5.66 290 15:42 16.01.2021
3670 Clouds -3 1012 54 10000 6.69 290 14:35 16.01.2021
3671 Clouds -3 1012 54 10000 7.72 280 13:54 16.01.2021
3672 Clouds -3 1012 54 10000 9.77 270 13:32 16.01.2021
3673 Clouds -2 1012 54 10000 10.29 270 12:49 16.01.2021
3674 Clouds -2 1012 54 10000 8.75 280 12:31 16.01.2021
3675 Clouds -3 1013 63 10000 7.2 280 11:59 16.01.2021
3676 Clouds -3 1013 63 10000 7.2 280 11:39 16.01.2021
3677 Clouds -2 1013 63 10000 6.17 280 11:18 16.01.2021
3678 Clouds -2 1013 68 10000 7.72 280 10:41 16.01.2021
3679 Clouds -3 1013 74 10000 6.17 290 09:57 16.01.2021
3680 Clouds -3 1013 68 10000 6.17 280 09:21 16.01.2021
3681 Clouds -3 1013 63 10000 5.14 280 08:19 16.01.2021
3682 Clouds -3 1013 74 10000 4.12 280 06:52 16.01.2021
3683 Clouds -3 1013 86 10000 2.06 300 05:32 16.01.2021
3684 Clouds -4 1013 86 10000 1.54 300 03:38 16.01.2021
3685 Clouds -3 1013 86 10000 2.06 310 02:42 16.01.2021
3686 Clouds -3 1014 80 10000 0.51 0 00:46 16.01.2021
3687 Clouds -3 1014 80 10000 0.51 0 00:23 16.01.2021
3688 Clouds -3 1015 80 10000 2.57 290 23:37 15.01.2021
3689 Clouds -3 1015 74 10000 2.06 280 22:39 15.01.2021
3690 Clouds -3 1015 74 10000 2.06 280 22:21 15.01.2021
3691 Clouds -3 1014 80 10000 2.57 280 21:42 15.01.2021
3692 Clouds -3 1015 74 10000 2.06 270 20:48 15.01.2021
3693 Clouds -3 1015 74 10000 2.06 270 20:23 15.01.2021
3694 Clouds -3 1015 74 10000 3.09 270 19:48 15.01.2021
3695 Clouds -3 1014 80 10000 3.09 270 19:28 15.01.2021
3696 Clouds -3 1014 74 10000 2.57 270 18:47 15.01.2021
3697 Clouds -3 1014 74 10000 2.57 280 18:20 15.01.2021
3698 Clouds -2 1014 69 10000 2.57 280 17:58 15.01.2021
3699 Clouds -2 1014 69 10000 2.57 280 17:58 15.01.2021
3700 Clouds -2 1014 69 10000 2.57 280 17:40 15.01.2021
3701 Clouds -2 1014 74 10000 2.57 290 17:21 15.01.2021
3702 Clouds -2 1014 69 10000 3.09 290 16:44 15.01.2021
3703 Clouds -1 1014 64 10000 4.12 290 16:23 15.01.2021
3704 Clouds 0 1014 47 10000 5.14 270 15:41 15.01.2021
3705 Clouds 0 1014 47 10000 5.14 270 15:19 15.01.2021
3706 Clouds 0 1014 55 10000 2.06 310 14:42 15.01.2021
3707 Clouds 0 1014 59 10000 3.09 280 14:24 15.01.2021
3708 Clouds 0 1014 59 10000 3.09 280 13:41 15.01.2021
3709 Clouds 0 1014 64 10000 4.12 290 13:20 15.01.2021
3710 Clouds 0 1014 64 10000 4.12 290 12:48 15.01.2021
3711 Clouds 0 1015 64 10000 5.14 290 12:30 15.01.2021
3712 Clouds 0 1015 64 10000 5.14 270 11:43 15.01.2021
3713 Clouds 0 1015 64 10000 5.66 300 11:23 15.01.2021
3714 Clouds -1 1015 69 10000 6.17 270 10:52 15.01.2021
3715 Clouds -1 1015 69 10000 6.17 280 10:24 15.01.2021
3716 Clouds -1 1015 74 10000 5.14 280 09:50 15.01.2021
3717 Clouds -2 1015 80 10000 5.14 270 09:29 15.01.2021
3718 Clouds -2 1014 74 10000 4.12 280 08:29 15.01.2021
3719 Clouds -2 1014 80 10000 3.6 280 07:46 15.01.2021
3720 Clouds -2 1013 74 10000 2.57 310 07:24 15.01.2021
3721 Clouds -2 1013 80 10000 4.63 290 06:51 15.01.2021
3722 Clouds -2 1012 74 10000 5.14 280 02:45 15.01.2021
3723 Clouds -2 1010 74 10000 7.72 280 00:52 15.01.2021
3724 Clouds -2 1010 80 10000 8.75 280 23:42 14.01.2021
3725 Clouds -2 1010 80 10000 7.72 270 22:58 14.01.2021
3726 Clouds -2 1010 80 10000 5.66 270 22:38 14.01.2021
3727 Clouds -2 1010 80 10000 5.66 270 22:20 14.01.2021
3728 Clouds -1 1009 80 10000 6.69 270 21:41 14.01.2021
3729 Clouds -1 1009 86 10000 6.17 280 21:20 14.01.2021
3730 Snow 0 1009 80 10000 5.14 280 20:48 14.01.2021
3731 Clouds 0 1008 80 10000 4.63 300 20:22 14.01.2021
3732 Clouds 0 1008 93 10000 4.63 310 19:41 14.01.2021
3733 Clouds -1 1008 93 10000 4.63 310 19:23 14.01.2021
3734 Clouds -1 1008 93 10000 3.6 300 18:49 14.01.2021
3735 Snow 0 1008 93 10000 4.63 290 18:18 14.01.2021
3736 Clouds -1 1007 86 10000 4.12 300 17:44 14.01.2021
3737 Snow 0 1007 93 8000 3.6 280 17:25 14.01.2021
3738 Snow 0 1007 93 5000 3.09 290 16:39 14.01.2021
3739 Snow 1 1007 86 4000 4.63 320 15:56 14.01.2021
3740 Snow 1 1007 86 4000 4.63 320 15:56 14.01.2021
3741 Snow 1 1007 86 4000 4.63 320 15:38 14.01.2021
3742 Clouds 2 1006 55 10000 2.57 320 14:58 14.01.2021
3743 Clouds 2 1006 55 10000 2.57 340 14:37 14.01.2021
3744 Clouds 2 1006 55 10000 2.57 340 14:18 14.01.2021
3745 Clouds 2 1006 60 10000 3.09 320 13:48 14.01.2021
3746 Clouds 2 1006 60 10000 2.57 330 13:19 14.01.2021
3747 Clouds 2 1006 59 10000 3.09 300 12:38 14.01.2021
3748 Clouds 2 1006 59 10000 2.06 330 12:18 14.01.2021
3749 Clear 3 1007 64 10000 1.03 0 11:41 14.01.2021
3750 Clear 0 1007 64 10000 1.54 0 11:20 14.01.2021
3751 Clouds 0 1008 69 10000 2.57 120 10:49 14.01.2021
3752 Clear -1 1008 74 10000 1.54 70 10:22 14.01.2021
3753 Clear 0 1009 74 10000 2.57 30 09:44 14.01.2021
3754 Clear -2 1010 80 10000 1.54 0 09:22 14.01.2021
3755 Clouds -1 1010 86 10000 1.54 240 08:43 14.01.2021
3756 Clouds -4 1010 93 9000 1.03 0 08:22 14.01.2021
3757 Clouds -2 1010 93 8000 0.94 261 07:45 14.01.2021
3758 Clear -4 1010 93 10000 3.09 350 06:43 14.01.2021
3759 Clear -3 1010 86 10000 2.57 300 05:34 14.01.2021
3760 Clouds -2 1011 80 10000 5.66 270 00:36 14.01.2021
3761 Clouds -1 1012 74 10000 5.14 280 23:49 13.01.2021
3762 Clouds -1 1012 74 10000 5.14 280 23:20 13.01.2021
3763 Clouds -1 1012 74 10000 6.69 290 22:28 13.01.2021
3764 Clouds -1 1012 74 10000 6.17 290 21:50 13.01.2021
3765 Clouds 0 1012 74 10000 5.66 280 21:24 13.01.2021
3766 Clear 0 1011 80 10000 6.69 270 20:55 13.01.2021
3767 Clear 0 1011 80 10000 6.69 280 20:28 13.01.2021
3768 Clear 0 1011 74 10000 8.23 280 19:57 13.01.2021
3769 Clear 0 1011 74 10000 8.23 280 19:32 13.01.2021
3770 Clouds 0 1011 74 10000 7.72 270 18:58 13.01.2021
3771 Clouds 1 1010 80 10000 6.69 270 18:36 13.01.2021
3772 Clouds 1 1010 80 10000 8.23 270 17:51 13.01.2021
3773 Clouds 1 1010 80 10000 7.72 280 17:23 13.01.2021
3774 Clouds 1 1009 80 10000 6.69 280 16:50 13.01.2021
3775 Clouds 2 1009 75 10000 6.69 280 16:21 13.01.2021
3776 Clouds 2 1009 75 10000 4.63 280 15:51 13.01.2021
3777 Clouds 2 1009 75 10000 7.2 280 15:32 13.01.2021
3778 Clouds 3 1009 75 10000 7.72 280 14:34 13.01.2021
3779 Clouds 3 1008 75 10000 7.2 280 13:50 13.01.2021
3780 Clouds 2 1008 80 10000 7.2 280 13:26 13.01.2021
3781 Clouds 3 1008 75 10000 5.66 290 12:46 13.01.2021
3782 Clouds 3 1008 75 10000 5.66 290 12:27 13.01.2021
3783 Clouds 2 1008 80 10000 7.2 280 11:53 13.01.2021
3784 Clouds 2 1009 80 10000 6.17 280 11:34 13.01.2021
3785 Clouds 2 1009 80 10000 5.66 280 10:50 13.01.2021
3786 Clouds 2 1009 80 10000 5.66 290 10:30 13.01.2021
3787 Clouds 2 1009 80 10000 5.66 290 09:51 13.01.2021
3788 Snow 0 1009 86 8000 4.12 290 09:30 13.01.2021
3789 Snow 0 1008 86 10000 4.63 280 08:49 13.01.2021
3790 Snow 0 1008 86 10000 4.63 290 08:25 13.01.2021
3791 Snow -1 1008 86 8000 4.63 290 07:32 13.01.2021
3792 Snow -1 1008 86 10000 4.63 280 06:51 13.01.2021
3793 Clouds -1 1007 86 10000 4.63 290 04:20 13.01.2021
3794 Clouds -1 1007 86 10000 5.66 290 03:44 13.01.2021
3795 Clouds -1 1007 86 10000 5.14 280 03:24 13.01.2021
3796 Clouds 0 1008 86 10000 5.66 280 01:18 13.01.2021
3797 Clouds 0 1008 86 10000 5.14 280 23:52 12.01.2021
3798 Clouds 0 1008 86 10000 5.66 280 23:20 12.01.2021
3799 Clouds 0 1008 86 10000 6.17 280 22:45 12.01.2021
3800 Clouds 1 1008 80 10000 6.17 280 22:23 12.01.2021
3801 Clouds 0 1008 86 10000 6.17 280 21:49 12.01.2021
3802 Clouds 1 1008 86 10000 6.17 280 21:26 12.01.2021
3803 Clouds 1 1008 86 10000 5.14 270 20:48 12.01.2021
3804 Clouds 1 1008 86 10000 5.14 270 20:48 12.01.2021
3805 Clouds 1 1009 93 10000 5.14 270 20:27 12.01.2021
3806 Snow 1 1009 86 10000 5.66 270 19:47 12.01.2021
3807 Clouds 1 1009 86 10000 5.66 280 19:26 12.01.2021
3808 Snow 0 1009 93 10000 4.63 280 18:41 12.01.2021
3809 Snow 0 1008 100 5000 5.14 270 18:22 12.01.2021
3810 Snow 1 1008 86 5000 4.63 280 17:37 12.01.2021
3811 Snow 1 1008 86 5000 4.63 280 17:19 12.01.2021
3812 Snow 1 1008 86 8000 4.12 270 16:43 12.01.2021
3813 Snow 2 1008 93 7000 3.6 280 16:22 12.01.2021
3814 Snow 2 1008 93 2300 5.14 270 15:29 12.01.2021
3815 Snow 1 1008 93 2300 5.14 280 14:58 12.01.2021
3816 Snow 1 1009 100 2300 4.12 280 14:40 12.01.2021
3817 Clouds 2 1009 100 2300 4.12 280 14:19 12.01.2021
3818 Clouds 2 1008 93 2300 4.12 280 13:47 12.01.2021
3819 Snow 2 1009 100 2700 3.09 280 12:40 12.01.2021
3820 Snow 2 1009 100 2700 3.09 280 12:21 12.01.2021
3821 Mist 2 1010 93 2700 3.09 290 11:40 12.01.2021
3822 Mist 2 1011 93 2500 2.06 270 10:50 12.01.2021
3823 Mist 2 1011 93 5000 1.54 270 10:20 12.01.2021
3824 Mist 2 1012 93 4500 1.54 290 09:55 12.01.2021
3825 Clouds 2 1012 93 6000 1.54 270 09:26 12.01.2021
3826 Mist 2 1012 93 4500 1.54 270 08:42 12.01.2021
3827 Mist 2 1012 100 3500 1.03 0 08:23 12.01.2021
3828 Snow 2 1012 100 5000 1.87 73 07:35 12.01.2021
3829 Rain 2 1013 100 2700 1.03 0 06:22 12.01.2021
3830 Rain 2 1013 100 5000 1.72 10 05:30 12.01.2021
3831 Mist 2 1014 100 4600 1.54 260 03:26 12.01.2021
3832 Clouds 2 1014 93 7000 1.03 240 02:18 12.01.2021
3833 Clouds 2 1015 93 10000 1.23 25 01:26 12.01.2021
3834 Clouds 2 1016 93 7000 2.06 250 23:46 11.01.2021
3835 Clouds 2 1015 93 5000 2.06 270 23:23 11.01.2021
3836 Clouds 3 1016 93 10000 2.57 280 22:50 11.01.2021
3837 Clouds 3 1016 93 10000 2.57 280 22:32 11.01.2021
3838 Clouds 3 1016 100 10000 1.54 280 21:55 11.01.2021
3839 Clouds 3 1016 100 10000 1.54 280 21:37 11.01.2021
3840 Clouds 3 1016 100 8000 2.57 260 21:18 11.01.2021
3841 Clouds 3 1016 100 8000 2.57 280 20:40 11.01.2021
3842 Clouds 3 1016 100 8000 2.57 280 20:22 11.01.2021
3843 Rain 3 1016 93 8000 3.09 280 19:52 11.01.2021
3844 Rain 3 1016 93 7000 2.06 280 19:23 11.01.2021
3845 Clouds 3 1016 93 8000 2.06 270 18:44 11.01.2021
3846 Clouds 3 1016 93 8000 2.57 280 18:24 11.01.2021
3847 Clouds 3 1015 93 8000 2.57 270 17:43 11.01.2021
3848 Clouds 3 1015 93 8000 2.57 270 17:25 11.01.2021
3849 Clouds 3 1015 93 8000 3.6 280 16:50 11.01.2021
3850 Clouds 3 1015 93 7000 3.09 270 16:30 11.01.2021
3851 Mist 3 1015 93 5000 3.09 270 15:59 11.01.2021
3852 Clouds 3 1015 93 4400 4.12 270 15:37 11.01.2021
3853 Clouds 3 1015 93 4400 4.12 270 15:19 11.01.2021
3854 Rain 3 1014 100 6000 3.6 270 14:38 11.01.2021
3855 Clouds 4 1014 93 7000 3.09 280 13:48 11.01.2021
3856 Clouds 4 1014 93 7000 3.6 300 13:24 11.01.2021
3857 Mist 4 1014 93 4300 4.12 270 12:46 11.01.2021
3858 Mist 4 1014 93 4800 2.57 280 12:27 11.01.2021
3859 Mist 5 1014 93 1600 2.06 290 11:53 11.01.2021
3860 Mist 5 1014 93 3500 2.06 260 11:26 11.01.2021
3861 Mist 5 1014 93 4600 2.57 260 10:42 11.01.2021
3862 Mist 4 1014 93 5000 3.6 250 10:24 11.01.2021
3863 Clouds 5 1013 87 10000 2.06 170 09:38 11.01.2021
3864 Clouds 5 1013 87 10000 2.06 170 09:19 11.01.2021
3865 Clouds 4 1012 87 10000 7.2 110 08:44 11.01.2021
3866 Clouds 4 1012 87 10000 4.12 70 07:58 11.01.2021
3867 Clouds 4 1011 93 10000 7.2 90 07:25 11.01.2021
3868 Clouds 4 1012 93 10000 5.66 100 06:57 11.01.2021
3869 Rain 4 1012 93 10000 7.2 100 03:22 11.01.2021
3870 Clouds 4 1013 100 10000 4.12 120 01:29 11.01.2021
3871 Rain 3 1014 100 10000 2.06 100 23:53 10.01.2021
3872 Clouds 3 1014 100 10000 3.6 120 23:26 10.01.2021
3873 Clouds 3 1014 93 10000 4.63 140 22:47 10.01.2021
3874 Rain 2 1015 93 7000 3.6 130 22:20 10.01.2021
3875 Clouds 3 1015 93 10000 4.12 120 21:44 10.01.2021
3876 Clouds 3 1016 87 10000 5.66 100 21:20 10.01.2021
3877 Rain 3 1015 87 10000 7.2 90 20:50 10.01.2021
3878 Clouds 3 1015 87 10000 7.2 90 20:32 10.01.2021
3879 Clouds 3 1014 93 10000 8.23 110 19:43 10.01.2021
3880 Clouds 3 1014 93 10000 8.23 110 19:43 10.01.2021
3881 Clouds 3 1014 87 10000 9.77 110 19:24 10.01.2021
3882 Clouds 3 1015 87 10000 8.75 100 18:47 10.01.2021
3883 Clouds 3 1015 87 10000 8.23 100 18:21 10.01.2021
3884 Clouds 3 1015 93 10000 7.72 110 17:27 10.01.2021
3885 Clouds 3 1016 93 8000 6.17 110 16:58 10.01.2021
3886 Clouds 3 1016 93 10000 6.17 120 16:32 10.01.2021
3887 Clouds 2 1016 93 5000 7.2 120 15:43 10.01.2021
3888 Clouds 2 1017 93 5000 5.14 110 15:24 10.01.2021
3889 Clouds 2 1016 93 8000 5.66 110 14:43 10.01.2021
3890 Clouds 2 1017 93 10000 5.14 100 14:24 10.01.2021
3891 Clouds 2 1016 93 10000 7.2 110 13:54 10.01.2021
3892 Clouds 2 1016 93 10000 7.2 100 13:36 10.01.2021
3893 Clouds 2 1016 93 10000 7.2 100 13:18 10.01.2021
3894 Clouds 2 1017 87 10000 6.17 100 12:41 10.01.2021
3895 Clouds 3 1017 87 10000 7.72 110 11:58 10.01.2021
3896 Clouds 2 1018 87 10000 7.2 110 11:21 10.01.2021
3897 Clouds 2 1018 93 10000 6.17 100 10:53 10.01.2021
3898 Clouds 2 1018 93 10000 5.66 100 10:25 10.01.2021
3899 Clouds 2 1018 93 10000 5.66 90 09:46 10.01.2021
3900 Rain 1 1018 93 10000 7.2 100 08:50 10.01.2021
3901 Rain 1 1018 93 10000 6.17 90 08:19 10.01.2021
3902 Rain 2 1017 93 10000 5.66 80 07:27 10.01.2021
3903 Clouds 1 1017 93 10000 5.14 100 06:18 10.01.2021
3904 Rain 1 1017 93 10000 5.14 90 05:34 10.01.2021
3905 Clouds 1 1017 93 10000 4.12 100 02:42 10.01.2021
3906 Snow 1 1017 100 7000 4.12 80 00:38 10.01.2021
3907 Snow 1 1017 93 5000 4.12 80 23:42 09.01.2021
3908 Rain 1 1016 100 8000 5.14 90 23:23 09.01.2021
3909 Snow 1 1017 100 4000 3.6 90 22:25 09.01.2021
3910 Snow 1 1017 100 3000 3.09 100 21:59 09.01.2021
3911 Snow 1 1017 100 2500 2.06 110 21:40 09.01.2021
3912 Snow 1 1017 100 2500 2.06 110 21:21 09.01.2021
3913 Snow 1 1017 100 1700 1.54 110 20:56 09.01.2021
3914 Snow 1 1017 100 1300 1.54 110 20:36 09.01.2021
3915 Snow 1 1017 100 2000 2.06 100 19:40 09.01.2021
3916 Snow 1 1017 100 2000 2.06 100 19:21 09.01.2021
3917 Snow 1 1017 100 2400 1.54 80 18:38 09.01.2021
3918 Snow 1 1017 93 5000 1.54 80 18:19 09.01.2021
3919 Clouds 2 1017 93 5000 2.06 100 17:42 09.01.2021
3920 Snow 2 1017 93 5000 2.06 100 17:22 09.01.2021
3921 Clouds 2 1017 87 5000 1.32 94 16:29 09.01.2021
3922 Clouds 2 1017 87 8000 1.32 94 15:42 09.01.2021
3923 Clouds 3 1016 87 10000 1.03 280 15:24 09.01.2021
3924 Clouds 3 1016 87 8000 2.06 280 14:37 09.01.2021
3925 Clouds 3 1016 87 8000 2.06 280 14:19 09.01.2021
3926 Clouds 3 1016 87 8000 2.57 270 13:46 09.01.2021
3927 Clouds 3 1016 87 8000 3.6 270 13:27 09.01.2021
3928 Clouds 3 1017 93 8000 4.12 270 12:46 09.01.2021
3929 Clouds 2 1016 93 6000 4.12 270 12:21 09.01.2021
3930 Clouds 3 1017 93 8000 4.63 270 11:41 09.01.2021
3931 Clouds 2 1017 93 8000 4.63 270 11:23 09.01.2021
3932 Clouds 2 1017 93 8000 4.12 280 10:50 09.01.2021
3933 Clouds 2 1017 93 8000 4.12 280 10:26 09.01.2021
3934 Snow 2 1017 93 6000 4.63 270 09:46 09.01.2021
3935 Snow 2 1017 100 5000 5.14 270 09:21 09.01.2021
3936 Snow 1 1015 93 4000 5.14 270 08:25 09.01.2021
3937 Snow 2 1014 86 10000 4.63 270 06:55 09.01.2021
3938 Snow 1 1014 86 10000 4.63 270 06:37 09.01.2021
3939 Snow 1 1013 100 7000 4.63 270 04:40 09.01.2021
3940 Rain 1 1013 100 5000 4.63 270 02:47 09.01.2021
3941 Rain 1 1013 100 3700 4.12 270 02:28 09.01.2021
3942 Rain 1 1013 100 2600 5.14 280 01:35 09.01.2021
3943 Snow 2 1012 93 3000 4.63 280 00:34 09.01.2021
3944 Clouds 2 1011 93 8000 5.66 280 23:50 08.01.2021
3945 Clouds 3 1011 93 8000 5.14 280 22:49 08.01.2021
3946 Clouds 4 1010 93 10000 5.14 270 21:57 08.01.2021
3947 Clouds 4 1010 93 8000 6.17 270 21:27 08.01.2021
3948 Clouds 4 1009 93 8000 7.72 270 20:41 08.01.2021
3949 Clouds 5 1008 93 8000 6.17 280 19:59 08.01.2021
3950 Clouds 5 1008 93 10000 6.17 270 19:25 08.01.2021
3951 Drizzle 5 1007 93 10000 5.66 290 18:59 08.01.2021
3952 Drizzle 5 1007 93 10000 5.66 290 18:34 08.01.2021
3953 Clouds 6 1006 87 10000 4.63 300 17:55 08.01.2021
3954 Clouds 7 1005 87 10000 3.6 290 17:28 08.01.2021
3955 Clouds 8 1005 87 10000 4.63 320 16:50 08.01.2021
3956 Clouds 8 1005 87 10000 3.09 310 15:55 08.01.2021
3957 Clouds 8 1005 87 10000 3.09 310 15:33 08.01.2021
3958 Clouds 8 1005 87 10000 2.57 300 14:40 08.01.2021
3959 Rain 9 1005 87 10000 3.09 320 14:18 08.01.2021
3960 Clouds 8 1006 93 10000 4.63 320 13:22 08.01.2021
3961 Clouds 9 1006 87 10000 3.09 310 12:52 08.01.2021
3962 Clouds 9 1007 87 10000 2.57 30 12:23 08.01.2021
3963 Clouds 8 1007 87 10000 4.63 100 11:50 08.01.2021
3964 Clouds 8 1008 87 10000 4.12 100 11:30 08.01.2021
3965 Clouds 8 1008 87 8000 2.57 280 10:57 08.01.2021
3966 Clouds 8 1008 87 8000 2.57 280 10:38 08.01.2021
3967 Clouds 7 1008 93 6000 1.54 0 09:53 08.01.2021
3968 Clouds 7 1008 93 6000 1.54 0 09:35 08.01.2021
3969 Mist 6 1009 93 3500 2.06 290 08:42 08.01.2021
3970 Drizzle 5 1009 93 3200 2.06 320 07:29 08.01.2021
3971 Clouds 5 1010 100 5000 2.06 350 06:43 08.01.2021
3972 Mist 5 1013 100 5000 0.51 0 00:35 08.01.2021
3973 Mist 5 1013 100 3800 1.54 120 23:42 07.01.2021
3974 Mist 5 1014 100 4000 1.51 100 22:51 07.01.2021
3975 Mist 5 1014 100 4000 1.51 100 22:33 07.01.2021
3976 Mist 5 1015 100 5000 1.03 140 21:49 07.01.2021
3977 Mist 5 1015 100 4700 2.06 140 21:29 07.01.2021
3978 Clouds 4 1015 100 8000 0.69 75 20:48 07.01.2021
3979 Clouds 4 1016 100 7000 0.58 12 20:29 07.01.2021
3980 Clouds 4 1016 100 7000 0.58 12 19:47 07.01.2021
3981 Clouds 4 1016 100 8000 1.03 50 19:23 07.01.2021
3982 Clouds 4 1016 100 8000 0.51 360 18:46 07.01.2021
3983 Clouds 4 1016 100 10000 1.2 307 18:20 07.01.2021
3984 Clouds 5 1016 93 8000 2.06 120 17:32 07.01.2021
3985 Clouds 5 1016 93 10000 1.54 150 16:55 07.01.2021
3986 Clouds 5 1016 93 10000 1.54 150 16:32 07.01.2021
3987 Clouds 5 1016 93 10000 1.54 160 15:48 07.01.2021
3988 Clouds 4 1016 87 8000 2.57 250 15:30 07.01.2021
3989 Clouds 5 1015 87 10000 4.12 250 14:31 07.01.2021
3990 Clouds 4 1015 87 10000 4.63 270 13:50 07.01.2021
3991 Clouds 4 1015 87 10000 4.63 280 13:28 07.01.2021
3992 Clouds 4 1013 81 5873 0.89 293 12:52 07.01.2021
3993 Clouds 4 1015 86 10000 6.2 270 12:21 07.01.2021
3994 Drizzle 4 1015 86 10000 5.1 270 11:38 07.01.2021
3995 Clouds 4 1015 86 10000 7.2 280 10:54 07.01.2021
3996 Clouds 5 1015 80 10000 7.7 280 10:35 07.01.2021
3997 Clouds 6 1014 80 10000 8.7 290 09:50 07.01.2021
3998 Clouds 8 1013 75 10000 4.6 320 09:32 07.01.2021
3999 Clouds 7 1012 81 10000 3.1 40 08:31 07.01.2021
4000 Clouds 7 1012 81 10000 3.1 30 07:57 07.01.2021
4001 Clouds 7 1012 81 10000 3.6 60 07:38 07.01.2021
4002 Clouds 10 1012 61 10000 1.5 0 05:46 07.01.2021
4003 Clouds 5 1014 93 10000 1 0 00:59 07.01.2021
4004 Clouds 6 1014 81 10000 3.1 110 23:52 06.01.2021
4005 Rain 6 1014 81 10000 2.6 80 22:50 06.01.2021
4006 Clouds 6 1014 70 10000 2.1 70 22:19 06.01.2021
4007 Clouds 7 1014 70 10000 0.5 0 21:41 06.01.2021
4008 Clouds 7 1014 70 10000 0.5 0 21:22 06.01.2021
4009 Clouds 7 1015 65 10000 3.6 110 20:40 06.01.2021
4010 Clouds 7 1015 65 10000 2.6 120 20:19 06.01.2021
4011 Clouds 7 1015 65 10000 2.1 160 19:42 06.01.2021
4012 Clouds 8 1015 65 10000 2.1 160 19:24 06.01.2021
4013 Clouds 8 1016 65 10000 5.7 100 18:45 06.01.2021
4014 Clouds 8 1016 61 10000 5.1 120 18:26 06.01.2021
4015 Clouds 8 1016 65 10000 6.2 120 17:43 06.01.2021
4016 Clouds 8 1016 65 10000 6.2 120 17:25 06.01.2021
4017 Clouds 8 1016 65 10000 3.1 80 16:56 06.01.2021
4018 Clouds 9 1016 61 10000 4.1 70 16:20 06.01.2021
4019 Clouds 9 1016 61 10000 2.6 90 15:57 06.01.2021
4020 Clouds 12 1016 46 10000 6.2 200 15:32 06.01.2021
4021 Clouds 12 1016 46 10000 5.1 210 14:56 06.01.2021
4022 Clouds 12 1015 46 10000 4.1 240 14:27 06.01.2021
4023 Clouds 12 1015 50 10000 3.6 90 13:47 06.01.2021
4024 Clouds 12 1015 50 10000 3.6 90 13:24 06.01.2021
4025 Clouds 11 1016 50 10000 3.6 70 12:53 06.01.2021
4026 Clouds 10 1016 57 10000 1.5 30 12:29 06.01.2021
4027 Clouds 9 1017 61 10000 2.6 210 11:40 06.01.2021
4028 Clouds 9 1017 61 10000 2.6 210 11:21 06.01.2021
4029 Clouds 6 1018 75 10000 3.1 110 10:31 06.01.2021
4030 Clouds 7 1018 62 10000 2.6 20 09:52 06.01.2021
4031 Clouds 5 1018 67 10000 2.1 300 09:21 06.01.2021
4032 Clouds 4 1017 67 10000 1.5 310 08:41 06.01.2021
4033 Clouds 3 1017 72 10000 1 0 07:59 06.01.2021
4034 Clouds 3 1017 74 8000 2.1 300 07:18 06.01.2021
4035 Clouds 3 1017 75 8000 1.5 360 05:51 06.01.2021
4036 Clear 3 1017 75 10000 2.1 290 04:35 06.01.2021
4037 Clouds 3 1017 75 7000 2.1 190 02:47 06.01.2021
4038 Clouds 2 1017 75 7000 1 0 02:26 06.01.2021
4039 Clear 2 1017 86 10000 2.1 190 01:23 06.01.2021
4040 Clear 3 1016 86 10000 2.6 160 23:32 05.01.2021
4041 Clear 3 1016 86 8000 1.5 170 22:45 05.01.2021
4042 Clear 4 1016 86 8000 1.5 170 22:21 05.01.2021
4043 Clear 4 1016 80 8000 2.1 0 21:56 05.01.2021
4044 Clear 4 1016 73 10000 1.5 40 20:58 05.01.2021
4045 Clear 5 1016 72 10000 2.1 60 20:27 05.01.2021
4046 Clear 5 1016 72 10000 1 0 19:44 05.01.2021
4047 Clouds 6 1015 72 10000 1 0 19:21 05.01.2021
4048 Clouds 6 1015 65 10000 0.5 0 18:44 05.01.2021
4049 Clouds 7 1015 65 10000 0.5 0 18:25 05.01.2021
4050 Clouds 7 1014 70 10000 1.5 20 17:50 05.01.2021
4051 Clouds 8 1014 61 10000 1.5 270 17:31 05.01.2021
4052 Clouds 8 1014 61 10000 2.6 330 16:53 05.01.2021
4053 Clouds 9 1014 57 10000 2.6 310 16:22 05.01.2021
4054 Clouds 10 1013 67 10000 5.1 240 15:51 05.01.2021
4055 Clouds 11 1013 50 10000 7.2 260 15:26 05.01.2021
4056 Clouds 11 1013 43 10000 6.7 230 14:46 05.01.2021
4057 Clouds 11 1012 43 10000 5.7 250 13:53 05.01.2021
4058 Clouds 10 1012 46 10000 8.2 250 13:32 05.01.2021
4059 Clouds 10 1012 46 10000 7.2 260 12:50 05.01.2021
4060 Clouds 10 1012 56 10000 6.7 260 12:29 05.01.2021
4061 Clouds 10 1012 53 10000 8.2 250 11:42 05.01.2021
4062 -273 0 0 0 0 0 11:23 05.01.2021
4063 Clouds 10 1012 53 10000 8.2 250 11:23 05.01.2021
4064 Clouds 8 1012 75 10000 4.6 320 10:44 05.01.2021
4065 Clouds 7 1012 81 10000 5.7 300 09:58 05.01.2021
4066 Clouds 7 1011 81 10000 4.1 300 09:38 05.01.2021
4067 Clouds 7 1011 93 10000 3.1 50 08:42 05.01.2021
4068 Clouds 5 1011 93 10000 2.1 190 08:18 05.01.2021
4069 Clouds 7 1008 93 10000 4.1 320 05:29 05.01.2021
4070 Clouds 7 1007 87 10000 3.1 280 02:37 05.01.2021
4071 Rain 6 1006 100 8000 3.1 300 00:22 05.01.2021
4072 Clouds 7 1005 93 10000 1.5 330 23:39 04.01.2021
4073 Clouds 7 1005 87 10000 1 0 23:20 04.01.2021
4074 Clouds 7 1005 93 10000 2.1 290 22:44 04.01.2021
4075 Clouds 7 1005 93 10000 2.6 250 21:57 04.01.2021
4076 Clouds 7 1005 93 10000 2.6 240 21:38 04.01.2021
4077 Clouds 7 1005 87 10000 2.1 210 20:56 04.01.2021
4078 Clouds 7 1005 81 10000 5.1 140 20:34 04.01.2021
4079 Clouds 7 1005 87 10000 4.6 100 19:55 04.01.2021
4080 Clouds 7 1006 93 7000 1 0 19:31 04.01.2021
4081 Rain 7 1006 93 7000 1.5 150 18:58 04.01.2021
4082 Rain 8 1006 87 7000 4.1 140 18:31 04.01.2021
4083 Clouds 8 1007 87 8000 8.7 120 17:46 04.01.2021
4084 Clouds 8 1007 87 8000 8.7 120 17:27 04.01.2021
4085 Rain 9 1007 81 10000 4.6 90 16:48 04.01.2021
4086 Clouds 9 1007 81 10000 5.7 100 16:28 04.01.2021
4087 Clouds 9 1008 81 10000 5.7 120 15:52 04.01.2021
4088 Clouds 9 1008 81 10000 5.1 130 15:34 04.01.2021
4089 Clouds 9 1008 81 10000 4.6 110 14:50 04.01.2021
4090 Clouds 9 1009 87 10000 4.6 130 13:53 04.01.2021
4091 Clouds 9 1009 81 10000 5.1 130 13:34 04.01.2021
4092 Rain 9 1010 81 10000 4.1 130 12:50 04.01.2021
4093 Rain 9 1010 81 10000 4.1 130 12:50 04.01.2021
4094 Clouds 9 1011 87 10000 4.6 150 12:25 04.01.2021
4095 Clouds 9 1012 87 10000 6.2 130 11:32 04.01.2021
4096 Clouds 9 1012 87 10000 6.7 120 10:56 04.01.2021
4097 Clouds 9 1012 87 10000 6.7 130 10:37 04.01.2021
4098 Clouds 9 1012 87 10000 6.7 130 10:18 04.01.2021
4099 Clouds 8 1013 93 7000 2.1 140 09:23 04.01.2021
4100 Mist 8 1013 100 3500 1 0 08:50 04.01.2021
4101 Mist 6 1014 100 2500 1 50 08:21 04.01.2021
4102 Mist 6 1014 100 2600 1.36 59 07:45 04.01.2021
4103 Mist 5 1015 100 5000 1 0 05:35 04.01.2021
4104 Clouds 6 1016 100 6000 2.1 300 04:44 04.01.2021
4105 Clouds 6 1017 93 6000 2.6 130 01:26 04.01.2021
4106 Mist 6 1018 93 4000 2.1 270 23:51 03.01.2021
4107 Clouds 6 1018 93 10000 1 270 23:25 03.01.2021
4108 Rain 6 1018 93 10000 2.09 108 22:56 03.01.2021
4109 Clouds 5 1018 86 10000 2.6 170 22:33 03.01.2021
4110 Clouds 6 1019 86 8000 3.1 220 21:57 03.01.2021
4111 Clouds 6 1018 86 10000 2.1 130 21:30 03.01.2021
4112 Clouds 6 1018 86 9000 2.1 190 20:50 03.01.2021
4113 Clouds 5 1018 86 9000 1 0 20:32 03.01.2021
4114 Clouds 5 1018 86 7000 2.1 160 19:58 03.01.2021
4115 Clouds 6 1018 86 9000 4.1 150 19:35 03.01.2021
4116 Clouds 5 1018 93 10000 3.1 150 18:58 03.01.2021
4117 Clear 7 1018 87 10000 5.7 130 18:39 03.01.2021
4118 Clear 7 1018 87 10000 5.7 130 18:19 03.01.2021
4119 Clear 6 1018 87 10000 5.1 110 18:19 03.01.2021
4120 Clear 6 1018 93 10000 3.6 110 17:48 03.01.2021
4121 Clear 6 1018 93 10000 3.6 110 17:23 03.01.2021
4122 Clouds 8 1018 87 10000 4.6 100 16:43 03.01.2021
4123 Clear 9 1017 81 10000 5.7 100 16:20 03.01.2021
4124 Clear 9 1017 81 10000 5.1 100 15:46 03.01.2021
4125 Clear 9 1017 81 10000 5.1 100 15:27 03.01.2021
4126 Clouds 10 1017 76 10000 1 0 14:55 03.01.2021
4127 Clouds 11 1017 71 10000 3.6 0 14:29 03.01.2021
4128 Clouds 10 1017 71 10000 5.1 90 13:41 03.01.2021
4129 Clouds 10 1017 71 10000 5.1 90 13:23 03.01.2021
4130 Clouds 9 1018 81 10000 5.7 90 12:32 03.01.2021
4131 Clouds 9 1018 76 8000 4.6 120 11:42 03.01.2021
4132 Clouds 9 1018 76 8000 4.6 120 11:24 03.01.2021
4133 Clouds 8 1018 87 8000 6.2 120 10:34 03.01.2021
4134 Clouds 8 1018 87 7000 4.1 120 09:59 03.01.2021
4135 Clouds 7 1018 93 6000 3.6 120 09:34 03.01.2021
4136 Mist 6 1018 93 3400 1.5 180 08:59 03.01.2021
4137 Drizzle 5 1017 100 7000 2.1 350 07:33 03.01.2021
4138 Clouds 5 1017 81 10000 1 0 05:53 03.01.2021
4139 Clouds 5 1018 93 10000 0.5 0 02:27 03.01.2021
4140 Clouds 5 1018 93 10000 0.5 0 02:27 03.01.2021
4141 Clouds 3 1019 93 10000 2.1 70 00:59 03.01.2021
4142 Clouds 2 1019 93 10000 3.1 130 23:54 02.01.2021
4143 Clouds 3 1019 81 10000 3.1 100 23:26 02.01.2021
4144 Clouds 3 1019 86 10000 4.1 130 22:50 02.01.2021
4145 Clear 3 1020 81 10000 4.6 120 22:31 02.01.2021
4146 Clear 2 1020 81 10000 4.6 120 21:49 02.01.2021
4147 Clear 2 1020 81 10000 4.6 120 21:30 02.01.2021
4148 Clear 4 1020 81 10000 3.6 130 20:49 02.01.2021
4149 Clear 3 1020 86 10000 2.6 100 20:27 02.01.2021
4150 Clear 4 1020 80 10000 2.6 150 19:49 02.01.2021
4151 Clear 4 1020 74 10000 3.1 140 19:20 02.01.2021
4152 Clear 3 1020 74 10000 3.6 130 18:52 02.01.2021
4153 Clear 3 1020 78 10000 3.6 120 18:33 02.01.2021
4154 Clear 3 1020 74 10000 3.6 110 17:49 02.01.2021
4155 Clear 3 1020 74 10000 3.1 120 17:30 02.01.2021
4156 Clear 5 1020 65 10000 4.6 120 16:46 02.01.2021
4157 Clear 6 1020 65 10000 4.6 120 16:22 02.01.2021
4158 Clear 7 1020 56 10000 4.1 100 15:48 02.01.2021
4159 Clear 9 1020 45 10000 4.6 110 15:28 02.01.2021
4160 Clear 9 1020 45 10000 3.1 100 14:47 02.01.2021
4161 Clear 9 1020 45 10000 3.1 100 14:24 02.01.2021
4162 Clear 8 1020 53 10000 2.1 100 13:44 02.01.2021
4163 Clear 8 1020 52 10000 1 0 12:55 02.01.2021
4164 Clear 8 1021 52 10000 0.5 0 12:32 02.01.2021
4165 Clear 7 1021 65 10000 1 0 11:59 02.01.2021
4166 Clear 7 1021 65 10000 1 0 11:59 02.01.2021
4167 Clear 6 1022 74 10000 1 0 11:26 02.01.2021
4168 Clear 5 1022 80 10000 0.5 0 10:58 02.01.2021
4169 Clear 7 1022 80 10000 1 0 10:34 02.01.2021
4170 Clear 6 1022 80 10000 0.5 0 09:59 02.01.2021
4171 Clear 5 1022 86 9000 0.5 0 09:39 02.01.2021
4172 Clear 2 1022 86 8000 0.94 106 09:18 02.01.2021
4173 Clear 2 1022 92 6000 0.94 106 08:41 02.01.2021
4174 Clear 0 1022 92 6000 0.97 115 07:55 02.01.2021
4175 Mist -1 1022 92 4000 1 110 07:22 02.01.2021
4176 Mist 0 1021 92 10000 0.8 118 06:57 02.01.2021
4177 Mist 0 1021 100 4500 0.71 119 05:54 02.01.2021
4178 Clear 1 1020 92 7000 0.39 149 01:37 02.01.2021
4179 Clear 2 1019 92 7000 0.55 140 00:38 02.01.2021
4180 Clear 2 1019 92 8000 1.5 150 23:58 01.01.2021
4181 Clear 2 1019 92 8000 0.65 142 23:23 01.01.2021
4182 Clear 3 1019 92 9000 1.5 80 22:50 01.01.2021
4183 Clear 3 1019 92 10000 1 0 22:27 01.01.2021
4184 Clear 4 1018 80 10000 1 0 21:59 01.01.2021
4185 Clear 4 1018 80 10000 1.5 180 21:41 01.01.2021
4186 Clear 4 1018 80 10000 1.5 180 21:19 01.01.2021
4187 Clear 5 1018 74 10000 4.1 160 20:44 01.01.2021
4188 Clear 5 1018 74 10000 4.1 160 20:18 01.01.2021
4189 Clear 4 1017 80 10000 2.1 160 19:41 01.01.2021
4190 Clear 4 1017 80 10000 2.1 160 19:21 01.01.2021
4191 Clear 5 1017 74 10000 1.5 70 18:45 01.01.2021
4192 Clear 5 1017 74 10000 1.5 70 18:23 01.01.2021
4193 Clear 6 1016 68 10000 1.5 150 17:46 01.01.2021
4194 Clear 6 1016 66 10000 1.5 150 17:23 01.01.2021
4195 Clear 5 1016 66 10000 2.1 140 16:48 01.01.2021
4196 Clear 8 1015 62 10000 0.59 222 16:25 01.01.2021
4197 Clouds 10 1015 46 10000 4.6 270 15:40 01.01.2021
4198 Clouds 11 1015 40 10000 1.5 0 14:44 01.01.2021
4199 Clouds 11 1015 40 10000 1.5 0 14:26 01.01.2021
4200 Clouds 11 1014 53 10000 0.5 0 13:39 01.01.2021
4201 Clouds 10 1015 57 10000 1.5 10 12:52 01.01.2021
4202 Clear 9 1015 61 10000 1.5 0 12:27 01.01.2021
4203 Clear 9 1015 70 10000 1 0 11:43 01.01.2021
4204 Clear 6 1015 70 10000 1 0 11:22 01.01.2021
4205 Clear 6 1015 70 10000 1.38 279 10:56 01.01.2021
4206 Clear 5 1015 75 10000 1.38 279 10:30 01.01.2021
4207 Clear 2 1015 62 8000 1 0 09:39 01.01.2021
4208 Clear 4 1015 86 8000 1 0 08:49 01.01.2021
4209 Clear 3 1014 76 8000 1 0 08:25 01.01.2021
4210 Mist 4 1012 78 5000 0.5 0 04:51 01.01.2021
4211 Clear 2 1011 93 8000 1 0 01:58 01.01.2021
4212 Clouds 4 1011 86 8000 2.1 330 00:35 01.01.2021
4213 Clouds 5 1011 80 10000 1.5 0 23:43 31.12.2020
4214 Clouds 5 1011 80 10000 1.5 0 23:21 31.12.2020
4215 Clouds 5 1011 86 10000 2.1 110 22:55 31.12.2020
4216 Clear 5 1010 80 10000 0.5 0 22:36 31.12.2020
4217 Clear 5 1010 80 10000 0.5 0 22:18 31.12.2020
4218 Clouds 7 1010 75 10000 2.1 30 21:43 31.12.2020
4219 Clouds 8 1010 70 10000 1.5 110 21:20 31.12.2020
4220 Clouds 8 1009 70 10000 1 0 20:31 31.12.2020
4221 Clouds 8 1009 70 10000 2.6 0 19:52 31.12.2020
4222 Clouds 9 1009 66 10000 1.5 50 19:34 31.12.2020
4223 Clouds 9 1009 66 10000 2.6 0 18:58 31.12.2020
4224 Clouds 9 1008 66 10000 6.2 170 18:26 31.12.2020
4225 Clouds 11 1008 53 10000 4.6 160 17:59 31.12.2020
4226 Clouds 9 1008 61 10000 3.6 150 17:40 31.12.2020
4227 Clouds 9 1008 61 10000 3.6 150 17:21 31.12.2020
4228 Clouds 12 1007 46 10000 2.1 0 16:39 31.12.2020
4229 Clouds 12 1007 46 10000 2.1 0 16:20 31.12.2020
4230 Clouds 13 1007 47 10000 1.5 180 15:43 31.12.2020
4231 Clouds 13 1007 47 10000 1.5 180 15:20 31.12.2020
4232 Clouds 13 1007 47 10000 1.5 90 14:43 31.12.2020
4233 Clouds 13 1007 47 10000 1.5 90 14:24 31.12.2020
4234 Clouds 13 1007 50 10000 2.6 350 13:59 31.12.2020
4235 Clouds 13 1007 50 10000 1.5 0 13:37 31.12.2020
4236 Clouds 13 1007 50 10000 1.5 0 13:19 31.12.2020
4237 Clouds 12 1007 50 10000 3.6 0 12:49 31.12.2020
4238 Clouds 11 1007 66 10000 3.6 260 12:31 31.12.2020
4239 Clouds 12 1007 71 10000 3.6 0 11:47 31.12.2020
4240 Clouds 11 1008 76 10000 2.6 50 11:29 31.12.2020
4241 Clouds 10 1009 81 10000 2.1 10 10:45 31.12.2020
4242 Clouds 9 1009 87 10000 2.1 320 10:27 31.12.2020
4243 Clouds 8 1009 87 8000 2.6 360 09:49 31.12.2020
4244 Clouds 8 1009 81 5000 2.6 310 09:24 31.12.2020
4245 Clouds 8 1008 81 8000 3.1 280 08:49 31.12.2020
4246 Clouds 8 1008 70 10000 2.1 360 08:31 31.12.2020
4247 Clouds 5 1008 80 10000 2.1 300 07:56 31.12.2020
4248 Clouds 4 1008 86 10000 2.1 280 07:25 31.12.2020
4249 Clear 6 1008 75 10000 3.1 270 05:30 31.12.2020
4250 Clear 4 1009 86 10000 2.6 0 03:37 31.12.2020
4251 Clouds 5 1009 80 10000 2.1 140 02:37 31.12.2020
4252 Clouds 6 1010 75 10000 1 0 01:58 31.12.2020
4253 Clouds 5 1010 80 10000 1 0 01:39 31.12.2020
4254 Clear 7 1010 75 10000 1 0 00:59 31.12.2020
4255 Clear 7 1010 70 10000 2.6 110 00:39 31.12.2020
4256 Clear 7 1010 70 10000 4.1 120 23:39 30.12.2020
4257 Clear 7 1010 70 10000 4.1 120 23:18 30.12.2020
4258 Clear 7 1010 70 10000 4.1 90 22:36 30.12.2020
4259 Clear 9 1010 61 10000 3.6 110 21:54 30.12.2020
4260 Clear 9 1010 61 10000 5.7 180 21:28 30.12.2020
4261 Clear 9 1010 61 10000 5.7 180 21:28 30.12.2020
4262 Clear 8 1010 65 10000 3.1 110 20:54 30.12.2020
4263 Clear 10 1010 57 10000 9.3 200 20:29 30.12.2020
4264 Clear 13 1010 43 10000 9.8 200 20:00 30.12.2020
4265 Clouds 9 1010 61 10000 5.1 200 19:37 30.12.2020
4266 Clouds 9 1010 61 10000 5.1 200 19:18 30.12.2020
4267 Clouds 11 1010 53 10000 4.6 190 18:40 30.12.2020
4268 Clouds 11 1010 53 10000 4.6 190 18:21 30.12.2020
4269 Clouds 9 1010 66 10000 4.6 120 17:48 30.12.2020
4270 Clouds 12 1010 50 10000 6.2 180 17:29 30.12.2020
4271 Clouds 13 1010 75 10000 2.6 110 16:44 30.12.2020
4272 Clouds 15 1010 38 10000 3.1 0 15:51 30.12.2020
4273 Clouds 15 1010 38 10000 3.1 0 15:31 30.12.2020
4274 Clouds 15 1009 41 10000 7.2 210 14:58 30.12.2020
4275 Clouds 15 1010 41 10000 8.2 220 14:40 30.12.2020
4276 Clouds 15 1010 41 10000 8.2 220 14:19 30.12.2020
4277 Clouds 14 1010 44 10000 1.5 0 13:19 30.12.2020
4278 Clouds 15 1010 44 10000 5.1 130 12:26 30.12.2020
4279 Clouds 13 1011 58 10000 4.6 110 11:45 30.12.2020
4280 Clouds 12 1011 62 10000 1.5 20 11:22 30.12.2020
4281 Clouds 12 1011 62 10000 1.5 20 10:58 30.12.2020
4282 Clouds 11 1012 61 10000 1.5 10 10:38 30.12.2020
4283 Clouds 11 1012 61 10000 1.5 10 10:18 30.12.2020
4284 Clouds 9 1012 66 10000 2.1 0 09:42 30.12.2020
4285 Clouds 9 1012 66 10000 2.6 140 08:49 30.12.2020
4286 Clouds 7 1011 75 10000 3.6 110 07:51 30.12.2020
4287 Clear 5 1011 80 10000 2.1 120 07:24 30.12.2020
4288 Clouds 6 1011 75 10000 2.1 90 06:40 30.12.2020
4289 Clouds 6 1011 75 10000 3.1 90 05:48 30.12.2020
4290 Clouds 5 1011 80 10000 1 0 05:29 30.12.2020
4291 Clear 5 1012 80 10000 2.1 70 03:41 30.12.2020
4292 Clear 5 1012 80 10000 2.1 70 03:23 30.12.2020
4293 Clear 6 1012 75 10000 2.6 0 02:32 30.12.2020
4294 Clear 6 1012 75 10000 3.6 180 01:46 30.12.2020
4295 Clear 6 1012 81 10000 3.6 130 01:28 30.12.2020
4296 Clear 5 1012 80 10000 2.6 120 00:41 30.12.2020
4297 Clear 5 1012 80 10000 2.6 120 00:22 30.12.2020
4298 Clouds 8 1012 70 10000 3.6 90 23:43 29.12.2020
4299 Clouds 8 1012 70 10000 3.6 90 23:24 29.12.2020
4300 Clouds 9 1012 61 10000 3.1 110 22:49 29.12.2020
4301 Clouds 9 1012 61 10000 1 0 22:31 29.12.2020
4302 Clear 9 1012 66 10000 4.6 130 21:54 29.12.2020
4303 Clear 9 1012 66 10000 4.1 110 21:36 29.12.2020
4304 Clear 10 1011 57 10000 2.1 140 20:55 29.12.2020
4305 Clouds 10 1011 61 10000 3.1 130 20:37 29.12.2020
4306 Clouds 10 1011 61 10000 3.1 130 20:19 29.12.2020
4307 Clear 14 1011 41 10000 1.5 10 19:40 29.12.2020
4308 Clear 14 1011 41 10000 1.5 10 19:20 29.12.2020
4309 Clear 14 1010 41 10000 8.7 220 18:46 29.12.2020
4310 Clear 14 1010 41 10000 8.7 220 18:27 29.12.2020
4311 Clouds 14 1010 41 10000 7.7 210 17:45 29.12.2020
4312 Clouds 14 1010 41 10000 7.7 210 17:20 29.12.2020
4313 Clouds 14 1009 41 10000 8.2 190 16:46 29.12.2020
4314 Clouds 14 1009 41 10000 8.2 190 16:24 29.12.2020
4315 Clouds 15 1009 38 10000 7.7 170 15:38 29.12.2020
4316 Clouds 15 1009 38 10000 7.7 170 15:18 29.12.2020
4317 Clouds 15 1009 41 10000 5.1 160 14:37 29.12.2020
4318 Clouds 15 1009 41 10000 5.1 160 14:19 29.12.2020
4319 Clouds 15 1008 41 10000 6.2 150 13:48 29.12.2020
4320 Clouds 14 1008 41 10000 6.7 150 13:21 29.12.2020
4321 Clouds 14 1008 44 10000 6.2 140 12:38 29.12.2020
4322 Clouds 14 1008 44 10000 4.6 130 12:19 29.12.2020
4323 Clouds 14 1008 44 10000 4.6 130 11:53 29.12.2020
4324 Clouds 13 1009 47 10000 3.6 90 11:31 29.12.2020
4325 Clouds 12 1008 54 10000 2.6 40 10:30 29.12.2020
4326 Clouds 12 1008 50 10000 2.6 50 09:49 29.12.2020
4327 Clouds 13 1008 43 10000 3.1 20 09:22 29.12.2020
4328 Clouds 13 1007 43 10000 2.6 10 08:53 29.12.2020
4329 Clouds 13 1007 43 10000 4.1 140 08:23 29.12.2020
4330 Clouds 12 1006 79 10000 3.1 0 07:26 29.12.2020
4331 Clouds 12 1006 80 10000 4.6 140 06:27 29.12.2020
4332 Clouds 12 1005 81 10000 2.6 0 04:49 29.12.2020
4333 Clouds 13 1005 74 10000 11.3 120 00:49 29.12.2020
4334 Clouds 13 1005 37 10000 9.3 160 00:20 29.12.2020
4335 Clear 9 1005 57 10000 6.7 80 23:34 28.12.2020
4336 Clear 8 1004 61 10000 12.9 120 22:28 28.12.2020
4337 Clear 8 1005 65 10000 7.7 100 21:45 28.12.2020
4338 Clear 12 1006 40 10000 2.6 0 21:26 28.12.2020
4339 Clouds 11 1006 43 10000 5.1 120 20:43 28.12.2020
4340 Clouds 11 1006 43 10000 5.1 120 20:22 28.12.2020
4341 Clear 10 1006 46 10000 5.7 160 19:49 28.12.2020
4342 Clear 8 1006 71 10000 4.1 140 19:24 28.12.2020
4343 Clear 9 1007 71 10000 3.1 20 18:53 28.12.2020
4344 Clear 9 1006 70 10000 2.6 10 18:28 28.12.2020
4345 Clouds 9 1006 70 10000 4.6 130 17:46 28.12.2020
4346 Clouds 9 1006 66 10000 4.6 130 17:26 28.12.2020
4347 Clouds 11 1006 66 10000 4.1 220 16:46 28.12.2020
4348 Clouds 12 1006 40 10000 5.1 200 16:26 28.12.2020
4349 Clouds 12 1006 40 10000 5.1 200 15:53 28.12.2020
4350 Clouds 13 1006 47 10000 1.5 230 15:26 28.12.2020
4351 Clouds 13 1006 43 10000 2.1 360 14:23 28.12.2020
4352 Clouds 13 1006 43 10000 3.1 350 13:36 28.12.2020
4353 Clouds 13 1006 43 10000 4.1 330 12:57 28.12.2020
4354 Clouds 13 1006 50 10000 4.6 330 12:24 28.12.2020
4355 Clouds 12 1006 54 10000 1.5 360 11:47 28.12.2020
4356 Clouds 12 1006 54 10000 1.5 360 11:47 28.12.2020
4357 Clouds 11 1007 62 10000 3.1 90 11:26 28.12.2020
4358 Clouds 11 1007 66 10000 2.6 70 10:52 28.12.2020
4359 Clouds 10 1007 76 10000 4.1 80 10:28 28.12.2020
4360 Clouds 10 1008 81 10000 4.6 70 09:49 28.12.2020
4361 Clouds 9 1008 81 10000 3.6 60 09:21 28.12.2020
4362 Clouds 7 1008 87 10000 3.1 340 08:55 28.12.2020
4363 Clouds 3 1007 100 9000 3.6 320 06:51 28.12.2020
4364 Clouds 7 1006 87 10000 3.6 40 04:44 28.12.2020
4365 Clouds 7 1006 100 6000 3.1 0 02:59 28.12.2020
4366 Clouds 7 1007 93 10000 6.2 120 01:52 28.12.2020
4367 Mist 6 1008 100 5000 0.5 0 23:50 27.12.2020
4368 Mist 8 1008 93 5000 1.5 350 23:20 27.12.2020
4369 Mist 8 1008 93 5000 1.5 350 23:20 27.12.2020
4370 Mist 8 1008 100 2500 2.6 280 21:59 27.12.2020
4371 Mist 7 1008 100 2200 1.5 330 21:27 27.12.2020
4372 Clouds 8 1008 100 4000 1.5 10 20:53 27.12.2020
4373 Clouds 8 1008 93 7000 1.5 50 19:49 27.12.2020
4374 Clouds 8 1009 93 8000 1 0 19:23 27.12.2020
4375 Clouds 8 1008 93 10000 1 0 18:47 27.12.2020
4376 Clouds 8 1009 87 10000 5.7 140 18:20 27.12.2020
4377 Clouds 8 1009 87 10000 5.7 140 17:52 27.12.2020
4378 Clouds 8 1009 87 10000 7.2 130 17:34 27.12.2020
4379 Clouds 7 1009 87 10000 7.7 140 16:54 27.12.2020
4380 Clouds 7 1009 81 10000 6.7 150 16:20 27.12.2020
4381 Clouds 7 1010 87 10000 6.7 130 15:21 27.12.2020
4382 Clouds 8 1011 87 10000 5.7 120 14:42 27.12.2020
4383 Clouds 8 1011 87 10000 5.7 120 14:22 27.12.2020
4384 Clouds 8 1012 87 10000 7.2 120 13:23 27.12.2020
4385 Clouds 8 1012 81 10000 7.7 120 12:50 27.12.2020
4386 Clouds 7 1013 93 10000 5.7 90 12:22 27.12.2020
4387 Clouds 7 1014 87 10000 5.1 90 11:39 27.12.2020
4388 Clouds 7 1015 87 10000 4.6 120 10:52 27.12.2020
4389 Clouds 6 1015 93 10000 4.1 90 10:26 27.12.2020
4390 Clouds 6 1015 100 10000 2.6 100 09:56 27.12.2020
4391 Mist 5 1015 100 2500 2.1 80 08:50 27.12.2020
4392 Mist 5 1015 100 2500 2.1 80 08:26 27.12.2020
4393 Drizzle 4 1016 100 2000 2.1 70 07:27 27.12.2020
4394 Mist 5 1016 93 3000 2.6 80 05:46 27.12.2020
4395 Clouds 5 1016 93 9000 2.1 100 04:32 27.12.2020
4396 Clouds 4 1016 93 10000 1.61 72 03:21 27.12.2020
4397 Clouds 5 1017 86 10000 2.1 290 01:34 27.12.2020
4398 Clouds 5 1017 86 10000 3.1 270 00:24 27.12.2020
4399 Clouds 5 1017 86 10000 3.1 280 23:32 26.12.2020
4400 Clouds 5 1017 86 10000 3.6 270 22:57 26.12.2020
4401 Clouds 5 1017 80 10000 3.6 270 22:36 26.12.2020
4402 Clouds 6 1017 80 10000 3.6 270 22:18 26.12.2020
4403 Clouds 6 1017 80 10000 3.6 270 22:18 26.12.2020
4404 Clouds 5 1016 80 10000 4.1 280 21:43 26.12.2020
4405 Clouds 6 1016 80 10000 4.1 280 21:22 26.12.2020
4406 Clouds 6 1016 80 10000 4.6 290 20:41 26.12.2020
4407 Clouds 6 1016 80 10000 3.6 280 20:19 26.12.2020
4408 Clouds 6 1015 86 10000 3.1 270 19:27 26.12.2020
4409 Clouds 6 1015 86 10000 5.1 270 18:52 26.12.2020
4410 Clouds 6 1015 80 10000 6.2 270 18:28 26.12.2020
4411 Clouds 7 1014 86 10000 5.1 270 17:41 26.12.2020
4412 Clouds 7 1014 86 10000 5.1 270 17:21 26.12.2020
4413 Clouds 7 1013 87 10000 5.1 270 16:36 26.12.2020
4414 Clouds 9 1013 87 10000 5.1 290 15:27 26.12.2020
4415 Clouds 9 1012 87 10000 2.6 300 14:54 26.12.2020
4416 Clouds 10 1012 81 10000 2.6 280 14:28 26.12.2020
4417 Clouds 10 1012 87 10000 1.5 0 13:53 26.12.2020
4418 Clouds 10 1011 81 10000 2.1 290 13:32 26.12.2020
4419 Clouds 10 1012 81 10000 2.6 250 12:49 26.12.2020
4420 Clouds 9 1012 81 10000 2.1 300 12:30 26.12.2020
4421 Clouds 10 1011 81 10000 1 0 11:51 26.12.2020
4422 Clouds 9 1012 87 10000 1 0 11:22 26.12.2020
4423 Clouds 9 1012 93 10000 1 0 10:55 26.12.2020
4424 Clouds 8 1012 93 10000 1 0 10:27 26.12.2020
4425 Clouds 8 1012 93 10000 1.5 150 09:51 26.12.2020
4426 Clouds 8 1012 93 10000 1.5 120 09:29 26.12.2020
4427 Clouds 7 1012 100 6000 1.5 0 08:35 26.12.2020
4428 Clouds 6 1012 93 8000 1.5 110 07:53 26.12.2020
4429 Clouds 7 1011 87 10000 0.5 0 06:31 26.12.2020
4430 Clouds 7 1011 86 10000 2.6 120 03:19 26.12.2020
4431 Clouds 7 1011 81 10000 2.1 140 01:35 26.12.2020
4432 Clouds 7 1011 81 10000 1.5 250 00:26 26.12.2020
4433 Clouds 9 1011 70 10000 2.1 350 23:40 25.12.2020
4434 Clouds 9 1011 70 10000 2.1 350 23:22 25.12.2020
4435 Clouds 9 1010 70 10000 3.1 100 22:42 25.12.2020
4436 Clouds 8 1010 75 10000 2.1 0 21:54 25.12.2020
4437 Clear 10 1010 66 10000 3.6 50 21:34 25.12.2020
4438 Clear 9 1009 66 10000 5.1 80 20:50 25.12.2020
4439 Clear 9 1009 66 10000 3.6 80 20:31 25.12.2020
4440 Clear 9 1009 66 10000 3.6 40 19:47 25.12.2020
4441 Clear 10 1010 66 10000 3.6 60 19:20 25.12.2020
4442 Clouds 9 1010 70 8000 2.6 0 18:39 25.12.2020
4443 Clouds 10 1009 70 8000 2.1 360 17:47 25.12.2020
4444 Clouds 10 1009 70 8000 2.1 360 17:28 25.12.2020
4445 Clear 10 1010 76 10000 1.5 0 16:33 25.12.2020
4446 Clear 11 1010 76 10000 1.5 0 15:59 25.12.2020
4447 Clear 11 1010 71 10000 1 0 15:36 25.12.2020
4448 Clear 11 1010 71 10000 1.5 320 14:50 25.12.2020
4449 Clear 11 1010 71 10000 1 0 14:29 25.12.2020
4450 Clouds 11 1011 71 10000 1 0 13:44 25.12.2020
4451 Clouds 12 1011 71 10000 1 0 13:26 25.12.2020
4452 Clouds 10 1011 76 10000 1.21 232 12:35 25.12.2020
4453 Clear 10 1012 81 10000 0.5 0 11:54 25.12.2020
4454 Clear 10 1012 81 10000 0.5 0 11:31 25.12.2020
4455 Clear 9 1013 87 10000 1 0 10:53 25.12.2020
4456 Clear 8 1013 86 10000 2.1 130 10:23 25.12.2020
4457 Clouds 7 1013 93 8000 1.5 140 09:32 25.12.2020
4458 Clouds 5 1013 100 8000 2.1 100 08:47 25.12.2020
4459 Clouds 5 1013 100 8000 2.1 30 07:57 25.12.2020
4460 Clouds 4 1013 81 8000 1 0 06:44 25.12.2020
4461 Clouds 6 1013 93 7000 0.5 0 02:50 25.12.2020
4462 Clouds 7 1014 93 6000 1.5 130 01:18 25.12.2020
4463 Mist 6 1014 93 5000 1.5 130 00:18 25.12.2020
4464 Clouds 6 1014 93 7000 1.5 150 23:23 24.12.2020
4465 Clouds 7 1014 93 8000 2.1 130 22:40 24.12.2020
4466 Clouds 7 1014 93 8000 2.1 130 22:19 24.12.2020
4467 Clouds 8 1015 87 8000 2.1 100 21:32 24.12.2020
4468 Clouds 8 1015 81 8000 1.5 160 20:20 24.12.2020
4469 Clouds 8 1015 87 10000 1.5 90 18:39 24.12.2020
4470 Clouds 8 1015 87 10000 1.5 90 18:18 24.12.2020
4471 Clouds 8 1015 81 10000 1.5 140 17:36 24.12.2020
4472 Clear 10 1015 76 10000 1.41 282 16:28 24.12.2020
4473 Clear 11 1015 66 10000 1.5 130 15:58 24.12.2020
4474 Clear 11 1015 66 10000 1.5 120 15:40 24.12.2020
4475 Clear 11 1015 66 10000 1.5 120 15:18 24.12.2020
4476 Clear 11 1016 66 10000 2.1 160 14:42 24.12.2020
4477 Clear 11 1016 66 10000 2.1 160 14:23 24.12.2020
4478 Clear 11 1016 71 10000 1 0 13:39 24.12.2020
4479 Clear 10 1016 71 10000 1 0 13:20 24.12.2020
4480 Clear 9 1017 75 10000 1 0 12:41 24.12.2020
4481 Clear 9 1017 75 10000 1 0 12:20 24.12.2020
4482 Clouds 10 1018 87 8000 2.1 70 11:39 24.12.2020
4483 Clouds 10 1018 87 8000 2.1 70 11:39 24.12.2020
4484 Mist 9 1019 86 5000 1.5 100 11:20 24.12.2020
4485 Mist 10 1019 86 5000 1.5 100 10:49 24.12.2020
4486 Mist 9 1019 93 4000 2.1 90 10:30 24.12.2020
4487 Mist 8 1020 93 5000 1.5 100 09:52 24.12.2020
4488 Mist 7 1019 100 4000 1 0 09:23 24.12.2020
4489 Mist 5 1020 76 2500 0.79 261 08:18 24.12.2020
4490 Mist 4 1019 76 3000 0.79 261 07:39 24.12.2020
4491 Mist 3 1020 79 5000 1 90 06:55 24.12.2020
4492 Clear 2 1020 100 6000 1 170 04:24 24.12.2020
4493 Mist 4 1021 100 4000 2.1 190 01:54 24.12.2020
4494 Mist 4 1020 80 4000 1 150 01:30 24.12.2020
4495 Mist 4 1020 93 4000 1.5 60 00:56 24.12.2020
4496 Clouds 4 1021 100 6000 1 0 00:20 24.12.2020
4497 Clouds 4 1021 100 6000 2.1 100 23:40 23.12.2020
4498 Clouds 4 1021 100 6000 2.1 100 23:22 23.12.2020
4499 Mist 6 1021 93 5000 1 268 22:52 23.12.2020
4500 Clouds 5 1021 93 6000 1.5 170 22:29 23.12.2020
4501 Clouds 6 1021 93 7000 1.5 90 21:49 23.12.2020
4502 Clouds 6 1021 93 7000 1.5 90 21:24 23.12.2020
4503 Clouds 7 1021 93 7000 1.5 200 20:49 23.12.2020
4504 Clouds 7 1021 93 7000 1.5 200 20:49 23.12.2020
4505 Clouds 7 1022 93 7000 1.5 250 20:31 23.12.2020
4506 Clear 7 1022 86 8000 2.1 240 19:59 23.12.2020
4507 Clear 8 1022 81 10000 1.5 240 19:38 23.12.2020
4508 Clear 8 1022 81 10000 1.5 240 19:19 23.12.2020
4509 Clear 8 1022 87 9000 0.7 268 18:46 23.12.2020
4510 Clear 8 1022 87 10000 2.1 350 18:21 23.12.2020
4511 Clear 9 1021 75 10000 1 0 17:37 23.12.2020
4512 Clear 9 1021 75 10000 1.5 260 17:19 23.12.2020
4513 Clouds 11 1021 66 10000 3.1 280 16:42 23.12.2020
4514 Clouds 11 1021 66 10000 3.1 280 16:24 23.12.2020
4515 Clouds 11 1021 66 10000 3.6 270 15:50 23.12.2020
4516 Clouds 12 1021 62 10000 3.6 290 15:27 23.12.2020
4517 Clouds 12 1022 62 10000 4.6 270 14:58 23.12.2020
4518 Clouds 12 1022 62 10000 5.1 280 14:38 23.12.2020
4519 Clouds 12 1022 62 10000 5.1 280 14:20 23.12.2020
4520 Clouds 12 1022 62 10000 4.6 270 13:43 23.12.2020
4521 Clouds 12 1022 62 10000 4.6 270 13:19 23.12.2020
4522 Clouds 12 1022 62 10000 5.1 290 12:49 23.12.2020
4523 Clouds 12 1022 66 10000 3.6 280 12:24 23.12.2020
4524 Clouds 11 1023 76 8000 1 0 11:46 23.12.2020
4525 Clouds 9 1023 81 8000 1 0 11:19 23.12.2020
4526 Clouds 9 1024 81 6000 0.5 0 10:43 23.12.2020
4527 Clouds 8 1024 81 6000 0.5 0 10:25 23.12.2020
4528 Clouds 7 1024 81 6000 1 0 09:35 23.12.2020
4529 Mist 6 1024 93 4000 1.5 230 08:48 23.12.2020
4530 Mist 5 1024 93 3500 0.5 0 08:20 23.12.2020
4531 Mist 6 1023 93 4000 0.5 0 07:27 23.12.2020
4532 Mist 6 1023 100 4800 1 100 06:39 23.12.2020
4533 Mist 5 1023 93 4500 1 0 05:28 23.12.2020
4534 Mist 5 1023 100 4200 2.1 100 04:56 23.12.2020
4535 Mist 5 1023 93 5000 2.1 190 00:34 23.12.2020
4536 Mist 5 1024 93 5000 0.58 267 23:49 22.12.2020
4537 Mist 5 1024 86 5000 0.74 263 23:30 22.12.2020
4538 Mist 5 1024 86 5000 1 0 22:44 22.12.2020
4539 Mist 5 1024 86 5000 1 0 22:25 22.12.2020
4540 Mist 5 1024 86 5000 1.5 80 21:58 22.12.2020
4541 Mist 5 1024 86 5000 1 0 21:38 22.12.2020
4542 Mist 5 1024 86 5000 1 0 21:19 22.12.2020
4543 Mist 5 1024 86 5000 1.5 120 20:48 22.12.2020
4544 Mist 5 1024 86 5000 1 70 20:21 22.12.2020
4545 Mist 5 1024 86 5000 1.5 120 19:44 22.12.2020
4546 Mist 5 1024 86 5000 1.5 120 19:21 22.12.2020
4547 Mist 6 1024 80 5000 1.5 160 18:54 22.12.2020
4548 Clouds 5 1024 86 7000 1.5 130 18:30 22.12.2020
4549 Clouds 5 1024 86 7000 1.5 100 17:57 22.12.2020
4550 Clouds 5 1024 86 7000 1.5 80 17:26 22.12.2020
4551 Clouds 6 1024 80 8000 1.5 50 16:56 22.12.2020
4552 Clouds 5 1024 80 7000 1.5 20 16:37 22.12.2020
4553 Clouds 6 1024 80 7000 1.5 350 16:19 22.12.2020
4554 Clouds 6 1024 80 7000 1.5 350 15:42 22.12.2020
4555 Clouds 6 1024 80 7000 1.5 350 15:21 22.12.2020
4556 Clouds 6 1024 75 9000 1 0 14:45 22.12.2020
4557 Clouds 7 1024 75 9000 1 0 14:26 22.12.2020
4558 Clouds 7 1024 80 9000 0.5 0 13:48 22.12.2020
4559 Clouds 7 1025 80 8000 1.5 250 13:19 22.12.2020
4560 Clouds 7 1025 80 8000 1.5 250 12:57 22.12.2020
4561 Clouds 7 1025 75 9000 1.5 0 12:38 22.12.2020
4562 Clouds 7 1025 75 9000 1.5 0 12:19 22.12.2020
4563 Clouds 7 1026 75 8000 0.5 0 11:42 22.12.2020
4564 Clouds 6 1026 75 8000 1 0 11:22 22.12.2020
4565 Clouds 6 1026 75 8000 1 0 10:55 22.12.2020
4566 Clouds 5 1026 86 7000 2.1 80 10:27 22.12.2020
4567 Clouds 6 1026 86 8000 1 0 09:58 22.12.2020
4568 Clouds 5 1026 80 8000 1.5 100 09:30 22.12.2020
4569 Clouds 5 1026 86 7000 2.1 90 08:57 22.12.2020
4570 Clouds 5 1026 80 7000 1 0 08:38 22.12.2020
4571 Clouds 4 1026 86 7000 0.88 115 07:57 22.12.2020
4572 Clouds 4 1027 86 6000 0.5 0 07:27 22.12.2020
4573 Clouds 3 1026 86 8000 1 90 06:31 22.12.2020
4574 Clouds 3 1026 86 8000 0.99 103 05:30 22.12.2020
4575 Clouds 3 1027 93 8000 0.26 74 02:19 22.12.2020
4576 Clouds 3 1026 86 8000 0.91 98 00:23 22.12.2020
4577 Clouds 4 1027 86 8000 1 310 23:43 21.12.2020
4578 Clouds 4 1027 86 8000 0.5 300 23:19 21.12.2020
4579 Clouds 4 1027 86 8000 1 310 22:36 21.12.2020
4580 Clouds 4 1027 86 10000 0.5 0 22:18 21.12.2020
4581 Clouds 3 1027 86 10000 0.5 0 21:46 21.12.2020
4582 Clouds 3 1027 86 10000 1 170 21:27 21.12.2020
4583 Clouds 3 1027 86 10000 0.57 75 20:43 21.12.2020
4584 Clouds 4 1027 86 10000 0.56 52 20:21 21.12.2020
4585 Clouds 5 1027 80 10000 0.56 52 19:47 21.12.2020
4586 Clouds 4 1027 80 10000 0.76 60 19:20 21.12.2020
4587 Clouds 4 1027 80 10000 1 0 18:57 21.12.2020
4588 Clouds 5 1027 80 10000 1 20 18:39 21.12.2020
4589 Clouds 5 1027 80 10000 1 20 18:20 21.12.2020
4590 Clouds 5 1027 79 10000 1 170 17:42 21.12.2020
4591 Clouds 5 1027 78 10000 1 170 17:22 21.12.2020
4592 Clouds 5 1027 80 10000 1.03 62 16:41 21.12.2020
4593 Clouds 5 1027 75 10000 0.5 0 16:19 21.12.2020
4594 Clouds 5 1027 75 10000 0.5 0 15:41 21.12.2020
4595 Clouds 5 1027 70 10000 1 0 14:58 21.12.2020
4596 Clouds 6 1027 67 10000 1.16 62 14:23 21.12.2020
4597 Clouds 6 1027 67 10000 1 0 13:54 21.12.2020
4598 Clouds 6 1027 67 10000 1.16 62 13:35 21.12.2020
4599 Clouds 6 1027 66 10000 1.27 86 12:59 21.12.2020
4600 Clouds 6 1027 66 10000 1.27 86 12:39 21.12.2020
4601 Clouds 5 1027 67 10000 1.25 83 12:19 21.12.2020
4602 Clouds 6 1028 80 10000 1.5 70 11:43 21.12.2020
4603 Clouds 5 1028 80 10000 1.5 70 11:22 21.12.2020
4604 Clouds 5 1028 80 10000 1.5 80 10:57 21.12.2020
4605 Clouds 5 1028 80 10000 2.6 100 10:38 21.12.2020
4606 Clouds 4 1028 86 10000 2.1 110 09:55 21.12.2020
4607 Clouds 5 1028 86 10000 2.1 100 09:37 21.12.2020
4608 Clouds 4 1028 86 10000 2.1 100 09:18 21.12.2020
4609 Clouds 4 1028 86 10000 2.1 90 08:21 21.12.2020
4610 Clouds 3 1028 93 10000 1 80 06:48 21.12.2020
4611 Clouds 3 1028 83 10000 1.5 80 04:59 21.12.2020
4612 Clouds 3 1028 83 10000 2.6 90 03:46 21.12.2020
4613 Clouds 2 1028 84 10000 4.6 110 00:35 21.12.2020
4614 Clouds 3 1028 83 10000 4.1 110 23:39 20.12.2020
4615 Clouds 3 1028 83 10000 4.1 110 23:20 20.12.2020
4616 Clouds 3 1028 83 10000 4.1 110 22:43 20.12.2020
4617 Clouds 3 1028 82 10000 4.1 110 22:22 20.12.2020
4618 Clouds 3 1028 86 10000 3.6 100 21:40 20.12.2020
4619 Clouds 3 1028 86 10000 3.6 100 21:22 20.12.2020
4620 Clouds 3 1028 86 10000 3.6 110 20:53 20.12.2020
4621 Clouds 3 1028 86 10000 3.1 100 20:26 20.12.2020
4622 Clouds 3 1028 86 10000 3.1 100 19:56 20.12.2020
4623 Clouds 3 1028 86 10000 2.6 110 19:38 20.12.2020
4624 Clouds 3 1028 86 10000 2.6 110 19:19 20.12.2020
4625 Clouds 4 1028 86 10000 2.1 100 18:41 20.12.2020
4626 Clouds 4 1028 86 10000 2.1 100 18:22 20.12.2020
4627 Clouds 4 1027 86 8000 1.5 60 17:44 20.12.2020
4628 Clouds 4 1027 86 8000 1.5 60 17:23 20.12.2020
4629 Clouds 4 1027 86 10000 1.5 60 16:45 20.12.2020
4630 Clouds 4 1027 86 10000 2.1 120 16:27 20.12.2020
4631 Clouds 4 1027 86 10000 1.5 120 15:49 20.12.2020
4632 Clouds 4 1027 86 8000 2.1 150 15:25 20.12.2020
4633 Clouds 4 1027 86 8000 2.1 150 14:54 20.12.2020
4634 Clouds 4 1027 86 8000 2.6 150 14:33 20.12.2020
4635 Clouds 4 1027 86 8000 2.1 160 13:47 20.12.2020
4636 Clouds 4 1027 86 10000 1.5 160 13:25 20.12.2020
4637 Clouds 4 1027 86 10000 1 0 12:58 20.12.2020
4638 Clouds 3 1027 86 10000 1.5 150 12:39 20.12.2020
4639 Clouds 3 1027 86 10000 1.5 150 12:19 20.12.2020
4640 Clouds 4 1028 86 10000 1.5 220 11:42 20.12.2020
4641 Clouds 4 1028 86 10000 1.5 220 10:59 20.12.2020
4642 Clouds 4 1028 86 8000 1.14 86 10:41 20.12.2020
4643 Clouds 4 1028 86 8000 1.18 84 10:20 20.12.2020
4644 Clouds 3 1028 86 8000 1.5 140 09:45 20.12.2020
4645 Clouds 3 1028 93 8000 1.5 130 09:27 20.12.2020
4646 Clouds 3 1028 93 6000 1.5 0 08:55 20.12.2020
4647 Mist 3 1028 93 4000 1 0 08:36 20.12.2020
4648 Mist 3 1027 93 2800 0.5 100 07:23 20.12.2020
4649 Mist 2 1027 100 4800 1.5 90 05:44 20.12.2020
4650 Clouds 3 1027 93 10000 2.6 80 01:35 20.12.2020
4651 Clouds 3 1027 86 10000 1 10 00:37 20.12.2020
4652 Clouds 3 1027 85 10000 1 30 23:20 19.12.2020
4653 Clouds 3 1027 85 10000 1 30 22:56 19.12.2020
4654 Clouds 3 1028 85 10000 1 0 22:37 19.12.2020
4655 Clouds 3 1028 93 10000 2.1 90 22:18 19.12.2020
4656 Clouds 3 1027 93 10000 2.1 80 21:41 19.12.2020
4657 Clouds 3 1027 93 10000 2.1 80 21:41 19.12.2020
4658 Clouds 3 1027 93 10000 2.1 80 21:23 19.12.2020
4659 Clouds 3 1028 93 10000 2.1 90 20:42 19.12.2020
4660 Clouds 3 1028 93 10000 2.1 90 20:19 19.12.2020
4661 Clouds 3 1027 93 8000 1.5 70 19:50 19.12.2020
4662 Mist 3 1027 100 4000 1.5 100 19:31 19.12.2020
4663 Fog 2 1027 100 750 1.5 100 18:41 19.12.2020
4664 Fog 2 1027 100 750 1.5 100 18:20 19.12.2020
4665 Fog 2 1027 100 500 1 30 17:46 19.12.2020
4666 Fog 3 1027 100 500 1 30 17:24 19.12.2020
4667 Fog 3 1027 100 500 1.5 30 16:45 19.12.2020
4668 Fog 3 1027 100 750 1.5 30 16:26 19.12.2020
4669 Mist 3 1027 93 1400 1.5 10 15:58 19.12.2020
4670 Mist 3 1027 93 2100 1.5 350 15:39 19.12.2020
4671 Mist 4 1027 93 2500 1.5 250 14:43 19.12.2020
4672 Mist 3 1027 93 2500 1.5 250 14:22 19.12.2020
4673 Mist 4 1027 93 3000 2.1 220 13:41 19.12.2020
4674 Mist 2 1027 93 3000 2.1 220 13:20 19.12.2020
4675 Mist 4 1027 93 3300 1.5 300 12:44 19.12.2020
4676 Mist 4 1027 93 3300 1.5 300 12:26 19.12.2020
4677 Mist 4 1028 93 3000 1.5 310 11:57 19.12.2020
4678 Mist 4 1028 100 2000 1.5 330 11:36 19.12.2020
4679 Fog 4 1029 100 600 0.31 103 10:43 19.12.2020
4680 Fog 3 1029 100 600 0.41 103 10:25 19.12.2020
4681 Mist 3 1029 100 5000 0.41 103 09:53 19.12.2020
4682 Mist 3 1029 65 1600 0.41 103 09:35 19.12.2020
4683 Fog 2 1028 80 3000 1 0 08:36 19.12.2020
4684 Mist 2 1028 87 3000 1.5 90 07:25 19.12.2020
4685 Mist 1 1028 86 4000 1 70 06:53 19.12.2020
4686 Mist 1 1028 85 3500 1 80 06:20 19.12.2020
4687 Fog 1 1028 85 900 1.5 130 05:18 19.12.2020
4688 Fog 1 1028 83 450 1 0 03:19 19.12.2020
4689 Fog 2 1028 81 350 0.31 107 00:37 19.12.2020
4690 Fog 2 1028 80 350 0.28 105 00:18 19.12.2020
4691 Fog 2 1028 80 500 1 0 23:47 18.12.2020
4692 Fog 2 1028 78 500 1 0 23:23 18.12.2020
4693 Fog 2 1028 78 900 1.5 140 22:46 18.12.2020
4694 Fog 2 1028 77 200 1.5 150 22:22 18.12.2020
4695 Fog 2 1028 77 200 1.5 150 21:50 18.12.2020
4696 Fog 2 1028 92 200 1.5 150 21:31 18.12.2020
4697 Fog 2 1028 100 600 0.22 51 20:41 18.12.2020
4698 Fog 2 1028 100 600 0.28 17 20:21 18.12.2020
4699 Fog 2 1028 74 2000 0.5 0 19:44 18.12.2020
4700 Fog 3 1028 73 2000 0.5 0 19:21 18.12.2020
4701 Mist 3 1027 93 5000 1.5 190 18:42 18.12.2020
4702 Mist 4 1027 93 5000 1.5 190 18:24 18.12.2020
4703 Clouds 4 1027 93 8000 1 130 17:24 18.12.2020
4704 Clouds 4 1027 93 8000 2.1 90 16:54 18.12.2020
4705 Clouds 4 1027 93 8000 2.1 100 16:28 18.12.2020
4706 Clouds 5 1027 86 9000 1.5 90 16:00 18.12.2020
4707 Clouds 5 1027 86 9000 1.5 90 15:41 18.12.2020
4708 Clouds 6 1027 86 9000 1.5 90 15:22 18.12.2020
4709 Clouds 6 1027 86 10000 1.5 110 14:54 18.12.2020
4710 Clouds 7 1027 80 9000 1 0 14:21 18.12.2020
4711 Clouds 7 1027 86 10000 2.1 340 13:50 18.12.2020
4712 Clouds 4 1027 86 10000 2.1 350 13:30 18.12.2020
4713 Clouds 5 1027 93 8000 1.5 0 12:49 18.12.2020
4714 Mist 4 1027 93 5000 2.1 300 12:21 18.12.2020
4715 Mist 2 1028 100 4000 2.1 320 11:23 18.12.2020
4716 Mist 2 1028 100 2500 2.6 310 10:40 18.12.2020
4717 Mist 3 1028 100 2000 2.1 310 10:20 18.12.2020
4718 Mist 3 1028 100 1100 2.1 310 09:39 18.12.2020
4719 Mist 3 1028 100 1100 2.1 310 09:21 18.12.2020
4720 Mist 3 1028 100 1100 2.1 300 08:54 18.12.2020
4721 Mist 3 1028 100 1000 1.5 310 08:30 18.12.2020
4722 Mist 3 1027 100 1100 1.5 330 07:39 18.12.2020
4723 Mist 3 1027 100 1100 1.5 330 07:18 18.12.2020
4724 Mist 3 1027 93 1900 1.5 330 06:49 18.12.2020
4725 Mist 4 1027 100 4500 1.5 300 05:41 18.12.2020
4726 Clouds 3 1027 100 6000 1.5 300 04:51 18.12.2020
4727 Clouds 5 1027 93 10000 1.5 270 01:58 18.12.2020
4728 Clouds 5 1027 86 10000 3.1 270 01:39 18.12.2020
4729 Clouds 5 1026 86 10000 2.1 280 23:59 17.12.2020
4730 Clouds 5 1026 86 10000 1.5 270 23:25 17.12.2020
4731 Clouds 5 1026 93 10000 2.1 270 22:58 17.12.2020
4732 Clouds 5 1026 93 10000 2.1 270 22:58 17.12.2020
4733 Clouds 6 1026 87 8000 1.5 290 22:40 17.12.2020
4734 Clouds 6 1026 87 8000 1.5 290 22:40 17.12.2020
4735 Clouds 6 1026 87 8000 1.5 290 22:22 17.12.2020
4736 Clouds 6 1026 87 8000 2.1 290 21:42 17.12.2020
4737 Clouds 6 1026 87 8000 2.1 290 21:42 17.12.2020
4738 Clouds 6 1026 87 8000 2.1 290 21:19 17.12.2020
4739 Clouds 6 1026 87 10000 2.6 300 20:41 17.12.2020
4740 Clouds 6 1026 87 10000 2.1 280 20:19 17.12.2020
4741 Clouds 6 1026 87 10000 2.1 280 19:48 17.12.2020
4742 Clouds 6 1026 87 10000 2.1 280 19:24 17.12.2020
4743 Clouds 6 1026 87 10000 2.1 280 19:24 17.12.2020
4744 Clouds 7 1026 81 10000 2.1 310 18:42 17.12.2020
4745 Clouds 7 1026 81 10000 2.1 310 18:42 17.12.2020
4746 Clouds 7 1026 81 10000 2.1 310 18:24 17.12.2020
4747 Clouds 7 1026 81 10000 1.5 280 17:54 17.12.2020
4748 Clouds 7 1025 81 10000 0.43 48 17:33 17.12.2020
4749 Clouds 8 1025 87 8000 1 0 16:47 17.12.2020
4750 Clouds 8 1025 87 8000 1 0 16:47 17.12.2020
4751 Clouds 8 1025 87 8000 1.5 170 16:28 17.12.2020
4752 Clouds 8 1025 87 8000 1 0 15:57 17.12.2020
4753 Clouds 8 1025 87 10000 0.5 0 15:39 17.12.2020
4754 Clouds 8 1025 87 8000 1 160 14:57 17.12.2020
4755 Clouds 8 1025 81 8000 0.5 0 14:37 17.12.2020
4756 Clouds 8 1025 81 8000 0.5 0 14:37 17.12.2020
4757 Clouds 8 1025 81 8000 1 0 13:59 17.12.2020
4758 Clouds 8 1025 81 6000 0.5 0 13:39 17.12.2020
4759 Clouds 8 1025 87 6000 1 0 12:56 17.12.2020
4760 Clouds 8 1025 87 6000 1 0 12:33 17.12.2020
4761 Mist 7 1025 87 5000 1 0 11:47 17.12.2020
4762 Mist 7 1025 87 5000 0.5 0 11:26 17.12.2020
4763 Mist 6 1026 93 5000 1 0 10:57 17.12.2020
4764 Clouds 6 1026 93 6000 1 250 10:33 17.12.2020
4765 Mist 6 1026 100 5000 0.62 295 09:36 17.12.2020
4766 Mist 5 1025 100 1400 0.69 288 08:39 17.12.2020
4767 Mist 5 1025 100 1700 0.66 277 07:40 17.12.2020
4768 Mist 4 1025 100 1700 0.57 257 07:18 17.12.2020
4769 Mist 4 1025 100 2300 0.32 260 06:44 17.12.2020
4770 Mist 4 1025 100 2500 0.15 225 06:26 17.12.2020
4771 Mist 4 1025 93 5000 2.1 100 01:41 17.12.2020
4772 Clouds 4 1025 93 6000 2.6 100 23:58 16.12.2020
4773 Clouds 4 1026 100 8000 3.1 90 23:23 16.12.2020
4774 Clouds 5 1026 93 6000 2.1 90 22:58 16.12.2020
4775 Mist 4 1025 100 5000 3.1 90 22:38 16.12.2020
4776 Clouds 4 1025 100 8000 2.6 90 21:58 16.12.2020
4777 Clouds 5 1026 86 10000 2.6 100 21:38 16.12.2020
4778 Clouds 5 1026 86 10000 2.6 100 21:20 16.12.2020
4779 Clouds 5 1026 93 10000 2.1 80 20:44 16.12.2020
4780 Clouds 5 1026 93 10000 2.1 80 20:19 16.12.2020
4781 Clouds 5 1025 93 8000 1 0 19:21 16.12.2020
4782 Clouds 5 1025 93 8000 1 0 19:21 16.12.2020
4783 Clouds 5 1025 93 8000 1 0 18:57 16.12.2020
4784 Clouds 5 1025 93 8000 1.35 104 18:37 16.12.2020
4785 Clouds 5 1025 93 8000 1.42 104 18:19 16.12.2020
4786 Clouds 5 1025 86 8000 1.42 104 17:33 16.12.2020
4787 Clouds 5 1025 86 8000 1.19 106 16:42 16.12.2020
4788 Clouds 5 1025 86 8000 1 0 16:22 16.12.2020
4789 Clouds 5 1025 86 8000 1 0 15:52 16.12.2020
4790 Clouds 5 1025 86 8000 1 0 15:32 16.12.2020
4791 Clouds 5 1024 86 8000 1 0 14:55 16.12.2020
4792 Clouds 5 1024 86 8000 0.53 89 14:37 16.12.2020
4793 Clouds 4 1024 86 8000 0.61 81 14:19 16.12.2020
4794 Clouds 4 1024 86 10000 1.5 100 13:37 16.12.2020
4795 Clouds 4 1024 86 10000 1.5 100 13:18 16.12.2020
4796 Clouds 4 1025 86 10000 0.5 0 12:42 16.12.2020
4797 Clouds 4 1025 86 10000 1 0 11:43 16.12.2020
4798 Clouds 5 1025 86 10000 1 0 11:23 16.12.2020
4799 Clouds 4 1025 93 10000 1 0 10:52 16.12.2020
4800 Clouds 4 1026 93 8000 1 0 10:27 16.12.2020
4801 Clouds 4 1026 100 7000 2.1 130 09:49 16.12.2020
4802 Clouds 4 1026 100 7000 2.1 130 09:18 16.12.2020
4803 Mist 4 1025 100 4500 1 210 08:22 16.12.2020
4804 Mist 4 1025 100 1400 1 0 07:42 16.12.2020
4805 Mist 3 1025 100 1200 1.5 110 07:19 16.12.2020
4806 Clouds 4 1024 93 6000 2.1 210 03:35 16.12.2020
4807 Clouds 5 1024 86 7000 2.1 160 01:31 16.12.2020
4808 Clouds 5 1024 93 8000 1 0 23:46 15.12.2020
4809 Clouds 5 1024 93 7000 0.5 0 22:56 15.12.2020
4810 Clouds 5 1023 93 6000 1 0 22:38 15.12.2020
4811 Clouds 6 1023 93 6000 1 0 22:18 15.12.2020
4812 Clouds 5 1023 93 7000 0.4 91 21:40 15.12.2020
4813 Clouds 5 1023 93 7000 0.54 90 21:21 15.12.2020
4814 Clouds 5 1023 86 7000 1.5 70 20:44 15.12.2020
4815 Clouds 5 1023 86 7000 1.5 70 20:26 15.12.2020
4816 Clouds 5 1023 93 7000 1 0 19:52 15.12.2020
4817 Clouds 5 1023 93 7000 1 0 19:26 15.12.2020
4818 Clouds 5 1022 86 7000 0.5 0 18:39 15.12.2020
4819 Clouds 5 1022 86 7000 0.5 0 18:21 15.12.2020
4820 Clear 5 1022 93 7000 2.1 140 17:45 15.12.2020
4821 Clear 5 1022 93 7000 2.1 140 17:27 15.12.2020
4822 Clear 6 1022 86 10000 2.6 130 16:46 15.12.2020
4823 Clear 6 1022 86 10000 2.6 130 16:27 15.12.2020
4824 Clouds 8 1021 75 10000 1.5 80 15:42 15.12.2020
4825 Clouds 8 1021 75 10000 1.5 30 15:24 15.12.2020
4826 Clouds 7 1021 75 10000 1.5 50 14:42 15.12.2020
4827 Clouds 8 1021 70 10000 1 0 14:20 15.12.2020
4828 Clouds 7 1021 75 10000 1 0 13:49 15.12.2020
4829 Clouds 7 1021 75 10000 1 0 13:25 15.12.2020
4830 Clouds 6 1021 75 8000 0.5 0 12:46 15.12.2020
4831 Clouds 7 1022 75 10000 1.5 300 12:19 15.12.2020
4832 Clouds 7 1022 75 10000 2.1 260 11:52 15.12.2020
4833 Clouds 7 1022 80 10000 2.1 300 11:24 15.12.2020
4834 Clouds 7 1022 80 10000 1 0 10:49 15.12.2020
4835 Clouds 5 1022 86 10000 1 0 10:20 15.12.2020
4836 Clouds 5 1022 93 7000 1.5 50 09:44 15.12.2020
4837 Clouds 5 1022 86 8000 1.5 360 09:26 15.12.2020
4838 Clouds 4 1022 93 7000 1.5 20 08:46 15.12.2020
4839 Clouds 3 1021 93 6000 1.5 40 08:24 15.12.2020
4840 Clouds 3 1021 93 10000 2.6 280 07:47 15.12.2020
4841 Clouds 3 1021 93 10000 3.6 270 07:18 15.12.2020
4842 Clouds 3 1020 93 10000 3.6 270 05:55 15.12.2020
4843 Clouds 3 1019 93 10000 4.6 270 00:54 15.12.2020
4844 Clouds 3 1019 93 10000 4.6 270 23:54 14.12.2020
4845 Clouds 3 1019 93 10000 4.6 270 23:21 14.12.2020
4846 Clouds 3 1019 93 10000 4.6 270 22:44 14.12.2020
4847 Clouds 3 1019 93 10000 4.6 270 22:22 14.12.2020
4848 Clouds 4 1019 93 10000 4.1 270 21:41 14.12.2020
4849 Clouds 4 1019 93 10000 4.1 270 21:19 14.12.2020
4850 Clouds 4 1018 93 10000 4.1 270 20:48 14.12.2020
4851 Clouds 4 1018 93 10000 4.1 270 20:27 14.12.2020
4852 Clouds 4 1017 93 10000 4.1 270 19:44 14.12.2020
4853 Clouds 3 1017 93 10000 4.1 270 19:25 14.12.2020
4854 Clouds 4 1017 93 9000 3.6 270 18:44 14.12.2020
4855 Clouds 3 1017 93 9000 3.6 270 18:24 14.12.2020
4856 Clouds 3 1017 93 8000 3.6 280 17:45 14.12.2020
4857 Clouds 3 1017 93 8000 3.6 280 17:21 14.12.2020
4858 Clouds 4 1016 86 10000 3.6 280 16:49 14.12.2020
4859 Clouds 4 1016 86 10000 2.6 320 16:27 14.12.2020
4860 Clouds 4 1015 86 10000 2.6 290 15:33 14.12.2020
4861 Clouds 5 1015 86 10000 2.6 280 14:52 14.12.2020
4862 Clouds 5 1015 86 10000 3.1 300 14:34 14.12.2020
4863 Clouds 5 1015 86 8000 3.1 290 13:58 14.12.2020
4864 Clouds 5 1015 86 8000 2.6 290 13:37 14.12.2020
4865 Clouds 5 1014 86 8000 3.6 290 12:58 14.12.2020
4866 Clouds 5 1014 86 8000 4.1 280 12:40 14.12.2020
4867 Clouds 5 1014 86 8000 4.1 280 12:20 14.12.2020
4868 Clouds 5 1014 86 8000 4.6 300 11:30 14.12.2020
4869 Clouds 5 1014 93 7000 4.1 270 10:29 14.12.2020
4870 Clouds 5 1014 93 6000 4.1 270 09:53 14.12.2020
4871 Clouds 5 1014 86 7000 3.1 280 09:25 14.12.2020
4872 Drizzle 5 1014 86 10000 3.1 290 08:45 14.12.2020
4873 Clouds 4 1014 86 10000 4.1 300 08:25 14.12.2020
4874 Clouds 4 1013 86 10000 5.1 340 07:22 14.12.2020
4875 Clouds 4 1012 86 10000 3.1 300 06:44 14.12.2020
4876 Clouds 4 1011 86 10000 3.1 300 04:19 14.12.2020
4877 Clouds 4 1011 93 10000 2.6 300 02:25 14.12.2020
4878 Clouds 5 1010 80 10000 2.6 340 00:51 14.12.2020
4879 Clouds 5 1010 80 10000 2.6 340 00:29 14.12.2020
4880 Clouds 5 1010 86 10000 3.6 280 23:44 13.12.2020
4881 Clouds 5 1010 86 10000 3.6 280 23:18 13.12.2020
4882 Clouds 5 1010 86 10000 3.6 290 22:43 13.12.2020
4883 Clouds 5 1010 86 10000 3.6 290 22:18 13.12.2020
4884 Clouds 5 1010 86 10000 4.1 290 21:42 13.12.2020
4885 Clouds 5 1010 86 10000 4.6 300 20:57 13.12.2020
4886 Clouds 5 1010 80 10000 4.1 300 20:32 13.12.2020
4887 Clouds 5 1009 80 10000 4.6 320 19:49 13.12.2020
4888 Clouds 5 1009 86 10000 3.6 320 19:25 13.12.2020
4889 Clouds 6 1009 86 10000 3.6 320 18:57 13.12.2020
4890 Clouds 6 1009 86 10000 3.1 330 18:38 13.12.2020
4891 Clouds 6 1009 86 10000 3.1 330 18:18 13.12.2020
4892 Clouds 6 1008 80 10000 3.1 340 17:45 13.12.2020
4893 Clouds 7 1008 86 10000 4.1 350 17:18 13.12.2020
4894 Clouds 7 1008 86 10000 3.6 340 16:50 13.12.2020
4895 Clouds 7 1008 81 10000 4.1 350 16:31 13.12.2020
4896 Clouds 8 1007 75 10000 2.6 290 15:47 13.12.2020
4897 Clouds 8 1007 81 10000 2.1 280 15:26 13.12.2020
4898 Clouds 8 1007 75 10000 2.1 270 14:47 13.12.2020
4899 Clouds 8 1007 81 10000 2.1 260 14:29 13.12.2020
4900 Clouds 8 1006 81 10000 2.6 270 13:50 13.12.2020
4901 Clouds 8 1006 81 10000 2.1 300 13:31 13.12.2020
4902 Clouds 8 1006 81 10000 2.6 300 12:57 13.12.2020
4903 Clouds 8 1006 75 8000 2.6 280 12:24 13.12.2020
4904 Clouds 6 1006 87 7000 1.5 290 11:58 13.12.2020
4905 Mist 6 1007 86 5000 2.1 260 11:32 13.12.2020
4906 Clouds 6 1007 93 8000 1.5 190 10:45 13.12.2020
4907 Clouds 5 1007 93 8000 1.5 190 10:21 13.12.2020
4908 Clouds 5 1006 93 6000 1.5 130 09:39 13.12.2020
4909 Mist 5 1006 100 4000 1.5 30 08:47 13.12.2020
4910 Clouds 3 1006 93 7000 0.39 27 08:28 13.12.2020
4911 Mist 3 1005 93 5000 1 300 06:28 13.12.2020
4912 Clouds 5 1004 93 10000 0.44 53 02:44 13.12.2020
4913 Clouds 5 1004 93 10000 0.5 170 01:59 13.12.2020
4914 Clouds 5 1004 93 10000 2.1 170 01:34 13.12.2020
4915 Clouds 5 1003 93 10000 0.5 0 00:37 13.12.2020
4916 Clouds 5 1004 93 10000 1.5 80 23:33 12.12.2020
4917 Clouds 5 1003 93 10000 1.5 130 22:59 12.12.2020
4918 Clouds 5 1003 93 10000 1 160 22:29 12.12.2020
4919 Clouds 5 1003 93 10000 1.5 130 21:46 12.12.2020
4920 Clouds 5 1003 93 10000 2.1 120 21:19 12.12.2020
4921 Clouds 5 1003 93 10000 0.15 240 20:44 12.12.2020
4922 Clouds 5 1003 93 10000 0.13 213 20:21 12.12.2020
4923 Clouds 5 1003 93 10000 1 0 19:51 12.12.2020
4924 Clouds 5 1002 93 10000 0.5 0 19:33 12.12.2020
4925 Clouds 5 1002 93 10000 1 290 18:55 12.12.2020
4926 Clouds 5 1002 86 10000 1 300 18:36 12.12.2020
4927 Clouds 5 1002 93 10000 1 270 18:18 12.12.2020
4928 Clouds 5 1001 86 10000 2.1 250 17:40 12.12.2020
4929 Clouds 6 1001 80 10000 1.5 300 16:30 12.12.2020
4930 Clouds 6 1001 86 10000 1.5 310 15:53 12.12.2020
4931 Clouds 6 1001 80 10000 2.1 310 15:35 12.12.2020
4932 Clouds 6 1000 80 10000 1.5 290 14:53 12.12.2020
4933 Clouds 6 1000 80 10000 1.5 290 14:20 12.12.2020
4934 Clouds 6 1000 86 10000 2.6 310 13:40 12.12.2020
4935 Clouds 6 1000 86 10000 2.6 310 13:22 12.12.2020
4936 Clouds 6 1000 80 10000 2.6 300 12:32 12.12.2020
4937 Clouds 6 1000 86 10000 3.1 290 11:18 12.12.2020
4938 Clouds 6 1001 93 10000 2.6 300 10:42 12.12.2020
4939 Clouds 5 1001 93 8000 1.5 310 09:20 12.12.2020
4940 Clouds 4 1003 100 7000 3.1 90 03:39 12.12.2020
4941 Clouds 4 1004 93 6000 1.5 100 00:48 12.12.2020
4942 Mist 4 1005 93 4400 0.5 0 23:19 11.12.2020
4943 Mist 5 1006 93 3500 0.5 0 20:55 11.12.2020
4944 Mist 4 1006 100 4300 1.5 130 19:31 11.12.2020
4945 Clear 7 1006 87 10000 2.6 110 16:45 11.12.2020
4946 Clouds 8 1007 81 10000 1.5 170 14:24 11.12.2020
4947 Clouds 8 1007 81 10000 2.1 0 13:25 11.12.2020
4948 Clouds 8 1008 81 10000 2.1 200 12:21 11.12.2020
4949 Clouds 8 1008 81 10000 2.1 200 11:52 11.12.2020
4950 Clouds 7 1008 81 10000 2.1 270 10:56 11.12.2020
4951 Clouds 7 1008 87 10000 1.44 278 09:42 11.12.2020
4952 Clouds 6 1007 93 10000 1.5 360 06:25 11.12.2020
4953 Clouds 6 1006 93 10000 0.87 276 05:20 11.12.2020
4954 Clouds 6 1007 100 10000 1.5 130 02:38 11.12.2020
4955 Clouds 7 1007 93 8000 1.5 280 00:34 11.12.2020
4956 Clouds 7 1006 100 6000 3.1 260 22:56 10.12.2020
4957 Mist 8 1006 93 2500 2.1 270 21:37 10.12.2020
4958 Clouds 8 1006 100 3000 1 300 20:47 10.12.2020
4959 Fog 8 1005 100 800 1 320 19:46 10.12.2020
4960 Fog 8 1005 100 800 1 320 19:20 10.12.2020
4961 Mist 8 1006 100 2300 1.38 93 18:24 10.12.2020
4962 Mist 9 1006 93 2700 0.5 220 16:40 10.12.2020
4963 Mist 9 1006 93 2900 0.5 0 15:44 10.12.2020
4964 Mist 10 1006 93 4800 2.1 70 14:58 10.12.2020
4965 Mist 9 1006 93 3500 1.5 30 14:37 10.12.2020
4966 Clouds 9 1006 87 10000 0.5 0 13:20 10.12.2020
4967 Clouds 9 1007 87 8000 1.1 123 11:41 10.12.2020
4968 Mist 8 1008 93 4000 1.5 40 08:57 10.12.2020
4969 Clouds 7 1007 93 6000 1.5 310 07:51 10.12.2020
4970 Clouds 7 1007 93 10000 3.1 0 06:42 10.12.2020
4971 Clouds 6 1007 93 10000 1.5 0 03:36 10.12.2020
4972 Clouds 6 1008 93 10000 2.1 120 02:23 10.12.2020
4973 Clouds 6 1009 87 10000 2.6 240 00:22 10.12.2020
4974 Clouds 6 1009 93 10000 5.7 100 21:58 09.12.2020
4975 Clouds 6 1010 86 10000 7.2 120 20:28 09.12.2020
4976 Clouds 6 1010 86 10000 5.7 100 19:21 09.12.2020
4977 Clouds 6 1011 86 10000 7.7 120 17:43 09.12.2020
4978 Clouds 5 1011 86 10000 9.3 110 16:44 09.12.2020
4979 Clouds 6 1011 86 10000 9.3 110 16:20 09.12.2020
4980 Clouds 6 1012 86 10000 7.7 110 15:18 09.12.2020
4981 Clouds 6 1012 86 10000 7.7 120 14:27 09.12.2020
4982 Clouds 6 1012 86 10000 9.3 110 13:58 09.12.2020
4983 Clouds 6 1012 86 10000 8.2 110 13:19 09.12.2020
4984 Clouds 6 1013 86 10000 8.2 110 12:44 09.12.2020
4985 Clouds 6 1013 86 10000 7.2 110 11:49 09.12.2020
4986 Clouds 6 1015 86 10000 7.7 110 10:39 09.12.2020
4987 Clouds 5 1014 93 10000 8.2 100 08:49 09.12.2020
4988 Clouds 5 1014 86 10000 9.3 120 07:43 09.12.2020
4989 Clouds 5 1015 86 10000 7.2 120 05:48 09.12.2020
4990 Clouds 3 1015 100 8000 1 0 03:26 09.12.2020
4991 Mist 2 1015 100 1800 1 350 01:49 09.12.2020
4992 Mist 3 1016 100 1700 2.1 80 23:42 08.12.2020
4993 Mist 3 1016 84 3000 1 100 22:52 08.12.2020
4994 Mist 2 1015 84 5000 1.71 85 20:54 08.12.2020
4995 Mist 2 1015 84 2000 1 350 19:32 08.12.2020
4996 Mist 3 1015 93 3000 1.91 79 18:57 08.12.2020
4997 Clear 3 1014 100 7000 1.5 20 17:33 08.12.2020
4998 Clear 7 1014 75 10000 0.5 0 15:44 08.12.2020
4999 Clouds 8 1014 75 10000 1.5 230 14:18 08.12.2020
5000 Clouds 6 1014 81 8000 1.5 0 13:24 08.12.2020
5001 Clouds 6 1014 80 7000 1.5 0 12:24 08.12.2020
5002 Clouds 5 1014 86 8000 1.5 220 11:39 08.12.2020
5003 Clouds 5 1014 86 10000 2.1 290 10:43 08.12.2020
5004 Clouds 4 1014 93 10000 2.1 300 09:47 08.12.2020
5005 Clouds 3 1013 93 10000 1 0 07:59 08.12.2020
5006 Clouds 3 1013 93 10000 2.1 300 06:33 08.12.2020
5007 Clouds 3 1012 93 10000 1.5 280 03:23 08.12.2020
5008 Clouds 3 1012 93 8000 1.5 290 00:46 08.12.2020
5009 Clouds 4 1012 93 7000 2.1 290 23:51 07.12.2020
5010 Clouds 4 1012 100 8000 1.5 10 22:37 07.12.2020
5011 Clouds 4 1012 100 7000 1.5 330 21:50 07.12.2020
5012 Clouds 4 1011 93 7000 2.1 120 19:51 07.12.2020
5013 Clouds 5 1011 100 6000 2.1 120 18:29 07.12.2020
5014 Clouds 6 1011 93 10000 2.1 120 17:26 07.12.2020
5015 Clouds 6 1011 93 8000 3.6 110 16:52 07.12.2020
5016 Drizzle 6 1011 93 8000 6.2 130 15:26 07.12.2020
5017 Clouds 7 1011 93 8000 8.2 130 14:44 07.12.2020
5018 Clouds 7 1011 93 8000 7.2 130 13:44 07.12.2020
5019 Clouds 7 1011 93 10000 8.2 130 12:35 07.12.2020
5020 Clouds 7 1012 93 10000 7.2 130 11:43 07.12.2020
5021 Clouds 7 1013 93 8000 5.1 130 10:44 07.12.2020
5022 Clouds 7 1013 93 10000 6.2 130 09:40 07.12.2020
5023 Clouds 7 1013 93 8000 5.7 130 07:51 07.12.2020
5024 Clouds 7 1013 100 6000 6.2 120 05:43 07.12.2020
5025 Clouds 7 1013 100 6000 6.7 120 04:46 07.12.2020
5026 Clouds 8 1014 93 6000 5.7 130 01:47 07.12.2020
5027 Clouds 8 1015 93 10000 6.2 120 23:32 06.12.2020
5028 Clouds 8 1016 87 8000 6.7 130 22:19 06.12.2020
5029 Clouds 8 1016 93 10000 4.6 120 20:52 06.12.2020
5030 Clouds 8 1016 93 10000 5.1 120 20:34 06.12.2020
5031 Clouds 8 1016 87 10000 5.7 130 19:45 06.12.2020
5032 Clouds 8 1016 87 7000 4.1 120 17:55 06.12.2020
5033 Clouds 9 1016 87 8000 5.1 130 16:42 06.12.2020
5034 Mist 9 1017 87 5000 5.1 120 14:50 06.12.2020
5035 Clouds 9 1017 87 6000 5.7 120 13:31 06.12.2020
5036 Mist 9 1018 93 5000 6.2 120 12:39 06.12.2020
5037 Mist 9 1018 93 5000 5.7 120 11:55 06.12.2020
5038 Mist 9 1018 87 5000 5.7 120 11:30 06.12.2020
5039 Mist 10 1019 93 5000 5.1 130 10:42 06.12.2020
5040 Mist 9 1019 93 5000 4.6 130 09:39 06.12.2020
5041 Mist 8 1019 93 3500 3.1 140 07:53 06.12.2020
5042 Mist 8 1019 100 4300 3.6 110 05:22 06.12.2020
5043 Clouds 8 1019 93 6000 2.6 150 00:48 06.12.2020
5044 Mist 8 1019 100 5000 3.6 120 00:27 06.12.2020
5045 Mist 8 1019 100 5000 3.1 120 23:58 05.12.2020
5046 Mist 8 1019 100 4000 2.1 120 22:26 05.12.2020
5047 Mist 8 1019 100 4000 2.1 140 21:57 05.12.2020
5048 Mist 8 1019 100 5000 2.6 120 21:31 05.12.2020
5049 Mist 9 1019 87 5000 1 140 20:59 05.12.2020
5050 Mist 8 1019 87 5000 2.6 120 18:50 05.12.2020
5051 Clouds 8 1019 93 6000 2.6 120 17:57 05.12.2020
5052 Clouds 8 1018 87 7000 5.1 100 16:49 05.12.2020
5053 Clouds 8 1018 87 6000 3.6 100 16:28 05.12.2020
5054 Clouds 9 1018 87 8000 2.6 120 15:24 05.12.2020
5055 Clouds 8 1018 81 8000 3.6 150 13:33 05.12.2020
5056 Clouds 8 1018 81 8000 4.1 130 11:50 05.12.2020
5057 Clouds 7 1018 87 8000 2.6 170 10:39 05.12.2020
5058 Clouds 7 1018 87 8000 3.1 180 09:31 05.12.2020
5059 Clouds 6 1017 87 7000 2.6 150 07:48 05.12.2020
5060 Clouds 5 1016 93 10000 3.1 150 05:58 05.12.2020
5061 Clouds 6 1016 87 10000 2.6 130 02:18 05.12.2020
5062 Clouds 6 1016 87 7000 3.1 170 23:39 04.12.2020
5063 Clouds 6 1016 93 8000 2.1 120 21:37 04.12.2020
5064 Clouds 5 1015 86 8000 7.7 120 19:35 04.12.2020
5065 Clouds 5 1014 86 8000 8.2 110 18:40 04.12.2020
5066 Clouds 5 1014 86 7000 6.7 120 17:47 04.12.2020
5067 Clouds 5 1014 93 8000 6.7 120 16:37 04.12.2020
5068 Clouds 5 1014 93 8000 7.7 110 15:25 04.12.2020
5069 Clouds 4 1013 93 8000 10.8 110 13:37 04.12.2020
5070 Clouds 4 1014 93 8000 9.8 120 13:18 04.12.2020
5071 Clouds 5 1014 86 8000 9.3 120 12:26 04.12.2020
5072 Clouds 4 1014 86 8000 7.7 110 10:37 04.12.2020
5073 Clouds 3 1015 93 8000 7.7 110 09:25 04.12.2020
5074 Clouds 3 1014 93 10000 7.7 110 06:40 04.12.2020
5075 Clouds 2 1014 94 10000 7.2 120 04:53 04.12.2020
5076 Clouds 2 1016 86 10000 8.2 110 01:53 04.12.2020
5077 Clear 1 1017 96 10000 8.2 110 22:51 03.12.2020
5078 Clear 0 1017 92 10000 5.7 90 21:37 03.12.2020
5079 Clear 0 1017 86 10000 6.2 100 20:46 03.12.2020
5080 Clear 1 1017 86 10000 6.2 90 19:24 03.12.2020
5081 Clear 1 1017 96 10000 6.2 100 18:48 03.12.2020
5082 Clear 1 1017 93 10000 6.2 100 17:21 03.12.2020
5083 Clouds 2 1017 80 10000 6.2 110 16:43 03.12.2020
5084 Clouds 2 1017 74 10000 6.2 110 15:33 03.12.2020
5085 Clouds 2 1017 74 10000 3.1 110 14:49 03.12.2020
5086 Clear 4 1018 69 10000 3.6 120 13:55 03.12.2020
5087 Clear 2 1018 74 10000 5.1 100 12:50 03.12.2020
5088 Clear 1 1019 80 10000 6.2 100 12:23 03.12.2020
5089 Clouds 0 1020 79 10000 5.1 100 10:54 03.12.2020
5090 Clear -2 1020 86 10000 3.6 100 08:49 03.12.2020
5091 Clouds -6 1020 92 7000 2.6 140 04:21 03.12.2020
5092 Clear -6 1021 92 7000 1.5 240 01:57 03.12.2020
5093 Clear -6 1021 92 10000 2.1 200 00:28 03.12.2020
5094 Clear -2 1021 92 10000 4.1 100 22:46 02.12.2020
5095 Clear -3 1021 92 10000 4.1 100 21:50 02.12.2020
5096 Clouds -3 1021 92 8000 4.1 100 20:51 02.12.2020
5097 Clouds -3 1021 100 8000 3.1 110 20:33 02.12.2020
5098 Clouds -3 1021 100 6000 1.5 110 19:50 02.12.2020
5099 Mist -2 1020 100 5000 2.6 120 17:51 02.12.2020
5100 Mist -1 1020 92 5000 1 0 17:31 02.12.2020
5101 Clouds -1 1020 92 8000 1.5 90 16:42 02.12.2020
5102 Clear -1 1020 92 10000 1.24 96 13:48 02.12.2020
5103 Mist -3 1022 92 5000 1.5 40 11:33 02.12.2020
5104 Mist -2 1023 92 2000 1 0 10:25 02.12.2020
5105 Fog -13 1022 92 50 1 250 07:48 02.12.2020
5106 Fog -12 1022 92 150 1.11 102 23:42 01.12.2020
5107 Fog -12 1021 92 350 0.5 270 22:20 01.12.2020
5108 Clear -7 960 80 10000 1.62 103 19:43 01.12.2020
5109 Fog -6 1020 92 200 1 0 18:56 01.12.2020
5110 Fog -6 1020 92 300 1.5 90 17:26 01.12.2020
5111 Fog -2 1020 92 150 1.45 99 14:53 01.12.2020
5112 Fog -1 1021 92 200 1.67 101 12:48 01.12.2020
5113 Fog -1 1022 92 200 1.55 100 11:41 01.12.2020
5114 Fog -4 1022 92 250 1.48 99 10:54 01.12.2020
5115 Fog -5 1023 92 250 1 0 10:31 01.12.2020
5116 Fog -9 1023 92 200 1.5 210 07:47 01.12.2020
5117 Fog -9 1023 92 300 0.5 0 06:26 01.12.2020
5118 Fog -6 1023 92 350 1 0 01:36 01.12.2020
5119 Mist -5 1023 92 3000 1 0 00:50 01.12.2020
5120 Clear -3 1024 92 6000 2.6 290 23:20 30.11.2020
5121 Clouds -2 1024 92 8000 2.6 280 22:42 30.11.2020
5122 Clouds -2 1024 92 8000 2.6 280 22:22 30.11.2020
5123 Clouds -2 1024 92 8000 3.1 270 20:34 30.11.2020
5124 Clouds -2 1024 92 6000 2.6 260 19:41 30.11.2020
5125 Clouds -2 1024 92 8000 3.1 270 18:21 30.11.2020
5126 Clouds -2 1024 92 8000 3.1 280 17:46 30.11.2020
5127 Clouds -1 1023 100 8000 3.6 270 16:53 30.11.2020
5128 Clouds 0 1023 100 8000 4.1 270 14:53 30.11.2020
5129 Snow 0 1022 100 8000 4.6 280 13:55 30.11.2020
5130 Snow -1 1022 92 8000 4.6 280 13:22 30.11.2020
5131 Snow 0 1022 100 10000 4.1 270 12:25 30.11.2020
5132 Snow 0 1022 92 4600 4.6 280 11:46 30.11.2020
5133 Clouds 0 1022 100 2200 5.1 270 10:25 30.11.2020
5134 Clouds -1 1022 92 1000 5.1 270 08:53 30.11.2020
5135 Clouds 1 1019 86 4000 3.6 270 01:28 30.11.2020
5136 Clouds 2 1019 86 10000 3.6 270 23:28 29.11.2020
5137 Clouds 2 1019 86 8000 4.1 270 21:44 29.11.2020
5138 Clouds 2 1019 86 8000 4.1 270 21:44 29.11.2020
5139 Clouds 2 1019 86 8000 3.1 280 21:26 29.11.2020
5140 Clouds 2 1019 86 8000 3.1 280 21:26 29.11.2020
5141 Clouds 1 1018 86 8000 2.6 270 19:19 29.11.2020
5142 Clouds 2 1018 80 8000 2.6 290 17:34 29.11.2020
5143 Clouds 6 1016 65 6000 1 0 14:22 29.11.2020
5144 Clouds 7 1017 69 6000 1.5 300 12:45 29.11.2020
5145 Mist 2 1018 74 5000 2.1 290 11:36 29.11.2020
5146 Mist 1 1018 92 1700 1.5 360 08:53 29.11.2020
5147 Mist -4 1018 100 2300 1 150 08:34 29.11.2020
5148 Clouds -2 1018 86 6000 0.42 307 02:31 29.11.2020
5149 Clouds 0 1018 62 8000 2.1 70 22:59 28.11.2020
5150 Clouds 2 1018 86 6000 1.5 110 22:18 28.11.2020
5151 Clouds 0 1018 58 6000 1 0 19:58 28.11.2020
5152 Smoke -1 1018 86 4000 1 130 19:27 28.11.2020
5153 Smoke 2 1018 92 5000 0.5 0 18:56 28.11.2020
5154 Clouds 2 1017 80 8000 1.5 200 18:19 28.11.2020
5155 Clouds 5 1017 64 7000 1.5 170 16:56 28.11.2020
5156 Clear 10 1017 45 10000 1 0 14:58 28.11.2020
5157 Clear 10 1017 56 6000 1 160 13:47 28.11.2020
5158 Smoke 8 1019 69 4000 0.5 0 11:25 28.11.2020
5159 Mist -2 1020 86 5000 0.5 0 08:47 28.11.2020
5160 Mist -4 1021 92 3500 1 170 03:38 28.11.2020
5161 Mist -4 1021 92 4700 1.5 150 01:52 28.11.2020
5162 Mist -4 1021 92 4700 1.5 150 01:52 28.11.2020
5163 Mist -3 1021 92 2000 1.5 130 23:19 27.11.2020
5164 Mist -2 1021 92 4400 1 0 21:57 27.11.2020
5165 Mist -1 1021 92 5000 1.5 140 20:38 27.11.2020
5166 Mist 1 1021 86 4000 2.1 110 19:31 27.11.2020
5167 Mist 2 1021 86 3300 0.59 237 18:51 27.11.2020
5168 Clear 8 1021 49 8000 0.39 136 15:39 27.11.2020
5169 Clear 8 1021 60 6000 0.5 0 14:18 27.11.2020
5170 Mist 9 1022 100 3500 0.5 0 12:48 27.11.2020
5171 Mist 6 1023 43 1800 1.5 330 11:57 27.11.2020
5172 Fog -2 1024 100 800 1 0 10:51 27.11.2020
5173 Fog -3 1024 92 400 1 0 10:28 27.11.2020
5174 Clear 4 1020 18 10000 0.45 185 07:39 27.11.2020
5175 Clear 4 1021 31 10000 0.45 164 22:47 26.11.2020
5176 Clear 4 1021 30 10000 0.52 145 22:22 26.11.2020
5177 Fog -3 1025 100 200 1 0 21:39 26.11.2020
5178 Fog -2 1025 92 200 0.65 133 19:48 26.11.2020
5179 Fog -3 1025 100 250 2.1 310 18:34 26.11.2020
5180 Mist 1 1024 86 2300 1.5 330 16:32 26.11.2020
5181 Mist 1 1025 41 4000 1 0 13:43 26.11.2020
5182 Mist 0 1025 41 3000 1.5 100 12:49 26.11.2020
5183 Mist 0 1026 42 3000 1.5 110 12:29 26.11.2020
5184 Mist -2 1027 92 1800 1 0 10:38 26.11.2020
5185 Mist -3 1027 100 1500 0.21 311 09:59 26.11.2020
5186 Fog -3 1027 100 900 0.5 0 09:31 26.11.2020
5187 Fog -3 1027 100 500 1.5 80 08:40 26.11.2020
5188 Fog -1 1027 100 650 2.1 100 06:56 26.11.2020
5189 Fog 0 1026 100 550 0.2 92 00:46 26.11.2020
5190 Fog 1 1026 100 350 1 0 21:29 25.11.2020
5191 Fog 1 1026 100 350 0.5 0 20:19 25.11.2020
5192 Fog 1 1026 100 400 0.5 0 18:50 25.11.2020
5193 Mist 1 1026 66 1500 2.1 110 17:24 25.11.2020
5194 Mist 4 1026 86 3000 1.5 90 15:42 25.11.2020
5195 Mist 1 1026 50 2500 1.5 40 14:19 25.11.2020
5196 Mist 1 1026 50 2400 1 0 13:43 25.11.2020
5197 Mist 0 1027 51 2500 1 0 12:30 25.11.2020
5198 Mist -1 1027 100 2500 1 0 11:20 25.11.2020
5199 Fog 1 1028 100 600 0.5 0 09:20 25.11.2020
5200 Fog 0 1028 100 450 1 0 08:49 25.11.2020
5201 Mist -1 1028 92 4000 0.82 83 05:20 25.11.2020
5202 Mist -2 1028 100 4500 0.67 80 03:31 25.11.2020
5203 Mist -1 1028 92 4000 3.1 140 00:48 25.11.2020
5204 Mist -1 1029 100 4900 2.1 100 23:57 24.11.2020
5205 Mist 0 1029 92 3000 1.5 50 23:34 24.11.2020
5206 Mist 1 1028 92 4000 2.1 170 22:18 24.11.2020
5207 Mist 0 1028 92 4000 0.5 0 21:31 24.11.2020
5208 Mist 1 1028 92 3800 0.5 80 20:45 24.11.2020
5209 Mist 1 1028 92 4000 1.5 170 19:21 24.11.2020
5210 Clouds 3 1027 80 7000 2.1 270 17:31 24.11.2020
5211 Clouds 4 1027 74 8000 2.6 300 16:56 24.11.2020
5212 Clouds 4 1027 72 8000 2.6 300 16:36 24.11.2020
5213 Clear 5 1027 66 10000 1.5 320 15:55 24.11.2020
5214 Clear 6 1027 59 10000 1.5 250 15:19 24.11.2020
5215 Clear 7 1026 59 10000 3.1 250 14:43 24.11.2020
5216 Clouds 6 1027 56 8000 4.6 280 12:55 24.11.2020
5217 Clouds 6 1027 57 8000 4.6 280 12:22 24.11.2020
5218 Clouds 5 1027 57 8000 4.6 280 11:58 24.11.2020
5219 Clouds 5 1027 61 8000 6.2 280 10:47 24.11.2020
5220 Clouds 4 1027 64 8000 5.1 280 10:25 24.11.2020
5221 Clouds 5 1027 64 8000 5.7 280 09:35 24.11.2020
5222 Clouds 3 1027 80 8000 5.1 280 08:26 24.11.2020
5223 Clear 3 1024 74 10000 6.7 270 04:48 24.11.2020
5224 Mist 2 1025 70 4000 1 0 22:35 23.11.2020
5225 Mist 4 1025 86 5000 1 0 21:37 23.11.2020
5226 Clouds 4 1025 69 8000 1.5 180 20:54 23.11.2020
5227 Clouds 5 1025 68 7000 2.1 160 20:27 23.11.2020
5228 Clouds 5 1024 67 8000 1.5 100 19:24 23.11.2020
5229 Clouds 8 1024 62 8000 1.5 180 17:26 23.11.2020
5230 Clear 9 1024 61 10000 1.5 90 16:28 23.11.2020
5231 Clear 9 1024 61 10000 1.5 90 16:28 23.11.2020
5232 Clear 11 1024 53 10000 2.1 160 14:48 23.11.2020
5233 Clear 9 1025 57 10000 0.5 0 13:20 23.11.2020
5234 Clear 7 1026 47 10000 0.5 0 12:37 23.11.2020
5235 Clear 10 1027 49 10000 0.5 0 11:48 23.11.2020
5236 Clear 9 1027 53 10000 0.5 0 11:19 23.11.2020
5237 Clear 4 1028 80 6000 1 0 09:31 23.11.2020
5238 Mist 4 1028 66 5000 1.06 283 08:49 23.11.2020
5239 Mist -1 1028 92 3500 0.68 252 07:28 23.11.2020
5240 Clear 0 1030 86 7000 2.6 270 00:38 23.11.2020
5241 Clear 1 1030 92 7000 2.1 350 23:36 22.11.2020
5242 Clear 2 1030 81 10000 1.5 160 22:18 22.11.2020
5243 Clear 3 1030 74 10000 2.1 140 20:54 22.11.2020
5244 Clear 3 1030 80 10000 2.6 120 19:55 22.11.2020
5245 Clear 4 1031 80 8000 1.5 150 18:53 22.11.2020
5246 Clear 6 1030 69 10000 0.5 320 17:26 22.11.2020
5247 Clear 8 1030 52 10000 1.5 110 15:53 22.11.2020
5248 Clear 8 1030 52 10000 1.5 110 14:39 22.11.2020
5249 Clouds 7 1031 56 10000 2.1 0 12:50 22.11.2020
5250 Clouds 7 1032 57 10000 1.5 0 11:57 22.11.2020
5251 Clouds 7 1032 61 10000 1 0 11:20 22.11.2020
5252 Clouds 7 1033 61 10000 2.1 110 10:45 22.11.2020
5253 Clouds 6 1033 66 10000 2.6 90 09:32 22.11.2020
5254 Clouds 2 1031 84 10000 1.5 90 01:48 22.11.2020
5255 Clouds 3 1031 86 10000 1.5 270 23:39 21.11.2020
5256 Clouds 4 1030 84 8000 2.1 270 21:57 21.11.2020
5257 Clouds 4 1030 82 10000 1.5 240 21:24 21.11.2020
5258 Clouds 4 1030 82 10000 2.1 270 20:34 21.11.2020
5259 Clouds 3 1029 82 9000 2.6 260 19:54 21.11.2020
5260 Clouds 3 1029 81 10000 3.6 260 19:27 21.11.2020
5261 Clouds 3 1029 79 10000 4.1 260 17:57 21.11.2020
5262 Clouds 3 1029 78 10000 3.6 270 16:49 21.11.2020
5263 Clouds 3 1028 76 10000 4.1 270 15:52 21.11.2020
5264 Clouds 3 1028 73 10000 4.6 270 15:22 21.11.2020
5265 Clouds 3 1028 73 10000 5.1 270 14:43 21.11.2020
5266 Clouds 3 1028 69 10000 5.7 280 13:58 21.11.2020
5267 Clouds 4 1027 60 10000 6.7 260 12:27 21.11.2020
5268 Clouds 5 1027 80 10000 5.1 270 11:56 21.11.2020
5269 Clouds 4 1027 62 10000 1 0 10:39 21.11.2020
5270 Clouds 5 1026 70 10000 1 0 09:32 21.11.2020
5271 Clouds 5 1026 70 10000 1 150 08:51 21.11.2020
5272 Clouds 3 1024 80 10000 2.6 100 05:47 21.11.2020
5273 Clouds 2 1023 88 10000 2.1 100 04:27 21.11.2020
5274 Clouds 4 1023 83 10000 0.82 26 00:27 21.11.2020
5275 Clouds 4 1022 83 10000 2.1 170 23:25 20.11.2020
5276 Clouds 4 1022 83 10000 0.92 21 21:48 20.11.2020
5277 Clouds 4 1022 83 10000 2.6 30 21:27 20.11.2020
5278 Clouds 4 1021 83 10000 3.1 20 20:55 20.11.2020
5279 Clouds 4 1021 82 10000 2.1 10 19:43 20.11.2020
5280 Clouds 6 1020 76 10000 2.6 10 18:32 20.11.2020
5281 Clouds 6 1020 75 10000 2.6 360 17:42 20.11.2020
5282 Clouds 6 1020 75 10000 2.6 360 17:23 20.11.2020
5283 Clouds 6 1019 72 10000 2.1 280 16:37 20.11.2020
5284 Clouds 6 1019 65 10000 2.6 280 15:51 20.11.2020
5285 Clouds 8 1019 70 10000 2.1 290 14:30 20.11.2020
5286 Clouds 9 1019 52 10000 2.1 210 13:43 20.11.2020
5287 Clouds 8 1019 51 10000 1.5 0 12:59 20.11.2020
5288 Clouds 7 1019 53 10000 1 0 12:28 20.11.2020
5289 Clouds 7 1020 53 10000 1.5 160 11:36 20.11.2020
5290 Clouds 5 1020 62 10000 2.1 260 09:56 20.11.2020
5291 Clouds 2 1020 69 7000 1.5 280 08:35 20.11.2020
5292 Mist 1 1020 92 4500 2.1 250 07:52 20.11.2020
5293 Clouds 1 1019 86 10000 2.1 90 05:19 20.11.2020
5294 Clouds 5 1021 93 10000 4.6 130 00:41 20.11.2020
5295 Clouds 5 1022 86 10000 3.6 120 22:31 19.11.2020
5296 Clouds 5 1023 93 10000 3.6 120 21:54 19.11.2020
5297 Clouds 5 1023 86 10000 3.6 140 20:58 19.11.2020
5298 Clouds 6 1023 93 10000 3.6 130 20:21 19.11.2020
5299 Clouds 7 1023 86 10000 5.1 90 19:27 19.11.2020
5300 Clouds 7 1023 86 10000 5.7 90 18:54 19.11.2020
5301 Clear 7 1024 80 10000 3.1 110 17:35 19.11.2020
5302 Clear 9 1024 70 10000 5.1 110 16:33 19.11.2020
5303 Clouds 10 1024 57 10000 4.1 110 15:31 19.11.2020
5304 Clouds 11 1025 53 10000 4.6 110 13:55 19.11.2020
5305 Clouds 11 1025 53 10000 4.6 110 13:36 19.11.2020
5306 Clouds 11 1026 53 10000 5.1 100 12:54 19.11.2020
5307 Clouds 11 1026 57 10000 5.7 110 12:33 19.11.2020
5308 Clouds 10 1027 66 10000 5.1 110 11:41 19.11.2020
5309 Clouds 10 1027 66 10000 5.1 110 11:22 19.11.2020
5310 Clear 10 1028 66 10000 4.6 100 10:31 19.11.2020
5311 Clear 8 1029 75 10000 4.1 100 09:48 19.11.2020
5312 Clear 7 1029 81 10000 2.1 90 09:27 19.11.2020
5313 Mist 7 1029 93 2000 1 0 08:25 19.11.2020
5314 Fog 5 1029 100 1000 0.5 0 07:35 19.11.2020
5315 Clouds 6 1030 93 10000 1.5 40 01:47 19.11.2020
5316 Clouds 8 1030 87 10000 1.7 59 00:32 19.11.2020
5317 Clouds 7 1031 87 10000 1.7 59 23:31 18.11.2020
5318 Clouds 8 1030 87 10000 1 0 22:59 18.11.2020
5319 Clouds 9 1031 81 10000 2.6 60 22:29 18.11.2020
5320 Clouds 9 1031 81 10000 2.1 10 21:43 18.11.2020
5321 Clouds 9 1030 81 10000 1 0 21:25 18.11.2020
5322 Clouds 8 1030 87 10000 2.6 50 20:32 18.11.2020
5323 Clouds 9 1030 75 10000 2.6 330 19:39 18.11.2020
5324 Clouds 9 1030 75 10000 2.1 340 18:58 18.11.2020
5325 Clouds 9 1030 81 10000 1.5 340 18:39 18.11.2020
5326 Clouds 9 1030 81 10000 3.1 20 17:41 18.11.2020
5327 Clouds 9 1030 81 10000 2.1 330 16:26 18.11.2020
5328 Clouds 10 1030 76 10000 3.6 50 15:57 18.11.2020
5329 Clouds 10 1030 81 10000 1.5 290 14:41 18.11.2020
5330 Clouds 10 1030 81 10000 2.1 290 13:46 18.11.2020
5331 Clouds 10 1030 81 10000 2.1 290 13:46 18.11.2020
5332 Clouds 10 1030 81 10000 1.5 300 13:21 18.11.2020
5333 Clouds 10 1030 81 10000 2.1 290 12:42 18.11.2020
5334 Clouds 9 1030 87 10000 2.6 270 11:41 18.11.2020
5335 Clouds 9 1030 87 10000 2.1 280 10:54 18.11.2020
5336 Clouds 9 1030 87 10000 2.6 270 10:27 18.11.2020
5337 Clouds 8 1030 93 8000 3.6 270 08:23 18.11.2020
5338 Clouds 7 1029 93 7000 3.1 270 06:36 18.11.2020
5339 Clouds 8 1028 87 7000 4.1 280 00:58 18.11.2020
5340 Clouds 8 1028 87 7000 3.6 280 23:47 17.11.2020
5341 Clouds 9 1028 87 7000 3.1 270 22:53 17.11.2020
5342 Clouds 9 1028 81 7000 3.1 290 22:29 17.11.2020
5343 Clouds 9 1028 87 8000 3.1 270 21:52 17.11.2020
5344 Clouds 9 1027 81 8000 3.6 270 21:30 17.11.2020
5345 Clouds 9 1027 81 8000 4.1 270 20:50 17.11.2020
5346 Clouds 9 1027 81 9000 4.1 270 20:26 17.11.2020
5347 Clouds 9 1027 81 7000 2.1 280 19:54 17.11.2020
5348 Smoke 10 1026 81 5000 1.41 46 18:30 17.11.2020
5349 Clouds 10 1026 76 8000 1.5 250 17:44 17.11.2020
5350 Clouds 11 1025 76 7000 0.5 310 16:54 17.11.2020
5351 Clouds 12 1025 66 8000 1 300 16:18 17.11.2020
5352 Clouds 13 1025 62 10000 1.5 350 15:40 17.11.2020
5353 Clouds 13 1025 62 10000 1.5 350 15:22 17.11.2020
5354 Clouds 13 1024 62 10000 0.85 32 14:54 17.11.2020
5355 Clouds 13 1024 62 10000 0.75 50 14:21 17.11.2020
5356 Clear 14 1025 62 10000 0.5 0 13:34 17.11.2020
5357 Clouds 13 1025 66 8000 0.49 31 12:46 17.11.2020
5358 Clouds 12 1025 71 8000 1.5 280 11:59 17.11.2020
5359 Clouds 12 1025 71 6000 0.41 38 11:40 17.11.2020
5360 Clouds 11 1025 76 6000 0.5 0 10:39 17.11.2020
5361 Clouds 11 1025 76 6000 0.5 0 10:20 17.11.2020
5362 Clouds 10 1025 81 6000 0.37 355 09:48 17.11.2020
5363 Mist 9 1024 87 5000 0.22 336 08:54 17.11.2020
5364 Mist 8 1024 81 5000 1 280 08:20 17.11.2020
5365 Mist 7 1023 87 5000 0.26 28 07:34 17.11.2020
5366 Clouds 7 1022 87 6000 0.5 0 04:31 17.11.2020
5367 Mist 7 1022 87 5000 1 0 03:28 17.11.2020
5368 Clouds 7 1022 87 6000 0.5 0 02:29 17.11.2020
5369 Mist 7 1022 87 4500 1.5 300 00:56 17.11.2020
5370 Mist 8 1022 87 5000 1 0 23:54 16.11.2020
5371 Mist 7 1022 87 5000 1.06 112 23:32 16.11.2020
5372 Mist 8 1022 87 5000 2.1 10 22:58 16.11.2020
5373 Mist 8 1021 81 5000 0.5 0 22:24 16.11.2020
5374 Mist 8 1021 81 5000 0.5 0 21:56 16.11.2020
5375 Mist 8 1021 81 5000 1.11 113 21:37 16.11.2020
5376 Mist 8 1021 81 5000 1.18 109 21:19 16.11.2020
5377 Clouds 8 1021 81 8000 1.5 240 20:26 16.11.2020
5378 Clouds 9 1021 75 8000 1.5 0 19:51 16.11.2020
5379 Clouds 9 1021 75 7000 1 80 19:29 16.11.2020
5380 Clouds 8 1021 81 7000 2.1 130 18:50 16.11.2020
5381 Clouds 8 1020 75 10000 2.1 100 18:18 16.11.2020
5382 Clouds 9 1020 75 8000 1 80 17:27 16.11.2020
5383 Clouds 10 1020 66 8000 1.5 160 16:57 16.11.2020
5384 Clear 11 1020 66 8000 2.1 180 16:39 16.11.2020
5385 Clear 10 1020 66 8000 2.1 180 16:19 16.11.2020
5386 Clear 13 1020 54 10000 0.5 0 15:43 16.11.2020
5387 Clear 14 1020 54 10000 0.5 0 15:23 16.11.2020
5388 Clear 14 1020 54 10000 0.51 81 14:47 16.11.2020
5389 Clear 13 1020 62 10000 1 0 13:37 16.11.2020
5390 Clear 9 1021 70 10000 0.5 0 12:45 16.11.2020
5391 Clear 9 1021 70 10000 0.5 0 12:45 16.11.2020
5392 Clear 9 1021 70 10000 0.5 0 12:23 16.11.2020
5393 Clouds 6 1022 81 7000 0.5 0 11:38 16.11.2020
5394 Clouds 8 1022 81 7000 0.5 0 11:19 16.11.2020
5395 Mist 8 1023 100 2500 1.5 80 10:41 16.11.2020
5396 Mist 6 1023 100 2500 1.5 80 10:22 16.11.2020
5397 Fog 1 1023 55 300 1.5 100 09:43 16.11.2020
5398 Fog -1 1023 100 200 1.5 140 09:19 16.11.2020
5399 Fog -1 1023 92 350 1 0 08:38 16.11.2020
5400 Fog -2 1023 92 250 0.15 183 07:44 16.11.2020
5401 Fog -3 1023 100 200 1 0 06:49 16.11.2020
5402 Fog -3 1022 100 250 0.16 201 05:55 16.11.2020
5403 Fog -2 1023 100 300 0.17 172 04:37 16.11.2020
5404 Mist 3 1023 79 4000 0.61 135 01:57 16.11.2020
5405 Mist 3 1023 100 5000 2.1 330 01:39 16.11.2020
5406 Clear 4 1023 77 7000 0.38 135 23:53 15.11.2020
5407 Clear 5 1023 86 6000 1.5 10 23:22 15.11.2020
5408 Clear 3 1023 93 6000 1 0 22:45 15.11.2020
5409 Clear 2 1023 93 6000 1.5 170 22:20 15.11.2020
5410 Clear 3 1023 86 6000 2.1 130 21:43 15.11.2020
5411 Clear 3 1023 86 6000 2.1 130 21:24 15.11.2020
5412 Clear 4 1023 86 6000 1 150 20:41 15.11.2020
5413 Clear 4 1023 86 6000 1 150 20:18 15.11.2020
5414 Clear 4 1023 86 7000 2.1 170 19:48 15.11.2020
5415 Clear 4 1023 86 7000 2.6 140 19:22 15.11.2020
5416 Clear 4 1023 86 7000 2.1 120 18:56 15.11.2020
5417 Clear 5 1023 86 8000 1.5 100 18:38 15.11.2020
5418 Clear 5 1023 86 8000 1.5 100 18:19 15.11.2020
5419 Clear 8 1023 70 8000 1.5 160 17:44 15.11.2020
5420 Clear 8 1023 70 8000 1.5 160 17:23 15.11.2020
5421 Clear 9 1022 66 9000 3.1 160 16:45 15.11.2020
5422 Clear 12 1022 58 10000 2.1 160 16:20 15.11.2020
5423 Clear 13 1022 54 10000 0.5 0 15:50 15.11.2020
5424 Clear 13 1022 54 10000 2.6 290 15:26 15.11.2020
5425 Clear 13 1022 54 10000 2.6 290 14:56 15.11.2020
5426 Clear 14 1022 50 10000 1.5 0 14:30 15.11.2020
5427 Clear 13 1023 54 10000 1.22 291 13:56 15.11.2020
5428 Clear 11 1023 57 10000 1 0 13:36 15.11.2020
5429 Clear 9 1024 66 10000 1 0 12:50 15.11.2020
5430 Clear 9 1024 66 10000 1 0 12:22 15.11.2020
5431 Clear 10 1024 70 10000 0.5 0 11:46 15.11.2020
5432 Clouds 9 1024 81 8000 1 0 11:19 15.11.2020
5433 Clouds 5 1025 86 7000 1.5 100 10:53 15.11.2020
5434 Mist 3 1025 93 4000 1.5 90 10:32 15.11.2020
5435 Mist 2 1025 93 1400 1 0 09:57 15.11.2020
5436 Fog 1 1025 57 250 0.5 0 09:37 15.11.2020
5437 Fog 1 1025 63 250 0.5 0 09:18 15.11.2020
5438 Fog 4 1025 63 300 0.81 294 08:45 15.11.2020
5439 Fog -2 1025 100 250 0.5 295 07:47 15.11.2020
5440 Fog -2 1025 92 200 1 0 06:49 15.11.2020
5441 Fog -2 1024 100 600 0.44 289 04:56 15.11.2020
5442 Fog -2 1025 100 400 1.5 110 02:27 15.11.2020
5443 Mist 1 1026 78 3000 0.54 275 00:37 15.11.2020
5444 Mist 1 1026 78 3000 0.48 278 00:18 15.11.2020
5445 Mist 2 1026 93 5000 1.5 170 23:27 14.11.2020
5446 Clear 2 1025 93 6000 2.1 170 22:45 14.11.2020
5447 Clear 2 1025 93 6000 2.1 150 22:26 14.11.2020
5448 Mist 5 1025 93 5000 1.5 120 21:39 14.11.2020
5449 Mist 5 1025 93 5000 1.5 120 21:21 14.11.2020
5450 Mist 5 1025 93 5000 1.5 120 21:21 14.11.2020
5451 Mist 4 1025 86 5000 2.1 150 20:48 14.11.2020
5452 Clear 4 1025 86 6000 2.6 150 20:25 14.11.2020
5453 Clear 6 1025 80 7000 1 130 19:39 14.11.2020
5454 Clear 6 1025 80 7000 1 130 19:20 14.11.2020
5455 Clear 6 1025 86 8000 1 0 18:42 14.11.2020
5456 Clear 7 1024 75 8000 1.5 190 18:22 14.11.2020
5457 Clear 8 1024 75 8000 1.5 180 17:46 14.11.2020
5458 Clear 8 1024 75 8000 1.5 180 17:28 14.11.2020
5459 Clear 10 1024 66 8000 1 320 16:52 14.11.2020
5460 Clear 10 1024 66 10000 1.5 280 16:34 14.11.2020
5461 Clear 11 1024 62 10000 3.1 270 15:56 14.11.2020
5462 Clear 12 1024 54 10000 2.1 280 15:33 14.11.2020
5463 Clear 12 1024 54 10000 2.1 280 14:57 14.11.2020
5464 Clouds 12 1024 58 10000 2.6 250 14:30 14.11.2020
5465 Clouds 12 1025 58 10000 2.1 260 13:55 14.11.2020
5466 Clouds 12 1025 58 10000 3.1 270 13:37 14.11.2020
5467 Clouds 12 1025 58 10000 3.1 270 13:19 14.11.2020
5468 Clouds 11 1025 62 10000 1.5 260 12:39 14.11.2020
5469 Clouds 11 1025 62 10000 1.5 260 12:18 14.11.2020
5470 Clouds 10 1026 71 8000 2.1 300 11:39 14.11.2020
5471 Clouds 9 1026 81 8000 1 0 11:18 14.11.2020
5472 Clouds 9 1026 76 6000 0.5 0 10:40 14.11.2020
5473 Clouds 9 1026 76 6000 0.5 0 10:22 14.11.2020
5474 Clouds 7 1026 87 6000 0.5 0 09:45 14.11.2020
5475 Mist 6 1026 87 4700 1.44 296 09:27 14.11.2020
5476 Mist 5 1026 93 3700 1 150 08:42 14.11.2020
5477 Mist 5 1026 93 3700 1 150 08:22 14.11.2020
5478 Mist 4 1026 93 1700 1.5 100 07:42 14.11.2020
5479 Mist 4 1026 93 1700 1.5 100 07:42 14.11.2020
5480 Mist 4 1026 93 2500 1 0 06:58 14.11.2020
5481 Mist 4 1026 93 4000 1 210 06:21 14.11.2020
5482 Mist 3 1026 100 5000 2.1 340 05:18 14.11.2020
5483 Mist 4 1026 93 4100 0.43 294 01:59 14.11.2020
5484 Mist 4 1026 93 2600 0.5 80 00:25 14.11.2020
5485 Mist 4 1026 93 2500 0.7 282 23:35 13.11.2020
5486 Mist 4 1026 100 2700 1.5 180 22:58 13.11.2020
5487 Mist 4 1026 93 2500 0.45 272 22:40 13.11.2020
5488 Mist 4 1026 93 2500 0.2 329 22:21 13.11.2020
5489 Mist 3 1026 100 1900 2.1 340 21:49 13.11.2020
5490 Mist 3 1026 93 2300 1.5 140 21:26 13.11.2020
5491 Smoke 3 1026 93 1400 0.5 0 20:51 13.11.2020
5492 Smoke 3 1026 93 3000 0.32 7 20:32 13.11.2020
5493 Mist 4 1026 93 5000 0.23 68 19:55 13.11.2020
5494 Clouds 4 1026 100 6000 0.23 68 19:36 13.11.2020
5495 Clouds 4 1026 100 6000 0.23 68 19:36 13.11.2020
5496 Clouds 4 1026 100 6000 0.6 54 19:18 13.11.2020
5497 Clouds 5 1026 86 6000 1 0 18:32 13.11.2020
5498 Clouds 5 1025 93 7000 1.5 150 17:47 13.11.2020
5499 Clouds 7 1025 81 8000 1 0 17:21 13.11.2020
5500 Clouds 7 1025 81 8000 1.5 130 16:57 13.11.2020
5501 Clouds 7 1025 87 7000 2.1 90 16:38 13.11.2020
5502 Clouds 8 1025 81 8000 1.5 100 16:18 13.11.2020
5503 Clouds 8 1025 75 8000 1 0 15:39 13.11.2020
5504 Clouds 8 1025 75 8000 1 0 15:21 13.11.2020
5505 Clouds 8 1025 75 6000 0.78 12 14:37 13.11.2020
5506 Clouds 8 1025 75 6000 0.32 347 14:18 13.11.2020
5507 Clouds 7 1025 81 7000 0.32 347 13:32 13.11.2020
5508 Clouds 7 1026 81 6000 1 0 12:55 13.11.2020
5509 Clouds 6 1026 87 6000 2.1 240 12:37 13.11.2020
5510 Clouds 6 1026 87 7000 1 0 12:18 13.11.2020
5511 Clouds 6 1026 87 7000 1 0 11:45 13.11.2020
5512 Clouds 5 1026 86 7000 1 0 11:20 13.11.2020
5513 Clouds 4 1026 86 6000 0.23 352 10:42 13.11.2020
5514 Clouds 4 1026 86 6000 0.17 62 10:23 13.11.2020
5515 Clouds 3 1026 93 6000 1 0 09:47 13.11.2020
5516 Mist 3 1026 93 5000 1 0 09:27 13.11.2020
5517 Mist 3 1026 93 5000 1 0 09:27 13.11.2020
5518 Mist 3 1026 93 5000 1 0 09:27 13.11.2020
5519 Mist 2 1026 100 2800 1.5 100 08:53 13.11.2020
5520 Mist 2 1027 93 2000 1.5 110 08:23 13.11.2020
5521 Mist 1 1027 100 1200 1 0 07:49 13.11.2020
5522 Mist 0 1026 81 1200 0.34 67 07:27 13.11.2020
5523 Fog 0 1026 81 900 1 90 06:55 13.11.2020
5524 Fog 0 1026 80 800 2.1 130 06:34 13.11.2020
5525 Fog 0 1026 80 800 2.1 130 06:34 13.11.2020
5526 Fog -1 1026 92 500 2.1 110 05:40 13.11.2020
5527 Mist 1 1026 81 4500 1.5 340 02:57 13.11.2020
5528 Mist 2 1026 93 5000 1 280 01:39 13.11.2020
5529 Clouds 2 1026 93 6000 1 0 00:35 13.11.2020
5530 Clouds 3 1026 93 6000 1 0 23:47 12.11.2020
5531 Clouds 3 1026 93 8000 0.5 0 23:21 12.11.2020
5532 Clouds 3 1026 93 9000 1 0 22:54 12.11.2020
5533 Clear 3 1026 93 10000 2.1 150 22:36 12.11.2020
5534 Clear 4 1026 86 10000 2.6 130 21:57 12.11.2020
5535 Clear 4 1026 86 10000 3.6 150 21:38 12.11.2020
5536 Clear 4 1026 86 10000 3.6 150 21:18 12.11.2020
5537 Clear 5 1026 80 10000 3.6 130 20:40 12.11.2020
5538 Clear 5 1026 80 10000 3.6 130 20:21 12.11.2020
5539 Clouds 5 1026 86 10000 3.6 120 19:50 12.11.2020
5540 Clouds 5 1026 86 10000 3.1 130 19:32 12.11.2020
5541 Clouds 5 1026 80 10000 2.1 120 18:52 12.11.2020
5542 Clouds 5 1026 86 10000 2.6 110 18:25 12.11.2020
5543 Clear 6 1025 81 10000 3.1 110 17:59 12.11.2020
5544 Clear 7 1025 75 10000 3.6 120 17:38 12.11.2020
5545 Clear 7 1025 75 10000 3.6 120 17:20 12.11.2020
5546 Clear 10 1025 66 10000 4.1 120 16:44 12.11.2020
5547 Clear 10 1025 66 10000 4.1 120 16:22 12.11.2020
5548 Clear 12 1025 58 10000 4.6 100 15:42 12.11.2020
5549 Clear 12 1025 58 10000 4.6 100 15:23 12.11.2020
5550 Clear 12 1025 58 10000 4.1 110 14:47 12.11.2020
5551 Clear 12 1025 58 10000 4.1 100 14:27 12.11.2020
5552 Clear 12 1025 58 10000 3.1 100 13:57 12.11.2020
5553 Clear 12 1026 54 10000 3.1 110 13:37 12.11.2020
5554 Clear 12 1026 54 10000 2.6 120 13:18 12.11.2020
5555 Clouds 12 1026 54 10000 3.1 100 12:43 12.11.2020
5556 Clouds 12 1026 54 10000 3.1 100 12:21 12.11.2020
5557 Clouds 11 1026 62 10000 3.6 110 11:50 12.11.2020
5558 Clouds 11 1027 62 10000 3.6 120 11:29 12.11.2020
5559 Clouds 10 1027 66 10000 3.1 120 10:44 12.11.2020
5560 Clouds 9 1027 70 10000 3.1 130 10:25 12.11.2020
5561 Clouds 9 1027 70 10000 1 0 09:48 12.11.2020
5562 Clouds 8 1028 81 10000 0.5 0 09:23 12.11.2020
5563 Clear 6 1028 81 10000 1.7 107 08:57 12.11.2020
5564 Clear 6 1028 81 10000 1.7 107 08:57 12.11.2020
5565 Clouds 4 1028 93 8000 1 310 08:39 12.11.2020
5566 Clouds 3 1028 93 8000 1 0 08:19 12.11.2020
5567 Clouds 3 1028 93 8000 1 0 07:48 12.11.2020
5568 Clouds 3 1028 93 6000 1.5 340 07:22 12.11.2020
5569 Clouds 2 1028 93 7000 1 0 06:49 12.11.2020
5570 Clouds 2 1028 93 7000 1 0 06:49 12.11.2020
5571 Clouds 3 1028 86 10000 1.46 97 05:31 12.11.2020
5572 Clouds 6 1028 81 10000 3.1 120 03:22 12.11.2020
5573 Clouds 6 1028 87 10000 3.6 110 02:24 12.11.2020
5574 Clouds 4 1029 93 10000 3.1 90 23:59 11.11.2020
5575 Clouds 4 1029 86 10000 3.1 110 23:25 11.11.2020
5576 Clear 4 1028 86 10000 3.1 120 22:58 11.11.2020
5577 Clear 3 1029 93 10000 2.6 130 22:39 11.11.2020
5578 Clear 3 1029 93 10000 2.6 130 22:20 11.11.2020
5579 Clear 4 1029 86 10000 3.6 120 21:43 11.11.2020
5580 Clear 4 1029 86 10000 3.6 120 21:25 11.11.2020
5581 Clear 5 1029 86 10000 4.6 120 20:58 11.11.2020
5582 Clear 6 1028 81 10000 4.6 120 20:40 11.11.2020
5583 Clear 6 1028 81 10000 4.6 120 20:21 11.11.2020
5584 Clear 7 1028 81 10000 4.6 130 19:49 11.11.2020
5585 Clouds 8 1028 75 10000 5.1 120 19:31 11.11.2020
5586 Clouds 8 1028 75 10000 6.2 110 18:53 11.11.2020
5587 Clouds 9 1028 70 10000 4.6 120 18:33 11.11.2020
5588 Clouds 9 1028 70 10000 3.6 130 17:42 11.11.2020
5589 Clouds 9 1028 70 10000 3.6 130 17:23 11.11.2020
5590 Clouds 9 1028 66 10000 4.1 120 16:54 11.11.2020
5591 Clouds 9 1028 66 10000 4.1 110 16:33 11.11.2020
5592 Clouds 9 1028 70 10000 4.1 120 15:52 11.11.2020
5593 Clouds 9 1028 70 10000 3.1 120 15:27 11.11.2020
5594 Clouds 10 1028 71 10000 3.6 140 14:56 11.11.2020
5595 Clouds 10 1028 66 10000 4.1 140 14:37 11.11.2020
5596 Clouds 10 1028 71 10000 3.6 120 13:57 11.11.2020
5597 Clouds 10 1028 71 10000 3.6 120 13:57 11.11.2020
5598 Clouds 10 1028 66 10000 4.1 140 13:35 11.11.2020
5599 Clouds 10 1028 66 10000 4.6 140 12:50 11.11.2020
5600 Clouds 10 1029 71 10000 4.6 110 12:21 11.11.2020
5601 Clouds 10 1029 71 10000 4.1 110 11:50 11.11.2020
5602 Clouds 10 1029 71 10000 4.6 110 11:30 11.11.2020
5603 Clouds 10 1029 71 10000 4.6 110 11:30 11.11.2020
5604 Clouds 10 1029 71 10000 4.6 110 11:30 11.11.2020
5605 Clouds 9 1029 76 10000 4.1 110 10:43 11.11.2020
5606 Clouds 9 1029 76 10000 4.1 110 10:24 11.11.2020
5607 Clouds 9 1029 76 10000 3.1 120 09:49 11.11.2020
5608 Clouds 9 1029 76 10000 4.1 100 09:28 11.11.2020
5609 Clouds 8 1029 81 10000 2.1 80 08:49 11.11.2020
5610 Clouds 8 1029 81 10000 2.23 73 08:29 11.11.2020
5611 Clouds 7 1029 87 10000 2.23 73 07:54 11.11.2020
5612 Clouds 7 1029 87 10000 0.5 0 07:36 11.11.2020
5613 Clouds 7 1029 81 10000 1.88 72 06:29 11.11.2020
5614 Clouds 7 1029 81 10000 1.76 69 04:47 11.11.2020
5615 Clouds 7 1029 81 10000 2.1 280 01:33 11.11.2020
5616 Clouds 8 1029 81 10000 1 0 00:42 11.11.2020
5617 Clouds 8 1029 81 10000 1 0 23:56 10.11.2020
5618 Clouds 8 1029 81 10000 2.06 61 23:24 10.11.2020
5619 Clouds 8 1029 81 10000 1 0 22:57 10.11.2020
5620 Clouds 8 1029 81 10000 1.5 70 22:28 10.11.2020
5621 Clouds 8 1029 81 10000 0.5 0 21:56 10.11.2020
5622 Clouds 8 1029 81 10000 1 0 21:38 10.11.2020
5623 Clouds 8 1029 81 10000 2.1 110 21:18 10.11.2020
5624 Clouds 8 1029 81 10000 2.6 120 20:42 10.11.2020
5625 Clouds 8 1029 81 10000 2.6 120 20:23 10.11.2020
5626 Clouds 8 1028 75 10000 2.1 110 19:53 10.11.2020
5627 Clouds 8 1028 75 10000 1 0 19:35 10.11.2020
5628 Clouds 8 1028 75 10000 1 0 18:59 10.11.2020
5629 Clouds 8 1028 75 10000 1.5 230 18:41 10.11.2020
5630 Clouds 8 1028 75 10000 2.1 270 18:20 10.11.2020
5631 Clouds 8 1028 81 10000 2.1 250 17:44 10.11.2020
5632 Clouds 8 1028 81 10000 2.1 250 17:26 10.11.2020
5633 Clouds 9 1027 70 10000 1.5 350 16:57 10.11.2020
5634 Clouds 9 1027 70 10000 3.1 20 16:37 10.11.2020
5635 Clouds 9 1027 70 10000 3.1 20 16:19 10.11.2020
5636 Clouds 10 1027 66 10000 2.6 30 15:45 10.11.2020
5637 Clouds 10 1027 66 10000 4.1 40 15:23 10.11.2020
5638 Clouds 12 1027 62 10000 3.1 40 14:42 10.11.2020
5639 Clouds 12 1027 62 10000 3.1 40 14:22 10.11.2020
5640 Clouds 12 1027 62 10000 3.1 100 13:57 10.11.2020
5641 Clouds 12 1027 62 10000 4.6 100 13:36 10.11.2020
5642 Clouds 12 1027 62 10000 4.1 110 13:18 10.11.2020
5643 Clouds 12 1027 62 10000 4.1 110 12:44 10.11.2020
5644 Clouds 12 1027 62 10000 3.6 110 12:23 10.11.2020
5645 Clouds 11 1028 66 10000 3.1 80 11:39 10.11.2020
5646 Clouds 11 1028 66 10000 3.1 80 11:20 10.11.2020
5647 Clouds 11 1028 66 10000 3.1 80 10:44 10.11.2020
5648 Clouds 10 1028 71 10000 3.1 80 10:26 10.11.2020
5649 Clouds 9 1028 76 10000 1 0 09:51 10.11.2020
5650 Clouds 8 1028 81 10000 1 0 09:27 10.11.2020
5651 Clouds 7 1028 81 10000 2.1 260 08:59 10.11.2020
5652 Clouds 7 1028 81 10000 1.5 260 08:38 10.11.2020
5653 Clouds 6 1027 87 10000 1.5 280 08:19 10.11.2020
5654 Clouds 6 1027 87 9000 1 0 07:38 10.11.2020
5655 Clouds 6 1027 87 9000 1 0 07:18 10.11.2020
5656 Clouds 6 1027 93 8000 0.5 0 06:38 10.11.2020
5657 Clouds 6 1027 93 8000 1.5 250 05:29 10.11.2020
5658 Clouds 6 1026 87 6000 1.8 72 03:36 10.11.2020
5659 Mist 5 1026 93 5000 2.1 260 01:41 10.11.2020
5660 Mist 4 1026 100 4700 1.5 260 00:50 10.11.2020
5661 Mist 4 1026 93 5000 1.5 170 23:46 09.11.2020
5662 Clear 4 1026 93 6000 2.1 160 22:59 09.11.2020
5663 Clear 4 1026 93 6000 3.1 120 22:41 09.11.2020
5664 Clear 4 1026 93 6000 3.1 120 22:20 09.11.2020
5665 Clear 6 1026 87 7000 2.6 140 21:43 09.11.2020
5666 Clear 6 1026 87 7000 2.6 140 21:25 09.11.2020
5667 Clear 6 1026 87 7000 2.6 140 21:25 09.11.2020
5668 Clear 7 1026 87 8000 4.6 100 20:42 09.11.2020
5669 Clear 7 1026 87 8000 4.6 100 20:22 09.11.2020
5670 Clear 7 1026 87 8000 4.6 90 19:48 09.11.2020
5671 Clear 8 1025 81 8000 5.1 110 19:23 09.11.2020
5672 Clear 8 1025 81 10000 5.7 90 18:57 09.11.2020
5673 Clear 8 1025 81 10000 5.1 100 18:38 09.11.2020
5674 Clear 8 1025 81 10000 5.1 100 18:18 09.11.2020
5675 Clear 8 1024 87 8000 1 0 17:43 09.11.2020
5676 Clear 8 1024 87 8000 1 0 17:25 09.11.2020
5677 Clear 11 1024 71 10000 2.21 69 16:44 09.11.2020
5678 Clear 12 1024 66 10000 2.73 62 16:20 09.11.2020
5679 Clear 12 1024 66 10000 2.73 62 15:44 09.11.2020
5680 Clear 13 1024 62 10000 2.58 64 15:25 09.11.2020
5681 Clear 13 1024 62 10000 2.58 64 14:46 09.11.2020
5682 Clear 11 1024 71 10000 1 0 14:28 09.11.2020
5683 Clear 10 1024 76 8000 1.5 290 13:52 09.11.2020
5684 Clear 10 1024 71 7000 1 0 13:24 09.11.2020
5685 Clear 8 1025 81 6000 1 0 12:57 09.11.2020
5686 Mist 6 1025 100 2400 1.5 290 12:37 09.11.2020
5687 Mist 6 1025 100 2400 1.5 290 12:19 09.11.2020
5688 Mist 4 1026 100 1700 0.5 0 11:41 09.11.2020
5689 Mist 4 1026 100 1700 0.5 0 11:22 09.11.2020
5690 Fog 4 1026 93 600 1 0 10:43 09.11.2020
5691 Fog 4 1026 93 600 1 0 10:25 09.11.2020
5692 Fog 3 1026 100 350 0.5 0 09:52 09.11.2020
5693 Fog 3 1026 100 250 0.86 81 09:28 09.11.2020
5694 Fog 2 1026 100 200 0.86 81 08:45 09.11.2020
5695 Fog 2 1026 100 200 0.5 0 08:26 09.11.2020
5696 Fog 1 1026 100 200 1 0 07:43 09.11.2020
5697 Fog 1 1026 100 200 1 0 07:21 09.11.2020
5698 Fog 1 1025 100 200 0.5 0 06:48 09.11.2020
5699 Fog 1 1025 74 250 0.56 80 03:49 09.11.2020
5700 Clouds 2 1025 100 6000 0.75 89 01:55 09.11.2020
5701 Clouds 1 1025 100 6000 0.75 89 01:37 09.11.2020
5702 Clear 3 1025 100 8000 0.86 83 23:55 08.11.2020
5703 Clear 4 1025 93 10000 1.5 140 23:37 08.11.2020
5704 Clear 4 1025 93 10000 1.5 140 23:18 08.11.2020
5705 Clear 5 1026 86 10000 2.1 200 22:41 08.11.2020
5706 Clear 5 1026 86 10000 2.1 200 22:20 08.11.2020
5707 Clear 6 1026 87 10000 3.1 120 21:42 08.11.2020
5708 Clear 6 1026 87 10000 3.1 120 21:20 08.11.2020
5709 Clear 7 1026 81 10000 3.6 120 20:55 08.11.2020
5710 Clear 6 1025 87 10000 3.6 120 20:36 08.11.2020
5711 Clear 6 1025 87 10000 3.6 120 20:18 08.11.2020
5712 Clear 7 1025 81 10000 4.1 110 19:42 08.11.2020
5713 Clear 7 1025 81 10000 4.1 110 19:21 08.11.2020
5714 Clear 8 1025 81 10000 3.6 110 18:48 08.11.2020
5715 Clear 8 1025 81 10000 3.6 110 18:48 08.11.2020
5716 Clear 7 1025 81 10000 3.6 90 18:22 08.11.2020
5717 Clear 8 1025 75 10000 3.1 90 17:58 08.11.2020
5718 Clear 8 1025 75 10000 3.1 90 17:58 08.11.2020
5719 Clear 11 1025 66 10000 1.5 70 17:38 08.11.2020
5720 Clear 11 1025 66 10000 1.5 70 17:19 08.11.2020
5721 Clear 11 1025 66 8000 1.65 92 16:48 08.11.2020
5722 Clear 13 1025 54 10000 1.42 93 16:22 08.11.2020
5723 Clear 14 1025 54 10000 0.5 230 15:58 08.11.2020
5724 Clear 14 1025 50 10000 0.5 0 15:40 08.11.2020
5725 Clear 14 1025 50 10000 0.5 0 15:21 08.11.2020
5726 Clear 15 1025 47 10000 1.52 97 14:41 08.11.2020
5727 Clear 15 1025 47 10000 1.7 90 14:21 08.11.2020
5728 Clear 14 1025 54 10000 1.7 90 13:46 08.11.2020
5729 Clear 14 1026 54 10000 1.5 150 13:22 08.11.2020
5730 Clear 12 1027 58 10000 1.5 90 12:43 08.11.2020
5731 Clear 12 1027 58 10000 1.5 90 12:25 08.11.2020
5732 Clear 11 1027 62 10000 2.6 90 11:58 08.11.2020
5733 Clear 10 1028 71 10000 2.6 80 11:39 08.11.2020
5734 Clear 10 1028 71 10000 2.6 80 11:20 08.11.2020
5735 Clear 10 1028 66 10000 2.6 110 11:20 08.11.2020
5736 Clear 10 1028 66 10000 2.6 110 10:49 08.11.2020
5737 Clear 9 1029 76 10000 2.6 100 10:18 08.11.2020
5738 Clouds 9 1029 70 10000 4.1 90 09:44 08.11.2020
5739 Clouds 8 1029 75 10000 4.6 100 09:24 08.11.2020
5740 Clouds 8 1029 75 10000 4.1 90 08:56 08.11.2020
5741 Clouds 8 1029 81 10000 4.1 90 08:37 08.11.2020
5742 Clouds 8 1029 81 10000 4.1 90 08:18 08.11.2020
5743 Clouds 7 1029 81 8000 4.1 90 07:46 08.11.2020
5744 Clouds 6 1030 87 8000 4.1 100 07:19 08.11.2020
5745 Clouds 7 1030 87 10000 3.6 100 05:55 08.11.2020
5746 Clouds 6 1030 93 10000 1.5 160 05:29 08.11.2020
5747 Clouds 4 1030 93 6000 1.22 96 03:56 08.11.2020
5748 Mist 3 1030 93 4000 1 0 01:50 08.11.2020
5749 Mist 3 1031 93 5000 1.27 92 01:18 08.11.2020
5750 Clouds 4 1031 100 8000 1.22 82 00:26 08.11.2020
5751 Clouds 4 1031 100 8000 1.5 40 23:46 07.11.2020
5752 Clouds 4 1031 100 6000 1 50 23:28 07.11.2020
5753 Clouds 4 1031 93 8000 1.5 120 22:42 07.11.2020
5754 Clouds 4 1031 93 8000 2.6 120 22:24 07.11.2020
5755 Clouds 4 1031 93 8000 1.5 120 22:24 07.11.2020
5756 Clouds 4 1031 93 8000 2.6 120 21:45 07.11.2020
5757 Clouds 5 1031 93 8000 2.1 110 21:22 07.11.2020
5758 Clouds 5 1031 93 7000 1.5 100 20:50 07.11.2020
5759 Clouds 6 1031 87 7000 1.5 130 20:32 07.11.2020
5760 Clouds 5 1031 93 7000 3.1 140 19:59 07.11.2020
5761 Clouds 5 1031 93 7000 2.1 120 19:39 07.11.2020
5762 Clouds 5 1031 93 7000 2.1 120 19:19 07.11.2020
5763 Clear 9 1031 76 10000 1.43 67 18:38 07.11.2020
5764 Clear 9 1031 76 10000 1.55 61 18:20 07.11.2020
5765 Clear 9 1030 81 10000 2.1 330 17:43 07.11.2020
5766 Clear 9 1030 81 10000 2.1 330 17:43 07.11.2020
5767 Clear 9 1030 81 10000 2.1 330 17:23 07.11.2020
5768 Clear 12 1030 66 10000 1.99 64 16:42 07.11.2020
5769 Clear 12 1030 66 10000 2.25 66 16:23 07.11.2020
5770 Clear 13 1031 62 10000 2.25 66 15:45 07.11.2020
5771 Clear 13 1031 62 10000 2.24 65 15:23 07.11.2020
5772 Clear 13 1031 62 10000 1.5 220 14:55 07.11.2020
5773 Clear 13 1031 62 10000 2.1 230 14:37 07.11.2020
5774 Clear 13 1031 62 10000 2.1 0 14:18 07.11.2020
5775 Clear 12 1031 66 10000 1.5 0 13:39 07.11.2020
5776 Clear 12 1031 66 10000 1.5 0 13:20 07.11.2020
5777 Clouds 11 1032 66 10000 2.6 260 12:32 07.11.2020
5778 Clouds 11 1032 66 10000 3.1 260 11:45 07.11.2020
5779 Clouds 10 1032 76 10000 4.1 260 11:24 07.11.2020
5780 Clouds 10 1033 76 10000 4.1 270 10:56 07.11.2020
5781 Clouds 9 1033 76 10000 4.1 270 10:37 07.11.2020
5782 Clouds 9 1033 76 10000 4.1 270 10:18 07.11.2020
5783 Clouds 8 1033 81 10000 4.1 270 09:42 07.11.2020
5784 Clouds 8 1033 81 10000 4.1 270 09:19 07.11.2020
5785 Clouds 8 1032 81 10000 4.6 270 08:42 07.11.2020
5786 Clouds 8 1032 81 10000 4.6 270 08:22 07.11.2020
5787 Clouds 8 1032 81 10000 4.6 270 07:37 07.11.2020
5788 Clouds 8 1031 81 10000 3.6 280 06:48 07.11.2020
5789 Clouds 8 1031 87 8000 2.6 280 05:38 07.11.2020
5790 Mist 5 1031 100 5000 1 100 03:25 07.11.2020
5791 Mist 6 1031 93 5000 1 90 01:45 07.11.2020
5792 Mist 5 1031 100 5000 1 0 01:25 07.11.2020
5793 Clouds 8 1031 87 8000 1 0 00:28 07.11.2020
5794 Clouds 6 1031 100 7000 0.5 0 23:30 06.11.2020
5795 Clouds 6 1031 93 7000 1.18 299 22:45 06.11.2020
5796 Clouds 7 1031 87 8000 1.29 297 22:20 06.11.2020
5797 Clear 7 1031 93 10000 3.1 280 21:58 06.11.2020
5798 Clear 6 1031 93 10000 3.1 270 21:40 06.11.2020
5799 Clear 6 1031 93 10000 3.1 270 21:18 06.11.2020
5800 Clouds 8 1031 87 10000 4.1 260 20:43 06.11.2020
5801 Clouds 8 1031 87 10000 4.1 260 20:19 06.11.2020
5802 Clouds 8 1030 87 10000 2.6 280 19:45 06.11.2020
5803 Clear 7 1030 93 10000 3.1 280 19:26 06.11.2020
5804 Clear 7 1030 87 10000 3.6 270 18:47 06.11.2020
5805 Clear 9 1030 81 10000 2.6 230 18:28 06.11.2020
5806 Clear 10 1030 66 10000 2.6 180 17:52 06.11.2020
5807 Clear 9 1030 76 10000 2.1 140 17:34 06.11.2020
5808 Clouds 11 1030 66 10000 2.6 40 16:59 06.11.2020
5809 Clouds 13 1030 58 10000 2.1 50 16:33 06.11.2020
5810 Clear 14 1029 50 10000 1 0 15:55 06.11.2020
5811 Clear 14 1030 50 10000 2.1 280 15:33 06.11.2020
5812 Clear 14 1029 50 10000 1.5 320 14:54 06.11.2020
5813 Clear 14 1029 50 10000 2.1 280 14:29 06.11.2020
5814 Clear 13 1030 54 10000 2.1 0 13:54 06.11.2020
5815 Clear 13 1030 54 10000 2.1 250 13:26 06.11.2020
5816 Clear 13 1030 54 10000 2.1 250 12:56 06.11.2020
5817 Clear 12 1030 58 10000 2.1 220 12:38 06.11.2020
5818 Clear 12 1030 58 10000 2.1 220 12:38 06.11.2020
5819 Clear 12 1031 58 10000 1.06 348 12:18 06.11.2020
5820 Clear 11 1031 62 10000 1 0 11:37 06.11.2020
5821 Clear 11 1031 66 10000 1 0 10:58 06.11.2020
5822 Clouds 9 1031 81 10000 1.5 0 10:34 06.11.2020
5823 Clouds 8 1032 81 8000 1.5 340 09:55 06.11.2020
5824 Mist 6 1032 87 5000 2.6 320 09:36 06.11.2020
5825 Mist 5 1031 93 9000 2.6 320 09:18 06.11.2020
5826 Mist 5 1031 93 9000 2.6 320 08:46 06.11.2020
5827 Mist 5 1032 100 10000 2.6 310 08:19 06.11.2020
5828 Mist 3 1031 100 9000 2.6 310 07:42 06.11.2020
5829 Mist 3 1031 100 9000 2.6 310 07:18 06.11.2020
5830 Clear 2 1030 93 10000 0.82 355 06:40 06.11.2020
5831 Clear 2 1030 100 10000 0.5 0 05:37 06.11.2020
5832 Clear 4 1030 86 10000 2.1 310 01:59 06.11.2020
5833 Clear 5 1030 86 10000 2.1 280 00:29 06.11.2020
5834 Clear 5 1030 86 10000 1.5 280 23:50 05.11.2020
5835 Clear 5 1030 86 10000 2.1 260 23:20 05.11.2020
5836 Clouds 5 1030 93 8000 0.97 42 22:44 05.11.2020
5837 Clouds 5 1030 93 8000 2.1 240 22:25 05.11.2020
5838 Clouds 6 1030 93 8000 2.1 220 21:56 05.11.2020
5839 Clouds 7 1030 81 8000 1.5 220 21:38 05.11.2020
5840 Clouds 6 1029 87 6000 1.5 210 21:18 05.11.2020
5841 Clouds 6 1029 93 8000 1 270 20:42 05.11.2020
5842 Clouds 6 1029 93 8000 1 270 20:21 05.11.2020
5843 Clouds 7 1029 81 8000 1 0 19:44 05.11.2020
5844 Clear 7 1029 87 10000 1.5 280 19:25 05.11.2020
5845 Clear 8 1029 75 10000 1 0 18:55 05.11.2020
5846 Clear 8 1029 75 10000 1.63 59 18:37 05.11.2020
5847 Clear 9 1029 76 10000 1.5 160 18:18 05.11.2020
5848 Clear 10 1028 71 10000 2.1 20 17:41 05.11.2020
5849 Clear 10 1028 71 10000 2.1 20 17:23 05.11.2020
5850 Clear 10 1028 71 10000 2.1 20 16:45 05.11.2020
5851 Clear 11 1028 66 10000 2.6 30 16:24 05.11.2020
5852 Clear 12 1028 62 10000 2.6 30 15:50 05.11.2020
5853 Clear 12 1028 62 10000 2.6 30 15:50 05.11.2020
5854 Clear 12 1027 58 10000 4.1 50 15:26 05.11.2020
5855 Clear 12 1027 58 10000 3.6 20 14:49 05.11.2020
5856 Clear 13 1027 54 10000 3.1 10 14:31 05.11.2020
5857 Clear 14 1027 47 10000 0.5 0 13:49 05.11.2020
5858 Clear 14 1027 47 10000 0.5 0 13:31 05.11.2020
5859 Clear 14 1027 47 10000 0.5 0 13:31 05.11.2020
5860 Clear 14 1027 44 10000 1 0 12:54 05.11.2020
5861 Clear 13 1027 54 10000 1.5 0 12:29 05.11.2020
5862 Clear 13 1028 54 10000 2.1 260 11:57 05.11.2020
5863 Clear 13 1028 58 10000 1 0 11:37 05.11.2020
5864 Clear 13 1028 58 10000 1 0 11:19 05.11.2020
5865 Clear 11 1028 71 10000 1.5 280 10:43 05.11.2020
5866 Clear 11 1028 71 10000 1.5 280 10:25 05.11.2020
5867 Clear 11 1028 76 10000 0.5 0 09:47 05.11.2020
5868 Clear 9 1028 81 10000 1.2 48 09:22 05.11.2020
5869 Clear 9 1028 81 10000 1 140 08:44 05.11.2020
5870 Clear 9 1028 81 10000 1 140 08:26 05.11.2020
5871 Clear 7 1028 93 10000 1.26 59 07:41 05.11.2020
5872 Clear 7 1028 93 10000 1.28 60 07:20 05.11.2020
5873 Clear 7 1027 93 10000 1.07 51 06:41 05.11.2020
5874 Clear 8 1027 93 10000 0.5 0 05:44 05.11.2020
5875 Clouds 9 1027 87 10000 1.17 67 01:35 05.11.2020
5876 Clouds 9 1027 87 10000 1.5 90 00:33 05.11.2020
5877 Clouds 9 1027 87 10000 2.6 130 23:44 04.11.2020
5878 Clouds 9 1027 87 10000 2.6 130 23:26 04.11.2020
5879 Clouds 10 1027 81 10000 3.1 110 22:52 04.11.2020
5880 Clouds 10 1027 87 10000 2.1 120 22:27 04.11.2020
5881 Clouds 10 1027 87 10000 2.6 80 21:58 04.11.2020
5882 Clouds 11 1026 81 10000 3.6 120 21:37 04.11.2020
5883 Clouds 11 1026 81 10000 3.6 120 21:18 04.11.2020
5884 Clouds 11 1026 81 10000 1.5 160 20:43 04.11.2020
5885 Clouds 11 1026 81 10000 1.5 160 20:25 04.11.2020
5886 Clouds 11 1026 81 10000 2.1 140 19:49 04.11.2020
5887 Clouds 11 1026 81 10000 0.5 0 19:29 04.11.2020
5888 Clouds 11 1025 87 10000 2.1 110 18:55 04.11.2020
5889 Clouds 11 1025 87 10000 2.1 110 18:55 04.11.2020
5890 Clouds 12 1025 81 10000 2.1 120 18:37 04.11.2020
5891 Clouds 12 1025 81 10000 2.1 120 18:18 04.11.2020
5892 Clouds 13 1024 76 10000 2.1 140 17:40 04.11.2020
5893 Clouds 13 1024 76 10000 2.1 140 17:21 04.11.2020
5894 Clouds 13 1024 82 10000 2.1 150 16:38 04.11.2020
5895 Clouds 13 1024 82 10000 2.1 150 16:20 04.11.2020
5896 Clouds 13 1024 82 10000 2.6 120 15:47 04.11.2020
5897 Clouds 14 1023 71 10000 2.1 50 15:25 04.11.2020
5898 Clouds 14 1023 76 10000 2.1 10 14:57 04.11.2020
5899 Clouds 14 1023 76 10000 3.1 10 14:39 04.11.2020
5900 Clouds 14 1023 76 10000 3.1 10 14:19 04.11.2020
5901 Clouds 16 1022 67 10000 2.6 330 13:42 04.11.2020
5902 Clouds 16 1022 67 10000 2.6 330 13:20 04.11.2020
5903 Clouds 16 1022 72 10000 1 0 12:51 04.11.2020
5904 Clouds 16 1022 72 10000 1 0 12:27 04.11.2020
5905 Clouds 15 1023 77 10000 1 0 11:56 04.11.2020
5906 Clouds 15 1023 77 10000 1 0 11:56 04.11.2020
5907 Clouds 15 1023 77 10000 1 0 11:56 04.11.2020
5908 Clouds 15 1023 77 10000 1 0 11:37 04.11.2020
5909 Clouds 15 1023 77 10000 1 0 11:37 04.11.2020
5910 Clouds 15 1023 77 10000 1 0 11:19 04.11.2020
5911 Clouds 14 1023 82 8000 1.91 62 10:43 04.11.2020
5912 Clouds 14 1023 82 8000 1.64 66 10:22 04.11.2020
5913 Clouds 14 1023 82 6000 1.64 66 09:50 04.11.2020
5914 Mist 13 1023 87 5000 0.5 0 09:22 04.11.2020
5915 Mist 12 1022 93 5000 1 230 08:45 04.11.2020
5916 Mist 12 1022 93 5000 1 230 08:19 04.11.2020
5917 Clouds 12 1022 93 6000 0.67 31 07:44 04.11.2020
5918 Clouds 12 1022 93 6000 0.61 346 07:26 04.11.2020
5919 Clouds 12 1021 93 6000 1.5 100 06:42 04.11.2020
5920 Clouds 12 1021 93 8000 1 0 05:59 04.11.2020
5921 Clouds 12 1021 87 10000 1 60 02:32 04.11.2020
5922 Clouds 13 1021 82 10000 0.77 300 01:40 04.11.2020
5923 Clouds 14 1021 76 10000 1.5 290 00:40 04.11.2020
5924 Clouds 14 1021 76 10000 2.6 280 23:34 03.11.2020
5925 Clouds 14 1021 76 10000 2.6 270 22:59 03.11.2020
5926 Clouds 13 1021 82 10000 3.1 270 22:40 03.11.2020
5927 Clouds 13 1021 82 10000 3.1 270 22:20 03.11.2020
5928 Clouds 14 1021 76 10000 3.1 270 21:55 03.11.2020
5929 Clouds 14 1021 76 10000 2.6 270 21:36 03.11.2020
5930 Clouds 14 1021 76 10000 2.6 270 21:18 03.11.2020
5931 Clouds 14 1021 76 10000 3.1 280 20:42 03.11.2020
5932 Clouds 14 1021 76 10000 3.1 280 20:19 03.11.2020
5933 Clouds 14 1021 76 10000 2.6 270 19:42 03.11.2020
5934 Clouds 14 1021 76 10000 2.6 270 19:19 03.11.2020
5935 Clouds 15 1021 72 10000 3.1 280 18:41 03.11.2020
5936 Clouds 15 1021 72 10000 3.1 280 18:41 03.11.2020
5937 Clouds 15 1021 72 10000 3.1 280 18:20 03.11.2020
5938 Clouds 15 1020 72 10000 2.1 280 17:54 03.11.2020
5939 Clouds 15 1020 72 10000 3.1 280 17:36 03.11.2020
5940 Clouds 15 1020 72 10000 2.6 290 16:54 03.11.2020
5941 Clouds 15 1020 77 10000 1.5 320 16:31 03.11.2020
5942 Clouds 15 1020 72 10000 2.1 290 15:59 03.11.2020
5943 Clouds 16 1020 72 10000 1.5 290 15:41 03.11.2020
5944 Clouds 16 1020 67 10000 2.1 330 15:21 03.11.2020
5945 Clouds 16 1020 67 10000 2.1 330 14:46 03.11.2020
5946 Clouds 16 1020 67 10000 2.6 300 14:27 03.11.2020
5947 Clouds 16 1020 67 10000 2.6 300 14:27 03.11.2020
5948 Clouds 15 1020 72 10000 2.6 300 13:43 03.11.2020
5949 Clouds 15 1020 72 10000 2.6 300 13:23 03.11.2020
5950 Clouds 15 1020 72 10000 2.6 290 12:48 03.11.2020
5951 Clouds 15 1020 77 10000 2.6 320 12:27 03.11.2020
5952 Clouds 15 1020 77 10000 2.6 290 11:57 03.11.2020
5953 Clouds 14 1021 82 10000 2.6 290 11:39 03.11.2020
5954 Clouds 14 1021 82 10000 2.6 290 11:18 03.11.2020
5955 Clouds 13 1021 87 10000 1.5 280 10:39 03.11.2020
5956 Clouds 13 1021 87 10000 1.5 280 10:19 03.11.2020
5957 Clouds 12 1021 93 10000 2.1 260 09:48 03.11.2020
5958 Clouds 12 1021 93 10000 1.5 320 09:27 03.11.2020
5959 Clouds 11 1021 93 10000 2.1 320 08:52 03.11.2020
5960 Clouds 11 1021 93 10000 3.1 300 08:34 03.11.2020
5961 Clouds 11 1021 93 10000 2.6 300 07:49 03.11.2020
5962 Clouds 11 1021 93 10000 1 0 07:22 03.11.2020
5963 Clouds 11 1020 93 8000 3.1 310 06:44 03.11.2020
5964 Clouds 11 1020 93 10000 1.5 310 04:54 03.11.2020
5965 Rain 10 1021 87 9000 1.5 40 00:53 03.11.2020
5966 Rain 10 1021 87 8000 0.5 140 00:30 03.11.2020
5967 Clouds 10 1021 87 8000 1.5 120 23:47 02.11.2020
5968 Rain 11 1021 81 8000 1.5 150 23:28 02.11.2020
5969 Clouds 11 1021 76 10000 1.07 259 22:48 02.11.2020
5970 Clouds 11 1021 76 10000 0.46 274 22:30 02.11.2020
5971 Clouds 11 1021 76 9000 1.5 80 21:58 02.11.2020
5972 Clouds 12 1021 71 8000 1 0 21:37 02.11.2020
5973 Clouds 12 1021 71 8000 1 0 21:18 02.11.2020
5974 Clouds 12 1022 71 10000 0.34 276 20:38 02.11.2020
5975 Clouds 12 1022 71 10000 0.84 276 20:19 02.11.2020
5976 Clouds 12 1022 71 10000 0.5 0 19:44 02.11.2020
5977 Clouds 11 1022 76 10000 1 160 19:26 02.11.2020
5978 Clouds 11 1022 76 10000 1 160 19:26 02.11.2020
5979 Clouds 12 1021 71 10000 2.6 100 18:43 02.11.2020
5980 Clouds 12 1021 71 10000 2.6 100 18:22 02.11.2020
5981 Clouds 12 1021 66 10000 2.1 130 17:59 02.11.2020
5982 Clouds 13 1021 62 10000 2.1 100 17:40 02.11.2020
5983 Clouds 13 1021 62 10000 2.1 100 17:21 02.11.2020
5984 Clouds 14 1021 62 10000 1.5 130 16:48 02.11.2020
5985 Clouds 15 1021 58 10000 1.5 170 16:24 02.11.2020
5986 Clouds 15 1021 54 10000 2.1 0 15:50 02.11.2020
5987 Clouds 16 1021 51 10000 2.1 140 15:25 02.11.2020
5988 Clouds 16 1021 51 10000 1 0 14:59 02.11.2020
5989 Clouds 15 1021 51 10000 0.93 351 14:40 02.11.2020
5990 Clouds 16 1021 51 10000 2.06 313 14:18 02.11.2020
5991 Clouds 13 1022 54 10000 1.5 240 13:44 02.11.2020
5992 Clouds 13 1022 54 10000 1.5 240 13:21 02.11.2020
5993 Clouds 13 1022 54 10000 0.5 0 12:42 02.11.2020
5994 Clouds 13 1022 54 10000 0.5 0 12:21 02.11.2020
5995 Clouds 12 1023 54 10000 1.33 291 11:45 02.11.2020
5996 Clouds 11 1023 53 10000 1 0 11:20 02.11.2020
5997 Clouds 10 1023 57 10000 1 0 10:44 02.11.2020
5998 Clouds 8 1023 70 10000 1 0 10:22 02.11.2020
5999 Clouds 6 1023 75 10000 2.1 50 09:55 02.11.2020
6000 Clouds 6 1023 75 10000 2.6 120 09:26 02.11.2020
6001 Clouds 5 1023 80 10000 1 0 08:46 02.11.2020
6002 Clouds 4 1023 86 10000 1.5 140 08:28 02.11.2020
6003 Clouds 4 1023 80 10000 1.5 40 07:54 02.11.2020
6004 Clouds 3 1023 86 10000 1 0 07:30 02.11.2020
6005 Clouds 2 1023 93 8000 1 0 06:37 02.11.2020
6006 Rain 1 1023 86 10000 0.68 227 04:55 02.11.2020
6007 Clear 0 1023 60 10000 2.1 140 01:26 02.11.2020
6008 Clouds 0 1023 60 10000 1 0 00:36 02.11.2020
6009 Clear 1 1023 86 10000 1.5 110 23:45 01.11.2020
6010 Clear 2 1023 58 10000 2.1 80 23:25 01.11.2020
6011 Clear 1 1022 86 10000 2.1 150 22:48 01.11.2020
6012 Clear 2 1023 59 8000 2.1 120 22:27 01.11.2020
6013 Clear 2 1023 59 8000 2.1 120 22:27 01.11.2020
6014 Clear 4 1023 69 10000 1 0 21:59 01.11.2020
6015 Clear 4 1022 59 10000 1 220 21:41 01.11.2020
6016 Clear 4 1022 58 10000 1 220 21:23 01.11.2020
6017 Clear 6 1022 58 10000 2.6 240 20:43 01.11.2020
6018 Clear 6 1022 56 10000 2.6 240 20:25 01.11.2020
6019 Clear 7 1022 56 10000 1.5 300 19:45 01.11.2020
6020 Clear 7 1022 55 10000 1.5 300 19:26 01.11.2020
6021 Clear 8 1022 55 10000 1 310 18:57 01.11.2020
6022 Clear 7 1022 55 10000 2.6 300 18:37 01.11.2020
6023 Clear 7 1022 53 10000 2.6 300 18:18 01.11.2020
6024 Clear 10 1021 53 10000 2.6 290 17:43 01.11.2020
6025 Clear 10 1021 51 10000 2.6 290 17:25 01.11.2020
6026 Clear 12 1021 40 10000 4.1 310 16:42 01.11.2020
6027 Clear 12 1021 40 10000 4.1 310 16:24 01.11.2020
6028 Clear 13 1021 37 10000 4.6 310 15:55 01.11.2020
6029 Clear 13 1021 37 10000 5.1 300 15:37 01.11.2020
6030 Clear 13 1021 37 10000 5.1 300 15:18 01.11.2020
6031 Clear 14 1021 35 10000 5.1 290 14:45 01.11.2020
6032 Clear 14 1021 35 10000 5.1 290 14:22 01.11.2020
6033 Clear 14 1021 35 10000 4.6 300 13:49 01.11.2020
6034 Clear 13 1022 43 10000 5.1 300 13:31 01.11.2020
6035 Clear 13 1022 43 10000 5.1 300 12:56 01.11.2020
6036 Clear 12 1022 46 10000 5.7 300 12:37 01.11.2020
6037 Clear 12 1022 46 10000 5.7 300 12:18 01.11.2020
6038 Clear 11 1022 53 10000 5.1 300 11:44 01.11.2020
6039 Clear 11 1022 53 10000 5.1 300 11:18 01.11.2020
6040 Clear 10 1023 57 10000 5.7 300 11:18 01.11.2020
6041 Clouds 10 1023 61 10000 4.6 300 10:40 01.11.2020
6042 Clouds 10 1023 61 10000 4.6 300 10:22 01.11.2020
6043 Clouds 9 1023 76 10000 4.1 290 09:46 01.11.2020
6044 Clouds 7 1023 87 10000 4.1 270 08:50 01.11.2020
6045 Clouds 6 1023 87 10000 3.6 290 08:24 01.11.2020
6046 Mist 5 1023 93 10000 1 0 07:45 01.11.2020
6047 Clouds 4 1022 93 10000 2.1 360 05:30 01.11.2020
6048 Clouds 6 1021 93 10000 1 0 01:52 01.11.2020
6049 Clear 8 1021 87 10000 3.1 330 00:53 01.11.2020
6050 Clouds 10 1020 93 10000 3.6 310 23:39 31.10.2020
6051 Clouds 10 1020 93 10000 3.6 310 23:18 31.10.2020
6052 Clouds 11 1020 87 10000 4.6 280 22:43 31.10.2020
6053 Clouds 11 1020 87 10000 4.6 280 22:23 31.10.2020
6054 Rain 11 1020 93 10000 5.1 280 21:46 31.10.2020
6055 Clouds 11 1020 87 8000 5.7 300 21:20 31.10.2020
6056 Clouds 12 1019 81 10000 5.7 280 20:39 31.10.2020
6057 Clouds 12 1019 81 10000 5.7 280 20:19 31.10.2020
6058 Clouds 12 1019 81 10000 7.2 280 19:41 31.10.2020
6059 Clouds 12 1019 81 10000 7.2 280 19:23 31.10.2020
6060 Clouds 12 1019 81 10000 6.7 280 18:48 31.10.2020
6061 Clouds 12 1019 81 10000 7.7 280 18:30 31.10.2020
6062 Clouds 13 1019 66 10000 7.7 270 17:41 31.10.2020
6063 Clouds 13 1019 66 10000 7.7 270 17:23 31.10.2020
6064 Clouds 13 1019 66 10000 5.1 300 16:48 31.10.2020
6065 Clouds 13 1019 62 10000 4.6 290 16:29 31.10.2020
6066 Clouds 14 1019 58 10000 4.1 290 15:54 31.10.2020
6067 Clouds 14 1019 58 10000 5.7 280 15:25 31.10.2020
6068 Clouds 14 1019 58 10000 5.1 290 14:53 31.10.2020
6069 Clouds 14 1019 58 10000 6.7 280 14:31 31.10.2020
6070 Clouds 14 1019 62 10000 7.2 280 13:52 31.10.2020
6071 Clouds 14 1019 62 10000 6.7 280 13:28 31.10.2020
6072 Clouds 14 1019 62 10000 5.7 290 12:48 31.10.2020
6073 Clouds 14 1019 62 10000 5.7 300 12:21 31.10.2020
6074 Clouds 13 1020 66 10000 3.1 330 11:40 31.10.2020
6075 Clouds 13 1020 66 10000 3.1 330 11:21 31.10.2020
6076 Clouds 12 1021 66 10000 3.6 340 10:40 31.10.2020
6077 Clouds 12 1021 66 10000 4.1 310 09:56 31.10.2020
6078 Clouds 11 1022 71 10000 4.6 280 09:37 31.10.2020
6079 Clouds 11 1022 71 10000 4.6 280 09:18 31.10.2020
6080 Clouds 10 1022 71 10000 5.1 300 08:22 31.10.2020
6081 Clouds 9 1021 76 10000 3.1 360 07:29 31.10.2020
6082 Clouds 9 1021 70 10000 3.1 320 06:56 31.10.2020
6083 Clouds 8 1021 75 10000 3.1 300 06:36 31.10.2020
6084 Clouds 9 1021 70 10000 1.5 10 03:47 31.10.2020
6085 Clouds 8 1022 75 10000 2.1 300 02:27 31.10.2020
6086 Clouds 6 1022 87 10000 1.89 270 00:51 31.10.2020
6087 Clouds 5 1022 86 10000 1.5 10 23:54 30.10.2020
6088 Clouds 5 1022 86 10000 2.6 20 23:29 30.10.2020
6089 Clouds 6 1022 81 10000 1.5 0 22:59 30.10.2020
6090 Clouds 5 1022 86 10000 2.6 70 22:37 30.10.2020
6091 Clouds 5 1022 86 10000 2.6 70 22:18 30.10.2020
6092 Clouds 5 1022 86 10000 2.6 70 22:18 30.10.2020
6093 Clear 8 1022 70 10000 4.1 270 21:42 30.10.2020
6094 Clear 8 1022 70 10000 4.1 270 21:22 30.10.2020
6095 Clear 9 1022 66 10000 5.1 280 20:44 30.10.2020
6096 Clear 9 1022 66 10000 5.1 280 20:25 30.10.2020
6097 Clear 9 1022 66 10000 6.2 280 19:54 30.10.2020
6098 Clear 9 1022 66 10000 7.2 280 19:22 30.10.2020
6099 Clear 10 1021 61 10000 8.7 280 18:53 30.10.2020
6100 Clear 10 1021 61 10000 8.2 280 18:34 30.10.2020
6101 Clear 10 1021 61 10000 6.2 280 17:59 30.10.2020
6102 Clear 10 1021 61 10000 7.2 280 17:40 30.10.2020
6103 Clear 10 1021 61 10000 7.2 280 17:20 30.10.2020
6104 Clear 11 1021 57 10000 6.7 290 16:49 30.10.2020
6105 Clear 11 1021 57 10000 8.2 290 16:24 30.10.2020
6106 Clouds 12 1020 54 10000 8.7 290 15:41 30.10.2020
6107 Clouds 12 1020 54 10000 8.7 290 15:20 30.10.2020
6108 Clouds 13 1020 50 10000 9.3 280 14:46 30.10.2020
6109 Clouds 13 1020 50 10000 8.2 280 14:28 30.10.2020
6110 Clouds 14 1020 47 10000 8.7 290 13:57 30.10.2020
6111 Clouds 13 1020 47 10000 9.3 280 13:39 30.10.2020
6112 Clouds 13 1020 47 10000 9.3 280 13:19 30.10.2020
6113 Clouds 13 1020 50 10000 8.2 290 12:40 30.10.2020
6114 Clouds 13 1020 50 10000 8.2 290 12:21 30.10.2020
6115 Clouds 13 1021 50 10000 8.7 290 11:43 30.10.2020
6116 Clouds 13 1021 50 10000 8.7 290 11:19 30.10.2020
6117 Clouds 12 1021 54 10000 8.7 280 10:47 30.10.2020
6118 Clouds 11 1021 57 10000 7.7 290 10:23 30.10.2020
6119 Clouds 12 1021 62 10000 9.8 270 09:45 30.10.2020
6120 Clouds 11 1021 62 10000 9.8 280 09:24 30.10.2020
6121 Clouds 11 1021 71 10000 6.7 280 08:42 30.10.2020
6122 Clouds 11 1021 71 10000 6.7 280 08:23 30.10.2020
6123 Clouds 11 1021 76 10000 7.2 280 07:49 30.10.2020
6124 Clouds 12 1020 71 10000 5.1 290 07:31 30.10.2020
6125 Clouds 11 1019 76 8000 3.6 290 06:38 30.10.2020
6126 Clouds 10 1019 81 10000 4.1 280 04:47 30.10.2020
6127 Clouds 11 1019 76 10000 2.6 290 02:26 30.10.2020
6128 Clouds 8 1019 100 6000 2.1 190 00:39 30.10.2020
6129 Mist 8 1018 100 5000 1.5 180 23:49 29.10.2020
6130 Mist 8 1018 93 4600 1.5 130 23:30 29.10.2020
6131 Fog 8 1018 100 4000 1 0 22:57 29.10.2020
6132 Mist 8 1018 100 5000 1 0 22:38 29.10.2020
6133 Mist 8 1018 100 5000 1 0 22:20 29.10.2020
6134 Mist 9 1018 100 5000 1.13 282 21:36 29.10.2020
6135 Mist 9 1018 100 5000 0.54 286 21:18 29.10.2020
6136 Mist 9 1018 100 5000 0.54 286 21:18 29.10.2020
6137 Clouds 8 1018 100 6000 1 140 20:40 29.10.2020
6138 Clear 8 1018 100 6000 1 140 20:19 29.10.2020
6139 Clouds 10 1017 93 8000 2.1 280 19:42 29.10.2020
6140 Clouds 10 1017 93 8000 2.1 280 19:21 29.10.2020
6141 Clouds 10 1017 93 8000 1.5 80 18:48 29.10.2020
6142 Clouds 11 1017 87 8000 1 90 18:29 29.10.2020
6143 Clear 11 1017 87 10000 1 150 17:55 29.10.2020
6144 Clouds 12 1017 87 10000 1.5 130 17:37 29.10.2020
6145 Clouds 12 1017 87 10000 1.5 130 17:18 29.10.2020
6146 Clouds 12 1017 87 10000 1.5 130 17:18 29.10.2020
6147 Clouds 13 1016 82 10000 1.5 100 16:43 29.10.2020
6148 Clouds 14 1016 76 10000 2.1 100 16:18 29.10.2020
6149 Clouds 14 1017 76 10000 2.1 110 15:41 29.10.2020
6150 Clouds 14 1017 76 10000 2.1 110 15:22 29.10.2020
6151 Clouds 15 1016 72 10000 4.1 120 14:59 29.10.2020
6152 Clouds 15 1016 72 10000 4.1 120 14:59 29.10.2020
6153 Clouds 15 1016 72 10000 4.1 120 14:59 29.10.2020
6154 Clouds 15 1016 67 10000 3.1 110 14:40 29.10.2020
6155 Clouds 15 1016 67 10000 3.1 110 14:20 29.10.2020
6156 Clouds 16 1016 67 10000 2.1 0 13:45 29.10.2020
6157 Clouds 15 1017 67 10000 1.5 60 13:26 29.10.2020
6158 Clouds 16 1017 67 10000 1.5 110 12:43 29.10.2020
6159 Clouds 14 1017 71 10000 1.5 270 12:19 29.10.2020
6160 Clouds 14 1018 71 10000 1 0 11:49 29.10.2020
6161 Clouds 14 1018 71 10000 1.5 230 11:27 29.10.2020
6162 Clouds 13 1018 76 10000 1 0 10:58 29.10.2020
6163 Clouds 13 1018 76 10000 1.5 240 10:36 29.10.2020
6164 Clouds 14 1018 76 10000 1.5 240 10:18 29.10.2020
6165 Clouds 13 1018 81 10000 1.5 290 09:46 29.10.2020
6166 Clouds 13 1018 81 8000 2.1 290 09:20 29.10.2020
6167 Clouds 11 1018 81 8000 2.6 280 08:40 29.10.2020
6168 Clouds 11 1018 81 8000 2.6 280 08:19 29.10.2020
6169 Clouds 10 1018 93 7000 2.6 300 07:48 29.10.2020
6170 Mist 10 1017 93 5000 2.6 290 06:58 29.10.2020
6171 Mist 10 1017 93 4500 2.1 290 06:24 29.10.2020
6172 Clouds 10 1017 93 8000 1.5 290 04:47 29.10.2020
6173 Clouds 12 1018 76 10000 0.63 24 02:18 29.10.2020
6174 Clouds 11 1018 75 10000 0.48 10 00:31 29.10.2020
6175 Clouds 12 1018 74 10000 1.05 357 23:59 28.10.2020
6176 Clouds 12 1018 74 10000 1.19 18 23:22 28.10.2020
6177 Clouds 11 1017 87 10000 1 260 22:56 28.10.2020
6178 Clouds 11 1017 87 10000 1 260 22:37 28.10.2020
6179 Clouds 11 1017 87 10000 1 260 22:19 28.10.2020
6180 Clouds 11 1017 87 8000 1.5 300 21:43 28.10.2020
6181 Clouds 11 1017 87 8000 1.5 300 21:25 28.10.2020
6182 Clouds 11 1017 87 7000 1.5 10 20:43 28.10.2020
6183 Clouds 11 1017 87 7000 1.5 10 20:23 28.10.2020
6184 Clouds 12 1016 81 10000 1.5 0 19:53 28.10.2020
6185 Clouds 12 1016 81 10000 2.1 130 19:30 28.10.2020
6186 Clouds 11 1016 87 6000 1.5 250 18:51 28.10.2020
6187 Clouds 12 1016 81 10000 1.5 290 18:22 28.10.2020
6188 Clouds 12 1016 81 10000 1.5 290 17:58 28.10.2020
6189 Clouds 12 1016 81 10000 2.22 68 17:39 28.10.2020
6190 Clouds 12 1016 81 10000 2.06 72 17:18 28.10.2020
6191 Clouds 13 1016 76 10000 2.1 30 16:44 28.10.2020
6192 Clouds 14 1016 71 10000 3.6 40 16:23 28.10.2020
6193 Clouds 14 1016 71 10000 3.6 40 16:23 28.10.2020
6194 Clouds 15 1015 72 10000 4.1 20 15:40 28.10.2020
6195 Clouds 15 1015 72 10000 4.1 20 15:19 28.10.2020
6196 Clouds 15 1015 74 10000 1.79 151 15:19 28.10.2020
6197 Clouds 17 1015 59 10000 1 0 14:44 28.10.2020
6198 Clouds 17 1015 59 10000 1 0 14:26 28.10.2020
6199 Clouds 15 1017 61 10000 2.38 105 12:50 28.10.2020
6200 Clouds 15 1017 61 10000 2.72 95 12:31 28.10.2020
6201 Clouds 15 1017 61 10000 3.06 109 11:59 28.10.2020
6202 Clouds 15 1017 61 10000 3.06 109 11:41 28.10.2020
6203 Clouds 15 1017 61 10000 3.25 109 11:20 28.10.2020
6204 Clouds 12 1017 87 7000 1.5 290 10:50 28.10.2020
6205 Clouds 12 1017 87 7000 1.5 290 10:32 28.10.2020
6206 Clouds 9 1017 87 6000 1.5 250 09:45 28.10.2020
6207 Clouds 9 1017 87 6000 1.5 250 09:24 28.10.2020
6208 Mist 8 1016 93 5000 1.5 270 08:51 28.10.2020
6209 Mist 7 1016 93 5000 1.5 290 08:32 28.10.2020
6210 Mist 7 1016 93 5000 1 0 07:54 28.10.2020
6211 Mist 7 1016 93 5000 1 0 07:31 28.10.2020
6212 Mist 6 1016 100 3500 1 0 06:57 28.10.2020
6213 Mist 5 1015 100 5000 0.5 0 06:38 28.10.2020
6214 Fog 4 1015 100 900 1 320 05:44 28.10.2020
6215 Fog 5 1016 93 2000 1.5 270 04:50 28.10.2020
6216 Fog 5 1015 100 900 2.1 350 03:53 28.10.2020
6217 Clear 7 1016 93 10000 1 0 01:56 28.10.2020
6218 Clouds 7 1016 93 9000 2.6 120 00:33 28.10.2020
6219 Clouds 7 1016 93 8000 2.6 160 23:47 27.10.2020
6220 Clouds 7 1016 93 8000 2.6 160 23:22 27.10.2020
6221 Clear 8 1016 87 10000 2.6 120 22:45 27.10.2020
6222 Clear 8 1016 87 10000 2.6 120 22:19 27.10.2020
6223 Clear 8 1016 87 10000 3.1 120 21:57 27.10.2020
6224 Clear 9 1016 87 10000 2.6 150 21:38 27.10.2020
6225 Clear 9 1016 87 10000 2.6 150 21:19 27.10.2020
6226 Clear 9 1015 87 10000 3.6 150 20:50 27.10.2020
6227 Clear 9 1015 87 10000 3.1 140 20:24 27.10.2020
6228 Clear 10 1015 87 10000 3.1 120 19:57 27.10.2020
6229 Clear 10 1015 87 10000 2.6 130 19:37 27.10.2020
6230 Clear 10 1015 87 10000 2.6 130 19:18 27.10.2020
6231 Clear 10 1015 87 10000 3.1 120 18:44 27.10.2020
6232 Clear 12 1015 76 10000 3.1 120 18:22 27.10.2020
6233 Clear 12 1014 76 10000 3.6 90 17:57 27.10.2020
6234 Clear 13 1014 71 10000 3.1 120 17:38 27.10.2020
6235 Clear 13 1014 71 10000 3.1 120 17:18 27.10.2020
6236 Clear 17 1014 55 10000 2.1 220 16:42 27.10.2020
6237 Clear 17 1014 55 10000 2.1 220 16:23 27.10.2020
6238 Clear 18 1014 52 10000 2.02 108 15:42 27.10.2020
6239 Clear 18 1014 52 10000 1.83 99 15:23 27.10.2020
6240 Clear 18 1014 55 10000 0.5 0 14:49 27.10.2020
6241 Clear 18 1014 52 10000 1.34 91 14:29 27.10.2020
6242 Clear 17 1014 59 10000 0.5 0 13:58 27.10.2020
6243 Clear 16 1014 63 10000 1.5 110 13:28 27.10.2020
6244 Clear 15 1015 62 10000 1 0 12:44 27.10.2020
6245 Clear 15 1015 62 10000 0.5 0 12:25 27.10.2020
6246 Clear 13 1016 76 10000 1.5 10 11:59 27.10.2020
6247 Clear 14 1016 76 8000 1 0 11:41 27.10.2020
6248 Clear 14 1016 76 8000 1 0 11:21 27.10.2020
6249 Mist 13 1017 93 9000 1 0 10:43 27.10.2020
6250 Mist 9 1017 93 9000 1 0 10:20 27.10.2020
6251 Fog 6 1017 100 300 1 0 09:28 27.10.2020
6252 Fog 5 1017 100 300 0.54 108 08:58 27.10.2020
6253 Fog 5 1017 100 250 0.5 0 08:30 27.10.2020
6254 Fog 4 1017 100 300 0.5 0 07:53 27.10.2020
6255 Fog 4 1017 100 250 0.65 116 07:35 27.10.2020
6256 Fog 4 1017 93 250 0.52 116 06:54 27.10.2020
6257 Fog 4 1016 93 300 0.17 141 06:20 27.10.2020
6258 Fog 3 1016 100 450 0.17 141 05:45 27.10.2020
6259 Fog 2 1016 100 300 0.42 141 05:24 27.10.2020
6260 Mist 5 1016 93 5000 0.43 138 03:19 27.10.2020
6261 Clear 6 1016 93 7000 0.37 158 01:20 27.10.2020
6262 Mist 5 1016 93 5000 2.1 150 00:38 27.10.2020
6263 Mist 6 1016 100 5000 1 0 23:37 26.10.2020
6264 Clear 7 1016 93 8000 0.34 148 22:58 26.10.2020
6265 Clear 9 1016 93 10000 2.1 130 22:39 26.10.2020
6266 Clear 8 1016 93 10000 2.1 130 22:18 26.10.2020
6267 Clear 8 1016 93 10000 2.1 200 21:37 26.10.2020
6268 Clear 10 1016 93 10000 2.1 200 21:18 26.10.2020
6269 Clear 10 1016 93 10000 2.1 170 20:49 26.10.2020
6270 Clear 10 1015 81 10000 2.1 150 20:27 26.10.2020
6271 Clear 10 1015 87 10000 2.1 160 19:49 26.10.2020
6272 Clear 9 1015 93 10000 1.5 150 19:29 26.10.2020
6273 Clear 11 1015 81 10000 1.5 60 18:59 26.10.2020
6274 Clear 12 1015 76 10000 2.1 210 18:39 26.10.2020
6275 Clear 12 1015 76 10000 2.1 210 18:20 26.10.2020
6276 Clear 13 1015 76 10000 0.23 153 17:44 26.10.2020
6277 Clear 13 1015 76 10000 0.23 257 17:23 26.10.2020
6278 Clouds 15 1014 72 10000 0.23 257 16:45 26.10.2020
6279 Clouds 16 1014 59 10000 0.5 70 16:22 26.10.2020
6280 Clouds 17 1014 55 10000 0.75 251 15:56 26.10.2020
6281 Clouds 17 1014 52 10000 1 0 15:38 26.10.2020
6282 Clouds 17 1014 52 10000 1 0 15:18 26.10.2020
6283 Clouds 18 1014 52 10000 1.5 300 14:44 26.10.2020
6284 Clouds 18 1014 55 10000 1.5 320 14:18 26.10.2020
6285 Clouds 17 1015 55 10000 3.1 310 13:41 26.10.2020
6286 Clouds 17 1015 55 10000 3.1 310 13:22 26.10.2020
6287 Clouds 17 1015 55 10000 3.6 310 12:45 26.10.2020
6288 Clouds 17 1015 59 10000 4.1 300 12:26 26.10.2020
6289 Clouds 16 1015 63 10000 2.1 300 11:48 26.10.2020
6290 Clouds 16 1015 63 10000 2.1 0 11:27 26.10.2020
6291 Clear 15 1015 67 10000 2.6 280 10:59 26.10.2020
6292 Clouds 14 1016 71 10000 1.5 300 10:40 26.10.2020
6293 Clouds 14 1016 71 10000 1.5 300 10:20 26.10.2020
6294 Clouds 12 1016 81 10000 2.1 280 09:43 26.10.2020
6295 Clouds 11 1016 87 10000 2.1 300 09:21 26.10.2020
6296 Clouds 13 1016 93 10000 3.1 280 08:29 26.10.2020
6297 Clouds 11 1016 87 10000 2.6 290 07:53 26.10.2020
6298 Clouds 10 1016 93 8000 2.6 270 07:34 26.10.2020
6299 Clouds 10 1015 93 8000 1.12 272 06:37 26.10.2020
6300 Clouds 10 1015 93 7000 1.5 270 04:22 26.10.2020
6301 Mist 9 1015 100 4500 0.5 0 03:33 26.10.2020
6302 Clouds 9 1015 100 6000 0.5 0 01:38 26.10.2020
6303 Clouds 9 1015 100 6000 1.5 360 00:54 26.10.2020
6304 Mist 9 1015 100 1600 0.5 0 00:31 26.10.2020
6305 Fog 10 1015 100 900 1.5 200 23:38 25.10.2020
6306 Fog 10 1015 100 900 1.5 200 23:19 25.10.2020
6307 Fog 11 1015 100 200 1 260 22:40 25.10.2020
6308 Fog 11 1015 100 200 1 260 22:40 25.10.2020
6309 Fog 11 1015 100 200 1 260 22:20 25.10.2020
6310 Fog 11 1015 93 250 1 310 21:40 25.10.2020
6311 Fog 11 1015 93 250 1 310 21:21 25.10.2020
6312 Fog 10 1014 100 250 1 310 20:46 25.10.2020
6313 Fog 10 1014 100 250 1 310 20:46 25.10.2020
6314 Mist 11 1014 93 2800 1.16 274 20:27 25.10.2020
6315 Fog 10 1014 100 150 1 0 19:59 25.10.2020
6316 Fog 10 1014 100 150 0.5 0 19:41 25.10.2020
6317 Fog 10 1014 100 150 0.5 0 19:21 25.10.2020
6318 Clouds 12 1014 93 7000 0.44 38 18:41 25.10.2020
6319 Clouds 11 1014 93 7000 0.8 56 18:23 25.10.2020
6320 Clouds 11 1014 93 8000 0.8 56 17:58 25.10.2020
6321 Clouds 11 1014 93 10000 0.8 56 17:38 25.10.2020
6322 Clouds 12 1014 93 10000 0.78 41 17:20 25.10.2020
6323 Clouds 12 1014 87 10000 1 0 16:47 25.10.2020
6324 Clouds 12 1014 87 10000 1.5 40 16:28 25.10.2020
6325 Clouds 13 1014 87 10000 1 0 15:52 25.10.2020
6326 Clouds 13 1014 87 10000 2.1 260 15:31 25.10.2020
6327 Clouds 13 1014 87 10000 2.1 270 14:55 25.10.2020
6328 Clouds 13 1014 87 7000 1.5 60 14:32 25.10.2020
6329 Clouds 12 1015 93 5000 1 0 13:58 25.10.2020
6330 Rain 12 1015 93 8000 1.5 190 13:39 25.10.2020
6331 Rain 12 1015 93 6000 2.1 200 13:19 25.10.2020
6332 Clouds 12 1015 93 6000 2.1 200 12:46 25.10.2020
6333 Clouds 12 1015 93 8000 3.01 298 12:25 25.10.2020
6334 Clouds 12 1016 87 6000 4.1 280 11:43 25.10.2020
6335 Rain 12 1016 87 6000 4.1 280 11:21 25.10.2020
6336 Rain 11 1016 87 7000 2.6 300 10:56 25.10.2020
6337 Rain 12 1016 87 7000 2.1 310 10:38 25.10.2020
6338 Rain 11 1016 87 7000 2.1 310 10:19 25.10.2020
6339 Rain 12 1015 87 7000 1.5 50 09:39 25.10.2020
6340 Clouds 11 1015 87 7000 1.5 50 09:19 25.10.2020
6341 Clouds 11 1015 87 7000 1.5 50 09:19 25.10.2020
6342 Clouds 11 1015 87 7000 1.5 50 09:19 25.10.2020
6343 Clouds 9 1015 87 10000 2.1 30 08:41 25.10.2020
6344 Clear 9 1016 87 10000 1.5 240 08:22 25.10.2020
6345 Clear 9 1016 87 10000 1.5 240 07:46 25.10.2020
6346 Clear 8 1015 93 10000 1 80 07:18 25.10.2020
6347 Clear 8 1015 93 10000 1.5 170 06:30 25.10.2020
6348 Clear 8 1015 93 10000 1.5 90 05:22 25.10.2020
6349 Clear 8 1015 87 10000 1.5 100 04:51 25.10.2020
6350 Clear 8 1015 87 10000 1 0 02:38 25.10.2020
6351 Clear 9 1016 81 10000 1 140 01:32 25.10.2020
6352 Clear 10 1016 76 10000 1 0 00:48 25.10.2020
6353 Clear 9 1016 87 10000 0.09 202 00:19 25.10.2020
6354 Clear 9 1016 87 10000 2.1 150 23:52 24.10.2020
6355 Clear 9 1016 87 10000 2.1 150 23:25 24.10.2020
6356 Clear 10 1016 87 10000 1 100 22:43 24.10.2020
6357 Clear 10 1016 87 10000 1 100 22:24 24.10.2020
6358 Clouds 10 1016 93 8000 1.5 60 21:59 24.10.2020
6359 Clouds 11 1016 81 8000 2.1 190 21:39 24.10.2020
6360 Clouds 11 1016 81 8000 2.1 190 21:20 24.10.2020
6361 Clouds 11 1016 87 8000 2.1 170 20:47 24.10.2020
6362 Clear 12 1016 81 10000 1 130 20:22 24.10.2020
6363 Clear 13 1016 81 10000 0.5 0 19:47 24.10.2020
6364 Clear 13 1016 76 10000 0.5 0 19:27 24.10.2020
6365 Clear 14 1016 76 10000 1 0 18:55 24.10.2020
6366 Clear 15 1016 71 10000 1.5 160 18:36 24.10.2020
6367 Clouds 15 1016 67 8000 1 80 17:57 24.10.2020
6368 Clouds 16 1016 59 8000 1 20 17:37 24.10.2020
6369 Clouds 17 1016 59 8000 1 20 17:19 24.10.2020
6370 Clear 19 1016 52 10000 1 0 16:41 24.10.2020
6371 Clear 19 1016 52 10000 1 0 16:18 24.10.2020
6372 Clear 20 1016 45 10000 0.08 297 15:38 24.10.2020
6373 Clear 20 1016 45 10000 0.4 318 15:19 24.10.2020
6374 Clear 19 1016 48 10000 1.5 280 14:43 24.10.2020
6375 Clear 19 1016 48 10000 1.5 280 14:23 24.10.2020
6376 Clear 18 1017 48 10000 0.5 0 13:44 24.10.2020
6377 Clear 17 1017 51 10000 1.5 120 13:20 24.10.2020
6378 Clear 14 1019 58 10000 2.6 280 12:41 24.10.2020
6379 Clear 14 1019 58 10000 2.6 280 12:21 24.10.2020
6380 Clear 16 1019 66 10000 1 0 11:51 24.10.2020
6381 Clear 17 1019 66 10000 1 0 11:24 24.10.2020
6382 Clear 15 1019 76 10000 1.5 100 10:51 24.10.2020
6383 Clouds 13 1019 81 8000 1.5 110 10:32 24.10.2020
6384 Clouds 13 1020 87 8000 2.1 110 09:50 24.10.2020
6385 Mist 6 1020 87 4200 1.5 110 09:27 24.10.2020
6386 Mist 5 1020 93 10000 1.5 100 08:58 24.10.2020
6387 Mist 5 1020 93 2800 1 0 08:19 24.10.2020
6388 Mist 3 1020 93 2400 0.98 270 07:53 24.10.2020
6389 Mist 3 1020 93 2300 1.5 360 07:22 24.10.2020
6390 Clouds 2 1019 100 7000 0.86 265 06:52 24.10.2020
6391 Clouds 2 1020 100 8000 0.8 254 05:47 24.10.2020
6392 Mist 4 1020 93 3500 1.5 110 02:28 24.10.2020
6393 Clear 5 1021 93 7000 0.81 256 00:59 24.10.2020
6394 Clear 5 1021 93 6000 1 300 00:39 24.10.2020
6395 Clear 5 1021 93 6000 1 300 00:21 24.10.2020
6396 Clear 5 1021 93 9000 2.1 120 23:43 23.10.2020
6397 Clear 5 1021 93 9000 2.1 120 23:23 23.10.2020
6398 Clear 6 1021 81 10000 2.1 120 22:42 23.10.2020
6399 Clear 6 1021 81 10000 2.1 120 22:22 23.10.2020
6400 Mist 7 1021 87 10000 1 0 21:59 23.10.2020
6401 Smoke 9 1021 76 3000 1 0 21:39 23.10.2020
6402 Smoke 9 1021 76 3000 1 0 21:21 23.10.2020
6403 Smoke 10 1020 71 10000 2.1 220 20:39 23.10.2020
6404 Smoke 10 1020 71 10000 2.1 220 20:20 23.10.2020
6405 Clear 10 1020 76 10000 1 0 19:48 23.10.2020
6406 Clear 11 1020 66 10000 2.1 110 19:29 23.10.2020
6407 Clear 13 1020 58 10000 1.5 190 18:49 23.10.2020
6408 Clear 14 1020 71 10000 1 0 18:30 23.10.2020
6409 Clear 17 1020 51 10000 0.68 158 17:47 23.10.2020
6410 Clear 20 1020 37 10000 0.5 0 17:22 23.10.2020
6411 Clear 20 1020 37 10000 0.56 127 16:55 23.10.2020
6412 Clear 20 1020 37 10000 1 0 16:35 23.10.2020
6413 Clear 20 1020 40 10000 1 0 15:58 23.10.2020
6414 Clear 20 1020 37 10000 0.5 0 15:40 23.10.2020
6415 Clear 21 1020 37 10000 0.5 0 15:19 23.10.2020
6416 Clear 20 1021 42 10000 1 0 14:47 23.10.2020
6417 Clear 19 1021 42 10000 1 0 14:29 23.10.2020
6418 Clear 19 1022 51 10000 1.5 300 13:42 23.10.2020
6419 Clear 16 1022 51 10000 1.5 300 13:23 23.10.2020
6420 Clear 15 1023 54 10000 1.5 250 12:50 23.10.2020
6421 Clear 13 1023 58 10000 1 0 12:30 23.10.2020
6422 Clear 12 1024 62 10000 0.5 0 11:50 23.10.2020
6423 Clear 11 1024 66 10000 0.5 0 11:27 23.10.2020
6424 Clear 10 1024 71 10000 1 0 10:54 23.10.2020
6425 Clear 8 1024 75 10000 1 0 10:26 23.10.2020
6426 Clear 6 1024 87 10000 1 0 09:57 23.10.2020
6427 Fog 4 1025 93 6000 1.5 130 09:39 23.10.2020
6428 Fog 4 1025 93 6000 1.5 130 09:20 23.10.2020
6429 Fog 3 1025 93 6000 1.5 40 08:50 23.10.2020
6430 Fog 1 1024 100 3000 1 0 08:24 23.10.2020
6431 Mist 1 1024 100 3500 1 0 07:26 23.10.2020
6432 Fog 0 1024 59 8000 0.71 255 06:48 23.10.2020
6433 Fog 1 1024 59 5000 1 0 06:19 23.10.2020
6434 Clear 3 1025 93 7000 0.85 264 03:37 23.10.2020
6435 Clear 3 1025 93 8000 1.5 140 02:26 23.10.2020
6436 Clear 4 1024 93 7000 0.5 100 00:49 23.10.2020
6437 Mist 4 1024 93 5000 0.51 197 00:21 23.10.2020
6438 Mist 6 1024 87 5000 0.51 197 23:37 22.10.2020
6439 Mist 6 1024 87 5000 0.43 197 23:18 22.10.2020
6440 Clear 6 1024 87 10000 1 0 22:42 22.10.2020
6441 Clear 6 1024 87 10000 1 0 22:21 22.10.2020
6442 Clear 7 1024 75 10000 1.5 150 21:47 22.10.2020
6443 Clear 8 1024 75 10000 1.5 140 21:28 22.10.2020
6444 Clear 9 1024 76 9000 2.6 160 20:58 22.10.2020
6445 Clear 9 1024 76 8000 2.1 160 20:40 22.10.2020
6446 Clouds 9 1024 76 8000 2.1 160 20:20 22.10.2020
6447 Clear 9 1023 81 10000 1 0 19:42 22.10.2020
6448 Clear 9 1023 81 10000 1 0 19:20 22.10.2020
6449 Clouds 13 1023 66 8000 2.1 170 18:43 22.10.2020
6450 Clouds 13 1023 66 8000 2.1 170 18:22 22.10.2020
6451 Clear 14 1023 58 10000 1 0 17:47 22.10.2020
6452 Clear 16 1023 45 10000 0.5 51 17:26 22.10.2020
6453 Clear 17 1023 45 10000 0.5 51 16:58 22.10.2020
6454 Clear 19 1023 42 10000 0.5 51 16:40 22.10.2020
6455 Clear 19 1023 42 10000 0.43 55 16:22 22.10.2020
6456 Clear 19 1023 40 10000 0.5 0 15:44 22.10.2020
6457 Clear 19 1023 42 10000 0.28 52 15:25 22.10.2020
6458 Clouds 19 1023 45 10000 1 0 14:49 22.10.2020
6459 Clouds 19 1023 45 10000 1 0 14:49 22.10.2020
6460 Clear 17 1023 48 10000 1 0 14:25 22.10.2020
6461 Clear 16 1024 51 10000 0.5 0 13:49 22.10.2020
6462 Clear 15 1024 54 10000 0.5 0 13:24 22.10.2020
6463 Clear 15 1024 54 10000 0.5 0 13:24 22.10.2020
6464 Clear 14 1025 58 10000 0.5 0 12:54 22.10.2020
6465 Clear 13 1025 66 10000 1 0 12:24 22.10.2020
6466 Clear 12 1025 71 10000 0.5 0 11:50 22.10.2020
6467 Clear 9 1026 81 10000 0.74 286 11:20 22.10.2020
6468 Clouds 7 1026 100 8000 1 0 10:51 22.10.2020
6469 Fog 5 1026 100 800 1 0 10:29 22.10.2020
6470 Fog 4 1026 100 400 1.5 120 09:54 22.10.2020
6471 Fog 7 1026 93 250 1.5 130 09:35 22.10.2020
6472 Fog 2 1026 100 200 1.5 50 08:53 22.10.2020
6473 Fog 5 1026 93 350 2.1 20 08:32 22.10.2020
6474 Fog 2 1025 100 5000 1 0 07:58 22.10.2020
6475 Fog 1 1025 100 3000 1 230 07:40 22.10.2020
6476 Fog 1 1025 100 350 0.6 269 06:58 22.10.2020
6477 Fog 1 1025 67 300 1.5 100 06:35 22.10.2020
6478 Fog 1 1025 100 250 1.5 100 05:42 22.10.2020
6479 Fog 1 1025 100 250 1.5 100 05:19 22.10.2020
6480 Clear 5 1026 93 8000 1 270 01:53 22.10.2020
6481 Clear 5 1025 93 6000 1 360 00:27 22.10.2020
6482 Clear 8 1025 81 10000 0.5 0 23:57 21.10.2020
6483 Clear 8 1025 75 10000 2.1 150 23:33 21.10.2020
6484 Clear 8 1026 81 10000 1.5 160 22:44 21.10.2020
6485 Clear 9 1026 81 10000 1.5 160 22:20 21.10.2020
6486 Clear 9 1026 81 10000 1.5 160 22:20 21.10.2020
6487 Clear 9 1025 76 10000 1.5 150 21:57 21.10.2020
6488 Clear 8 1025 81 10000 2.6 140 21:38 21.10.2020
6489 Clear 8 1025 81 10000 2.6 140 21:19 21.10.2020
6490 Clear 8 1025 81 10000 1 0 20:48 21.10.2020
6491 Clouds 9 1025 76 10000 1.5 140 20:19 21.10.2020
6492 Clouds 10 1025 76 10000 2.6 110 19:56 21.10.2020
6493 Clouds 11 1025 71 10000 1 0 19:36 21.10.2020
6494 Clouds 11 1025 66 10000 1 0 19:18 21.10.2020
6495 Clouds 12 1025 66 10000 1 0 18:45 21.10.2020
6496 Clouds 13 1024 58 10000 1.5 130 18:21 21.10.2020
6497 Clouds 16 1024 48 10000 2.1 130 17:42 21.10.2020
6498 Clouds 15 1024 48 10000 2.1 130 17:19 21.10.2020
6499 Clouds 17 1025 45 10000 2.6 90 16:41 21.10.2020
6500 Clouds 17 1025 45 10000 3.1 90 16:21 21.10.2020
6501 Clouds 17 1025 45 10000 3.6 110 15:57 21.10.2020
6502 Clouds 17 1025 45 10000 3.6 110 15:38 21.10.2020
6503 Clouds 17 1025 48 10000 4.6 110 15:19 21.10.2020
6504 Clouds 17 1025 48 10000 4.1 100 14:43 21.10.2020
6505 Clouds 17 1025 48 10000 4.1 100 14:25 21.10.2020
6506 Clouds 16 1026 51 10000 5.7 110 13:42 21.10.2020
6507 Clouds 15 1026 54 10000 3.6 140 13:24 21.10.2020
6508 Clouds 15 1027 58 10000 4.6 90 12:47 21.10.2020
6509 Clear 12 1027 66 10000 1.5 80 12:24 21.10.2020
6510 Clear 14 1027 66 10000 1.5 80 11:59 21.10.2020
6511 Clear 14 1028 66 10000 0.5 0 11:40 21.10.2020
6512 Clear 9 1028 76 10000 1 0 11:19 21.10.2020
6513 Clear 8 1028 75 10000 0.5 0 10:41 21.10.2020
6514 Clear 7 1028 75 10000 1 0 10:21 21.10.2020
6515 Clear 5 1029 93 8000 1.12 106 09:51 21.10.2020
6516 Clear 6 1029 93 8000 1.13 102 09:28 21.10.2020
6517 Fog 4 1028 71 300 1 0 08:42 21.10.2020
6518 Fog 5 1028 93 8000 1.5 70 08:24 21.10.2020
6519 Fog 2 1028 93 8000 1.5 70 07:57 21.10.2020
6520 Fog 3 1028 82 7000 1.5 70 07:29 21.10.2020
6521 Clear 2 1028 93 10000 0.85 86 06:48 21.10.2020
6522 Clear 2 1028 93 10000 1.03 94 06:26 21.10.2020
6523 Clear 2 1028 100 10000 0.99 101 04:45 21.10.2020
6524 Clear 3 1028 86 10000 1.5 130 00:50 21.10.2020
6525 Clear 4 1028 80 10000 2.1 100 23:37 20.10.2020
6526 Clear 7 1028 80 10000 2.6 120 22:49 20.10.2020
6527 Clear 7 1028 75 10000 2.6 140 22:25 20.10.2020
6528 Clear 7 1028 75 10000 2.6 150 21:48 20.10.2020
6529 Clear 7 1028 81 10000 2.6 150 21:20 20.10.2020
6530 Clear 7 1027 81 10000 3.1 130 20:44 20.10.2020
6531 Clear 8 1027 75 10000 2.6 130 20:25 20.10.2020
6532 Clear 8 1027 75 10000 2.6 130 19:57 20.10.2020
6533 Clear 9 1027 70 10000 3.6 140 19:39 20.10.2020
6534 Clear 10 1027 66 10000 2.6 110 19:20 20.10.2020
6535 Clear 11 1026 62 10000 2.1 100 18:45 20.10.2020
6536 Clear 11 1026 62 10000 2.1 100 18:26 20.10.2020
6537 Clear 15 1026 47 10000 3.1 40 17:42 20.10.2020
6538 Clear 15 1026 41 10000 3.6 100 17:23 20.10.2020
6539 Clear 15 1026 50 10000 3.1 100 16:47 20.10.2020
6540 Clear 15 1026 42 10000 3.1 100 16:26 20.10.2020
6541 Clear 16 1026 36 10000 3.6 130 15:50 20.10.2020
6542 Clear 15 1026 41 10000 2.1 110 15:31 20.10.2020
6543 Clear 15 1026 41 10000 2.1 110 14:55 20.10.2020
6544 Clear 15 1026 41 10000 2.1 80 14:37 20.10.2020
6545 Clear 15 1026 41 10000 2.6 80 14:19 20.10.2020
6546 Clear 14 1027 44 10000 2.1 80 13:42 20.10.2020
6547 Clear 13 1027 50 10000 2.1 60 13:21 20.10.2020
6548 Clear 12 1027 58 10000 2.1 70 12:54 20.10.2020
6549 Clear 12 1027 58 10000 2.1 70 12:31 20.10.2020
6550 Clear 10 1027 66 10000 1 0 11:49 20.10.2020
6551 Clear 10 1027 66 10000 1 0 11:30 20.10.2020
6552 Clear 6 1027 81 10000 1.5 130 10:58 20.10.2020
6553 Clear 6 1027 81 10000 1.5 130 10:28 20.10.2020
6554 Clouds 4 1027 86 8000 1 0 09:50 20.10.2020
6555 Clouds 3 1027 86 8000 1 0 09:20 20.10.2020
6556 Clouds 3 1027 86 8000 1 0 08:53 20.10.2020
6557 Clouds 2 1027 66 6000 1 0 08:27 20.10.2020
6558 Fog 0 1027 66 8000 1 0 07:49 20.10.2020
6559 Mist 0 1027 72 5000 1.5 330 07:24 20.10.2020
6560 Clear 0 1027 70 8000 0.92 80 06:24 20.10.2020
6561 Clear 0 1026 69 8000 1.5 360 04:58 20.10.2020
6562 Clear 2 1026 93 10000 2.1 130 02:33 20.10.2020
6563 Clear 2 1026 65 10000 1.5 120 01:43 20.10.2020
6564 Clear 3 1027 64 10000 0.5 0 00:56 20.10.2020
6565 Clear 3 1027 64 10000 2.1 120 00:37 20.10.2020
6566 Clear 4 1026 80 10000 1.5 170 00:18 20.10.2020
6567 Clear 4 1026 80 10000 2.1 170 23:29 19.10.2020
6568 Clear 5 1026 75 10000 1.5 200 22:59 19.10.2020
6569 Clear 5 1026 75 10000 1 0 22:30 19.10.2020
6570 Clear 5 1026 75 10000 1.5 110 21:58 19.10.2020
6571 Clear 5 1026 75 10000 1.5 150 21:39 19.10.2020
6572 Clear 7 1026 65 10000 2.1 200 21:19 19.10.2020
6573 Clear 7 1025 65 10000 2.1 210 20:44 19.10.2020
6574 Clear 7 1025 65 10000 2.1 210 20:26 19.10.2020
6575 Clear 9 1025 61 10000 2.1 80 19:46 19.10.2020
6576 Clear 9 1025 61 10000 1.53 56 19:20 19.10.2020
6577 Clear 11 1025 53 10000 2.1 330 18:51 19.10.2020
6578 Clear 11 1025 53 10000 2.1 330 18:31 19.10.2020
6579 Clear 13 1024 43 10000 1 0 17:49 19.10.2020
6580 Clear 13 1024 43 10000 1 0 17:29 19.10.2020
6581 Clear 14 1024 35 10000 0.5 0 16:55 19.10.2020
6582 Clear 13 1025 37 10000 2.6 260 16:30 19.10.2020
6583 Clear 13 1024 40 10000 2.1 270 15:59 19.10.2020
6584 Clear 14 1026 38 10000 1.23 340 15:37 19.10.2020
6585 Clear 14 1025 35 10000 1.48 322 15:19 19.10.2020
6586 Clear 14 1025 35 10000 1.48 322 14:43 19.10.2020
6587 Clear 14 1025 35 10000 1.63 310 14:23 19.10.2020
6588 Clear 14 1026 35 10000 1.63 310 13:46 19.10.2020
6589 Clear 14 1026 35 10000 1.28 313 13:28 19.10.2020
6590 Clear 14 1026 35 10000 1.28 313 12:46 19.10.2020
6591 Clear 14 1024 41 10000 2.68 327 12:26 19.10.2020
6592 Clear 13 1024 42 10000 3.13 352 11:51 19.10.2020
6593 Clear 9 1026 66 10000 4.1 290 11:24 19.10.2020
6594 Clear 9 1026 66 10000 4.1 290 10:46 19.10.2020
6595 Clear 9 1026 66 10000 4.1 290 10:28 19.10.2020
6596 Clear 7 1026 75 10000 1.5 330 09:58 19.10.2020
6597 Clear 5 1026 86 10000 1.5 320 09:39 19.10.2020
6598 Clear 5 1026 86 10000 1.5 320 09:18 19.10.2020
6599 Clear 5 1026 86 10000 2.6 310 08:45 19.10.2020
6600 Clear 4 1025 80 10000 1.5 310 08:21 19.10.2020
6601 Clear 2 1025 93 10000 1.5 340 07:21 19.10.2020
6602 Clear 2 1025 93 10000 3.1 300 06:45 19.10.2020
6603 Clear 2 1024 93 10000 1.32 301 05:36 19.10.2020
6604 Clear 3 1024 86 10000 2.1 280 03:46 19.10.2020
6605 Clear 6 1023 75 10000 3.1 280 01:43 19.10.2020
6606 Clear 6 1023 75 10000 3.6 280 00:42 19.10.2020
6607 Clear 7 1023 75 10000 3.6 270 23:57 18.10.2020
6608 Clear 7 1023 75 10000 3.6 280 23:38 18.10.2020
6609 Clear 7 1023 75 10000 3.6 280 23:19 18.10.2020
6610 Clear 7 1023 75 10000 3.6 280 22:44 18.10.2020
6611 Clear 8 1023 70 10000 3.1 290 22:19 18.10.2020
6612 Clear 9 1022 66 10000 3.1 300 21:43 18.10.2020
6613 Clear 9 1022 66 10000 3.1 300 21:21 18.10.2020
6614 Clouds 9 1022 66 10000 2.6 290 20:45 18.10.2020
6615 Clouds 10 1022 61 10000 2.1 290 20:24 18.10.2020
6616 Clouds 10 1021 61 10000 2.1 310 19:50 18.10.2020
6617 Clouds 10 1021 61 10000 1.5 330 19:27 18.10.2020
6618 Clouds 12 1021 58 10000 2.1 310 18:51 18.10.2020
6619 Clouds 12 1020 58 10000 2.1 320 18:30 18.10.2020
6620 Clouds 12 1020 58 10000 1.5 320 17:59 18.10.2020
6621 Clouds 13 1019 54 10000 2.6 10 17:41 18.10.2020
6622 Clouds 13 1019 54 10000 2.6 10 17:21 18.10.2020
6623 Clouds 14 1019 41 10000 6.2 290 16:42 18.10.2020
6624 Clouds 14 1019 41 10000 6.2 290 16:23 18.10.2020
6625 Clouds 15 1019 38 10000 5.7 290 15:43 18.10.2020
6626 Clouds 15 1019 38 10000 5.7 290 15:19 18.10.2020
6627 Clouds 14 1019 41 10000 5.7 270 14:57 18.10.2020
6628 Clear 14 1019 44 10000 5.7 280 14:31 18.10.2020
6629 Clouds 14 1019 47 10000 4.1 290 13:59 18.10.2020
6630 Clouds 13 1019 50 10000 5.1 260 13:40 18.10.2020
6631 Clouds 13 1019 50 10000 5.1 260 13:22 18.10.2020
6632 Clouds 13 1020 50 10000 4.1 270 12:43 18.10.2020
6633 Clouds 13 1020 50 10000 4.1 270 12:22 18.10.2020
6634 Clouds 12 1020 58 10000 5.1 270 11:42 18.10.2020
6635 Clouds 12 1020 58 10000 5.1 270 11:23 18.10.2020
6636 Clouds 11 1020 57 10000 4.6 300 10:45 18.10.2020
6637 Clouds 10 1020 61 10000 4.6 280 10:21 18.10.2020
6638 Clouds 10 1020 66 10000 4.1 290 09:58 18.10.2020
6639 Clouds 9 1020 70 10000 3.6 290 09:39 18.10.2020
6640 Clouds 8 1020 70 10000 2.6 290 09:19 18.10.2020
6641 Clouds 8 1019 70 10000 1.5 310 08:43 18.10.2020
6642 Clouds 8 1019 70 10000 1.5 310 08:25 18.10.2020
6643 Clouds 8 1019 75 10000 1.5 330 07:48 18.10.2020
6644 Clouds 9 1018 76 10000 3.1 280 05:35 18.10.2020
6645 Clouds 9 1018 87 10000 2.1 320 03:33 18.10.2020
6646 Clouds 10 1017 81 10000 2.1 280 02:19 18.10.2020
6647 Clouds 10 1017 87 10000 3.6 280 01:23 18.10.2020
6648 Clouds 10 1017 87 10000 3.1 290 00:35 18.10.2020
6649 Clouds 10 1017 87 10000 3.6 280 23:57 17.10.2020
6650 Clouds 11 1017 87 10000 3.1 270 23:38 17.10.2020
6651 Clouds 11 1017 87 10000 3.1 270 23:20 17.10.2020
6652 Clouds 10 1016 87 10000 1.5 280 22:54 17.10.2020
6653 Clouds 10 1016 87 10000 1.5 250 22:20 17.10.2020
6654 Clouds 9 1016 93 10000 0.93 34 21:59 17.10.2020
6655 Clear 9 1016 87 10000 2.1 40 21:40 17.10.2020
6656 Clear 9 1016 87 10000 2.1 40 21:20 17.10.2020
6657 Clouds 10 1015 76 10000 1.5 160 20:43 17.10.2020
6658 Clouds 10 1015 76 10000 1.5 160 20:19 17.10.2020
6659 Clear 11 1015 71 10000 1.5 290 19:43 17.10.2020
6660 Clear 11 1015 71 10000 1.5 290 19:20 17.10.2020
6661 Clouds 14 1014 58 10000 2.6 290 18:45 17.10.2020
6662 Clouds 14 1014 58 10000 2.6 290 18:25 17.10.2020
6663 Clouds 15 1014 54 10000 3.1 290 17:50 17.10.2020
6664 Clouds 16 1013 51 10000 4.1 290 17:23 17.10.2020
6665 Clouds 16 1013 51 10000 4.6 290 16:50 17.10.2020
6666 Clouds 17 1013 51 10000 4.1 300 16:24 17.10.2020
6667 Clouds 17 1013 48 10000 3.6 300 15:58 17.10.2020
6668 Clouds 17 1013 51 10000 3.1 320 15:40 17.10.2020
6669 Clouds 17 1013 51 10000 3.1 320 15:21 17.10.2020
6670 Clouds 17 1013 51 10000 3.6 310 14:53 17.10.2020
6671 Clouds 18 1013 51 10000 3.6 320 14:29 17.10.2020
6672 Clouds 18 1013 55 10000 4.1 300 13:58 17.10.2020
6673 Clouds 18 1013 55 10000 4.1 300 13:39 17.10.2020
6674 Clouds 17 1013 55 10000 4.1 300 13:20 17.10.2020
6675 Clouds 17 1014 58 10000 3.1 280 12:41 17.10.2020
6676 Clouds 15 1014 58 10000 3.1 280 12:20 17.10.2020
6677 Clouds 15 1014 62 10000 3.1 300 11:55 17.10.2020
6678 Clouds 14 1014 67 10000 3.1 310 11:29 17.10.2020
6679 Clouds 14 1014 62 10000 2.6 310 10:44 17.10.2020
6680 Clouds 13 1014 66 10000 3.6 320 10:25 17.10.2020
6681 Clear 11 1014 87 10000 2.6 360 09:41 17.10.2020
6682 Clear 11 1014 87 10000 2.6 360 09:22 17.10.2020
6683 Clear 9 1014 93 10000 3.1 20 08:42 17.10.2020
6684 Clouds 9 1013 87 10000 2.1 300 08:18 17.10.2020
6685 Clouds 8 1013 100 10000 1 0 07:43 17.10.2020
6686 Clouds 9 1013 100 8000 1.5 300 06:44 17.10.2020
6687 Clouds 11 1012 100 6000 1.5 330 03:58 17.10.2020
6688 Clouds 12 1012 93 10000 0.5 0 02:29 17.10.2020
6689 Clouds 12 1012 93 10000 3.6 160 00:55 17.10.2020
6690 Clouds 12 1012 100 10000 3.6 170 00:33 17.10.2020
6691 Clouds 14 1012 93 7000 1 0 23:38 16.10.2020
6692 Clouds 14 1012 93 7000 1 0 23:19 16.10.2020
6693 Rain 13 1012 93 5000 1.5 190 22:42 16.10.2020
6694 Rain 13 1012 93 5000 1.5 190 22:22 16.10.2020
6695 Rain 13 1012 93 8000 1.5 230 21:47 16.10.2020
6696 Clouds 13 1012 93 7000 2.6 260 21:25 16.10.2020
6697 Rain 13 1012 87 10000 0.5 0 20:46 16.10.2020
6698 Rain 13 1012 87 10000 0.5 0 20:46 16.10.2020
6699 Rain 13 1012 87 10000 0.5 0 20:46 16.10.2020
6700 Rain 13 1012 87 10000 0.5 0 20:46 16.10.2020
6701 Clouds 13